<?xml version="1.0" encoding="utf-8"?>
<gpx xmlns:xsd="http://www.w3.org/2001/XMLSchema" xmlns:xsi="http://www.w3.org/2001/XMLSchema-instance" creator="eT4 META" version="1.1" xsi:schemaLocation="http://www.topografix.com/GPX/1/1 http://www.topografix.com/GPX/1/1/gpx.xsd" xmlns="http://www.topografix.com/GPX/1/1">
  <trk>
    <name>Elmkreisel - Die schönsten Trails</name>
    <trkseg>
      <trkpt lat="52.13978" lon="10.96539">
        <ele>138.25</ele>
        <time>2026-08-31T00:00:00.0000000+00:00</time>
      </trkpt>
      <trkpt lat="52.13979" lon="10.96539">
        <ele>138.25</ele>
        <time>2026-08-31T00:00:00.3800000+00:00</time>
      </trkpt>
      <trkpt lat="52.13981" lon="10.96518">
        <ele>139.22</ele>
        <time>2026-08-31T00:00:05.3450000+00:00</time>
      </trkpt>
      <trkpt lat="52.13983" lon="10.96512">
        <ele>139.51</ele>
        <time>2026-08-31T00:00:06.9400000+00:00</time>
      </trkpt>
      <trkpt lat="52.1399" lon="10.96512">
        <ele>139.6</ele>
        <time>2026-08-31T00:00:09.6050000+00:00</time>
      </trkpt>
      <trkpt lat="52.13996" lon="10.96518">
        <ele>139.44</ele>
        <time>2026-08-31T00:00:12.2850000+00:00</time>
      </trkpt>
      <trkpt lat="52.14014" lon="10.96528">
        <ele>139.32</ele>
        <time>2026-08-31T00:00:19.5240000+00:00</time>
      </trkpt>
      <trkpt lat="52.14034" lon="10.96533">
        <ele>139.45</ele>
        <time>2026-08-31T00:00:27.2260000+00:00</time>
      </trkpt>
      <trkpt lat="52.14055" lon="10.96514">
        <ele>140.96</ele>
        <time>2026-08-31T00:00:36.3700000+00:00</time>
      </trkpt>
      <trkpt lat="52.14055" lon="10.96486">
        <ele>142.21</ele>
        <time>2026-08-31T00:00:42.9120000+00:00</time>
      </trkpt>
      <trkpt lat="52.14057" lon="10.96468">
        <ele>142.91</ele>
        <time>2026-08-31T00:00:47.1850000+00:00</time>
      </trkpt>
      <trkpt lat="52.14066" lon="10.96414">
        <ele>144.94</ele>
        <time>2026-08-31T00:01:00.2580000+00:00</time>
      </trkpt>
      <trkpt lat="52.14073" lon="10.96412">
        <ele>145.06</ele>
        <time>2026-08-31T00:01:02.9630000+00:00</time>
      </trkpt>
      <trkpt lat="52.14106" lon="10.96396">
        <ele>144.93</ele>
        <time>2026-08-31T00:01:16.0700000+00:00</time>
      </trkpt>
      <trkpt lat="52.14135" lon="10.96386">
        <ele>145.11</ele>
        <time>2026-08-31T00:01:27.3530000+00:00</time>
      </trkpt>
      <trkpt lat="52.14167" lon="10.96397">
        <ele>144.72</ele>
        <time>2026-08-31T00:01:39.8030000+00:00</time>
      </trkpt>
      <trkpt lat="52.14208" lon="10.96376">
        <ele>146.87</ele>
        <time>2026-08-31T00:01:56.1630000+00:00</time>
      </trkpt>
      <trkpt lat="52.14247" lon="10.96355">
        <ele>148.14</ele>
        <time>2026-08-31T00:02:11.7980000+00:00</time>
      </trkpt>
      <trkpt lat="52.14259" lon="10.96308">
        <ele>150.03</ele>
        <time>2026-08-31T00:02:23.6900000+00:00</time>
      </trkpt>
      <trkpt lat="52.14261" lon="10.96271">
        <ele>151.95</ele>
        <time>2026-08-31T00:02:32.3680000+00:00</time>
      </trkpt>
      <trkpt lat="52.14252" lon="10.96238">
        <ele>153.97</ele>
        <time>2026-08-31T00:02:40.8040000+00:00</time>
      </trkpt>
      <trkpt lat="52.1425" lon="10.96188">
        <ele>156.11</ele>
        <time>2026-08-31T00:02:52.5090000+00:00</time>
      </trkpt>
      <trkpt lat="52.1425" lon="10.96183">
        <ele>156.32</ele>
        <time>2026-08-31T00:02:53.6780000+00:00</time>
      </trkpt>
      <trkpt lat="52.14248" lon="10.96134">
        <ele>156.93</ele>
        <time>2026-08-31T00:03:05.1500000+00:00</time>
      </trkpt>
      <trkpt lat="52.14244" lon="10.9607">
        <ele>157.4</ele>
        <time>2026-08-31T00:03:20.1780000+00:00</time>
      </trkpt>
      <trkpt lat="52.1424" lon="10.95989">
        <ele>159.69</ele>
        <time>2026-08-31T00:03:39.1620000+00:00</time>
      </trkpt>
      <trkpt lat="52.14236" lon="10.95934">
        <ele>162.33</ele>
        <time>2026-08-31T00:03:52.1010000+00:00</time>
      </trkpt>
      <trkpt lat="52.14234" lon="10.95908">
        <ele>163.58</ele>
        <time>2026-08-31T00:03:58.2230000+00:00</time>
      </trkpt>
      <trkpt lat="52.14233" lon="10.95861">
        <ele>165.84</ele>
        <time>2026-08-31T00:04:09.2090000+00:00</time>
      </trkpt>
      <trkpt lat="52.14232" lon="10.95834">
        <ele>167.17</ele>
        <time>2026-08-31T00:04:15.5280000+00:00</time>
      </trkpt>
      <trkpt lat="52.14242" lon="10.95826">
        <ele>167.64</ele>
        <time>2026-08-31T00:04:19.7690000+00:00</time>
      </trkpt>
      <trkpt lat="52.14299" lon="10.95821">
        <ele>167.81</ele>
        <time>2026-08-31T00:04:41.4980000+00:00</time>
      </trkpt>
      <trkpt lat="52.14359" lon="10.95812">
        <ele>167.15</ele>
        <time>2026-08-31T00:05:04.4350000+00:00</time>
      </trkpt>
      <trkpt lat="52.14366" lon="10.95755">
        <ele>169.33</ele>
        <time>2026-08-31T00:05:18.0140000+00:00</time>
      </trkpt>
      <trkpt lat="52.14378" lon="10.95702">
        <ele>170.82</ele>
        <time>2026-08-31T00:05:31.2110000+00:00</time>
      </trkpt>
      <trkpt lat="52.14392" lon="10.95664">
        <ele>171.73</ele>
        <time>2026-08-31T00:05:41.5650000+00:00</time>
      </trkpt>
      <trkpt lat="52.14392" lon="10.9565">
        <ele>172.36</ele>
        <time>2026-08-31T00:05:44.8360000+00:00</time>
      </trkpt>
      <trkpt lat="52.14398" lon="10.95579">
        <ele>175.44</ele>
        <time>2026-08-31T00:06:01.5780000+00:00</time>
      </trkpt>
      <trkpt lat="52.14456" lon="10.9557">
        <ele>173.84</ele>
        <time>2026-08-31T00:06:23.7560000+00:00</time>
      </trkpt>
      <trkpt lat="52.14539" lon="10.95554">
        <ele>173.43</ele>
        <time>2026-08-31T00:06:55.5720000+00:00</time>
      </trkpt>
      <trkpt lat="52.14549" lon="10.95535">
        <ele>174.33</ele>
        <time>2026-08-31T00:07:01.4190000+00:00</time>
      </trkpt>
      <trkpt lat="52.1456" lon="10.95448">
        <ele>178.05</ele>
        <time>2026-08-31T00:07:22.1690000+00:00</time>
      </trkpt>
      <trkpt lat="52.14569" lon="10.95383">
        <ele>179.49</ele>
        <time>2026-08-31T00:07:37.7340000+00:00</time>
      </trkpt>
      <trkpt lat="52.14569" lon="10.95334">
        <ele>180.17</ele>
        <time>2026-08-31T00:07:49.1810000+00:00</time>
      </trkpt>
      <trkpt lat="52.14566" lon="10.95283">
        <ele>182.12</ele>
        <time>2026-08-31T00:08:01.1490000+00:00</time>
      </trkpt>
      <trkpt lat="52.14562" lon="10.95216">
        <ele>184.29</ele>
        <time>2026-08-31T00:08:16.8740000+00:00</time>
      </trkpt>
      <trkpt lat="52.1456" lon="10.95158">
        <ele>186.15</ele>
        <time>2026-08-31T00:08:30.4440000+00:00</time>
      </trkpt>
      <trkpt lat="52.14558" lon="10.95107">
        <ele>188.69</ele>
        <time>2026-08-31T00:08:42.3810000+00:00</time>
      </trkpt>
      <trkpt lat="52.14558" lon="10.95091">
        <ele>189.46</ele>
        <time>2026-08-31T00:08:46.1190000+00:00</time>
      </trkpt>
      <trkpt lat="52.14581" lon="10.95074">
        <ele>190</ele>
        <time>2026-08-31T00:08:55.7330000+00:00</time>
      </trkpt>
      <trkpt lat="52.14608" lon="10.9506">
        <ele>190.31</ele>
        <time>2026-08-31T00:09:06.5180000+00:00</time>
      </trkpt>
      <trkpt lat="52.1465" lon="10.95052">
        <ele>189.3</ele>
        <time>2026-08-31T00:09:22.6150000+00:00</time>
      </trkpt>
      <trkpt lat="52.14671" lon="10.95049">
        <ele>189.12</ele>
        <time>2026-08-31T00:09:30.6400000+00:00</time>
      </trkpt>
      <trkpt lat="52.14724" lon="10.95026">
        <ele>189.46</ele>
        <time>2026-08-31T00:09:51.5180000+00:00</time>
      </trkpt>
      <trkpt lat="52.14734" lon="10.94998">
        <ele>190.67</ele>
        <time>2026-08-31T00:09:59.0850000+00:00</time>
      </trkpt>
      <trkpt lat="52.14738" lon="10.94986">
        <ele>191.73</ele>
        <time>2026-08-31T00:10:02.2750000+00:00</time>
      </trkpt>
      <trkpt lat="52.14754" lon="10.94945">
        <ele>194.96</ele>
        <time>2026-08-31T00:10:13.6250000+00:00</time>
      </trkpt>
      <trkpt lat="52.1476" lon="10.94926">
        <ele>196.46</ele>
        <time>2026-08-31T00:10:18.6160000+00:00</time>
      </trkpt>
      <trkpt lat="52.14769" lon="10.94918">
        <ele>196.8</ele>
        <time>2026-08-31T00:10:22.5180000+00:00</time>
      </trkpt>
      <trkpt lat="52.14776" lon="10.94903">
        <ele>198.08</ele>
        <time>2026-08-31T00:10:26.9200000+00:00</time>
      </trkpt>
      <trkpt lat="52.14788" lon="10.94899">
        <ele>198.01</ele>
        <time>2026-08-31T00:10:31.5830000+00:00</time>
      </trkpt>
      <trkpt lat="52.14792" lon="10.94899">
        <ele>197.84</ele>
        <time>2026-08-31T00:10:33.1060000+00:00</time>
      </trkpt>
      <trkpt lat="52.14815" lon="10.94898">
        <ele>197</ele>
        <time>2026-08-31T00:10:41.8640000+00:00</time>
      </trkpt>
      <trkpt lat="52.14832" lon="10.94903">
        <ele>195.91</ele>
        <time>2026-08-31T00:10:48.4400000+00:00</time>
      </trkpt>
      <trkpt lat="52.14846" lon="10.94906">
        <ele>195.24</ele>
        <time>2026-08-31T00:10:53.8150000+00:00</time>
      </trkpt>
      <trkpt lat="52.14862" lon="10.94913">
        <ele>194.01</ele>
        <time>2026-08-31T00:11:00.1210000+00:00</time>
      </trkpt>
      <trkpt lat="52.14868" lon="10.94918">
        <ele>193.24</ele>
        <time>2026-08-31T00:11:02.6860000+00:00</time>
      </trkpt>
      <trkpt lat="52.1489" lon="10.94932">
        <ele>191.63</ele>
        <time>2026-08-31T00:11:11.6770000+00:00</time>
      </trkpt>
      <trkpt lat="52.14904" lon="10.94951">
        <ele>190.2</ele>
        <time>2026-08-31T00:11:18.6120000+00:00</time>
      </trkpt>
      <trkpt lat="52.14907" lon="10.94954">
        <ele>190.05</ele>
        <time>2026-08-31T00:11:19.9520000+00:00</time>
      </trkpt>
      <trkpt lat="52.14918" lon="10.94946">
        <ele>190.66</ele>
        <time>2026-08-31T00:11:24.5370000+00:00</time>
      </trkpt>
      <trkpt lat="52.14931" lon="10.94933">
        <ele>191.59</ele>
        <time>2026-08-31T00:11:30.3430000+00:00</time>
      </trkpt>
      <trkpt lat="52.14944" lon="10.94923">
        <ele>192.35</ele>
        <time>2026-08-31T00:11:35.8150000+00:00</time>
      </trkpt>
      <trkpt lat="52.1497" lon="10.94909">
        <ele>194.36</ele>
        <time>2026-08-31T00:11:46.2390000+00:00</time>
      </trkpt>
      <trkpt lat="52.15004" lon="10.94887">
        <ele>198.07</ele>
        <time>2026-08-31T00:12:00.1640000+00:00</time>
      </trkpt>
      <trkpt lat="52.15036" lon="10.94876">
        <ele>200.68</ele>
        <time>2026-08-31T00:12:12.6130000+00:00</time>
      </trkpt>
      <trkpt lat="52.15048" lon="10.94874">
        <ele>201.38</ele>
        <time>2026-08-31T00:12:17.2050000+00:00</time>
      </trkpt>
      <trkpt lat="52.15063" lon="10.94879">
        <ele>201.26</ele>
        <time>2026-08-31T00:12:23.0330000+00:00</time>
      </trkpt>
      <trkpt lat="52.15081" lon="10.94886">
        <ele>201.91</ele>
        <time>2026-08-31T00:12:30.0780000+00:00</time>
      </trkpt>
      <trkpt lat="52.15108" lon="10.94917">
        <ele>201.41</ele>
        <time>2026-08-31T00:12:42.6500000+00:00</time>
      </trkpt>
      <trkpt lat="52.15113" lon="10.94921">
        <ele>201.57</ele>
        <time>2026-08-31T00:12:44.7700000+00:00</time>
      </trkpt>
      <trkpt lat="52.1513" lon="10.94951">
        <ele>200.16</ele>
        <time>2026-08-31T00:12:54.3080000+00:00</time>
      </trkpt>
      <trkpt lat="52.15142" lon="10.9499">
        <ele>196.64</ele>
        <time>2026-08-31T00:13:04.4990000+00:00</time>
      </trkpt>
      <trkpt lat="52.15144" lon="10.95">
        <ele>195.57</ele>
        <time>2026-08-31T00:13:06.9550000+00:00</time>
      </trkpt>
      <trkpt lat="52.15171" lon="10.95056">
        <ele>191.71</ele>
        <time>2026-08-31T00:13:23.5900000+00:00</time>
      </trkpt>
      <trkpt lat="52.15181" lon="10.95107">
        <ele>184.93</ele>
        <time>2026-08-31T00:13:36.0950000+00:00</time>
      </trkpt>
      <trkpt lat="52.15192" lon="10.95134">
        <ele>180.34</ele>
        <time>2026-08-31T00:13:43.6650000+00:00</time>
      </trkpt>
      <trkpt lat="52.15224" lon="10.95164">
        <ele>174.58</ele>
        <time>2026-08-31T00:13:57.7180000+00:00</time>
      </trkpt>
      <trkpt lat="52.15255" lon="10.95175">
        <ele>172.97</ele>
        <time>2026-08-31T00:14:09.7950000+00:00</time>
      </trkpt>
      <trkpt lat="52.15311" lon="10.95196">
        <ele>170.93</ele>
        <time>2026-08-31T00:14:31.6690000+00:00</time>
      </trkpt>
      <trkpt lat="52.15318" lon="10.95197">
        <ele>170.89</ele>
        <time>2026-08-31T00:14:34.3440000+00:00</time>
      </trkpt>
      <trkpt lat="52.15345" lon="10.95196">
        <ele>169.94</ele>
        <time>2026-08-31T00:14:44.6250000+00:00</time>
      </trkpt>
      <trkpt lat="52.15371" lon="10.95184">
        <ele>170.7</ele>
        <time>2026-08-31T00:14:54.9110000+00:00</time>
      </trkpt>
      <trkpt lat="52.15381" lon="10.95177">
        <ele>171.32</ele>
        <time>2026-08-31T00:14:59.0540000+00:00</time>
      </trkpt>
      <trkpt lat="52.15396" lon="10.95168">
        <ele>171.91</ele>
        <time>2026-08-31T00:15:05.1380000+00:00</time>
      </trkpt>
      <trkpt lat="52.1542" lon="10.95142">
        <ele>172.5</ele>
        <time>2026-08-31T00:15:16.1080000+00:00</time>
      </trkpt>
      <trkpt lat="52.15456" lon="10.95107">
        <ele>171.07</ele>
        <time>2026-08-31T00:15:32.0650000+00:00</time>
      </trkpt>
      <trkpt lat="52.15497" lon="10.95075">
        <ele>170.37</ele>
        <time>2026-08-31T00:15:49.3690000+00:00</time>
      </trkpt>
      <trkpt lat="52.155" lon="10.95074">
        <ele>170.43</ele>
        <time>2026-08-31T00:15:50.5350000+00:00</time>
      </trkpt>
      <trkpt lat="52.15519" lon="10.95079">
        <ele>168.07</ele>
        <time>2026-08-31T00:15:57.8610000+00:00</time>
      </trkpt>
      <trkpt lat="52.15527" lon="10.95074">
        <ele>168.75</ele>
        <time>2026-08-31T00:16:01.1230000+00:00</time>
      </trkpt>
      <trkpt lat="52.15557" lon="10.95041">
        <ele>174.49</ele>
        <time>2026-08-31T00:16:14.9000000+00:00</time>
      </trkpt>
      <trkpt lat="52.15562" lon="10.95037">
        <ele>175.07</ele>
        <time>2026-08-31T00:16:17.0200000+00:00</time>
      </trkpt>
      <trkpt lat="52.15572" lon="10.95022">
        <ele>177.73</ele>
        <time>2026-08-31T00:16:22.1930000+00:00</time>
      </trkpt>
      <trkpt lat="52.15601" lon="10.94987">
        <ele>180.03</ele>
        <time>2026-08-31T00:16:35.9290000+00:00</time>
      </trkpt>
      <trkpt lat="52.15622" lon="10.9496">
        <ele>180.94</ele>
        <time>2026-08-31T00:16:46.1110000+00:00</time>
      </trkpt>
      <trkpt lat="52.15652" lon="10.94937">
        <ele>180.85</ele>
        <time>2026-08-31T00:16:58.7310000+00:00</time>
      </trkpt>
      <trkpt lat="52.15689" lon="10.94879">
        <ele>177.09</ele>
        <time>2026-08-31T00:17:18.2720000+00:00</time>
      </trkpt>
      <trkpt lat="52.15697" lon="10.94861">
        <ele>176.15</ele>
        <time>2026-08-31T00:17:23.4630000+00:00</time>
      </trkpt>
      <trkpt lat="52.15701" lon="10.94848">
        <ele>175.88</ele>
        <time>2026-08-31T00:17:26.8590000+00:00</time>
      </trkpt>
      <trkpt lat="52.15705" lon="10.94807">
        <ele>178.31</ele>
        <time>2026-08-31T00:17:36.5550000+00:00</time>
      </trkpt>
      <trkpt lat="52.15705" lon="10.9479">
        <ele>179.92</ele>
        <time>2026-08-31T00:17:40.5250000+00:00</time>
      </trkpt>
      <trkpt lat="52.15703" lon="10.94779">
        <ele>181.43</ele>
        <time>2026-08-31T00:17:43.2040000+00:00</time>
      </trkpt>
      <trkpt lat="52.15702" lon="10.94758">
        <ele>183.62</ele>
        <time>2026-08-31T00:17:48.1230000+00:00</time>
      </trkpt>
      <trkpt lat="52.15698" lon="10.94728">
        <ele>186.88</ele>
        <time>2026-08-31T00:17:55.2930000+00:00</time>
      </trkpt>
      <trkpt lat="52.15694" lon="10.94712">
        <ele>188.76</ele>
        <time>2026-08-31T00:17:59.3280000+00:00</time>
      </trkpt>
      <trkpt lat="52.15691" lon="10.94686">
        <ele>190.98</ele>
        <time>2026-08-31T00:18:05.5070000+00:00</time>
      </trkpt>
      <trkpt lat="52.15686" lon="10.94649">
        <ele>194.24</ele>
        <time>2026-08-31T00:18:14.3550000+00:00</time>
      </trkpt>
      <trkpt lat="52.15684" lon="10.94641">
        <ele>195.05</ele>
        <time>2026-08-31T00:18:16.3720000+00:00</time>
      </trkpt>
      <trkpt lat="52.15682" lon="10.9461">
        <ele>197.6</ele>
        <time>2026-08-31T00:18:23.6520000+00:00</time>
      </trkpt>
      <trkpt lat="52.1568" lon="10.94602">
        <ele>198.35</ele>
        <time>2026-08-31T00:18:25.6690000+00:00</time>
      </trkpt>
      <trkpt lat="52.15676" lon="10.94569">
        <ele>201.14</ele>
        <time>2026-08-31T00:18:33.5250000+00:00</time>
      </trkpt>
      <trkpt lat="52.15676" lon="10.94566">
        <ele>201.37</ele>
        <time>2026-08-31T00:18:34.2260000+00:00</time>
      </trkpt>
      <trkpt lat="52.15674" lon="10.94542">
        <ele>203.35</ele>
        <time>2026-08-31T00:18:39.8820000+00:00</time>
      </trkpt>
      <trkpt lat="52.15672" lon="10.94518">
        <ele>205.3</ele>
        <time>2026-08-31T00:18:45.5380000+00:00</time>
      </trkpt>
      <trkpt lat="52.15669" lon="10.94489">
        <ele>207.31</ele>
        <time>2026-08-31T00:18:52.4070000+00:00</time>
      </trkpt>
      <trkpt lat="52.15662" lon="10.94446">
        <ele>210.07</ele>
        <time>2026-08-31T00:19:02.7960000+00:00</time>
      </trkpt>
      <trkpt lat="52.15661" lon="10.94425">
        <ele>211.34</ele>
        <time>2026-08-31T00:19:07.7150000+00:00</time>
      </trkpt>
      <trkpt lat="52.15678" lon="10.94375">
        <ele>212.2</ele>
        <time>2026-08-31T00:19:21.0660000+00:00</time>
      </trkpt>
      <trkpt lat="52.15697" lon="10.94332">
        <ele>212.61</ele>
        <time>2026-08-31T00:19:33.4410000+00:00</time>
      </trkpt>
      <trkpt lat="52.15702" lon="10.94317">
        <ele>212.85</ele>
        <time>2026-08-31T00:19:37.4280000+00:00</time>
      </trkpt>
      <trkpt lat="52.15717" lon="10.94285">
        <ele>213.11</ele>
        <time>2026-08-31T00:19:46.8330000+00:00</time>
      </trkpt>
      <trkpt lat="52.1573" lon="10.9426">
        <ele>213.23</ele>
        <time>2026-08-31T00:19:54.4860000+00:00</time>
      </trkpt>
      <trkpt lat="52.15732" lon="10.94254">
        <ele>213.34</ele>
        <time>2026-08-31T00:19:56.0810000+00:00</time>
      </trkpt>
      <trkpt lat="52.15738" lon="10.94241">
        <ele>213.65</ele>
        <time>2026-08-31T00:19:59.8800000+00:00</time>
      </trkpt>
      <trkpt lat="52.15745" lon="10.94226">
        <ele>213.47</ele>
        <time>2026-08-31T00:20:04.2820000+00:00</time>
      </trkpt>
      <trkpt lat="52.15743" lon="10.94219">
        <ele>214.22</ele>
        <time>2026-08-31T00:20:06.0850000+00:00</time>
      </trkpt>
      <trkpt lat="52.15743" lon="10.94219">
        <ele>214.22</ele>
        <time>2026-08-31T00:20:06.0850000+00:00</time>
      </trkpt>
      <trkpt lat="52.15744" lon="10.9422">
        <ele>214</ele>
        <time>2026-08-31T00:20:06.5310000+00:00</time>
      </trkpt>
      <trkpt lat="52.15747" lon="10.94221">
        <ele>213.48</ele>
        <time>2026-08-31T00:20:07.6960000+00:00</time>
      </trkpt>
      <trkpt lat="52.15748" lon="10.94212">
        <ele>213.91</ele>
        <time>2026-08-31T00:20:09.8320000+00:00</time>
      </trkpt>
      <trkpt lat="52.15761" lon="10.94185">
        <ele>213.86</ele>
        <time>2026-08-31T00:20:17.8480000+00:00</time>
      </trkpt>
      <trkpt lat="52.15766" lon="10.94173">
        <ele>214.05</ele>
        <time>2026-08-31T00:20:21.2360000+00:00</time>
      </trkpt>
      <trkpt lat="52.15784" lon="10.94138">
        <ele>213.44</ele>
        <time>2026-08-31T00:20:31.9020000+00:00</time>
      </trkpt>
      <trkpt lat="52.15789" lon="10.94128">
        <ele>213.34</ele>
        <time>2026-08-31T00:20:34.9140000+00:00</time>
      </trkpt>
      <trkpt lat="52.15788" lon="10.94116">
        <ele>214.07</ele>
        <time>2026-08-31T00:20:37.7420000+00:00</time>
      </trkpt>
      <trkpt lat="52.15785" lon="10.94103">
        <ele>215.06</ele>
        <time>2026-08-31T00:20:40.9860000+00:00</time>
      </trkpt>
      <trkpt lat="52.15776" lon="10.94066">
        <ele>218.08</ele>
        <time>2026-08-31T00:20:50.2810000+00:00</time>
      </trkpt>
      <trkpt lat="52.15768" lon="10.94038">
        <ele>220.35</ele>
        <time>2026-08-31T00:20:57.4940000+00:00</time>
      </trkpt>
      <trkpt lat="52.15765" lon="10.94022">
        <ele>221.42</ele>
        <time>2026-08-31T00:21:01.4010000+00:00</time>
      </trkpt>
      <trkpt lat="52.15763" lon="10.94011">
        <ele>222.13</ele>
        <time>2026-08-31T00:21:04.0810000+00:00</time>
      </trkpt>
      <trkpt lat="52.15758" lon="10.93983">
        <ele>223.93</ele>
        <time>2026-08-31T00:21:10.8910000+00:00</time>
      </trkpt>
      <trkpt lat="52.1575" lon="10.93953">
        <ele>225.68</ele>
        <time>2026-08-31T00:21:18.5300000+00:00</time>
      </trkpt>
      <trkpt lat="52.15744" lon="10.93933">
        <ele>226.61</ele>
        <time>2026-08-31T00:21:23.7300000+00:00</time>
      </trkpt>
      <trkpt lat="52.15727" lon="10.93888">
        <ele>228.71</ele>
        <time>2026-08-31T00:21:36.0710000+00:00</time>
      </trkpt>
      <trkpt lat="52.15719" lon="10.93838">
        <ele>230.67</ele>
        <time>2026-08-31T00:21:48.1390000+00:00</time>
      </trkpt>
      <trkpt lat="52.15705" lon="10.9379">
        <ele>233.75</ele>
        <time>2026-08-31T00:22:00.5510000+00:00</time>
      </trkpt>
      <trkpt lat="52.15686" lon="10.93764">
        <ele>235.01</ele>
        <time>2026-08-31T00:22:09.9940000+00:00</time>
      </trkpt>
      <trkpt lat="52.15671" lon="10.93738">
        <ele>235.95</ele>
        <time>2026-08-31T00:22:18.3290000+00:00</time>
      </trkpt>
      <trkpt lat="52.15663" lon="10.93696">
        <ele>237.8</ele>
        <time>2026-08-31T00:22:28.6000000+00:00</time>
      </trkpt>
      <trkpt lat="52.15662" lon="10.93676">
        <ele>238.71</ele>
        <time>2026-08-31T00:22:33.2860000+00:00</time>
      </trkpt>
      <trkpt lat="52.15658" lon="10.93652">
        <ele>240.16</ele>
        <time>2026-08-31T00:22:39.0940000+00:00</time>
      </trkpt>
      <trkpt lat="52.15651" lon="10.93606">
        <ele>242.94</ele>
        <time>2026-08-31T00:22:50.1630000+00:00</time>
      </trkpt>
      <trkpt lat="52.15639" lon="10.93567">
        <ele>244.56</ele>
        <time>2026-08-31T00:23:00.3520000+00:00</time>
      </trkpt>
      <trkpt lat="52.15621" lon="10.9352">
        <ele>245.76</ele>
        <time>2026-08-31T00:23:13.2920000+00:00</time>
      </trkpt>
      <trkpt lat="52.15614" lon="10.93492">
        <ele>246.6</ele>
        <time>2026-08-31T00:23:20.3530000+00:00</time>
      </trkpt>
      <trkpt lat="52.15625" lon="10.93463">
        <ele>247.86</ele>
        <time>2026-08-31T00:23:28.3150000+00:00</time>
      </trkpt>
      <trkpt lat="52.15644" lon="10.93422">
        <ele>249.12</ele>
        <time>2026-08-31T00:23:40.3150000+00:00</time>
      </trkpt>
      <trkpt lat="52.15657" lon="10.93396">
        <ele>249.96</ele>
        <time>2026-08-31T00:23:48.1480000+00:00</time>
      </trkpt>
      <trkpt lat="52.15669" lon="10.93372">
        <ele>250.77</ele>
        <time>2026-08-31T00:23:55.3790000+00:00</time>
      </trkpt>
      <trkpt lat="52.15689" lon="10.93327">
        <ele>251.92</ele>
        <time>2026-08-31T00:24:08.3560000+00:00</time>
      </trkpt>
      <trkpt lat="52.15709" lon="10.93284">
        <ele>253.09</ele>
        <time>2026-08-31T00:24:20.9580000+00:00</time>
      </trkpt>
      <trkpt lat="52.15725" lon="10.93244">
        <ele>254.14</ele>
        <time>2026-08-31T00:24:32.1100000+00:00</time>
      </trkpt>
      <trkpt lat="52.15745" lon="10.93199">
        <ele>254.42</ele>
        <time>2026-08-31T00:24:45.0870000+00:00</time>
      </trkpt>
      <trkpt lat="52.15753" lon="10.9318">
        <ele>254.49</ele>
        <time>2026-08-31T00:24:50.4680000+00:00</time>
      </trkpt>
      <trkpt lat="52.1577" lon="10.93144">
        <ele>254.34</ele>
        <time>2026-08-31T00:25:01.0780000+00:00</time>
      </trkpt>
      <trkpt lat="52.15797" lon="10.93089">
        <ele>254.28</ele>
        <time>2026-08-31T00:25:17.5280000+00:00</time>
      </trkpt>
      <trkpt lat="52.15817" lon="10.93053">
        <ele>255.31</ele>
        <time>2026-08-31T00:25:28.8700000+00:00</time>
      </trkpt>
      <trkpt lat="52.15834" lon="10.93048">
        <ele>254.81</ele>
        <time>2026-08-31T00:25:35.4460000+00:00</time>
      </trkpt>
      <trkpt lat="52.15866" lon="10.93016">
        <ele>255.26</ele>
        <time>2026-08-31T00:25:49.7370000+00:00</time>
      </trkpt>
      <trkpt lat="52.1588" lon="10.92998">
        <ele>255.91</ele>
        <time>2026-08-31T00:25:56.5240000+00:00</time>
      </trkpt>
      <trkpt lat="52.15914" lon="10.92958">
        <ele>256.03</ele>
        <time>2026-08-31T00:26:12.4860000+00:00</time>
      </trkpt>
      <trkpt lat="52.1593" lon="10.9294">
        <ele>254.97</ele>
        <time>2026-08-31T00:26:19.8860000+00:00</time>
      </trkpt>
      <trkpt lat="52.15957" lon="10.92908">
        <ele>252.9</ele>
        <time>2026-08-31T00:26:32.5930000+00:00</time>
      </trkpt>
      <trkpt lat="52.15974" lon="10.92882">
        <ele>251.76</ele>
        <time>2026-08-31T00:26:41.4670000+00:00</time>
      </trkpt>
      <trkpt lat="52.1599" lon="10.9286">
        <ele>250.92</ele>
        <time>2026-08-31T00:26:49.4350000+00:00</time>
      </trkpt>
      <trkpt lat="52.16004" lon="10.92844">
        <ele>250.14</ele>
        <time>2026-08-31T00:26:55.9440000+00:00</time>
      </trkpt>
      <trkpt lat="52.16016" lon="10.92827">
        <ele>249.68</ele>
        <time>2026-08-31T00:27:01.9960000+00:00</time>
      </trkpt>
      <trkpt lat="52.16026" lon="10.92817">
        <ele>249.15</ele>
        <time>2026-08-31T00:27:06.4610000+00:00</time>
      </trkpt>
      <trkpt lat="52.16047" lon="10.92795">
        <ele>248.19</ele>
        <time>2026-08-31T00:27:15.9640000+00:00</time>
      </trkpt>
      <trkpt lat="52.1607" lon="10.92764">
        <ele>247.61</ele>
        <time>2026-08-31T00:27:27.3240000+00:00</time>
      </trkpt>
      <trkpt lat="52.16096" lon="10.92728">
        <ele>245.91</ele>
        <time>2026-08-31T00:27:40.3100000+00:00</time>
      </trkpt>
      <trkpt lat="52.16109" lon="10.92713">
        <ele>244.96</ele>
        <time>2026-08-31T00:27:46.3730000+00:00</time>
      </trkpt>
      <trkpt lat="52.16119" lon="10.92702">
        <ele>244.26</ele>
        <time>2026-08-31T00:27:50.9650000+00:00</time>
      </trkpt>
      <trkpt lat="52.16138" lon="10.92685">
        <ele>242.98</ele>
        <time>2026-08-31T00:27:59.2160000+00:00</time>
      </trkpt>
      <trkpt lat="52.16164" lon="10.92661">
        <ele>241.36</ele>
        <time>2026-08-31T00:28:10.5890000+00:00</time>
      </trkpt>
      <trkpt lat="52.16182" lon="10.92648">
        <ele>240.22</ele>
        <time>2026-08-31T00:28:18.0840000+00:00</time>
      </trkpt>
      <trkpt lat="52.16192" lon="10.9264">
        <ele>239.6</ele>
        <time>2026-08-31T00:28:22.3240000+00:00</time>
      </trkpt>
      <trkpt lat="52.16222" lon="10.92637">
        <ele>237.47</ele>
        <time>2026-08-31T00:28:33.7650000+00:00</time>
      </trkpt>
      <trkpt lat="52.16249" lon="10.92606">
        <ele>236.14</ele>
        <time>2026-08-31T00:28:46.3370000+00:00</time>
      </trkpt>
      <trkpt lat="52.16258" lon="10.92598">
        <ele>235.81</ele>
        <time>2026-08-31T00:28:50.2390000+00:00</time>
      </trkpt>
      <trkpt lat="52.16265" lon="10.92588">
        <ele>235.7</ele>
        <time>2026-08-31T00:28:53.7820000+00:00</time>
      </trkpt>
      <trkpt lat="52.16296" lon="10.92559">
        <ele>235.34</ele>
        <time>2026-08-31T00:29:07.3870000+00:00</time>
      </trkpt>
      <trkpt lat="52.16311" lon="10.92544">
        <ele>235.12</ele>
        <time>2026-08-31T00:29:14.0860000+00:00</time>
      </trkpt>
      <trkpt lat="52.16338" lon="10.92531">
        <ele>233.86</ele>
        <time>2026-08-31T00:29:24.8030000+00:00</time>
      </trkpt>
      <trkpt lat="52.16363" lon="10.92526">
        <ele>232.29</ele>
        <time>2026-08-31T00:29:34.3910000+00:00</time>
      </trkpt>
      <trkpt lat="52.1637" lon="10.9252">
        <ele>231.98</ele>
        <time>2026-08-31T00:29:37.4010000+00:00</time>
      </trkpt>
      <trkpt lat="52.16409" lon="10.92482">
        <ele>231.38</ele>
        <time>2026-08-31T00:29:54.6970000+00:00</time>
      </trkpt>
      <trkpt lat="52.16427" lon="10.92465">
        <ele>232.85</ele>
        <time>2026-08-31T00:30:02.6150000+00:00</time>
      </trkpt>
      <trkpt lat="52.16441" lon="10.9245">
        <ele>234.07</ele>
        <time>2026-08-31T00:30:08.9930000+00:00</time>
      </trkpt>
      <trkpt lat="52.1646" lon="10.92427">
        <ele>235.86</ele>
        <time>2026-08-31T00:30:18.0010000+00:00</time>
      </trkpt>
      <trkpt lat="52.16502" lon="10.92386">
        <ele>237.05</ele>
        <time>2026-08-31T00:30:36.6360000+00:00</time>
      </trkpt>
      <trkpt lat="52.16521" lon="10.92364">
        <ele>236.45</ele>
        <time>2026-08-31T00:30:45.5070000+00:00</time>
      </trkpt>
      <trkpt lat="52.16543" lon="10.9235">
        <ele>235.43</ele>
        <time>2026-08-31T00:30:54.4970000+00:00</time>
      </trkpt>
      <trkpt lat="52.16546" lon="10.92351">
        <ele>235.24</ele>
        <time>2026-08-31T00:30:55.6630000+00:00</time>
      </trkpt>
      <trkpt lat="52.16563" lon="10.92354">
        <ele>234.21</ele>
        <time>2026-08-31T00:31:02.1720000+00:00</time>
      </trkpt>
      <trkpt lat="52.16577" lon="10.92357">
        <ele>233.36</ele>
        <time>2026-08-31T00:31:07.5470000+00:00</time>
      </trkpt>
      <trkpt lat="52.16588" lon="10.92354">
        <ele>232.76</ele>
        <time>2026-08-31T00:31:11.7930000+00:00</time>
      </trkpt>
      <trkpt lat="52.16598" lon="10.92349">
        <ele>232.22</ele>
        <time>2026-08-31T00:31:15.7740000+00:00</time>
      </trkpt>
      <trkpt lat="52.16611" lon="10.92337">
        <ele>231.54</ele>
        <time>2026-08-31T00:31:21.4610000+00:00</time>
      </trkpt>
      <trkpt lat="52.16621" lon="10.92329">
        <ele>231.07</ele>
        <time>2026-08-31T00:31:25.7010000+00:00</time>
      </trkpt>
      <trkpt lat="52.16625" lon="10.92327">
        <ele>230.87</ele>
        <time>2026-08-31T00:31:27.2940000+00:00</time>
      </trkpt>
      <trkpt lat="52.16637" lon="10.92325">
        <ele>230.23</ele>
        <time>2026-08-31T00:31:31.8860000+00:00</time>
      </trkpt>
      <trkpt lat="52.16646" lon="10.9232">
        <ele>229.84</ele>
        <time>2026-08-31T00:31:35.5050000+00:00</time>
      </trkpt>
      <trkpt lat="52.16655" lon="10.92315">
        <ele>229.4</ele>
        <time>2026-08-31T00:31:39.1240000+00:00</time>
      </trkpt>
      <trkpt lat="52.1667" lon="10.92324">
        <ele>227.89</ele>
        <time>2026-08-31T00:31:45.2090000+00:00</time>
      </trkpt>
      <trkpt lat="52.16706" lon="10.92302">
        <ele>225.14</ele>
        <time>2026-08-31T00:31:59.8440000+00:00</time>
      </trkpt>
      <trkpt lat="52.16734" lon="10.92282">
        <ele>222.88</ele>
        <time>2026-08-31T00:32:11.4800000+00:00</time>
      </trkpt>
      <trkpt lat="52.16774" lon="10.92262">
        <ele>222.81</ele>
        <time>2026-08-31T00:32:27.4070000+00:00</time>
      </trkpt>
      <trkpt lat="52.16801" lon="10.92253">
        <ele>223.12</ele>
        <time>2026-08-31T00:32:37.8970000+00:00</time>
      </trkpt>
      <trkpt lat="52.16857" lon="10.92235">
        <ele>220.49</ele>
        <time>2026-08-31T00:32:59.6250000+00:00</time>
      </trkpt>
      <trkpt lat="52.16878" lon="10.92227">
        <ele>218.88</ele>
        <time>2026-08-31T00:33:07.8340000+00:00</time>
      </trkpt>
      <trkpt lat="52.16908" lon="10.92224">
        <ele>215.95</ele>
        <time>2026-08-31T00:33:19.2760000+00:00</time>
      </trkpt>
      <trkpt lat="52.16913" lon="10.92223">
        <ele>215.2</ele>
        <time>2026-08-31T00:33:21.1930000+00:00</time>
      </trkpt>
      <trkpt lat="52.1693" lon="10.92218">
        <ele>212.67</ele>
        <time>2026-08-31T00:33:27.7690000+00:00</time>
      </trkpt>
      <trkpt lat="52.16949" lon="10.92201">
        <ele>209.9</ele>
        <time>2026-08-31T00:33:36.0190000+00:00</time>
      </trkpt>
      <trkpt lat="52.16959" lon="10.92184">
        <ele>208.43</ele>
        <time>2026-08-31T00:33:41.5180000+00:00</time>
      </trkpt>
      <trkpt lat="52.16985" lon="10.92171">
        <ele>204.12</ele>
        <time>2026-08-31T00:33:51.8710000+00:00</time>
      </trkpt>
      <trkpt lat="52.17012" lon="10.92164">
        <ele>202.35</ele>
        <time>2026-08-31T00:34:02.2780000+00:00</time>
      </trkpt>
      <trkpt lat="52.17018" lon="10.92158">
        <ele>201.96</ele>
        <time>2026-08-31T00:34:04.9570000+00:00</time>
      </trkpt>
      <trkpt lat="52.17045" lon="10.9214">
        <ele>200.33</ele>
        <time>2026-08-31T00:34:16.0610000+00:00</time>
      </trkpt>
      <trkpt lat="52.17057" lon="10.92132">
        <ele>199.66</ele>
        <time>2026-08-31T00:34:20.9960000+00:00</time>
      </trkpt>
      <trkpt lat="52.17069" lon="10.92123">
        <ele>199.01</ele>
        <time>2026-08-31T00:34:26.0240000+00:00</time>
      </trkpt>
      <trkpt lat="52.1709" lon="10.92104">
        <ele>198.46</ele>
        <time>2026-08-31T00:34:35.1660000+00:00</time>
      </trkpt>
      <trkpt lat="52.17139" lon="10.92082">
        <ele>197.23</ele>
        <time>2026-08-31T00:34:54.5130000+00:00</time>
      </trkpt>
      <trkpt lat="52.17164" lon="10.9206">
        <ele>196.04</ele>
        <time>2026-08-31T00:35:05.3270000+00:00</time>
      </trkpt>
      <trkpt lat="52.17207" lon="10.92028">
        <ele>193.95</ele>
        <time>2026-08-31T00:35:23.3200000+00:00</time>
      </trkpt>
      <trkpt lat="52.17265" lon="10.91973">
        <ele>192.7</ele>
        <time>2026-08-31T00:35:48.8610000+00:00</time>
      </trkpt>
      <trkpt lat="52.17298" lon="10.91943">
        <ele>192.27</ele>
        <time>2026-08-31T00:36:03.2430000+00:00</time>
      </trkpt>
      <trkpt lat="52.17306" lon="10.91933">
        <ele>192.19</ele>
        <time>2026-08-31T00:36:07.0800000+00:00</time>
      </trkpt>
      <trkpt lat="52.17323" lon="10.91917">
        <ele>191.66</ele>
        <time>2026-08-31T00:36:14.5520000+00:00</time>
      </trkpt>
      <trkpt lat="52.17347" lon="10.91901">
        <ele>189.82</ele>
        <time>2026-08-31T00:36:24.4220000+00:00</time>
      </trkpt>
      <trkpt lat="52.1737" lon="10.91871">
        <ele>188.48</ele>
        <time>2026-08-31T00:36:35.6340000+00:00</time>
      </trkpt>
      <trkpt lat="52.17388" lon="10.91852">
        <ele>187.61</ele>
        <time>2026-08-31T00:36:43.7960000+00:00</time>
      </trkpt>
      <trkpt lat="52.17409" lon="10.91832">
        <ele>186.1</ele>
        <time>2026-08-31T00:36:53.0540000+00:00</time>
      </trkpt>
      <trkpt lat="52.17424" lon="10.91814">
        <ele>184</ele>
        <time>2026-08-31T00:37:00.1430000+00:00</time>
      </trkpt>
      <trkpt lat="52.17456" lon="10.91754">
        <ele>179</ele>
        <time>2026-08-31T00:37:18.7060000+00:00</time>
      </trkpt>
      <trkpt lat="52.17474" lon="10.91726">
        <ele>176.61</ele>
        <time>2026-08-31T00:37:28.1760000+00:00</time>
      </trkpt>
      <trkpt lat="52.17487" lon="10.91698">
        <ele>175.23</ele>
        <time>2026-08-31T00:37:36.3740000+00:00</time>
      </trkpt>
      <trkpt lat="52.17499" lon="10.91667">
        <ele>174.67</ele>
        <time>2026-08-31T00:37:44.9320000+00:00</time>
      </trkpt>
      <trkpt lat="52.17503" lon="10.91658">
        <ele>174.6</ele>
        <time>2026-08-31T00:37:47.5260000+00:00</time>
      </trkpt>
      <trkpt lat="52.17505" lon="10.91658">
        <ele>174.36</ele>
        <time>2026-08-31T00:37:48.2870000+00:00</time>
      </trkpt>
      <trkpt lat="52.17508" lon="10.91655">
        <ele>174.12</ele>
        <time>2026-08-31T00:37:49.6260000+00:00</time>
      </trkpt>
      <trkpt lat="52.17513" lon="10.91648">
        <ele>173.82</ele>
        <time>2026-08-31T00:37:52.1350000+00:00</time>
      </trkpt>
      <trkpt lat="52.17531" lon="10.91605">
        <ele>173.37</ele>
        <time>2026-08-31T00:38:04.2880000+00:00</time>
      </trkpt>
      <trkpt lat="52.17549" lon="10.91569">
        <ele>172.49</ele>
        <time>2026-08-31T00:38:15.1310000+00:00</time>
      </trkpt>
      <trkpt lat="52.17582" lon="10.91492">
        <ele>172.28</ele>
        <time>2026-08-31T00:38:37.0610000+00:00</time>
      </trkpt>
      <trkpt lat="52.17599" lon="10.91456">
        <ele>173.89</ele>
        <time>2026-08-31T00:38:47.6670000+00:00</time>
      </trkpt>
      <trkpt lat="52.17623" lon="10.91406">
        <ele>175.22</ele>
        <time>2026-08-31T00:39:02.4900000+00:00</time>
      </trkpt>
      <trkpt lat="52.17642" lon="10.91366">
        <ele>175.53</ele>
        <time>2026-08-31T00:39:14.3010000+00:00</time>
      </trkpt>
      <trkpt lat="52.17683" lon="10.91277">
        <ele>174.46</ele>
        <time>2026-08-31T00:39:40.2850000+00:00</time>
      </trkpt>
      <trkpt lat="52.17727" lon="10.91179">
        <ele>172.01</ele>
        <time>2026-08-31T00:40:08.6380000+00:00</time>
      </trkpt>
      <trkpt lat="52.17736" lon="10.91158">
        <ele>171.51</ele>
        <time>2026-08-31T00:40:14.6190000+00:00</time>
      </trkpt>
      <trkpt lat="52.1778" lon="10.91058">
        <ele>169.18</ele>
        <time>2026-08-31T00:40:43.3490000+00:00</time>
      </trkpt>
      <trkpt lat="52.17789" lon="10.91037">
        <ele>168.27</ele>
        <time>2026-08-31T00:40:49.3290000+00:00</time>
      </trkpt>
      <trkpt lat="52.17835" lon="10.90934">
        <ele>165.36</ele>
        <time>2026-08-31T00:41:19.0730000+00:00</time>
      </trkpt>
      <trkpt lat="52.17845" lon="10.90907">
        <ele>165.78</ele>
        <time>2026-08-31T00:41:26.4360000+00:00</time>
      </trkpt>
      <trkpt lat="52.17845" lon="10.90873">
        <ele>167.13</ele>
        <time>2026-08-31T00:41:34.3720000+00:00</time>
      </trkpt>
      <trkpt lat="52.17821" lon="10.90817">
        <ele>170.45</ele>
        <time>2026-08-31T00:41:50.3200000+00:00</time>
      </trkpt>
      <trkpt lat="52.17814" lon="10.90796">
        <ele>172.07</ele>
        <time>2026-08-31T00:41:55.9000000+00:00</time>
      </trkpt>
      <trkpt lat="52.17782" lon="10.90747">
        <ele>179.24</ele>
        <time>2026-08-31T00:42:12.6090000+00:00</time>
      </trkpt>
      <trkpt lat="52.17778" lon="10.90742">
        <ele>180.08</ele>
        <time>2026-08-31T00:42:14.5280000+00:00</time>
      </trkpt>
      <trkpt lat="52.17753" lon="10.90704">
        <ele>184.63</ele>
        <time>2026-08-31T00:42:27.5370000+00:00</time>
      </trkpt>
      <trkpt lat="52.17728" lon="10.90663">
        <ele>186.88</ele>
        <time>2026-08-31T00:42:41.0340000+00:00</time>
      </trkpt>
      <trkpt lat="52.17706" lon="10.90623">
        <ele>186.85</ele>
        <time>2026-08-31T00:42:53.5770000+00:00</time>
      </trkpt>
      <trkpt lat="52.17688" lon="10.90592">
        <ele>187.42</ele>
        <time>2026-08-31T00:43:03.5430000+00:00</time>
      </trkpt>
      <trkpt lat="52.17664" lon="10.9056">
        <ele>189.4</ele>
        <time>2026-08-31T00:43:15.3440000+00:00</time>
      </trkpt>
      <trkpt lat="52.17642" lon="10.90526">
        <ele>191.29</ele>
        <time>2026-08-31T00:43:26.8820000+00:00</time>
      </trkpt>
      <trkpt lat="52.17639" lon="10.90522">
        <ele>191.48</ele>
        <time>2026-08-31T00:43:28.3570000+00:00</time>
      </trkpt>
      <trkpt lat="52.17632" lon="10.90512">
        <ele>191.92</ele>
        <time>2026-08-31T00:43:31.8990000+00:00</time>
      </trkpt>
      <trkpt lat="52.17604" lon="10.90473">
        <ele>193.9</ele>
        <time>2026-08-31T00:43:45.9170000+00:00</time>
      </trkpt>
      <trkpt lat="52.176" lon="10.90466">
        <ele>194.19</ele>
        <time>2026-08-31T00:43:48.1500000+00:00</time>
      </trkpt>
      <trkpt lat="52.17595" lon="10.90436">
        <ele>194.87</ele>
        <time>2026-08-31T00:43:55.4080000+00:00</time>
      </trkpt>
      <trkpt lat="52.17587" lon="10.90408">
        <ele>196.36</ele>
        <time>2026-08-31T00:44:02.6180000+00:00</time>
      </trkpt>
      <trkpt lat="52.17586" lon="10.90387">
        <ele>197.71</ele>
        <time>2026-08-31T00:44:07.5350000+00:00</time>
      </trkpt>
      <trkpt lat="52.17602" lon="10.90363">
        <ele>198.06</ele>
        <time>2026-08-31T00:44:15.8110000+00:00</time>
      </trkpt>
      <trkpt lat="52.1763" lon="10.90341">
        <ele>196.86</ele>
        <time>2026-08-31T00:44:27.6420000+00:00</time>
      </trkpt>
      <trkpt lat="52.17662" lon="10.90299">
        <ele>195.26</ele>
        <time>2026-08-31T00:44:43.2790000+00:00</time>
      </trkpt>
      <trkpt lat="52.17672" lon="10.90284">
        <ele>194.49</ele>
        <time>2026-08-31T00:44:48.4510000+00:00</time>
      </trkpt>
      <trkpt lat="52.17681" lon="10.90268">
        <ele>193.85</ele>
        <time>2026-08-31T00:44:53.5190000+00:00</time>
      </trkpt>
      <trkpt lat="52.17702" lon="10.90234">
        <ele>192.72</ele>
        <time>2026-08-31T00:45:04.7840000+00:00</time>
      </trkpt>
      <trkpt lat="52.17709" lon="10.90222">
        <ele>192.5</ele>
        <time>2026-08-31T00:45:08.6500000+00:00</time>
      </trkpt>
      <trkpt lat="52.17725" lon="10.90197">
        <ele>191.93</ele>
        <time>2026-08-31T00:45:17.0850000+00:00</time>
      </trkpt>
      <trkpt lat="52.17761" lon="10.90139">
        <ele>191.1</ele>
        <time>2026-08-31T00:45:36.3490000+00:00</time>
      </trkpt>
      <trkpt lat="52.1782" lon="10.90049">
        <ele>188.37</ele>
        <time>2026-08-31T00:46:07.1030000+00:00</time>
      </trkpt>
      <trkpt lat="52.17828" lon="10.89979">
        <ele>190.81</ele>
        <time>2026-08-31T00:46:23.7240000+00:00</time>
      </trkpt>
      <trkpt lat="52.17823" lon="10.8997">
        <ele>191.81</ele>
        <time>2026-08-31T00:46:26.5580000+00:00</time>
      </trkpt>
      <trkpt lat="52.17816" lon="10.89954">
        <ele>193.1</ele>
        <time>2026-08-31T00:46:31.1460000+00:00</time>
      </trkpt>
      <trkpt lat="52.17818" lon="10.89893">
        <ele>194.02</ele>
        <time>2026-08-31T00:46:45.4060000+00:00</time>
      </trkpt>
      <trkpt lat="52.17845" lon="10.89883">
        <ele>192.42</ele>
        <time>2026-08-31T00:46:55.9450000+00:00</time>
      </trkpt>
      <trkpt lat="52.17859" lon="10.89894">
        <ele>191.07</ele>
        <time>2026-08-31T00:47:01.8610000+00:00</time>
      </trkpt>
      <trkpt lat="52.17874" lon="10.89912">
        <ele>188.84</ele>
        <time>2026-08-31T00:47:08.9500000+00:00</time>
      </trkpt>
      <trkpt lat="52.17909" lon="10.89969">
        <ele>180.97</ele>
        <time>2026-08-31T00:47:27.7790000+00:00</time>
      </trkpt>
      <trkpt lat="52.17919" lon="10.89963">
        <ele>180.16</ele>
        <time>2026-08-31T00:47:31.8350000+00:00</time>
      </trkpt>
      <trkpt lat="52.17934" lon="10.89922">
        <ele>180.65</ele>
        <time>2026-08-31T00:47:42.9790000+00:00</time>
      </trkpt>
      <trkpt lat="52.17938" lon="10.89916">
        <ele>180.65</ele>
        <time>2026-08-31T00:47:45.0480000+00:00</time>
      </trkpt>
      <trkpt lat="52.17945" lon="10.89904">
        <ele>180.79</ele>
        <time>2026-08-31T00:47:48.9140000+00:00</time>
      </trkpt>
      <trkpt lat="52.17971" lon="10.89858">
        <ele>181.46</ele>
        <time>2026-08-31T00:48:03.5170000+00:00</time>
      </trkpt>
      <trkpt lat="52.17982" lon="10.89844">
        <ele>181.22</ele>
        <time>2026-08-31T00:48:08.8290000+00:00</time>
      </trkpt>
      <trkpt lat="52.17995" lon="10.89836">
        <ele>180.8</ele>
        <time>2026-08-31T00:48:14.1180000+00:00</time>
      </trkpt>
      <trkpt lat="52.18012" lon="10.89819">
        <ele>180.89</ele>
        <time>2026-08-31T00:48:21.7090000+00:00</time>
      </trkpt>
      <trkpt lat="52.1802" lon="10.89811">
        <ele>180.68</ele>
        <time>2026-08-31T00:48:25.2810000+00:00</time>
      </trkpt>
      <trkpt lat="52.1804" lon="10.89785">
        <ele>179.85</ele>
        <time>2026-08-31T00:48:35.0170000+00:00</time>
      </trkpt>
      <trkpt lat="52.18065" lon="10.89747">
        <ele>178.03</ele>
        <time>2026-08-31T00:48:48.0260000+00:00</time>
      </trkpt>
      <trkpt lat="52.1807" lon="10.8974">
        <ele>178.11</ele>
        <time>2026-08-31T00:48:50.5350000+00:00</time>
      </trkpt>
      <trkpt lat="52.18074" lon="10.89731">
        <ele>178.85</ele>
        <time>2026-08-31T00:48:53.1300000+00:00</time>
      </trkpt>
      <trkpt lat="52.18095" lon="10.89704">
        <ele>179.58</ele>
        <time>2026-08-31T00:49:03.3090000+00:00</time>
      </trkpt>
      <trkpt lat="52.18122" lon="10.89651">
        <ele>180.59</ele>
        <time>2026-08-31T00:49:19.3920000+00:00</time>
      </trkpt>
      <trkpt lat="52.1813" lon="10.89631">
        <ele>181.36</ele>
        <time>2026-08-31T00:49:24.9660000+00:00</time>
      </trkpt>
      <trkpt lat="52.18148" lon="10.8959">
        <ele>182.72</ele>
        <time>2026-08-31T00:49:36.7360000+00:00</time>
      </trkpt>
      <trkpt lat="52.18159" lon="10.89562">
        <ele>184.03</ele>
        <time>2026-08-31T00:49:44.4980000+00:00</time>
      </trkpt>
      <trkpt lat="52.1819" lon="10.89492">
        <ele>183.78</ele>
        <time>2026-08-31T00:50:04.6520000+00:00</time>
      </trkpt>
      <trkpt lat="52.18209" lon="10.89448">
        <ele>182.73</ele>
        <time>2026-08-31T00:50:17.2130000+00:00</time>
      </trkpt>
      <trkpt lat="52.18224" lon="10.8942">
        <ele>181.73</ele>
        <time>2026-08-31T00:50:25.8920000+00:00</time>
      </trkpt>
      <trkpt lat="52.18233" lon="10.89398">
        <ele>182.28</ele>
        <time>2026-08-31T00:50:32.0650000+00:00</time>
      </trkpt>
      <trkpt lat="52.18249" lon="10.89361">
        <ele>182.7</ele>
        <time>2026-08-31T00:50:42.6320000+00:00</time>
      </trkpt>
      <trkpt lat="52.18258" lon="10.89338">
        <ele>182.33</ele>
        <time>2026-08-31T00:50:49.0000000+00:00</time>
      </trkpt>
      <trkpt lat="52.18279" lon="10.89289">
        <ele>179.45</ele>
        <time>2026-08-31T00:51:02.9540000+00:00</time>
      </trkpt>
      <trkpt lat="52.18286" lon="10.89272">
        <ele>178.65</ele>
        <time>2026-08-31T00:51:07.7330000+00:00</time>
      </trkpt>
      <trkpt lat="52.18289" lon="10.89263">
        <ele>178.42</ele>
        <time>2026-08-31T00:51:10.1240000+00:00</time>
      </trkpt>
      <trkpt lat="52.18308" lon="10.89213">
        <ele>175.33</ele>
        <time>2026-08-31T00:51:23.8540000+00:00</time>
      </trkpt>
      <trkpt lat="52.18315" lon="10.89205">
        <ele>173.97</ele>
        <time>2026-08-31T00:51:27.1070000+00:00</time>
      </trkpt>
      <trkpt lat="52.18314" lon="10.89184">
        <ele>174.68</ele>
        <time>2026-08-31T00:51:32.0240000+00:00</time>
      </trkpt>
      <trkpt lat="52.1829" lon="10.89145">
        <ele>179.45</ele>
        <time>2026-08-31T00:51:44.9200000+00:00</time>
      </trkpt>
      <trkpt lat="52.18256" lon="10.89083">
        <ele>184.37</ele>
        <time>2026-08-31T00:52:04.3350000+00:00</time>
      </trkpt>
      <trkpt lat="52.18254" lon="10.8908">
        <ele>184.54</ele>
        <time>2026-08-31T00:52:05.3690000+00:00</time>
      </trkpt>
      <trkpt lat="52.18218" lon="10.89023">
        <ele>185.65</ele>
        <time>2026-08-31T00:52:24.4690000+00:00</time>
      </trkpt>
      <trkpt lat="52.1819" lon="10.88984">
        <ele>187.6</ele>
        <time>2026-08-31T00:52:38.4850000+00:00</time>
      </trkpt>
      <trkpt lat="52.18159" lon="10.88937">
        <ele>188.87</ele>
        <time>2026-08-31T00:52:54.5970000+00:00</time>
      </trkpt>
      <trkpt lat="52.18125" lon="10.88886">
        <ele>191.37</ele>
        <time>2026-08-31T00:53:12.1820000+00:00</time>
      </trkpt>
      <trkpt lat="52.18097" lon="10.88844">
        <ele>194.54</ele>
        <time>2026-08-31T00:53:26.6630000+00:00</time>
      </trkpt>
      <trkpt lat="52.18073" lon="10.88798">
        <ele>196.75</ele>
        <time>2026-08-31T00:53:40.7610000+00:00</time>
      </trkpt>
      <trkpt lat="52.18061" lon="10.88736">
        <ele>196.24</ele>
        <time>2026-08-31T00:53:55.9360000+00:00</time>
      </trkpt>
      <trkpt lat="52.1805" lon="10.8867">
        <ele>196.5</ele>
        <time>2026-08-31T00:54:11.9000000+00:00</time>
      </trkpt>
      <trkpt lat="52.18037" lon="10.88593">
        <ele>198.64</ele>
        <time>2026-08-31T00:54:30.5420000+00:00</time>
      </trkpt>
      <trkpt lat="52.18027" lon="10.88534">
        <ele>199.03</ele>
        <time>2026-08-31T00:54:44.8300000+00:00</time>
      </trkpt>
      <trkpt lat="52.18019" lon="10.8847">
        <ele>199.62</ele>
        <time>2026-08-31T00:55:00.0760000+00:00</time>
      </trkpt>
      <trkpt lat="52.18011" lon="10.8839">
        <ele>200.5</ele>
        <time>2026-08-31T00:55:18.9960000+00:00</time>
      </trkpt>
      <trkpt lat="52.18003" lon="10.88307">
        <ele>201.27</ele>
        <time>2026-08-31T00:55:38.6070000+00:00</time>
      </trkpt>
      <trkpt lat="52.17995" lon="10.88211">
        <ele>201.52</ele>
        <time>2026-08-31T00:56:01.2210000+00:00</time>
      </trkpt>
      <trkpt lat="52.17992" lon="10.88117">
        <ele>201.47</ele>
        <time>2026-08-31T00:56:23.1920000+00:00</time>
      </trkpt>
      <trkpt lat="52.18002" lon="10.88008">
        <ele>201.83</ele>
        <time>2026-08-31T00:56:48.9180000+00:00</time>
      </trkpt>
      <trkpt lat="52.1801" lon="10.87902">
        <ele>203.69</ele>
        <time>2026-08-31T00:57:13.8470000+00:00</time>
      </trkpt>
      <trkpt lat="52.18011" lon="10.87896">
        <ele>203.68</ele>
        <time>2026-08-31T00:57:15.2970000+00:00</time>
      </trkpt>
      <trkpt lat="52.18014" lon="10.87862">
        <ele>203.91</ele>
        <time>2026-08-31T00:57:23.3150000+00:00</time>
      </trkpt>
      <trkpt lat="52.18025" lon="10.87728">
        <ele>202.89</ele>
        <time>2026-08-31T00:57:54.8720000+00:00</time>
      </trkpt>
      <trkpt lat="52.18036" lon="10.87602">
        <ele>202.2</ele>
        <time>2026-08-31T00:58:24.5790000+00:00</time>
      </trkpt>
      <trkpt lat="52.18038" lon="10.87581">
        <ele>202.3</ele>
        <time>2026-08-31T00:58:29.5390000+00:00</time>
      </trkpt>
      <trkpt lat="52.18048" lon="10.87458">
        <ele>202.83</ele>
        <time>2026-08-31T00:58:58.5010000+00:00</time>
      </trkpt>
      <trkpt lat="52.1806" lon="10.87328">
        <ele>201.77</ele>
        <time>2026-08-31T00:59:29.1860000+00:00</time>
      </trkpt>
      <trkpt lat="52.18062" lon="10.87307">
        <ele>201.94</ele>
        <time>2026-08-31T00:59:34.1470000+00:00</time>
      </trkpt>
      <trkpt lat="52.1807" lon="10.87212">
        <ele>202.48</ele>
        <time>2026-08-31T00:59:56.5290000+00:00</time>
      </trkpt>
      <trkpt lat="52.18076" lon="10.87141">
        <ele>203.33</ele>
        <time>2026-08-31T01:00:13.2580000+00:00</time>
      </trkpt>
      <trkpt lat="52.18084" lon="10.8705">
        <ele>204.01</ele>
        <time>2026-08-31T01:00:34.7160000+00:00</time>
      </trkpt>
      <trkpt lat="52.18092" lon="10.86952">
        <ele>203.64</ele>
        <time>2026-08-31T01:00:57.7920000+00:00</time>
      </trkpt>
      <trkpt lat="52.181" lon="10.86866">
        <ele>204.15</ele>
        <time>2026-08-31T01:01:18.0950000+00:00</time>
      </trkpt>
      <trkpt lat="52.18108" lon="10.86791">
        <ele>206.24</ele>
        <time>2026-08-31T01:01:35.8640000+00:00</time>
      </trkpt>
      <trkpt lat="52.18114" lon="10.86713">
        <ele>208.42</ele>
        <time>2026-08-31T01:01:54.2120000+00:00</time>
      </trkpt>
      <trkpt lat="52.18114" lon="10.86697">
        <ele>208.85</ele>
        <time>2026-08-31T01:01:57.9470000+00:00</time>
      </trkpt>
      <trkpt lat="52.18126" lon="10.86623">
        <ele>209.58</ele>
        <time>2026-08-31T01:02:15.8130000+00:00</time>
      </trkpt>
      <trkpt lat="52.18156" lon="10.86526">
        <ele>209.07</ele>
        <time>2026-08-31T01:02:41.1710000+00:00</time>
      </trkpt>
      <trkpt lat="52.18168" lon="10.8645">
        <ele>209.25</ele>
        <time>2026-08-31T01:02:59.4880000+00:00</time>
      </trkpt>
      <trkpt lat="52.18168" lon="10.86373">
        <ele>209.86</ele>
        <time>2026-08-31T01:03:17.4610000+00:00</time>
      </trkpt>
      <trkpt lat="52.18167" lon="10.86305">
        <ele>212</ele>
        <time>2026-08-31T01:03:33.3370000+00:00</time>
      </trkpt>
      <trkpt lat="52.18168" lon="10.8622">
        <ele>214.1</ele>
        <time>2026-08-31T01:03:53.1800000+00:00</time>
      </trkpt>
      <trkpt lat="52.18169" lon="10.86134">
        <ele>213.57</ele>
        <time>2026-08-31T01:04:13.2570000+00:00</time>
      </trkpt>
      <trkpt lat="52.1817" lon="10.86113">
        <ele>213.27</ele>
        <time>2026-08-31T01:04:18.1730000+00:00</time>
      </trkpt>
      <trkpt lat="52.1817" lon="10.86066">
        <ele>212.85</ele>
        <time>2026-08-31T01:04:29.1430000+00:00</time>
      </trkpt>
      <trkpt lat="52.18177" lon="10.85942">
        <ele>211.04</ele>
        <time>2026-08-31T01:04:58.2080000+00:00</time>
      </trkpt>
      <trkpt lat="52.18181" lon="10.85882">
        <ele>210.39</ele>
        <time>2026-08-31T01:05:12.2950000+00:00</time>
      </trkpt>
      <trkpt lat="52.18186" lon="10.85848">
        <ele>209.94</ele>
        <time>2026-08-31T01:05:20.4560000+00:00</time>
      </trkpt>
      <trkpt lat="52.18212" lon="10.85831">
        <ele>208.37</ele>
        <time>2026-08-31T01:05:31.1190000+00:00</time>
      </trkpt>
      <trkpt lat="52.18279" lon="10.85838">
        <ele>205.36</ele>
        <time>2026-08-31T01:05:56.6760000+00:00</time>
      </trkpt>
      <trkpt lat="52.18289" lon="10.85835">
        <ele>204.97</ele>
        <time>2026-08-31T01:06:00.5460000+00:00</time>
      </trkpt>
      <trkpt lat="52.183" lon="10.85834">
        <ele>204.55</ele>
        <time>2026-08-31T01:06:04.7400000+00:00</time>
      </trkpt>
      <trkpt lat="52.18369" lon="10.85813">
        <ele>202.77</ele>
        <time>2026-08-31T01:06:31.4600000+00:00</time>
      </trkpt>
      <trkpt lat="52.18407" lon="10.85781">
        <ele>201.41</ele>
        <time>2026-08-31T01:06:47.7390000+00:00</time>
      </trkpt>
      <trkpt lat="52.18431" lon="10.85752">
        <ele>200.36</ele>
        <time>2026-08-31T01:06:59.1090000+00:00</time>
      </trkpt>
      <trkpt lat="52.18481" lon="10.85714">
        <ele>197.27</ele>
        <time>2026-08-31T01:07:20.1070000+00:00</time>
      </trkpt>
      <trkpt lat="52.18489" lon="10.85708">
        <ele>196.4</ele>
        <time>2026-08-31T01:07:23.4590000+00:00</time>
      </trkpt>
      <trkpt lat="52.18519" lon="10.85675">
        <ele>191.56</ele>
        <time>2026-08-31T01:07:37.2330000+00:00</time>
      </trkpt>
      <trkpt lat="52.18551" lon="10.85623">
        <ele>186.62</ele>
        <time>2026-08-31T01:07:54.4280000+00:00</time>
      </trkpt>
      <trkpt lat="52.18564" lon="10.85601">
        <ele>184.57</ele>
        <time>2026-08-31T01:08:01.5600000+00:00</time>
      </trkpt>
      <trkpt lat="52.18589" lon="10.85556">
        <ele>183.49</ele>
        <time>2026-08-31T01:08:15.7320000+00:00</time>
      </trkpt>
      <trkpt lat="52.18595" lon="10.85546">
        <ele>183.59</ele>
        <time>2026-08-31T01:08:18.9980000+00:00</time>
      </trkpt>
      <trkpt lat="52.18605" lon="10.85526">
        <ele>184.06</ele>
        <time>2026-08-31T01:08:25.0210000+00:00</time>
      </trkpt>
      <trkpt lat="52.18618" lon="10.85512">
        <ele>184.81</ele>
        <time>2026-08-31T01:08:30.9510000+00:00</time>
      </trkpt>
      <trkpt lat="52.18623" lon="10.85518">
        <ele>184.78</ele>
        <time>2026-08-31T01:08:33.3140000+00:00</time>
      </trkpt>
      <trkpt lat="52.1864" lon="10.85568">
        <ele>182.78</ele>
        <time>2026-08-31T01:08:46.6570000+00:00</time>
      </trkpt>
      <trkpt lat="52.18645" lon="10.85573">
        <ele>182.44</ele>
        <time>2026-08-31T01:08:48.8900000+00:00</time>
      </trkpt>
      <trkpt lat="52.18666" lon="10.85579">
        <ele>181.84</ele>
        <time>2026-08-31T01:08:57.0060000+00:00</time>
      </trkpt>
      <trkpt lat="52.18695" lon="10.85611">
        <ele>180.37</ele>
        <time>2026-08-31T01:09:10.3340000+00:00</time>
      </trkpt>
      <trkpt lat="52.18713" lon="10.85625">
        <ele>179.99</ele>
        <time>2026-08-31T01:09:17.9250000+00:00</time>
      </trkpt>
      <trkpt lat="52.18724" lon="10.85632">
        <ele>179.74</ele>
        <time>2026-08-31T01:09:22.4190000+00:00</time>
      </trkpt>
      <trkpt lat="52.18738" lon="10.85644">
        <ele>179.36</ele>
        <time>2026-08-31T01:09:28.4400000+00:00</time>
      </trkpt>
      <trkpt lat="52.18748" lon="10.8564">
        <ele>179.29</ele>
        <time>2026-08-31T01:09:32.3590000+00:00</time>
      </trkpt>
      <trkpt lat="52.18766" lon="10.85662">
        <ele>178.59</ele>
        <time>2026-08-31T01:09:40.9210000+00:00</time>
      </trkpt>
      <trkpt lat="52.18789" lon="10.85721">
        <ele>177.69</ele>
        <time>2026-08-31T01:09:57.2380000+00:00</time>
      </trkpt>
      <trkpt lat="52.18817" lon="10.85756">
        <ele>177.02</ele>
        <time>2026-08-31T01:10:10.6670000+00:00</time>
      </trkpt>
      <trkpt lat="52.18823" lon="10.8576">
        <ele>177</ele>
        <time>2026-08-31T01:10:13.1340000+00:00</time>
      </trkpt>
      <trkpt lat="52.18833" lon="10.85738">
        <ele>177.16</ele>
        <time>2026-08-31T01:10:19.5260000+00:00</time>
      </trkpt>
      <trkpt lat="52.18841" lon="10.8572">
        <ele>177.42</ele>
        <time>2026-08-31T01:10:24.7140000+00:00</time>
      </trkpt>
      <trkpt lat="52.18858" lon="10.85688">
        <ele>178.29</ele>
        <time>2026-08-31T01:10:34.5960000+00:00</time>
      </trkpt>
      <trkpt lat="52.18871" lon="10.85666">
        <ele>179.38</ele>
        <time>2026-08-31T01:10:41.7270000+00:00</time>
      </trkpt>
      <trkpt lat="52.18902" lon="10.85676">
        <ele>180.13</ele>
        <time>2026-08-31T01:10:53.7560000+00:00</time>
      </trkpt>
      <trkpt lat="52.18914" lon="10.8568">
        <ele>180.42</ele>
        <time>2026-08-31T01:10:58.4180000+00:00</time>
      </trkpt>
      <trkpt lat="52.1892" lon="10.85673">
        <ele>180.89</ele>
        <time>2026-08-31T01:11:01.2260000+00:00</time>
      </trkpt>
      <trkpt lat="52.18935" lon="10.85642">
        <ele>182.55</ele>
        <time>2026-08-31T01:11:10.4430000+00:00</time>
      </trkpt>
      <trkpt lat="52.18957" lon="10.85648">
        <ele>183.12</ele>
        <time>2026-08-31T01:11:18.9330000+00:00</time>
      </trkpt>
      <trkpt lat="52.18965" lon="10.85628">
        <ele>184.13</ele>
        <time>2026-08-31T01:11:24.5060000+00:00</time>
      </trkpt>
      <trkpt lat="52.18974" lon="10.85598">
        <ele>185.54</ele>
        <time>2026-08-31T01:11:32.3010000+00:00</time>
      </trkpt>
      <trkpt lat="52.18968" lon="10.85589">
        <ele>185.83</ele>
        <time>2026-08-31T01:11:35.4040000+00:00</time>
      </trkpt>
      <trkpt lat="52.18955" lon="10.85578">
        <ele>186.14</ele>
        <time>2026-08-31T01:11:40.9780000+00:00</time>
      </trkpt>
      <trkpt lat="52.1895" lon="10.85568">
        <ele>186.68</ele>
        <time>2026-08-31T01:11:43.9900000+00:00</time>
      </trkpt>
      <trkpt lat="52.18935" lon="10.85556">
        <ele>187.15</ele>
        <time>2026-08-31T01:11:50.3500000+00:00</time>
      </trkpt>
      <trkpt lat="52.18922" lon="10.85557">
        <ele>186.75</ele>
        <time>2026-08-31T01:11:55.3040000+00:00</time>
      </trkpt>
      <trkpt lat="52.18909" lon="10.85516">
        <ele>189.78</ele>
        <time>2026-08-31T01:12:06.0760000+00:00</time>
      </trkpt>
      <trkpt lat="52.189" lon="10.85458">
        <ele>193.2</ele>
        <time>2026-08-31T01:12:20.0380000+00:00</time>
      </trkpt>
      <trkpt lat="52.18888" lon="10.85375">
        <ele>197.96</ele>
        <time>2026-08-31T01:12:39.9390000+00:00</time>
      </trkpt>
      <trkpt lat="52.18883" lon="10.85331">
        <ele>199.84</ele>
        <time>2026-08-31T01:12:50.3820000+00:00</time>
      </trkpt>
      <trkpt lat="52.18877" lon="10.85276">
        <ele>200.66</ele>
        <time>2026-08-31T01:13:03.4190000+00:00</time>
      </trkpt>
      <trkpt lat="52.1887" lon="10.85232">
        <ele>201.26</ele>
        <time>2026-08-31T01:13:14.0280000+00:00</time>
      </trkpt>
      <trkpt lat="52.18862" lon="10.85194">
        <ele>201.75</ele>
        <time>2026-08-31T01:13:23.4040000+00:00</time>
      </trkpt>
      <trkpt lat="52.18854" lon="10.85145">
        <ele>203.25</ele>
        <time>2026-08-31T01:13:35.2380000+00:00</time>
      </trkpt>
      <trkpt lat="52.18848" lon="10.8512">
        <ele>204.02</ele>
        <time>2026-08-31T01:13:41.5030000+00:00</time>
      </trkpt>
      <trkpt lat="52.1884" lon="10.85054">
        <ele>204.88</ele>
        <time>2026-08-31T01:13:57.2040000+00:00</time>
      </trkpt>
      <trkpt lat="52.18828" lon="10.84981">
        <ele>204.66</ele>
        <time>2026-08-31T01:14:14.8420000+00:00</time>
      </trkpt>
      <trkpt lat="52.18817" lon="10.84917">
        <ele>205.1</ele>
        <time>2026-08-31T01:14:30.3530000+00:00</time>
      </trkpt>
      <trkpt lat="52.1881" lon="10.84842">
        <ele>205.92</ele>
        <time>2026-08-31T01:14:48.0580000+00:00</time>
      </trkpt>
      <trkpt lat="52.18796" lon="10.84778">
        <ele>207.32</ele>
        <time>2026-08-31T01:15:03.9160000+00:00</time>
      </trkpt>
      <trkpt lat="52.18791" lon="10.84742">
        <ele>208.18</ele>
        <time>2026-08-31T01:15:12.5310000+00:00</time>
      </trkpt>
      <trkpt lat="52.18802" lon="10.84739">
        <ele>208.38</ele>
        <time>2026-08-31T01:15:16.7760000+00:00</time>
      </trkpt>
      <trkpt lat="52.18856" lon="10.84764">
        <ele>209.81</ele>
        <time>2026-08-31T01:15:38.1440000+00:00</time>
      </trkpt>
      <trkpt lat="52.18892" lon="10.84769">
        <ele>211.42</ele>
        <time>2026-08-31T01:15:51.8970000+00:00</time>
      </trkpt>
      <trkpt lat="52.18922" lon="10.84759">
        <ele>212.03</ele>
        <time>2026-08-31T01:16:03.5530000+00:00</time>
      </trkpt>
      <trkpt lat="52.18963" lon="10.84742">
        <ele>212.06</ele>
        <time>2026-08-31T01:16:19.6570000+00:00</time>
      </trkpt>
      <trkpt lat="52.18993" lon="10.84731">
        <ele>212.07</ele>
        <time>2026-08-31T01:16:31.3620000+00:00</time>
      </trkpt>
      <trkpt lat="52.1903" lon="10.8472">
        <ele>212.27</ele>
        <time>2026-08-31T01:16:45.6780000+00:00</time>
      </trkpt>
      <trkpt lat="52.19038" lon="10.84716">
        <ele>212.28</ele>
        <time>2026-08-31T01:16:48.8640000+00:00</time>
      </trkpt>
      <trkpt lat="52.19046" lon="10.84714">
        <ele>212.31</ele>
        <time>2026-08-31T01:16:51.9450000+00:00</time>
      </trkpt>
      <trkpt lat="52.19094" lon="10.84697">
        <ele>213.62</ele>
        <time>2026-08-31T01:17:10.6420000+00:00</time>
      </trkpt>
      <trkpt lat="52.19102" lon="10.84695">
        <ele>214</ele>
        <time>2026-08-31T01:17:13.7230000+00:00</time>
      </trkpt>
      <trkpt lat="52.19138" lon="10.84679">
        <ele>215.38</ele>
        <time>2026-08-31T01:17:27.9270000+00:00</time>
      </trkpt>
      <trkpt lat="52.1917" lon="10.84668">
        <ele>215.99</ele>
        <time>2026-08-31T01:17:40.3750000+00:00</time>
      </trkpt>
      <trkpt lat="52.19203" lon="10.84656">
        <ele>216.24</ele>
        <time>2026-08-31T01:17:53.2460000+00:00</time>
      </trkpt>
      <trkpt lat="52.19243" lon="10.84642">
        <ele>216.42</ele>
        <time>2026-08-31T01:18:08.8190000+00:00</time>
      </trkpt>
      <trkpt lat="52.19283" lon="10.84627">
        <ele>216.09</ele>
        <time>2026-08-31T01:18:24.4420000+00:00</time>
      </trkpt>
      <trkpt lat="52.19285" lon="10.84626">
        <ele>216.09</ele>
        <time>2026-08-31T01:18:25.2390000+00:00</time>
      </trkpt>
      <trkpt lat="52.19286" lon="10.8459">
        <ele>216.76</ele>
        <time>2026-08-31T01:18:33.6480000+00:00</time>
      </trkpt>
      <trkpt lat="52.19274" lon="10.84518">
        <ele>217.83</ele>
        <time>2026-08-31T01:18:51.0590000+00:00</time>
      </trkpt>
      <trkpt lat="52.19274" lon="10.84512">
        <ele>217.96</ele>
        <time>2026-08-31T01:18:52.4590000+00:00</time>
      </trkpt>
      <trkpt lat="52.1927" lon="10.84482">
        <ele>218.84</ele>
        <time>2026-08-31T01:18:59.6230000+00:00</time>
      </trkpt>
      <trkpt lat="52.1926" lon="10.84408">
        <ele>220.15</ele>
        <time>2026-08-31T01:19:17.3060000+00:00</time>
      </trkpt>
      <trkpt lat="52.1925" lon="10.84335">
        <ele>219.21</ele>
        <time>2026-08-31T01:19:34.7610000+00:00</time>
      </trkpt>
      <trkpt lat="52.19239" lon="10.84249">
        <ele>219.19</ele>
        <time>2026-08-31T01:19:55.2610000+00:00</time>
      </trkpt>
      <trkpt lat="52.19232" lon="10.84189">
        <ele>219.09</ele>
        <time>2026-08-31T01:20:09.5140000+00:00</time>
      </trkpt>
      <trkpt lat="52.19227" lon="10.84149">
        <ele>220.79</ele>
        <time>2026-08-31T01:20:19.0400000+00:00</time>
      </trkpt>
      <trkpt lat="52.19222" lon="10.8411">
        <ele>222.81</ele>
        <time>2026-08-31T01:20:28.3370000+00:00</time>
      </trkpt>
      <trkpt lat="52.19212" lon="10.84096">
        <ele>223.8</ele>
        <time>2026-08-31T01:20:33.3540000+00:00</time>
      </trkpt>
      <trkpt lat="52.19203" lon="10.8409">
        <ele>224.19</ele>
        <time>2026-08-31T01:20:37.0550000+00:00</time>
      </trkpt>
      <trkpt lat="52.19194" lon="10.84048">
        <ele>224.77</ele>
        <time>2026-08-31T01:20:47.4370000+00:00</time>
      </trkpt>
      <trkpt lat="52.19186" lon="10.84003">
        <ele>225.05</ele>
        <time>2026-08-31T01:20:58.3710000+00:00</time>
      </trkpt>
      <trkpt lat="52.19186" lon="10.83949">
        <ele>225.33</ele>
        <time>2026-08-31T01:21:10.9720000+00:00</time>
      </trkpt>
      <trkpt lat="52.19183" lon="10.83885">
        <ele>226.47</ele>
        <time>2026-08-31T01:21:25.9500000+00:00</time>
      </trkpt>
      <trkpt lat="52.19175" lon="10.83824">
        <ele>227.65</ele>
        <time>2026-08-31T01:21:40.5070000+00:00</time>
      </trkpt>
      <trkpt lat="52.19168" lon="10.83781">
        <ele>228.16</ele>
        <time>2026-08-31T01:21:50.8890000+00:00</time>
      </trkpt>
      <trkpt lat="52.1916" lon="10.83716">
        <ele>228.67</ele>
        <time>2026-08-31T01:22:06.3600000+00:00</time>
      </trkpt>
      <trkpt lat="52.19151" lon="10.83655">
        <ele>230.21</ele>
        <time>2026-08-31T01:22:21.0010000+00:00</time>
      </trkpt>
      <trkpt lat="52.19147" lon="10.83612">
        <ele>232.38</ele>
        <time>2026-08-31T01:22:31.1500000+00:00</time>
      </trkpt>
      <trkpt lat="52.1914" lon="10.83558">
        <ele>235.01</ele>
        <time>2026-08-31T01:22:44.0300000+00:00</time>
      </trkpt>
      <trkpt lat="52.19129" lon="10.835">
        <ele>237.33</ele>
        <time>2026-08-31T01:22:58.1970000+00:00</time>
      </trkpt>
      <trkpt lat="52.19122" lon="10.8344">
        <ele>238.77</ele>
        <time>2026-08-31T01:23:12.4500000+00:00</time>
      </trkpt>
      <trkpt lat="52.19111" lon="10.83371">
        <ele>240.05</ele>
        <time>2026-08-31T01:23:29.0880000+00:00</time>
      </trkpt>
      <trkpt lat="52.191" lon="10.83308">
        <ele>241.92</ele>
        <time>2026-08-31T01:23:44.3740000+00:00</time>
      </trkpt>
      <trkpt lat="52.19092" lon="10.83247">
        <ele>243.64</ele>
        <time>2026-08-31T01:23:58.9310000+00:00</time>
      </trkpt>
      <trkpt lat="52.19085" lon="10.83173">
        <ele>245.26</ele>
        <time>2026-08-31T01:24:16.4040000+00:00</time>
      </trkpt>
      <trkpt lat="52.19092" lon="10.83105">
        <ele>247.46</ele>
        <time>2026-08-31T01:24:32.4940000+00:00</time>
      </trkpt>
      <trkpt lat="52.19107" lon="10.83059">
        <ele>248.01</ele>
        <time>2026-08-31T01:24:44.6530000+00:00</time>
      </trkpt>
      <trkpt lat="52.19124" lon="10.82996">
        <ele>248.4</ele>
        <time>2026-08-31T01:25:00.7160000+00:00</time>
      </trkpt>
      <trkpt lat="52.1914" lon="10.82948">
        <ele>248.97</ele>
        <time>2026-08-31T01:25:13.4660000+00:00</time>
      </trkpt>
      <trkpt lat="52.19165" lon="10.82876">
        <ele>249.57</ele>
        <time>2026-08-31T01:25:32.7750000+00:00</time>
      </trkpt>
      <trkpt lat="52.19179" lon="10.82828">
        <ele>250.17</ele>
        <time>2026-08-31T01:25:45.1800000+00:00</time>
      </trkpt>
      <trkpt lat="52.19201" lon="10.82759">
        <ele>250.46</ele>
        <time>2026-08-31T01:26:03.3290000+00:00</time>
      </trkpt>
      <trkpt lat="52.19217" lon="10.82691">
        <ele>251.08</ele>
        <time>2026-08-31T01:26:20.3250000+00:00</time>
      </trkpt>
      <trkpt lat="52.1922" lon="10.82654">
        <ele>251.76</ele>
        <time>2026-08-31T01:26:29.0350000+00:00</time>
      </trkpt>
      <trkpt lat="52.19218" lon="10.82594">
        <ele>253.05</ele>
        <time>2026-08-31T01:26:43.0560000+00:00</time>
      </trkpt>
      <trkpt lat="52.19219" lon="10.8254">
        <ele>253.82</ele>
        <time>2026-08-31T01:26:55.6630000+00:00</time>
      </trkpt>
      <trkpt lat="52.1922" lon="10.82517">
        <ele>254.13</ele>
        <time>2026-08-31T01:27:01.0440000+00:00</time>
      </trkpt>
      <trkpt lat="52.19218" lon="10.82486">
        <ele>254.53</ele>
        <time>2026-08-31T01:27:08.3180000+00:00</time>
      </trkpt>
      <trkpt lat="52.19217" lon="10.82476">
        <ele>254.67</ele>
        <time>2026-08-31T01:27:10.6820000+00:00</time>
      </trkpt>
      <trkpt lat="52.19215" lon="10.8241">
        <ele>255.17</ele>
        <time>2026-08-31T01:27:26.1020000+00:00</time>
      </trkpt>
      <trkpt lat="52.1922" lon="10.82354">
        <ele>255.01</ele>
        <time>2026-08-31T01:27:39.3070000+00:00</time>
      </trkpt>
      <trkpt lat="52.19224" lon="10.82287">
        <ele>255.09</ele>
        <time>2026-08-31T01:27:55.0160000+00:00</time>
      </trkpt>
      <trkpt lat="52.19226" lon="10.82233">
        <ele>255.97</ele>
        <time>2026-08-31T01:28:07.6400000+00:00</time>
      </trkpt>
      <trkpt lat="52.19233" lon="10.82211">
        <ele>256.33</ele>
        <time>2026-08-31T01:28:13.4240000+00:00</time>
      </trkpt>
      <trkpt lat="52.19234" lon="10.82167">
        <ele>258.05</ele>
        <time>2026-08-31T01:28:23.6990000+00:00</time>
      </trkpt>
      <trkpt lat="52.19239" lon="10.82116">
        <ele>261.64</ele>
        <time>2026-08-31T01:28:35.7510000+00:00</time>
      </trkpt>
      <trkpt lat="52.1924" lon="10.82056">
        <ele>264.45</ele>
        <time>2026-08-31T01:28:49.7570000+00:00</time>
      </trkpt>
      <trkpt lat="52.19243" lon="10.81993">
        <ele>266.76</ele>
        <time>2026-08-31T01:29:04.5020000+00:00</time>
      </trkpt>
      <trkpt lat="52.19248" lon="10.81922">
        <ele>269.16</ele>
        <time>2026-08-31T01:29:21.1790000+00:00</time>
      </trkpt>
      <trkpt lat="52.19254" lon="10.81857">
        <ele>271.24</ele>
        <time>2026-08-31T01:29:36.5180000+00:00</time>
      </trkpt>
      <trkpt lat="52.19258" lon="10.81802">
        <ele>272.54</ele>
        <time>2026-08-31T01:29:49.4420000+00:00</time>
      </trkpt>
      <trkpt lat="52.19261" lon="10.81787">
        <ele>272.83</ele>
        <time>2026-08-31T01:29:53.1240000+00:00</time>
      </trkpt>
      <trkpt lat="52.19265" lon="10.81722">
        <ele>273.64</ele>
        <time>2026-08-31T01:30:08.3680000+00:00</time>
      </trkpt>
      <trkpt lat="52.19273" lon="10.81665">
        <ele>273.92</ele>
        <time>2026-08-31T01:30:22.0130000+00:00</time>
      </trkpt>
      <trkpt lat="52.19275" lon="10.81604">
        <ele>273.55</ele>
        <time>2026-08-31T01:30:36.2680000+00:00</time>
      </trkpt>
      <trkpt lat="52.19279" lon="10.81532">
        <ele>273.31</ele>
        <time>2026-08-31T01:30:53.1380000+00:00</time>
      </trkpt>
      <trkpt lat="52.19281" lon="10.8147">
        <ele>274.2</ele>
        <time>2026-08-31T01:31:07.6260000+00:00</time>
      </trkpt>
      <trkpt lat="52.19286" lon="10.81414">
        <ele>275.23</ele>
        <time>2026-08-31T01:31:20.8310000+00:00</time>
      </trkpt>
      <trkpt lat="52.19291" lon="10.81351">
        <ele>276.77</ele>
        <time>2026-08-31T01:31:35.6550000+00:00</time>
      </trkpt>
      <trkpt lat="52.19294" lon="10.81325">
        <ele>277.01</ele>
        <time>2026-08-31T01:31:41.8280000+00:00</time>
      </trkpt>
      <trkpt lat="52.19295" lon="10.81265">
        <ele>278.14</ele>
        <time>2026-08-31T01:31:55.8350000+00:00</time>
      </trkpt>
      <trkpt lat="52.193" lon="10.812">
        <ele>278.58</ele>
        <time>2026-08-31T01:32:11.1210000+00:00</time>
      </trkpt>
      <trkpt lat="52.19304" lon="10.8115">
        <ele>280</ele>
        <time>2026-08-31T01:32:22.8870000+00:00</time>
      </trkpt>
      <trkpt lat="52.19308" lon="10.81092">
        <ele>282.38</ele>
        <time>2026-08-31T01:32:36.5070000+00:00</time>
      </trkpt>
      <trkpt lat="52.19316" lon="10.81031">
        <ele>284.48</ele>
        <time>2026-08-31T01:32:51.0630000+00:00</time>
      </trkpt>
      <trkpt lat="52.19323" lon="10.80975">
        <ele>287.38</ele>
        <time>2026-08-31T01:33:04.4000000+00:00</time>
      </trkpt>
      <trkpt lat="52.19328" lon="10.80922">
        <ele>290.22</ele>
        <time>2026-08-31T01:33:16.9130000+00:00</time>
      </trkpt>
      <trkpt lat="52.19329" lon="10.80911">
        <ele>290.68</ele>
        <time>2026-08-31T01:33:19.5070000+00:00</time>
      </trkpt>
      <trkpt lat="52.19331" lon="10.80894">
        <ele>291.37</ele>
        <time>2026-08-31T01:33:23.5470000+00:00</time>
      </trkpt>
      <trkpt lat="52.19331" lon="10.80856">
        <ele>293.04</ele>
        <time>2026-08-31T01:33:32.4140000+00:00</time>
      </trkpt>
      <trkpt lat="52.19332" lon="10.80839">
        <ele>293.52</ele>
        <time>2026-08-31T01:33:36.3990000+00:00</time>
      </trkpt>
      <trkpt lat="52.19333" lon="10.80829">
        <ele>293.68</ele>
        <time>2026-08-31T01:33:38.7630000+00:00</time>
      </trkpt>
      <trkpt lat="52.19338" lon="10.80782">
        <ele>294.42</ele>
        <time>2026-08-31T01:33:49.8940000+00:00</time>
      </trkpt>
      <trkpt lat="52.19342" lon="10.80732">
        <ele>296.03</ele>
        <time>2026-08-31T01:34:01.6610000+00:00</time>
      </trkpt>
      <trkpt lat="52.19345" lon="10.80682">
        <ele>298.04</ele>
        <time>2026-08-31T01:34:13.3840000+00:00</time>
      </trkpt>
      <trkpt lat="52.19347" lon="10.80631">
        <ele>300.52</ele>
        <time>2026-08-31T01:34:25.3090000+00:00</time>
      </trkpt>
      <trkpt lat="52.19349" lon="10.8059">
        <ele>302.4</ele>
        <time>2026-08-31T01:34:34.9060000+00:00</time>
      </trkpt>
      <trkpt lat="52.19353" lon="10.80541">
        <ele>304.37</ele>
        <time>2026-08-31T01:34:46.4410000+00:00</time>
      </trkpt>
      <trkpt lat="52.19355" lon="10.805">
        <ele>305.74</ele>
        <time>2026-08-31T01:34:56.0380000+00:00</time>
      </trkpt>
      <trkpt lat="52.1936" lon="10.80455">
        <ele>306.38</ele>
        <time>2026-08-31T01:35:06.7100000+00:00</time>
      </trkpt>
      <trkpt lat="52.19361" lon="10.80451">
        <ele>306.4</ele>
        <time>2026-08-31T01:35:07.7180000+00:00</time>
      </trkpt>
      <trkpt lat="52.19363" lon="10.80394">
        <ele>307.94</ele>
        <time>2026-08-31T01:35:21.0400000+00:00</time>
      </trkpt>
      <trkpt lat="52.19366" lon="10.80351">
        <ele>309.2</ele>
        <time>2026-08-31T01:35:31.1390000+00:00</time>
      </trkpt>
      <trkpt lat="52.1937" lon="10.80295">
        <ele>310.94</ele>
        <time>2026-08-31T01:35:44.2950000+00:00</time>
      </trkpt>
      <trkpt lat="52.19373" lon="10.80222">
        <ele>314.33</ele>
        <time>2026-08-31T01:36:01.3670000+00:00</time>
      </trkpt>
      <trkpt lat="52.19373" lon="10.8016">
        <ele>317.93</ele>
        <time>2026-08-31T01:36:15.8340000+00:00</time>
      </trkpt>
      <trkpt lat="52.19374" lon="10.80097">
        <ele>322.16</ele>
        <time>2026-08-31T01:36:30.5400000+00:00</time>
      </trkpt>
      <trkpt lat="52.19377" lon="10.80027">
        <ele>323.92</ele>
        <time>2026-08-31T01:36:46.9140000+00:00</time>
      </trkpt>
      <trkpt lat="52.19378" lon="10.80014">
        <ele>324.18</ele>
        <time>2026-08-31T01:36:49.9710000+00:00</time>
      </trkpt>
      <trkpt lat="52.19387" lon="10.80012">
        <ele>324.5</ele>
        <time>2026-08-31T01:36:53.4290000+00:00</time>
      </trkpt>
      <trkpt lat="52.19426" lon="10.8005">
        <ele>325.09</ele>
        <time>2026-08-31T01:37:10.7210000+00:00</time>
      </trkpt>
      <trkpt lat="52.19471" lon="10.80095">
        <ele>324.96</ele>
        <time>2026-08-31T01:37:30.8130000+00:00</time>
      </trkpt>
      <trkpt lat="52.19494" lon="10.80118">
        <ele>325.22</ele>
        <time>2026-08-31T01:37:41.0830000+00:00</time>
      </trkpt>
      <trkpt lat="52.19544" lon="10.80167">
        <ele>325.86</ele>
        <time>2026-08-31T01:38:03.2860000+00:00</time>
      </trkpt>
      <trkpt lat="52.19606" lon="10.80231">
        <ele>323.2</ele>
        <time>2026-08-31T01:38:31.2150000+00:00</time>
      </trkpt>
      <trkpt lat="52.19657" lon="10.80282">
        <ele>321.17</ele>
        <time>2026-08-31T01:38:53.9850000+00:00</time>
      </trkpt>
      <trkpt lat="52.19676" lon="10.80302">
        <ele>319.98</ele>
        <time>2026-08-31T01:39:02.5930000+00:00</time>
      </trkpt>
      <trkpt lat="52.19687" lon="10.80312">
        <ele>319.37</ele>
        <time>2026-08-31T01:39:07.3860000+00:00</time>
      </trkpt>
      <trkpt lat="52.19703" lon="10.80328">
        <ele>318.41</ele>
        <time>2026-08-31T01:39:14.5300000+00:00</time>
      </trkpt>
      <trkpt lat="52.19779" lon="10.80405">
        <ele>313.99</ele>
        <time>2026-08-31T01:39:48.5850000+00:00</time>
      </trkpt>
      <trkpt lat="52.19852" lon="10.80471">
        <ele>309.05</ele>
        <time>2026-08-31T01:40:20.3550000+00:00</time>
      </trkpt>
      <trkpt lat="52.19902" lon="10.80514">
        <ele>305.14</ele>
        <time>2026-08-31T01:40:41.8710000+00:00</time>
      </trkpt>
      <trkpt lat="52.19966" lon="10.80549">
        <ele>303.5</ele>
        <time>2026-08-31T01:41:07.5650000+00:00</time>
      </trkpt>
      <trkpt lat="52.20014" lon="10.80576">
        <ele>303.04</ele>
        <time>2026-08-31T01:41:26.8930000+00:00</time>
      </trkpt>
      <trkpt lat="52.20067" lon="10.80606">
        <ele>303.02</ele>
        <time>2026-08-31T01:41:48.2470000+00:00</time>
      </trkpt>
      <trkpt lat="52.2009" lon="10.80621">
        <ele>304.05</ele>
        <time>2026-08-31T01:41:57.6760000+00:00</time>
      </trkpt>
      <trkpt lat="52.20142" lon="10.8065">
        <ele>306.07</ele>
        <time>2026-08-31T01:42:18.5950000+00:00</time>
      </trkpt>
      <trkpt lat="52.20179" lon="10.8067">
        <ele>306.4</ele>
        <time>2026-08-31T01:42:33.4320000+00:00</time>
      </trkpt>
      <trkpt lat="52.20192" lon="10.80678">
        <ele>306.51</ele>
        <time>2026-08-31T01:42:38.7210000+00:00</time>
      </trkpt>
      <trkpt lat="52.2022" lon="10.80694">
        <ele>306.48</ele>
        <time>2026-08-31T01:42:50.0150000+00:00</time>
      </trkpt>
      <trkpt lat="52.20272" lon="10.80722">
        <ele>306.03</ele>
        <time>2026-08-31T01:43:10.8590000+00:00</time>
      </trkpt>
      <trkpt lat="52.20287" lon="10.80729">
        <ele>306.05</ele>
        <time>2026-08-31T01:43:16.7980000+00:00</time>
      </trkpt>
      <trkpt lat="52.20306" lon="10.80738">
        <ele>306.17</ele>
        <time>2026-08-31T01:43:24.3290000+00:00</time>
      </trkpt>
      <trkpt lat="52.20347" lon="10.80751">
        <ele>307.58</ele>
        <time>2026-08-31T01:43:40.2290000+00:00</time>
      </trkpt>
      <trkpt lat="52.20372" lon="10.80764">
        <ele>308.68</ele>
        <time>2026-08-31T01:43:50.2170000+00:00</time>
      </trkpt>
      <trkpt lat="52.20401" lon="10.80787">
        <ele>308.97</ele>
        <time>2026-08-31T01:44:02.4910000+00:00</time>
      </trkpt>
      <trkpt lat="52.20468" lon="10.8084">
        <ele>306.26</ele>
        <time>2026-08-31T01:44:30.8340000+00:00</time>
      </trkpt>
      <trkpt lat="52.20518" lon="10.80879">
        <ele>305.22</ele>
        <time>2026-08-31T01:44:51.9300000+00:00</time>
      </trkpt>
      <trkpt lat="52.20552" lon="10.80886">
        <ele>304.73</ele>
        <time>2026-08-31T01:45:04.9760000+00:00</time>
      </trkpt>
      <trkpt lat="52.2057" lon="10.80864">
        <ele>304.72</ele>
        <time>2026-08-31T01:45:13.5360000+00:00</time>
      </trkpt>
      <trkpt lat="52.20571" lon="10.80859">
        <ele>304.75</ele>
        <time>2026-08-31T01:45:14.7630000+00:00</time>
      </trkpt>
      <trkpt lat="52.20567" lon="10.80771">
        <ele>305.9</ele>
        <time>2026-08-31T01:45:35.3480000+00:00</time>
      </trkpt>
      <trkpt lat="52.20566" lon="10.80765">
        <ele>305.94</ele>
        <time>2026-08-31T01:45:36.7990000+00:00</time>
      </trkpt>
      <trkpt lat="52.20536" lon="10.80682">
        <ele>303.11</ele>
        <time>2026-08-31T01:45:59.2780000+00:00</time>
      </trkpt>
      <trkpt lat="52.20528" lon="10.80661">
        <ele>301.88</ele>
        <time>2026-08-31T01:46:05.0470000+00:00</time>
      </trkpt>
      <trkpt lat="52.20518" lon="10.80642">
        <ele>301.2</ele>
        <time>2026-08-31T01:46:10.8890000+00:00</time>
      </trkpt>
      <trkpt lat="52.20505" lon="10.80614">
        <ele>300.4</ele>
        <time>2026-08-31T01:46:19.0840000+00:00</time>
      </trkpt>
      <trkpt lat="52.20471" lon="10.80524">
        <ele>295.48</ele>
        <time>2026-08-31T01:46:43.7490000+00:00</time>
      </trkpt>
      <trkpt lat="52.20455" lon="10.80484">
        <ele>294.44</ele>
        <time>2026-08-31T01:46:54.8920000+00:00</time>
      </trkpt>
      <trkpt lat="52.20451" lon="10.80433">
        <ele>290.84</ele>
        <time>2026-08-31T01:47:06.8870000+00:00</time>
      </trkpt>
      <trkpt lat="52.20465" lon="10.80362">
        <ele>284.34</ele>
        <time>2026-08-31T01:47:24.2860000+00:00</time>
      </trkpt>
      <trkpt lat="52.20468" lon="10.8035">
        <ele>283.27</ele>
        <time>2026-08-31T01:47:27.3100000+00:00</time>
      </trkpt>
      <trkpt lat="52.20478" lon="10.80362">
        <ele>283.18</ele>
        <time>2026-08-31T01:47:32.0350000+00:00</time>
      </trkpt>
      <trkpt lat="52.20498" lon="10.80406">
        <ele>284.53</ele>
        <time>2026-08-31T01:47:44.8140000+00:00</time>
      </trkpt>
      <trkpt lat="52.20509" lon="10.80423">
        <ele>284.87</ele>
        <time>2026-08-31T01:47:50.5820000+00:00</time>
      </trkpt>
      <trkpt lat="52.20514" lon="10.80437">
        <ele>285.39</ele>
        <time>2026-08-31T01:47:54.3620000+00:00</time>
      </trkpt>
      <trkpt lat="52.20517" lon="10.80441">
        <ele>285.45</ele>
        <time>2026-08-31T01:47:55.8370000+00:00</time>
      </trkpt>
      <trkpt lat="52.20535" lon="10.80474">
        <ele>286.21</ele>
        <time>2026-08-31T01:48:06.1430000+00:00</time>
      </trkpt>
      <trkpt lat="52.20536" lon="10.80477">
        <ele>286.31</ele>
        <time>2026-08-31T01:48:06.9400000+00:00</time>
      </trkpt>
      <trkpt lat="52.2056" lon="10.80508">
        <ele>286.11</ele>
        <time>2026-08-31T01:48:18.5910000+00:00</time>
      </trkpt>
      <trkpt lat="52.2057" lon="10.80522">
        <ele>286.24</ele>
        <time>2026-08-31T01:48:23.6070000+00:00</time>
      </trkpt>
      <trkpt lat="52.2058" lon="10.80534">
        <ele>286.65</ele>
        <time>2026-08-31T01:48:28.3320000+00:00</time>
      </trkpt>
      <trkpt lat="52.206" lon="10.80541">
        <ele>286.28</ele>
        <time>2026-08-31T01:48:36.1190000+00:00</time>
      </trkpt>
      <trkpt lat="52.20614" lon="10.80543">
        <ele>285.82</ele>
        <time>2026-08-31T01:48:41.4690000+00:00</time>
      </trkpt>
      <trkpt lat="52.20629" lon="10.80542">
        <ele>285.07</ele>
        <time>2026-08-31T01:48:47.1830000+00:00</time>
      </trkpt>
      <trkpt lat="52.20645" lon="10.80542">
        <ele>284.36</ele>
        <time>2026-08-31T01:48:53.2740000+00:00</time>
      </trkpt>
      <trkpt lat="52.20654" lon="10.80542">
        <ele>284.15</ele>
        <time>2026-08-31T01:48:56.7000000+00:00</time>
      </trkpt>
      <trkpt lat="52.2067" lon="10.80539">
        <ele>283.89</ele>
        <time>2026-08-31T01:49:02.8310000+00:00</time>
      </trkpt>
      <trkpt lat="52.20676" lon="10.80521">
        <ele>282.65</ele>
        <time>2026-08-31T01:49:07.6110000+00:00</time>
      </trkpt>
      <trkpt lat="52.20727" lon="10.80482">
        <ele>282.11</ele>
        <time>2026-08-31T01:49:29.0500000+00:00</time>
      </trkpt>
      <trkpt lat="52.20739" lon="10.80476">
        <ele>281.88</ele>
        <time>2026-08-31T01:49:33.8280000+00:00</time>
      </trkpt>
      <trkpt lat="52.20774" lon="10.80458">
        <ele>280.61</ele>
        <time>2026-08-31T01:49:47.7970000+00:00</time>
      </trkpt>
      <trkpt lat="52.20792" lon="10.80451">
        <ele>280.01</ele>
        <time>2026-08-31T01:49:54.8410000+00:00</time>
      </trkpt>
      <trkpt lat="52.20817" lon="10.80444">
        <ele>279.23</ele>
        <time>2026-08-31T01:50:04.4970000+00:00</time>
      </trkpt>
      <trkpt lat="52.20835" lon="10.80438">
        <ele>278.46</ele>
        <time>2026-08-31T01:50:11.4900000+00:00</time>
      </trkpt>
      <trkpt lat="52.20856" lon="10.80397">
        <ele>275.83</ele>
        <time>2026-08-31T01:50:23.9550000+00:00</time>
      </trkpt>
      <trkpt lat="52.20854" lon="10.8039">
        <ele>275.57</ele>
        <time>2026-08-31T01:50:25.7570000+00:00</time>
      </trkpt>
      <trkpt lat="52.20856" lon="10.80386">
        <ele>275.3</ele>
        <time>2026-08-31T01:50:26.9610000+00:00</time>
      </trkpt>
      <trkpt lat="52.2086" lon="10.80384">
        <ele>275.06</ele>
        <time>2026-08-31T01:50:28.5530000+00:00</time>
      </trkpt>
      <trkpt lat="52.2087" lon="10.80368">
        <ele>273.93</ele>
        <time>2026-08-31T01:50:33.8840000+00:00</time>
      </trkpt>
      <trkpt lat="52.20881" lon="10.8035">
        <ele>272.67</ele>
        <time>2026-08-31T01:50:39.8140000+00:00</time>
      </trkpt>
      <trkpt lat="52.20897" lon="10.80332">
        <ele>271.64</ele>
        <time>2026-08-31T01:50:47.2120000+00:00</time>
      </trkpt>
      <trkpt lat="52.20917" lon="10.80319">
        <ele>271.21</ele>
        <time>2026-08-31T01:50:55.4070000+00:00</time>
      </trkpt>
      <trkpt lat="52.20956" lon="10.80303">
        <ele>270.96</ele>
        <time>2026-08-31T01:51:10.7150000+00:00</time>
      </trkpt>
      <trkpt lat="52.20984" lon="10.80287">
        <ele>270.98</ele>
        <time>2026-08-31T01:51:22.0080000+00:00</time>
      </trkpt>
      <trkpt lat="52.21023" lon="10.80281">
        <ele>270.37</ele>
        <time>2026-08-31T01:51:36.9200000+00:00</time>
      </trkpt>
      <trkpt lat="52.21075" lon="10.80284">
        <ele>269.45</ele>
        <time>2026-08-31T01:51:56.7270000+00:00</time>
      </trkpt>
      <trkpt lat="52.21111" lon="10.80283">
        <ele>267.84</ele>
        <time>2026-08-31T01:52:10.4320000+00:00</time>
      </trkpt>
      <trkpt lat="52.21149" lon="10.80291">
        <ele>266.77</ele>
        <time>2026-08-31T01:52:25.0180000+00:00</time>
      </trkpt>
      <trkpt lat="52.2117" lon="10.80294">
        <ele>267.57</ele>
        <time>2026-08-31T01:52:33.0420000+00:00</time>
      </trkpt>
      <trkpt lat="52.2119" lon="10.80294">
        <ele>268.13</ele>
        <time>2026-08-31T01:52:40.6550000+00:00</time>
      </trkpt>
      <trkpt lat="52.21214" lon="10.80286">
        <ele>268.15</ele>
        <time>2026-08-31T01:52:49.9800000+00:00</time>
      </trkpt>
      <trkpt lat="52.21237" lon="10.80272">
        <ele>267.79</ele>
        <time>2026-08-31T01:52:59.3240000+00:00</time>
      </trkpt>
      <trkpt lat="52.21257" lon="10.80256">
        <ele>267.94</ele>
        <time>2026-08-31T01:53:07.8030000+00:00</time>
      </trkpt>
      <trkpt lat="52.21282" lon="10.80224">
        <ele>267.32</ele>
        <time>2026-08-31T01:53:19.8970000+00:00</time>
      </trkpt>
      <trkpt lat="52.21288" lon="10.80212">
        <ele>266.87</ele>
        <time>2026-08-31T01:53:23.5100000+00:00</time>
      </trkpt>
      <trkpt lat="52.21293" lon="10.80197">
        <ele>266.14</ele>
        <time>2026-08-31T01:53:27.4930000+00:00</time>
      </trkpt>
      <trkpt lat="52.21307" lon="10.80172">
        <ele>265.69</ele>
        <time>2026-08-31T01:53:35.3920000+00:00</time>
      </trkpt>
      <trkpt lat="52.2132" lon="10.8016">
        <ele>265.43</ele>
        <time>2026-08-31T01:53:41.0780000+00:00</time>
      </trkpt>
      <trkpt lat="52.21343" lon="10.80144">
        <ele>263.5</ele>
        <time>2026-08-31T01:53:50.5950000+00:00</time>
      </trkpt>
      <trkpt lat="52.21352" lon="10.80138">
        <ele>262.74</ele>
        <time>2026-08-31T01:53:54.2960000+00:00</time>
      </trkpt>
      <trkpt lat="52.21361" lon="10.80133">
        <ele>262.02</ele>
        <time>2026-08-31T01:53:57.9140000+00:00</time>
      </trkpt>
      <trkpt lat="52.21392" lon="10.80111">
        <ele>259.12</ele>
        <time>2026-08-31T01:54:10.7820000+00:00</time>
      </trkpt>
      <trkpt lat="52.21407" lon="10.80092">
        <ele>256.39</ele>
        <time>2026-08-31T01:54:18.0100000+00:00</time>
      </trkpt>
      <trkpt lat="52.21419" lon="10.80073">
        <ele>253.71</ele>
        <time>2026-08-31T01:54:24.3740000+00:00</time>
      </trkpt>
      <trkpt lat="52.21436" lon="10.80068">
        <ele>251.47</ele>
        <time>2026-08-31T01:54:30.9500000+00:00</time>
      </trkpt>
      <trkpt lat="52.21448" lon="10.80073">
        <ele>250.33</ele>
        <time>2026-08-31T01:54:35.6650000+00:00</time>
      </trkpt>
      <trkpt lat="52.21466" lon="10.80084">
        <ele>248.6</ele>
        <time>2026-08-31T01:54:42.9810000+00:00</time>
      </trkpt>
      <trkpt lat="52.2149" lon="10.801">
        <ele>246.44</ele>
        <time>2026-08-31T01:54:52.8500000+00:00</time>
      </trkpt>
      <trkpt lat="52.21548" lon="10.8015">
        <ele>246.59</ele>
        <time>2026-08-31T01:55:17.8190000+00:00</time>
      </trkpt>
      <trkpt lat="52.21563" lon="10.80162">
        <ele>246.41</ele>
        <time>2026-08-31T01:55:24.1780000+00:00</time>
      </trkpt>
      <trkpt lat="52.21582" lon="10.80168">
        <ele>246.56</ele>
        <time>2026-08-31T01:55:31.5450000+00:00</time>
      </trkpt>
      <trkpt lat="52.21591" lon="10.80172">
        <ele>246.79</ele>
        <time>2026-08-31T01:55:35.0950000+00:00</time>
      </trkpt>
      <trkpt lat="52.21622" lon="10.80186">
        <ele>247.71</ele>
        <time>2026-08-31T01:55:47.3390000+00:00</time>
      </trkpt>
      <trkpt lat="52.2165" lon="10.80195">
        <ele>248.47</ele>
        <time>2026-08-31T01:55:58.2030000+00:00</time>
      </trkpt>
      <trkpt lat="52.21659" lon="10.80198">
        <ele>248.25</ele>
        <time>2026-08-31T01:56:01.6990000+00:00</time>
      </trkpt>
      <trkpt lat="52.2167" lon="10.80203">
        <ele>248.2</ele>
        <time>2026-08-31T01:56:06.0460000+00:00</time>
      </trkpt>
      <trkpt lat="52.21684" lon="10.80208">
        <ele>247.98</ele>
        <time>2026-08-31T01:56:11.5010000+00:00</time>
      </trkpt>
      <trkpt lat="52.21695" lon="10.80211">
        <ele>247.71</ele>
        <time>2026-08-31T01:56:15.7470000+00:00</time>
      </trkpt>
      <trkpt lat="52.21716" lon="10.80222">
        <ele>248.03</ele>
        <time>2026-08-31T01:56:24.1430000+00:00</time>
      </trkpt>
      <trkpt lat="52.21757" lon="10.80233">
        <ele>246.61</ele>
        <time>2026-08-31T01:56:39.9590000+00:00</time>
      </trkpt>
      <trkpt lat="52.21765" lon="10.80235">
        <ele>246.21</ele>
        <time>2026-08-31T01:56:43.0400000+00:00</time>
      </trkpt>
      <trkpt lat="52.21805" lon="10.8025">
        <ele>244.75</ele>
        <time>2026-08-31T01:56:58.6630000+00:00</time>
      </trkpt>
      <trkpt lat="52.2186" lon="10.80267">
        <ele>240.14</ele>
        <time>2026-08-31T01:57:19.9720000+00:00</time>
      </trkpt>
      <trkpt lat="52.2189" lon="10.80279">
        <ele>237.74</ele>
        <time>2026-08-31T01:57:31.7300000+00:00</time>
      </trkpt>
      <trkpt lat="52.21905" lon="10.80282">
        <ele>236.72</ele>
        <time>2026-08-31T01:57:37.4820000+00:00</time>
      </trkpt>
      <trkpt lat="52.21976" lon="10.80313">
        <ele>238.58</ele>
        <time>2026-08-31T01:58:05.4600000+00:00</time>
      </trkpt>
      <trkpt lat="52.22028" lon="10.80328">
        <ele>235.96</ele>
        <time>2026-08-31T01:58:25.5610000+00:00</time>
      </trkpt>
      <trkpt lat="52.22071" lon="10.80335">
        <ele>232.62</ele>
        <time>2026-08-31T01:58:42.0110000+00:00</time>
      </trkpt>
      <trkpt lat="52.22113" lon="10.80342">
        <ele>231.69</ele>
        <time>2026-08-31T01:58:58.0820000+00:00</time>
      </trkpt>
      <trkpt lat="52.22144" lon="10.8034">
        <ele>230.02</ele>
        <time>2026-08-31T01:59:09.8910000+00:00</time>
      </trkpt>
      <trkpt lat="52.22172" lon="10.80334">
        <ele>229.81</ele>
        <time>2026-08-31T01:59:20.6410000+00:00</time>
      </trkpt>
      <trkpt lat="52.22199" lon="10.80326">
        <ele>229.46</ele>
        <time>2026-08-31T01:59:31.0870000+00:00</time>
      </trkpt>
      <trkpt lat="52.2229" lon="10.80271">
        <ele>227.41</ele>
        <time>2026-08-31T02:00:08.0260000+00:00</time>
      </trkpt>
      <trkpt lat="52.22321" lon="10.80254">
        <ele>227.13</ele>
        <time>2026-08-31T02:00:20.4750000+00:00</time>
      </trkpt>
      <trkpt lat="52.22342" lon="10.80241">
        <ele>224.66</ele>
        <time>2026-08-31T02:00:29.0240000+00:00</time>
      </trkpt>
      <trkpt lat="52.22373" lon="10.80239">
        <ele>223.28</ele>
        <time>2026-08-31T02:00:40.8340000+00:00</time>
      </trkpt>
      <trkpt lat="52.22421" lon="10.80258">
        <ele>222.84</ele>
        <time>2026-08-31T02:00:59.6350000+00:00</time>
      </trkpt>
      <trkpt lat="52.22454" lon="10.80291">
        <ele>224.06</ele>
        <time>2026-08-31T02:01:14.3670000+00:00</time>
      </trkpt>
      <trkpt lat="52.22473" lon="10.8031">
        <ele>224.65</ele>
        <time>2026-08-31T02:01:22.8480000+00:00</time>
      </trkpt>
      <trkpt lat="52.22493" lon="10.80337">
        <ele>225.22</ele>
        <time>2026-08-31T02:01:32.7280000+00:00</time>
      </trkpt>
      <trkpt lat="52.22517" lon="10.80363">
        <ele>223.68</ele>
        <time>2026-08-31T02:01:43.6920000+00:00</time>
      </trkpt>
      <trkpt lat="52.22533" lon="10.8038">
        <ele>222.38</ele>
        <time>2026-08-31T02:01:50.9590000+00:00</time>
      </trkpt>
      <trkpt lat="52.2255" lon="10.80401">
        <ele>221.04</ele>
        <time>2026-08-31T02:01:59.0740000+00:00</time>
      </trkpt>
      <trkpt lat="52.22586" lon="10.80428">
        <ele>217.55</ele>
        <time>2026-08-31T02:02:14.1550000+00:00</time>
      </trkpt>
      <trkpt lat="52.22625" lon="10.80463">
        <ele>216.61</ele>
        <time>2026-08-31T02:02:31.0960000+00:00</time>
      </trkpt>
      <trkpt lat="52.22648" lon="10.80488">
        <ele>216.91</ele>
        <time>2026-08-31T02:02:41.6150000+00:00</time>
      </trkpt>
      <trkpt lat="52.22701" lon="10.80517">
        <ele>214.09</ele>
        <time>2026-08-31T02:03:02.8930000+00:00</time>
      </trkpt>
      <trkpt lat="52.22712" lon="10.80524">
        <ele>213.71</ele>
        <time>2026-08-31T02:03:07.3870000+00:00</time>
      </trkpt>
      <trkpt lat="52.22729" lon="10.80532">
        <ele>212.73</ele>
        <time>2026-08-31T02:03:14.1220000+00:00</time>
      </trkpt>
      <trkpt lat="52.22745" lon="10.8054">
        <ele>211.61</ele>
        <time>2026-08-31T02:03:20.4920000+00:00</time>
      </trkpt>
      <trkpt lat="52.22754" lon="10.80548">
        <ele>211.44</ele>
        <time>2026-08-31T02:03:24.3930000+00:00</time>
      </trkpt>
      <trkpt lat="52.22786" lon="10.80564">
        <ele>208.78</ele>
        <time>2026-08-31T02:03:37.1320000+00:00</time>
      </trkpt>
      <trkpt lat="52.22815" lon="10.80578">
        <ele>206.1</ele>
        <time>2026-08-31T02:03:48.6440000+00:00</time>
      </trkpt>
      <trkpt lat="52.22834" lon="10.80604">
        <ele>207.95</ele>
        <time>2026-08-31T02:03:58.0810000+00:00</time>
      </trkpt>
      <trkpt lat="52.22869" lon="10.80638">
        <ele>211.29</ele>
        <time>2026-08-31T02:04:13.5850000+00:00</time>
      </trkpt>
      <trkpt lat="52.22936" lon="10.80654">
        <ele>210.9</ele>
        <time>2026-08-31T02:04:39.3610000+00:00</time>
      </trkpt>
      <trkpt lat="52.22985" lon="10.80646">
        <ele>207.76</ele>
        <time>2026-08-31T02:04:58.1060000+00:00</time>
      </trkpt>
      <trkpt lat="52.23026" lon="10.80641">
        <ele>205.08</ele>
        <time>2026-08-31T02:05:13.7570000+00:00</time>
      </trkpt>
      <trkpt lat="52.23057" lon="10.80642">
        <ele>203.96</ele>
        <time>2026-08-31T02:05:25.5600000+00:00</time>
      </trkpt>
      <trkpt lat="52.2309" lon="10.80646">
        <ele>204.69</ele>
        <time>2026-08-31T02:05:38.1560000+00:00</time>
      </trkpt>
      <trkpt lat="52.2313" lon="10.8065">
        <ele>205.89</ele>
        <time>2026-08-31T02:05:53.4110000+00:00</time>
      </trkpt>
      <trkpt lat="52.23148" lon="10.80648">
        <ele>205.72</ele>
        <time>2026-08-31T02:06:00.2790000+00:00</time>
      </trkpt>
      <trkpt lat="52.23192" lon="10.8064">
        <ele>202.98</ele>
        <time>2026-08-31T02:06:17.1320000+00:00</time>
      </trkpt>
      <trkpt lat="52.23233" lon="10.8064">
        <ele>201.67</ele>
        <time>2026-08-31T02:06:32.7390000+00:00</time>
      </trkpt>
      <trkpt lat="52.23257" lon="10.80639">
        <ele>199.79</ele>
        <time>2026-08-31T02:06:41.8780000+00:00</time>
      </trkpt>
      <trkpt lat="52.23266" lon="10.8064">
        <ele>199.29</ele>
        <time>2026-08-31T02:06:45.3120000+00:00</time>
      </trkpt>
      <trkpt lat="52.23278" lon="10.80641">
        <ele>198.57</ele>
        <time>2026-08-31T02:06:49.8860000+00:00</time>
      </trkpt>
      <trkpt lat="52.23293" lon="10.80645">
        <ele>198.06</ele>
        <time>2026-08-31T02:06:55.6710000+00:00</time>
      </trkpt>
      <trkpt lat="52.23312" lon="10.80641">
        <ele>196.12</ele>
        <time>2026-08-31T02:07:02.9640000+00:00</time>
      </trkpt>
      <trkpt lat="52.23331" lon="10.80626">
        <ele>192.37</ele>
        <time>2026-08-31T02:07:10.9980000+00:00</time>
      </trkpt>
      <trkpt lat="52.2334" lon="10.80623">
        <ele>191.14</ele>
        <time>2026-08-31T02:07:14.4940000+00:00</time>
      </trkpt>
      <trkpt lat="52.23346" lon="10.80615">
        <ele>189.37</ele>
        <time>2026-08-31T02:07:17.4430000+00:00</time>
      </trkpt>
      <trkpt lat="52.23346" lon="10.80611">
        <ele>188.73</ele>
        <time>2026-08-31T02:07:18.3750000+00:00</time>
      </trkpt>
      <trkpt lat="52.23345" lon="10.8059">
        <ele>186.29</ele>
        <time>2026-08-31T02:07:23.2850000+00:00</time>
      </trkpt>
      <trkpt lat="52.23352" lon="10.8059">
        <ele>185.6</ele>
        <time>2026-08-31T02:07:25.9500000+00:00</time>
      </trkpt>
      <trkpt lat="52.23369" lon="10.80589">
        <ele>183.87</ele>
        <time>2026-08-31T02:07:32.4260000+00:00</time>
      </trkpt>
      <trkpt lat="52.23385" lon="10.80591">
        <ele>182.47</ele>
        <time>2026-08-31T02:07:38.5340000+00:00</time>
      </trkpt>
      <trkpt lat="52.23397" lon="10.80596">
        <ele>181.72</ele>
        <time>2026-08-31T02:07:43.2480000+00:00</time>
      </trkpt>
      <trkpt lat="52.23401" lon="10.80599">
        <ele>181.55</ele>
        <time>2026-08-31T02:07:44.9240000+00:00</time>
      </trkpt>
      <trkpt lat="52.23448" lon="10.80637">
        <ele>182.16</ele>
        <time>2026-08-31T02:08:04.8880000+00:00</time>
      </trkpt>
      <trkpt lat="52.23467" lon="10.80671">
        <ele>184.45</ele>
        <time>2026-08-31T02:08:15.6190000+00:00</time>
      </trkpt>
      <trkpt lat="52.23481" lon="10.80687">
        <ele>184.39</ele>
        <time>2026-08-31T02:08:22.1240000+00:00</time>
      </trkpt>
      <trkpt lat="52.23524" lon="10.80714">
        <ele>181.75</ele>
        <time>2026-08-31T02:08:39.6610000+00:00</time>
      </trkpt>
      <trkpt lat="52.23564" lon="10.80744">
        <ele>179.13</ele>
        <time>2026-08-31T02:08:56.4170000+00:00</time>
      </trkpt>
      <trkpt lat="52.23589" lon="10.8075">
        <ele>178.11</ele>
        <time>2026-08-31T02:09:06.0360000+00:00</time>
      </trkpt>
      <trkpt lat="52.23613" lon="10.80743">
        <ele>176.56</ele>
        <time>2026-08-31T02:09:15.3160000+00:00</time>
      </trkpt>
      <trkpt lat="52.23651" lon="10.80751">
        <ele>174.21</ele>
        <time>2026-08-31T02:09:29.9010000+00:00</time>
      </trkpt>
      <trkpt lat="52.23686" lon="10.80742">
        <ele>172.06</ele>
        <time>2026-08-31T02:09:43.3880000+00:00</time>
      </trkpt>
      <trkpt lat="52.23701" lon="10.80743">
        <ele>170.89</ele>
        <time>2026-08-31T02:09:49.1030000+00:00</time>
      </trkpt>
      <trkpt lat="52.23744" lon="10.80746">
        <ele>169.2</ele>
        <time>2026-08-31T02:10:05.4870000+00:00</time>
      </trkpt>
      <trkpt lat="52.23767" lon="10.80746">
        <ele>170.52</ele>
        <time>2026-08-31T02:10:14.2420000+00:00</time>
      </trkpt>
      <trkpt lat="52.23785" lon="10.80758">
        <ele>170.59</ele>
        <time>2026-08-31T02:10:21.6430000+00:00</time>
      </trkpt>
      <trkpt lat="52.23807" lon="10.80784">
        <ele>170.14</ele>
        <time>2026-08-31T02:10:31.9810000+00:00</time>
      </trkpt>
      <trkpt lat="52.23863" lon="10.80828">
        <ele>170.94</ele>
        <time>2026-08-31T02:10:55.6370000+00:00</time>
      </trkpt>
      <trkpt lat="52.23875" lon="10.8084">
        <ele>171.36</ele>
        <time>2026-08-31T02:11:00.9940000+00:00</time>
      </trkpt>
      <trkpt lat="52.23892" lon="10.80855">
        <ele>172.09</ele>
        <time>2026-08-31T02:11:08.3490000+00:00</time>
      </trkpt>
      <trkpt lat="52.23904" lon="10.80863">
        <ele>172.08</ele>
        <time>2026-08-31T02:11:13.2830000+00:00</time>
      </trkpt>
      <trkpt lat="52.23928" lon="10.80891">
        <ele>171</ele>
        <time>2026-08-31T02:11:24.5110000+00:00</time>
      </trkpt>
      <trkpt lat="52.2397" lon="10.80943">
        <ele>170.57</ele>
        <time>2026-08-31T02:11:44.5740000+00:00</time>
      </trkpt>
      <trkpt lat="52.23996" lon="10.80983">
        <ele>169.79</ele>
        <time>2026-08-31T02:11:58.1720000+00:00</time>
      </trkpt>
      <trkpt lat="52.24015" lon="10.8101">
        <ele>170.08</ele>
        <time>2026-08-31T02:12:07.7600000+00:00</time>
      </trkpt>
      <trkpt lat="52.24026" lon="10.81025">
        <ele>170.47</ele>
        <time>2026-08-31T02:12:13.2150000+00:00</time>
      </trkpt>
      <trkpt lat="52.2407" lon="10.81096">
        <ele>170.75</ele>
        <time>2026-08-31T02:12:36.7610000+00:00</time>
      </trkpt>
      <trkpt lat="52.24077" lon="10.81108">
        <ele>170.37</ele>
        <time>2026-08-31T02:12:40.6250000+00:00</time>
      </trkpt>
      <trkpt lat="52.24112" lon="10.81159">
        <ele>168.22</ele>
        <time>2026-08-31T02:12:58.4800000+00:00</time>
      </trkpt>
      <trkpt lat="52.24128" lon="10.81188">
        <ele>166.61</ele>
        <time>2026-08-31T02:13:07.5790000+00:00</time>
      </trkpt>
      <trkpt lat="52.24142" lon="10.81207">
        <ele>166.31</ele>
        <time>2026-08-31T02:13:14.5090000+00:00</time>
      </trkpt>
      <trkpt lat="52.24158" lon="10.8123">
        <ele>165.49</ele>
        <time>2026-08-31T02:13:22.6230000+00:00</time>
      </trkpt>
      <trkpt lat="52.24208" lon="10.81278">
        <ele>164.66</ele>
        <time>2026-08-31T02:13:44.7010000+00:00</time>
      </trkpt>
      <trkpt lat="52.24242" lon="10.8131">
        <ele>163.64</ele>
        <time>2026-08-31T02:13:59.6390000+00:00</time>
      </trkpt>
      <trkpt lat="52.24256" lon="10.81321">
        <ele>162.82</ele>
        <time>2026-08-31T02:14:05.5530000+00:00</time>
      </trkpt>
      <trkpt lat="52.24314" lon="10.81338">
        <ele>160.65</ele>
        <time>2026-08-31T02:14:27.9840000+00:00</time>
      </trkpt>
      <trkpt lat="52.24319" lon="10.81338">
        <ele>160.62</ele>
        <time>2026-08-31T02:14:29.8870000+00:00</time>
      </trkpt>
      <trkpt lat="52.24364" lon="10.81345">
        <ele>160.12</ele>
        <time>2026-08-31T02:14:47.0950000+00:00</time>
      </trkpt>
      <trkpt lat="52.24428" lon="10.8132">
        <ele>157.55</ele>
        <time>2026-08-31T02:15:12.1450000+00:00</time>
      </trkpt>
      <trkpt lat="52.24451" lon="10.81308">
        <ele>155.57</ele>
        <time>2026-08-31T02:15:21.3360000+00:00</time>
      </trkpt>
      <trkpt lat="52.24498" lon="10.81288">
        <ele>151.61</ele>
        <time>2026-08-31T02:15:39.8240000+00:00</time>
      </trkpt>
      <trkpt lat="52.24585" lon="10.81242">
        <ele>147.04</ele>
        <time>2026-08-31T02:16:14.6340000+00:00</time>
      </trkpt>
      <trkpt lat="52.24685" lon="10.81192">
        <ele>145.48</ele>
        <time>2026-08-31T02:16:54.4440000+00:00</time>
      </trkpt>
      <trkpt lat="52.24691" lon="10.8119">
        <ele>145.3</ele>
        <time>2026-08-31T02:16:56.7750000+00:00</time>
      </trkpt>
      <trkpt lat="52.24713" lon="10.8118">
        <ele>144.64</ele>
        <time>2026-08-31T02:17:05.4680000+00:00</time>
      </trkpt>
      <trkpt lat="52.24719" lon="10.81149">
        <ele>145.13</ele>
        <time>2026-08-31T02:17:13.0450000+00:00</time>
      </trkpt>
      <trkpt lat="52.24716" lon="10.81144">
        <ele>145.33</ele>
        <time>2026-08-31T02:17:14.6770000+00:00</time>
      </trkpt>
      <trkpt lat="52.24687" lon="10.81069">
        <ele>147.74</ele>
        <time>2026-08-31T02:17:35.3510000+00:00</time>
      </trkpt>
      <trkpt lat="52.24662" lon="10.80995">
        <ele>149.77</ele>
        <time>2026-08-31T02:17:55.0490000+00:00</time>
      </trkpt>
      <trkpt lat="52.24642" lon="10.80936">
        <ele>151.15</ele>
        <time>2026-08-31T02:18:10.7670000+00:00</time>
      </trkpt>
      <trkpt lat="52.24621" lon="10.80862">
        <ele>151.62</ele>
        <time>2026-08-31T02:18:29.7770000+00:00</time>
      </trkpt>
      <trkpt lat="52.24608" lon="10.80801">
        <ele>152.24</ele>
        <time>2026-08-31T02:18:44.8300000+00:00</time>
      </trkpt>
      <trkpt lat="52.24594" lon="10.80741">
        <ele>153.57</ele>
        <time>2026-08-31T02:18:59.7960000+00:00</time>
      </trkpt>
      <trkpt lat="52.2458" lon="10.80683">
        <ele>155.35</ele>
        <time>2026-08-31T02:19:14.3260000+00:00</time>
      </trkpt>
      <trkpt lat="52.24566" lon="10.80627">
        <ele>157.37</ele>
        <time>2026-08-31T02:19:28.4250000+00:00</time>
      </trkpt>
      <trkpt lat="52.24555" lon="10.80574">
        <ele>159.32</ele>
        <time>2026-08-31T02:19:41.4680000+00:00</time>
      </trkpt>
      <trkpt lat="52.24545" lon="10.8053">
        <ele>160.69</ele>
        <time>2026-08-31T02:19:52.4070000+00:00</time>
      </trkpt>
      <trkpt lat="52.24533" lon="10.80481">
        <ele>162.56</ele>
        <time>2026-08-31T02:20:04.7070000+00:00</time>
      </trkpt>
      <trkpt lat="52.24525" lon="10.8044">
        <ele>164.05</ele>
        <time>2026-08-31T02:20:14.7360000+00:00</time>
      </trkpt>
      <trkpt lat="52.24514" lon="10.80394">
        <ele>166.32</ele>
        <time>2026-08-31T02:20:26.2470000+00:00</time>
      </trkpt>
      <trkpt lat="52.24505" lon="10.8035">
        <ele>168.55</ele>
        <time>2026-08-31T02:20:37.0590000+00:00</time>
      </trkpt>
      <trkpt lat="52.24492" lon="10.80299">
        <ele>169.9</ele>
        <time>2026-08-31T02:20:49.9350000+00:00</time>
      </trkpt>
      <trkpt lat="52.24477" lon="10.80252">
        <ele>171.26</ele>
        <time>2026-08-31T02:21:02.2880000+00:00</time>
      </trkpt>
      <trkpt lat="52.24451" lon="10.8019">
        <ele>174.06</ele>
        <time>2026-08-31T02:21:19.8030000+00:00</time>
      </trkpt>
      <trkpt lat="52.24433" lon="10.80144">
        <ele>176.71</ele>
        <time>2026-08-31T02:21:32.5270000+00:00</time>
      </trkpt>
      <trkpt lat="52.24416" lon="10.80099">
        <ele>179.13</ele>
        <time>2026-08-31T02:21:44.8520000+00:00</time>
      </trkpt>
      <trkpt lat="52.244" lon="10.80056">
        <ele>181.7</ele>
        <time>2026-08-31T02:21:56.5800000+00:00</time>
      </trkpt>
      <trkpt lat="52.24386" lon="10.8002">
        <ele>184.04</ele>
        <time>2026-08-31T02:22:06.5200000+00:00</time>
      </trkpt>
      <trkpt lat="52.2437" lon="10.79992">
        <ele>186.84</ele>
        <time>2026-08-31T02:22:15.4470000+00:00</time>
      </trkpt>
      <trkpt lat="52.24369" lon="10.7999">
        <ele>187.03</ele>
        <time>2026-08-31T02:22:16.0500000+00:00</time>
      </trkpt>
      <trkpt lat="52.24358" lon="10.79963">
        <ele>189.13</ele>
        <time>2026-08-31T02:22:23.6090000+00:00</time>
      </trkpt>
      <trkpt lat="52.24344" lon="10.79927">
        <ele>191.66</ele>
        <time>2026-08-31T02:22:33.5490000+00:00</time>
      </trkpt>
      <trkpt lat="52.24339" lon="10.79911">
        <ele>192.71</ele>
        <time>2026-08-31T02:22:37.7360000+00:00</time>
      </trkpt>
      <trkpt lat="52.24332" lon="10.79896">
        <ele>193.86</ele>
        <time>2026-08-31T02:22:42.1320000+00:00</time>
      </trkpt>
      <trkpt lat="52.24317" lon="10.79859">
        <ele>196.39</ele>
        <time>2026-08-31T02:22:52.4750000+00:00</time>
      </trkpt>
      <trkpt lat="52.24303" lon="10.79826">
        <ele>200.06</ele>
        <time>2026-08-31T02:23:01.8320000+00:00</time>
      </trkpt>
      <trkpt lat="52.24297" lon="10.79811">
        <ele>201.95</ele>
        <time>2026-08-31T02:23:06.0090000+00:00</time>
      </trkpt>
      <trkpt lat="52.24306" lon="10.79797">
        <ele>201.35</ele>
        <time>2026-08-31T02:23:10.7400000+00:00</time>
      </trkpt>
      <trkpt lat="52.24329" lon="10.79781">
        <ele>199.84</ele>
        <time>2026-08-31T02:23:20.2570000+00:00</time>
      </trkpt>
      <trkpt lat="52.24342" lon="10.79775">
        <ele>199.11</ele>
        <time>2026-08-31T02:23:25.3990000+00:00</time>
      </trkpt>
      <trkpt lat="52.24352" lon="10.79779">
        <ele>198.07</ele>
        <time>2026-08-31T02:23:29.3180000+00:00</time>
      </trkpt>
      <trkpt lat="52.24363" lon="10.7978">
        <ele>197.11</ele>
        <time>2026-08-31T02:23:33.5120000+00:00</time>
      </trkpt>
      <trkpt lat="52.24386" lon="10.7979">
        <ele>194.72</ele>
        <time>2026-08-31T02:23:42.5720000+00:00</time>
      </trkpt>
      <trkpt lat="52.2441" lon="10.79808">
        <ele>191.54</ele>
        <time>2026-08-31T02:23:52.6260000+00:00</time>
      </trkpt>
      <trkpt lat="52.24437" lon="10.7982">
        <ele>188.19</ele>
        <time>2026-08-31T02:24:03.2770000+00:00</time>
      </trkpt>
      <trkpt lat="52.2445" lon="10.79824">
        <ele>186.69</ele>
        <time>2026-08-31T02:24:08.3130000+00:00</time>
      </trkpt>
      <trkpt lat="52.24478" lon="10.79824">
        <ele>183.79</ele>
        <time>2026-08-31T02:24:18.9720000+00:00</time>
      </trkpt>
      <trkpt lat="52.24491" lon="10.7982">
        <ele>182.86</ele>
        <time>2026-08-31T02:24:24.0070000+00:00</time>
      </trkpt>
      <trkpt lat="52.24508" lon="10.79823">
        <ele>181.49</ele>
        <time>2026-08-31T02:24:30.5160000+00:00</time>
      </trkpt>
      <trkpt lat="52.24513" lon="10.79827">
        <ele>180.97</ele>
        <time>2026-08-31T02:24:32.6360000+00:00</time>
      </trkpt>
      <trkpt lat="52.24526" lon="10.7983">
        <ele>179.85</ele>
        <time>2026-08-31T02:24:37.6340000+00:00</time>
      </trkpt>
      <trkpt lat="52.24544" lon="10.79827">
        <ele>178.57</ele>
        <time>2026-08-31T02:24:44.5210000+00:00</time>
      </trkpt>
      <trkpt lat="52.24567" lon="10.79824">
        <ele>176.79</ele>
        <time>2026-08-31T02:24:53.3040000+00:00</time>
      </trkpt>
      <trkpt lat="52.24583" lon="10.79824">
        <ele>175</ele>
        <time>2026-08-31T02:24:59.3950000+00:00</time>
      </trkpt>
      <trkpt lat="52.24617" lon="10.79825">
        <ele>171.16</ele>
        <time>2026-08-31T02:25:12.3400000+00:00</time>
      </trkpt>
      <trkpt lat="52.24625" lon="10.79825">
        <ele>170.27</ele>
        <time>2026-08-31T02:25:15.3850000+00:00</time>
      </trkpt>
      <trkpt lat="52.24648" lon="10.79807">
        <ele>168.32</ele>
        <time>2026-08-31T02:25:25.0930000+00:00</time>
      </trkpt>
      <trkpt lat="52.24667" lon="10.79767">
        <ele>166.99</ele>
        <time>2026-08-31T02:25:36.8930000+00:00</time>
      </trkpt>
      <trkpt lat="52.24671" lon="10.79737">
        <ele>166.67</ele>
        <time>2026-08-31T02:25:44.0490000+00:00</time>
      </trkpt>
      <trkpt lat="52.24653" lon="10.79722">
        <ele>169.5</ele>
        <time>2026-08-31T02:25:51.7410000+00:00</time>
      </trkpt>
      <trkpt lat="52.24616" lon="10.79709">
        <ele>173.56</ele>
        <time>2026-08-31T02:26:06.1480000+00:00</time>
      </trkpt>
      <trkpt lat="52.24585" lon="10.797">
        <ele>176.38</ele>
        <time>2026-08-31T02:26:18.1330000+00:00</time>
      </trkpt>
      <trkpt lat="52.24554" lon="10.79692">
        <ele>178.64</ele>
        <time>2026-08-31T02:26:30.0800000+00:00</time>
      </trkpt>
      <trkpt lat="52.2452" lon="10.79684">
        <ele>180.07</ele>
        <time>2026-08-31T02:26:43.1570000+00:00</time>
      </trkpt>
      <trkpt lat="52.24485" lon="10.79674">
        <ele>181.64</ele>
        <time>2026-08-31T02:26:56.6820000+00:00</time>
      </trkpt>
      <trkpt lat="52.24449" lon="10.7966">
        <ele>184.19</ele>
        <time>2026-08-31T02:27:10.7690000+00:00</time>
      </trkpt>
      <trkpt lat="52.24417" lon="10.7964">
        <ele>185.09</ele>
        <time>2026-08-31T02:27:23.8120000+00:00</time>
      </trkpt>
      <trkpt lat="52.24385" lon="10.79601">
        <ele>183.98</ele>
        <time>2026-08-31T02:27:39.0110000+00:00</time>
      </trkpt>
      <trkpt lat="52.24356" lon="10.79562">
        <ele>188.16</ele>
        <time>2026-08-31T02:27:53.3110000+00:00</time>
      </trkpt>
      <trkpt lat="52.24328" lon="10.7952">
        <ele>189.26</ele>
        <time>2026-08-31T02:28:07.7830000+00:00</time>
      </trkpt>
      <trkpt lat="52.243" lon="10.79468">
        <ele>192.76</ele>
        <time>2026-08-31T02:28:23.9240000+00:00</time>
      </trkpt>
      <trkpt lat="52.24272" lon="10.79414">
        <ele>196.2</ele>
        <time>2026-08-31T02:28:40.4170000+00:00</time>
      </trkpt>
      <trkpt lat="52.24249" lon="10.79365">
        <ele>196.76</ele>
        <time>2026-08-31T02:28:54.8080000+00:00</time>
      </trkpt>
      <trkpt lat="52.24236" lon="10.79333">
        <ele>196.45</ele>
        <time>2026-08-31T02:29:03.7590000+00:00</time>
      </trkpt>
      <trkpt lat="52.24223" lon="10.79284">
        <ele>196.98</ele>
        <time>2026-08-31T02:29:16.2060000+00:00</time>
      </trkpt>
      <trkpt lat="52.24209" lon="10.79232">
        <ele>198.84</ele>
        <time>2026-08-31T02:29:29.4470000+00:00</time>
      </trkpt>
      <trkpt lat="52.24191" lon="10.79159">
        <ele>200.19</ele>
        <time>2026-08-31T02:29:47.7900000+00:00</time>
      </trkpt>
      <trkpt lat="52.2417" lon="10.7908">
        <ele>200.28</ele>
        <time>2026-08-31T02:30:07.8650000+00:00</time>
      </trkpt>
      <trkpt lat="52.24149" lon="10.79022">
        <ele>198.32</ele>
        <time>2026-08-31T02:30:23.5710000+00:00</time>
      </trkpt>
      <trkpt lat="52.24126" lon="10.78968">
        <ele>197.95</ele>
        <time>2026-08-31T02:30:38.9040000+00:00</time>
      </trkpt>
      <trkpt lat="52.24098" lon="10.78909">
        <ele>198.28</ele>
        <time>2026-08-31T02:30:56.3030000+00:00</time>
      </trkpt>
      <trkpt lat="52.24078" lon="10.78871">
        <ele>198.96</ele>
        <time>2026-08-31T02:31:07.9830000+00:00</time>
      </trkpt>
      <trkpt lat="52.24056" lon="10.78829">
        <ele>200.75</ele>
        <time>2026-08-31T02:31:20.8660000+00:00</time>
      </trkpt>
      <trkpt lat="52.24032" lon="10.78786">
        <ele>203.98</ele>
        <time>2026-08-31T02:31:34.4290000+00:00</time>
      </trkpt>
      <trkpt lat="52.2401" lon="10.78745">
        <ele>205.94</ele>
        <time>2026-08-31T02:31:47.1360000+00:00</time>
      </trkpt>
      <trkpt lat="52.2399" lon="10.78708">
        <ele>206.82</ele>
        <time>2026-08-31T02:31:58.6400000+00:00</time>
      </trkpt>
      <trkpt lat="52.23973" lon="10.78678">
        <ele>208.18</ele>
        <time>2026-08-31T02:32:08.1680000+00:00</time>
      </trkpt>
      <trkpt lat="52.23954" lon="10.78637">
        <ele>211.55</ele>
        <time>2026-08-31T02:32:20.1530000+00:00</time>
      </trkpt>
      <trkpt lat="52.23931" lon="10.78598">
        <ele>213.22</ele>
        <time>2026-08-31T02:32:32.7750000+00:00</time>
      </trkpt>
      <trkpt lat="52.23915" lon="10.78571">
        <ele>213.6</ele>
        <time>2026-08-31T02:32:41.5330000+00:00</time>
      </trkpt>
      <trkpt lat="52.23904" lon="10.78546">
        <ele>213.45</ele>
        <time>2026-08-31T02:32:48.7090000+00:00</time>
      </trkpt>
      <trkpt lat="52.23884" lon="10.78507">
        <ele>214.96</ele>
        <time>2026-08-31T02:33:00.5670000+00:00</time>
      </trkpt>
      <trkpt lat="52.23864" lon="10.78473">
        <ele>218.01</ele>
        <time>2026-08-31T02:33:11.5570000+00:00</time>
      </trkpt>
      <trkpt lat="52.23849" lon="10.78443">
        <ele>219.24</ele>
        <time>2026-08-31T02:33:20.5860000+00:00</time>
      </trkpt>
      <trkpt lat="52.23835" lon="10.78419">
        <ele>219.74</ele>
        <time>2026-08-31T02:33:28.3120000+00:00</time>
      </trkpt>
      <trkpt lat="52.23819" lon="10.78386">
        <ele>219.88</ele>
        <time>2026-08-31T02:33:38.1240000+00:00</time>
      </trkpt>
      <trkpt lat="52.23804" lon="10.78352">
        <ele>220.68</ele>
        <time>2026-08-31T02:33:47.8930000+00:00</time>
      </trkpt>
      <trkpt lat="52.23792" lon="10.78326">
        <ele>221.48</ele>
        <time>2026-08-31T02:33:55.4820000+00:00</time>
      </trkpt>
      <trkpt lat="52.2378" lon="10.78298">
        <ele>222.55</ele>
        <time>2026-08-31T02:34:03.4490000+00:00</time>
      </trkpt>
      <trkpt lat="52.23767" lon="10.78271">
        <ele>224</ele>
        <time>2026-08-31T02:34:11.4550000+00:00</time>
      </trkpt>
      <trkpt lat="52.23755" lon="10.78244">
        <ele>225.09</ele>
        <time>2026-08-31T02:34:19.2320000+00:00</time>
      </trkpt>
      <trkpt lat="52.23743" lon="10.78221">
        <ele>225.83</ele>
        <time>2026-08-31T02:34:26.2760000+00:00</time>
      </trkpt>
      <trkpt lat="52.23737" lon="10.78212">
        <ele>226.14</ele>
        <time>2026-08-31T02:34:29.3780000+00:00</time>
      </trkpt>
      <trkpt lat="52.23729" lon="10.78198">
        <ele>226.47</ele>
        <time>2026-08-31T02:34:33.8410000+00:00</time>
      </trkpt>
      <trkpt lat="52.23713" lon="10.78169">
        <ele>228.63</ele>
        <time>2026-08-31T02:34:42.9410000+00:00</time>
      </trkpt>
      <trkpt lat="52.23699" lon="10.78147">
        <ele>230.78</ele>
        <time>2026-08-31T02:34:50.3370000+00:00</time>
      </trkpt>
      <trkpt lat="52.2368" lon="10.78124">
        <ele>233.53</ele>
        <time>2026-08-31T02:34:59.3400000+00:00</time>
      </trkpt>
      <trkpt lat="52.23662" lon="10.78107">
        <ele>236</ele>
        <time>2026-08-31T02:35:07.2560000+00:00</time>
      </trkpt>
      <trkpt lat="52.2364" lon="10.78094">
        <ele>238.91</ele>
        <time>2026-08-31T02:35:16.1620000+00:00</time>
      </trkpt>
      <trkpt lat="52.23618" lon="10.78092">
        <ele>240.97</ele>
        <time>2026-08-31T02:35:24.5490000+00:00</time>
      </trkpt>
      <trkpt lat="52.23603" lon="10.7809">
        <ele>242.35</ele>
        <time>2026-08-31T02:35:30.2780000+00:00</time>
      </trkpt>
      <trkpt lat="52.23581" lon="10.78084">
        <ele>244.3</ele>
        <time>2026-08-31T02:35:38.7690000+00:00</time>
      </trkpt>
      <trkpt lat="52.23564" lon="10.78078">
        <ele>245.69</ele>
        <time>2026-08-31T02:35:45.3900000+00:00</time>
      </trkpt>
      <trkpt lat="52.2355" lon="10.7807">
        <ele>247.14</ele>
        <time>2026-08-31T02:35:51.0360000+00:00</time>
      </trkpt>
      <trkpt lat="52.23533" lon="10.78059">
        <ele>248.8</ele>
        <time>2026-08-31T02:35:57.9970000+00:00</time>
      </trkpt>
      <trkpt lat="52.23513" lon="10.78045">
        <ele>250.58</ele>
        <time>2026-08-31T02:36:06.2800000+00:00</time>
      </trkpt>
      <trkpt lat="52.23493" lon="10.78027">
        <ele>252.07</ele>
        <time>2026-08-31T02:36:14.9730000+00:00</time>
      </trkpt>
      <trkpt lat="52.23485" lon="10.7802">
        <ele>252.62</ele>
        <time>2026-08-31T02:36:18.4280000+00:00</time>
      </trkpt>
      <trkpt lat="52.23477" lon="10.78012">
        <ele>253.7</ele>
        <time>2026-08-31T02:36:21.9990000+00:00</time>
      </trkpt>
      <trkpt lat="52.23453" lon="10.78001">
        <ele>256.4</ele>
        <time>2026-08-31T02:36:31.4880000+00:00</time>
      </trkpt>
      <trkpt lat="52.23433" lon="10.77993">
        <ele>258.38</ele>
        <time>2026-08-31T02:36:39.3260000+00:00</time>
      </trkpt>
      <trkpt lat="52.23421" lon="10.77987">
        <ele>259.52</ele>
        <time>2026-08-31T02:36:44.1040000+00:00</time>
      </trkpt>
      <trkpt lat="52.23397" lon="10.77974">
        <ele>261.55</ele>
        <time>2026-08-31T02:36:53.7290000+00:00</time>
      </trkpt>
      <trkpt lat="52.23377" lon="10.77957">
        <ele>263.43</ele>
        <time>2026-08-31T02:37:02.3120000+00:00</time>
      </trkpt>
      <trkpt lat="52.23366" lon="10.77935">
        <ele>264.62</ele>
        <time>2026-08-31T02:37:08.9340000+00:00</time>
      </trkpt>
      <trkpt lat="52.23358" lon="10.77908">
        <ele>265.98</ele>
        <time>2026-08-31T02:37:15.9260000+00:00</time>
      </trkpt>
      <trkpt lat="52.23356" lon="10.77903">
        <ele>266.24</ele>
        <time>2026-08-31T02:37:17.3180000+00:00</time>
      </trkpt>
      <trkpt lat="52.23344" lon="10.77874">
        <ele>267.53</ele>
        <time>2026-08-31T02:37:25.4780000+00:00</time>
      </trkpt>
      <trkpt lat="52.23341" lon="10.7787">
        <ele>267.74</ele>
        <time>2026-08-31T02:37:26.9530000+00:00</time>
      </trkpt>
      <trkpt lat="52.23336" lon="10.77855">
        <ele>268.16</ele>
        <time>2026-08-31T02:37:30.9340000+00:00</time>
      </trkpt>
      <trkpt lat="52.23327" lon="10.77821">
        <ele>269.7</ele>
        <time>2026-08-31T02:37:39.5690000+00:00</time>
      </trkpt>
      <trkpt lat="52.23314" lon="10.77788">
        <ele>271.3</ele>
        <time>2026-08-31T02:37:48.7170000+00:00</time>
      </trkpt>
      <trkpt lat="52.23313" lon="10.77786">
        <ele>271.45</ele>
        <time>2026-08-31T02:37:49.3190000+00:00</time>
      </trkpt>
      <trkpt lat="52.23307" lon="10.77772">
        <ele>272.47</ele>
        <time>2026-08-31T02:37:53.3030000+00:00</time>
      </trkpt>
      <trkpt lat="52.23298" lon="10.77746">
        <ele>274.32</ele>
        <time>2026-08-31T02:38:00.2650000+00:00</time>
      </trkpt>
      <trkpt lat="52.23297" lon="10.77743">
        <ele>274.52</ele>
        <time>2026-08-31T02:38:01.0610000+00:00</time>
      </trkpt>
      <trkpt lat="52.23286" lon="10.77711">
        <ele>276.65</ele>
        <time>2026-08-31T02:38:09.6170000+00:00</time>
      </trkpt>
      <trkpt lat="52.23284" lon="10.77706">
        <ele>276.98</ele>
        <time>2026-08-31T02:38:11.0090000+00:00</time>
      </trkpt>
      <trkpt lat="52.23272" lon="10.77675">
        <ele>278.7</ele>
        <time>2026-08-31T02:38:19.5590000+00:00</time>
      </trkpt>
      <trkpt lat="52.23259" lon="10.77646">
        <ele>279.93</ele>
        <time>2026-08-31T02:38:27.9370000+00:00</time>
      </trkpt>
      <trkpt lat="52.23256" lon="10.77639">
        <ele>280.2</ele>
        <time>2026-08-31T02:38:29.9290000+00:00</time>
      </trkpt>
      <trkpt lat="52.23254" lon="10.77635">
        <ele>280.37</ele>
        <time>2026-08-31T02:38:31.1330000+00:00</time>
      </trkpt>
      <trkpt lat="52.2324" lon="10.77599">
        <ele>281.63</ele>
        <time>2026-08-31T02:38:41.0750000+00:00</time>
      </trkpt>
      <trkpt lat="52.23228" lon="10.77568">
        <ele>283.05</ele>
        <time>2026-08-31T02:38:49.6250000+00:00</time>
      </trkpt>
      <trkpt lat="52.23216" lon="10.77535">
        <ele>284.98</ele>
        <time>2026-08-31T02:38:58.5730000+00:00</time>
      </trkpt>
      <trkpt lat="52.23198" lon="10.77496">
        <ele>287.63</ele>
        <time>2026-08-31T02:39:09.9580000+00:00</time>
      </trkpt>
      <trkpt lat="52.23184" lon="10.77459">
        <ele>289.43</ele>
        <time>2026-08-31T02:39:20.0980000+00:00</time>
      </trkpt>
      <trkpt lat="52.23164" lon="10.77413">
        <ele>290.62</ele>
        <time>2026-08-31T02:39:33.2500000+00:00</time>
      </trkpt>
      <trkpt lat="52.23151" lon="10.77386">
        <ele>290.67</ele>
        <time>2026-08-31T02:39:41.2570000+00:00</time>
      </trkpt>
      <trkpt lat="52.23134" lon="10.77342">
        <ele>291.19</ele>
        <time>2026-08-31T02:39:53.3860000+00:00</time>
      </trkpt>
      <trkpt lat="52.23128" lon="10.77321">
        <ele>292.06</ele>
        <time>2026-08-31T02:39:58.7890000+00:00</time>
      </trkpt>
      <trkpt lat="52.23107" lon="10.7726">
        <ele>294.64</ele>
        <time>2026-08-31T02:40:15.1040000+00:00</time>
      </trkpt>
      <trkpt lat="52.23091" lon="10.77223">
        <ele>296.49</ele>
        <time>2026-08-31T02:40:25.6640000+00:00</time>
      </trkpt>
      <trkpt lat="52.23076" lon="10.77183">
        <ele>298.32</ele>
        <time>2026-08-31T02:40:36.5990000+00:00</time>
      </trkpt>
      <trkpt lat="52.23075" lon="10.7718">
        <ele>298.42</ele>
        <time>2026-08-31T02:40:37.3950000+00:00</time>
      </trkpt>
      <trkpt lat="52.23064" lon="10.77137">
        <ele>299.59</ele>
        <time>2026-08-31T02:40:48.2600000+00:00</time>
      </trkpt>
      <trkpt lat="52.23048" lon="10.77111">
        <ele>300.44</ele>
        <time>2026-08-31T02:40:56.8530000+00:00</time>
      </trkpt>
      <trkpt lat="52.23039" lon="10.77102">
        <ele>300.91</ele>
        <time>2026-08-31T02:41:00.8700000+00:00</time>
      </trkpt>
      <trkpt lat="52.23026" lon="10.77081">
        <ele>301.75</ele>
        <time>2026-08-31T02:41:07.8320000+00:00</time>
      </trkpt>
      <trkpt lat="52.23025" lon="10.77079">
        <ele>301.82</ele>
        <time>2026-08-31T02:41:08.4330000+00:00</time>
      </trkpt>
      <trkpt lat="52.23004" lon="10.77081">
        <ele>302.61</ele>
        <time>2026-08-31T02:41:16.4400000+00:00</time>
      </trkpt>
      <trkpt lat="52.22977" lon="10.77101">
        <ele>303.13</ele>
        <time>2026-08-31T02:41:27.7260000+00:00</time>
      </trkpt>
      <trkpt lat="52.22946" lon="10.77119">
        <ele>303.41</ele>
        <time>2026-08-31T02:41:40.2510000+00:00</time>
      </trkpt>
      <trkpt lat="52.22918" lon="10.77121">
        <ele>304.18</ele>
        <time>2026-08-31T02:41:50.9200000+00:00</time>
      </trkpt>
      <trkpt lat="52.22882" lon="10.77123">
        <ele>305.17</ele>
        <time>2026-08-31T02:42:04.6320000+00:00</time>
      </trkpt>
      <trkpt lat="52.22847" lon="10.77126">
        <ele>306.1</ele>
        <time>2026-08-31T02:42:17.9730000+00:00</time>
      </trkpt>
      <trkpt lat="52.22809" lon="10.77124">
        <ele>307.26</ele>
        <time>2026-08-31T02:42:32.4460000+00:00</time>
      </trkpt>
      <trkpt lat="52.22791" lon="10.7713">
        <ele>308.12</ele>
        <time>2026-08-31T02:42:39.4390000+00:00</time>
      </trkpt>
      <trkpt lat="52.22786" lon="10.7713">
        <ele>308.36</ele>
        <time>2026-08-31T02:42:41.3430000+00:00</time>
      </trkpt>
      <trkpt lat="52.22752" lon="10.77126">
        <ele>309.99</ele>
        <time>2026-08-31T02:42:54.3190000+00:00</time>
      </trkpt>
      <trkpt lat="52.22718" lon="10.77127">
        <ele>311.44</ele>
        <time>2026-08-31T02:43:07.2640000+00:00</time>
      </trkpt>
      <trkpt lat="52.22684" lon="10.7713">
        <ele>312.51</ele>
        <time>2026-08-31T02:43:20.2250000+00:00</time>
      </trkpt>
      <trkpt lat="52.22654" lon="10.7714">
        <ele>313.03</ele>
        <time>2026-08-31T02:43:31.8810000+00:00</time>
      </trkpt>
      <trkpt lat="52.22632" lon="10.77154">
        <ele>312.9</ele>
        <time>2026-08-31T02:43:40.8690000+00:00</time>
      </trkpt>
      <trkpt lat="52.22605" lon="10.77176">
        <ele>312.49</ele>
        <time>2026-08-31T02:43:52.3560000+00:00</time>
      </trkpt>
      <trkpt lat="52.22598" lon="10.77181">
        <ele>312.42</ele>
        <time>2026-08-31T02:43:55.2650000+00:00</time>
      </trkpt>
      <trkpt lat="52.22568" lon="10.77211">
        <ele>312.31</ele>
        <time>2026-08-31T02:44:08.6570000+00:00</time>
      </trkpt>
      <trkpt lat="52.22532" lon="10.77245">
        <ele>313.69</ele>
        <time>2026-08-31T02:44:24.4890000+00:00</time>
      </trkpt>
      <trkpt lat="52.22502" lon="10.77277">
        <ele>315.41</ele>
        <time>2026-08-31T02:44:38.1300000+00:00</time>
      </trkpt>
      <trkpt lat="52.22462" lon="10.77313">
        <ele>317.4</ele>
        <time>2026-08-31T02:44:55.5180000+00:00</time>
      </trkpt>
      <trkpt lat="52.22434" lon="10.77341">
        <ele>318.41</ele>
        <time>2026-08-31T02:45:08.0170000+00:00</time>
      </trkpt>
      <trkpt lat="52.22406" lon="10.7737">
        <ele>319.06</ele>
        <time>2026-08-31T02:45:20.6400000+00:00</time>
      </trkpt>
      <trkpt lat="52.22376" lon="10.77404">
        <ele>318.73</ele>
        <time>2026-08-31T02:45:34.5420000+00:00</time>
      </trkpt>
      <trkpt lat="52.22361" lon="10.77423">
        <ele>318.65</ele>
        <time>2026-08-31T02:45:41.7690000+00:00</time>
      </trkpt>
      <trkpt lat="52.2233" lon="10.77458">
        <ele>319.62</ele>
        <time>2026-08-31T02:45:56.1170000+00:00</time>
      </trkpt>
      <trkpt lat="52.22298" lon="10.77496">
        <ele>321.09</ele>
        <time>2026-08-31T02:46:11.1810000+00:00</time>
      </trkpt>
      <trkpt lat="52.22264" lon="10.77543">
        <ele>320.74</ele>
        <time>2026-08-31T02:46:28.1400000+00:00</time>
      </trkpt>
      <trkpt lat="52.22243" lon="10.7758">
        <ele>319.65</ele>
        <time>2026-08-31T02:46:39.9030000+00:00</time>
      </trkpt>
      <trkpt lat="52.22218" lon="10.77561">
        <ele>320.32</ele>
        <time>2026-08-31T02:46:50.4000000+00:00</time>
      </trkpt>
      <trkpt lat="52.22214" lon="10.77556">
        <ele>320.43</ele>
        <time>2026-08-31T02:46:52.3180000+00:00</time>
      </trkpt>
      <trkpt lat="52.22188" lon="10.7757">
        <ele>319.75</ele>
        <time>2026-08-31T02:47:02.7400000+00:00</time>
      </trkpt>
      <trkpt lat="52.22155" lon="10.77587">
        <ele>319.21</ele>
        <time>2026-08-31T02:47:15.9120000+00:00</time>
      </trkpt>
      <trkpt lat="52.22128" lon="10.77604">
        <ele>319.94</ele>
        <time>2026-08-31T02:47:26.9280000+00:00</time>
      </trkpt>
      <trkpt lat="52.22093" lon="10.77626">
        <ele>320.98</ele>
        <time>2026-08-31T02:47:41.2050000+00:00</time>
      </trkpt>
      <trkpt lat="52.22062" lon="10.77646">
        <ele>321.47</ele>
        <time>2026-08-31T02:47:53.8940000+00:00</time>
      </trkpt>
      <trkpt lat="52.22037" lon="10.77666">
        <ele>321.29</ele>
        <time>2026-08-31T02:48:04.4920000+00:00</time>
      </trkpt>
      <trkpt lat="52.22002" lon="10.77693">
        <ele>321.53</ele>
        <time>2026-08-31T02:48:19.2280000+00:00</time>
      </trkpt>
      <trkpt lat="52.21972" lon="10.77724">
        <ele>322.6</ele>
        <time>2026-08-31T02:48:32.7440000+00:00</time>
      </trkpt>
      <trkpt lat="52.21941" lon="10.77746">
        <ele>323.99</ele>
        <time>2026-08-31T02:48:45.6120000+00:00</time>
      </trkpt>
      <trkpt lat="52.21909" lon="10.77768">
        <ele>324.64</ele>
        <time>2026-08-31T02:48:58.8300000+00:00</time>
      </trkpt>
      <trkpt lat="52.21882" lon="10.77792">
        <ele>325.4</ele>
        <time>2026-08-31T02:49:10.5330000+00:00</time>
      </trkpt>
      <trkpt lat="52.21863" lon="10.77821">
        <ele>325.22</ele>
        <time>2026-08-31T02:49:20.4350000+00:00</time>
      </trkpt>
      <trkpt lat="52.21854" lon="10.77835">
        <ele>324.9</ele>
        <time>2026-08-31T02:49:25.1670000+00:00</time>
      </trkpt>
      <trkpt lat="52.2185" lon="10.77851">
        <ele>324.2</ele>
        <time>2026-08-31T02:49:29.1980000+00:00</time>
      </trkpt>
      <trkpt lat="52.2183" lon="10.77894">
        <ele>322.8</ele>
        <time>2026-08-31T02:49:41.7890000+00:00</time>
      </trkpt>
      <trkpt lat="52.21806" lon="10.77942">
        <ele>320.76</ele>
        <time>2026-08-31T02:49:56.2380000+00:00</time>
      </trkpt>
      <trkpt lat="52.21774" lon="10.78">
        <ele>317.6</ele>
        <time>2026-08-31T02:50:14.4410000+00:00</time>
      </trkpt>
      <trkpt lat="52.21764" lon="10.78002">
        <ele>317.41</ele>
        <time>2026-08-31T02:50:18.2760000+00:00</time>
      </trkpt>
      <trkpt lat="52.21762" lon="10.77999">
        <ele>317.59</ele>
        <time>2026-08-31T02:50:19.3100000+00:00</time>
      </trkpt>
      <trkpt lat="52.21732" lon="10.77978">
        <ele>318.91</ele>
        <time>2026-08-31T02:50:31.7360000+00:00</time>
      </trkpt>
      <trkpt lat="52.21724" lon="10.77971">
        <ele>319.15</ele>
        <time>2026-08-31T02:50:35.1920000+00:00</time>
      </trkpt>
      <trkpt lat="52.21697" lon="10.7795">
        <ele>319.47</ele>
        <time>2026-08-31T02:50:46.5770000+00:00</time>
      </trkpt>
      <trkpt lat="52.21672" lon="10.77928">
        <ele>319.73</ele>
        <time>2026-08-31T02:50:57.3880000+00:00</time>
      </trkpt>
      <trkpt lat="52.21634" lon="10.77899">
        <ele>321.53</ele>
        <time>2026-08-31T02:51:13.3570000+00:00</time>
      </trkpt>
      <trkpt lat="52.21595" lon="10.77864">
        <ele>323.46</ele>
        <time>2026-08-31T02:51:30.2990000+00:00</time>
      </trkpt>
      <trkpt lat="52.21559" lon="10.77837">
        <ele>323.54</ele>
        <time>2026-08-31T02:51:45.3800000+00:00</time>
      </trkpt>
      <trkpt lat="52.21526" lon="10.77813">
        <ele>322.78</ele>
        <time>2026-08-31T02:51:59.1330000+00:00</time>
      </trkpt>
      <trkpt lat="52.2149" lon="10.77762">
        <ele>321.76</ele>
        <time>2026-08-31T02:52:17.2790000+00:00</time>
      </trkpt>
      <trkpt lat="52.21491" lon="10.77747">
        <ele>322.09</ele>
        <time>2026-08-31T02:52:20.7980000+00:00</time>
      </trkpt>
      <trkpt lat="52.21498" lon="10.77698">
        <ele>323.67</ele>
        <time>2026-08-31T02:52:32.5330000+00:00</time>
      </trkpt>
      <trkpt lat="52.21506" lon="10.77666">
        <ele>324.8</ele>
        <time>2026-08-31T02:52:40.5940000+00:00</time>
      </trkpt>
      <trkpt lat="52.21512" lon="10.77615">
        <ele>325.29</ele>
        <time>2026-08-31T02:52:52.7060000+00:00</time>
      </trkpt>
      <trkpt lat="52.21522" lon="10.77552">
        <ele>326.34</ele>
        <time>2026-08-31T02:53:07.8850000+00:00</time>
      </trkpt>
      <trkpt lat="52.21524" lon="10.77472">
        <ele>326.8</ele>
        <time>2026-08-31T02:53:26.5590000+00:00</time>
      </trkpt>
      <trkpt lat="52.21526" lon="10.77407">
        <ele>327.47</ele>
        <time>2026-08-31T02:53:41.7380000+00:00</time>
      </trkpt>
      <trkpt lat="52.21536" lon="10.77374">
        <ele>328.19</ele>
        <time>2026-08-31T02:53:50.3250000+00:00</time>
      </trkpt>
      <trkpt lat="52.21543" lon="10.77288">
        <ele>329.03</ele>
        <time>2026-08-31T02:54:10.5590000+00:00</time>
      </trkpt>
      <trkpt lat="52.21542" lon="10.77193">
        <ele>327.22</ele>
        <time>2026-08-31T02:54:32.7190000+00:00</time>
      </trkpt>
      <trkpt lat="52.21542" lon="10.77174">
        <ele>326.56</ele>
        <time>2026-08-31T02:54:37.1500000+00:00</time>
      </trkpt>
      <trkpt lat="52.21541" lon="10.77117">
        <ele>324.1</ele>
        <time>2026-08-31T02:54:50.4500000+00:00</time>
      </trkpt>
      <trkpt lat="52.21541" lon="10.77102">
        <ele>323.48</ele>
        <time>2026-08-31T02:54:53.9480000+00:00</time>
      </trkpt>
      <trkpt lat="52.21532" lon="10.77018">
        <ele>319.78</ele>
        <time>2026-08-31T02:55:13.8370000+00:00</time>
      </trkpt>
      <trkpt lat="52.21524" lon="10.76934">
        <ele>318.01</ele>
        <time>2026-08-31T02:55:33.6640000+00:00</time>
      </trkpt>
      <trkpt lat="52.21518" lon="10.76915">
        <ele>317.06</ele>
        <time>2026-08-31T02:55:38.6490000+00:00</time>
      </trkpt>
      <trkpt lat="52.215" lon="10.76888">
        <ele>314.57</ele>
        <time>2026-08-31T02:55:47.9550000+00:00</time>
      </trkpt>
      <trkpt lat="52.2149" lon="10.76862">
        <ele>313.06</ele>
        <time>2026-08-31T02:55:55.1150000+00:00</time>
      </trkpt>
      <trkpt lat="52.21475" lon="10.76804">
        <ele>310.36</ele>
        <time>2026-08-31T02:56:09.7990000+00:00</time>
      </trkpt>
      <trkpt lat="52.2147" lon="10.76787">
        <ele>309.29</ele>
        <time>2026-08-31T02:56:14.1970000+00:00</time>
      </trkpt>
      <trkpt lat="52.21464" lon="10.76768">
        <ele>308.12</ele>
        <time>2026-08-31T02:56:19.1820000+00:00</time>
      </trkpt>
      <trkpt lat="52.21459" lon="10.76727">
        <ele>308.17</ele>
        <time>2026-08-31T02:56:28.9320000+00:00</time>
      </trkpt>
      <trkpt lat="52.21457" lon="10.76709">
        <ele>308.24</ele>
        <time>2026-08-31T02:56:33.1990000+00:00</time>
      </trkpt>
      <trkpt lat="52.21456" lon="10.76648">
        <ele>309.53</ele>
        <time>2026-08-31T02:56:47.4320000+00:00</time>
      </trkpt>
      <trkpt lat="52.21444" lon="10.76615">
        <ele>308.57</ele>
        <time>2026-08-31T02:56:56.3820000+00:00</time>
      </trkpt>
      <trkpt lat="52.21428" lon="10.76548">
        <ele>308.56</ele>
        <time>2026-08-31T02:57:13.1540000+00:00</time>
      </trkpt>
      <trkpt lat="52.21414" lon="10.76491">
        <ele>308.62</ele>
        <time>2026-08-31T02:57:27.4760000+00:00</time>
      </trkpt>
      <trkpt lat="52.21416" lon="10.76479">
        <ele>308.93</ele>
        <time>2026-08-31T02:57:30.3770000+00:00</time>
      </trkpt>
      <trkpt lat="52.21411" lon="10.76457">
        <ele>308.77</ele>
        <time>2026-08-31T02:57:35.8500000+00:00</time>
      </trkpt>
      <trkpt lat="52.2141" lon="10.76455">
        <ele>308.71</ele>
        <time>2026-08-31T02:57:36.4510000+00:00</time>
      </trkpt>
      <trkpt lat="52.21408" lon="10.7645">
        <ele>308.61</ele>
        <time>2026-08-31T02:57:37.8430000+00:00</time>
      </trkpt>
      <trkpt lat="52.21407" lon="10.76452">
        <ele>308.5</ele>
        <time>2026-08-31T02:57:38.4450000+00:00</time>
      </trkpt>
      <trkpt lat="52.21407" lon="10.76451">
        <ele>308.51</ele>
        <time>2026-08-31T02:57:38.6770000+00:00</time>
      </trkpt>
      <trkpt lat="52.21405" lon="10.76449">
        <ele>308.37</ele>
        <time>2026-08-31T02:57:39.5700000+00:00</time>
      </trkpt>
      <trkpt lat="52.21393" lon="10.76407">
        <ele>308.07</ele>
        <time>2026-08-31T02:57:50.3780000+00:00</time>
      </trkpt>
      <trkpt lat="52.21384" lon="10.76338">
        <ele>308.67</ele>
        <time>2026-08-31T02:58:06.8320000+00:00</time>
      </trkpt>
      <trkpt lat="52.21373" lon="10.76244">
        <ele>309.54</ele>
        <time>2026-08-31T02:58:29.1530000+00:00</time>
      </trkpt>
      <trkpt lat="52.21368" lon="10.76196">
        <ele>309.99</ele>
        <time>2026-08-31T02:58:40.5090000+00:00</time>
      </trkpt>
      <trkpt lat="52.21371" lon="10.76185">
        <ele>310.35</ele>
        <time>2026-08-31T02:58:43.3180000+00:00</time>
      </trkpt>
      <trkpt lat="52.21376" lon="10.76121">
        <ele>311.42</ele>
        <time>2026-08-31T02:58:58.3660000+00:00</time>
      </trkpt>
      <trkpt lat="52.21382" lon="10.7609">
        <ele>312.05</ele>
        <time>2026-08-31T02:59:05.9480000+00:00</time>
      </trkpt>
      <trkpt lat="52.21386" lon="10.76068">
        <ele>312.46</ele>
        <time>2026-08-31T02:59:11.3010000+00:00</time>
      </trkpt>
      <trkpt lat="52.21385" lon="10.76039">
        <ele>312.56</ele>
        <time>2026-08-31T02:59:18.0750000+00:00</time>
      </trkpt>
      <trkpt lat="52.21388" lon="10.75987">
        <ele>313.01</ele>
        <time>2026-08-31T02:59:30.2580000+00:00</time>
      </trkpt>
      <trkpt lat="52.2139" lon="10.75972">
        <ele>313.21</ele>
        <time>2026-08-31T02:59:33.8380000+00:00</time>
      </trkpt>
      <trkpt lat="52.2139" lon="10.75956">
        <ele>313.23</ele>
        <time>2026-08-31T02:59:37.5700000+00:00</time>
      </trkpt>
      <trkpt lat="52.21391" lon="10.75925">
        <ele>313.51</ele>
        <time>2026-08-31T02:59:44.8100000+00:00</time>
      </trkpt>
      <trkpt lat="52.21388" lon="10.75918">
        <ele>313.37</ele>
        <time>2026-08-31T02:59:46.8030000+00:00</time>
      </trkpt>
      <trkpt lat="52.21384" lon="10.7589">
        <ele>313.51</ele>
        <time>2026-08-31T02:59:53.5080000+00:00</time>
      </trkpt>
      <trkpt lat="52.21383" lon="10.75877">
        <ele>313.66</ele>
        <time>2026-08-31T02:59:56.5640000+00:00</time>
      </trkpt>
      <trkpt lat="52.2138" lon="10.75854">
        <ele>313.86</ele>
        <time>2026-08-31T03:00:02.0490000+00:00</time>
      </trkpt>
      <trkpt lat="52.21374" lon="10.75813">
        <ele>313.99</ele>
        <time>2026-08-31T03:00:11.8810000+00:00</time>
      </trkpt>
      <trkpt lat="52.21373" lon="10.75779">
        <ele>314.34</ele>
        <time>2026-08-31T03:00:19.8200000+00:00</time>
      </trkpt>
      <trkpt lat="52.21374" lon="10.75751">
        <ele>314.74</ele>
        <time>2026-08-31T03:00:26.3620000+00:00</time>
      </trkpt>
      <trkpt lat="52.21376" lon="10.75742">
        <ele>314.97</ele>
        <time>2026-08-31T03:00:28.5950000+00:00</time>
      </trkpt>
      <trkpt lat="52.21371" lon="10.75706">
        <ele>315.1</ele>
        <time>2026-08-31T03:00:37.2040000+00:00</time>
      </trkpt>
      <trkpt lat="52.21372" lon="10.75677">
        <ele>315.54</ele>
        <time>2026-08-31T03:00:43.9790000+00:00</time>
      </trkpt>
      <trkpt lat="52.21372" lon="10.75673">
        <ele>315.6</ele>
        <time>2026-08-31T03:00:44.9110000+00:00</time>
      </trkpt>
      <trkpt lat="52.21367" lon="10.75626">
        <ele>316.21</ele>
        <time>2026-08-31T03:00:56.0370000+00:00</time>
      </trkpt>
      <trkpt lat="52.21366" lon="10.75607">
        <ele>316.54</ele>
        <time>2026-08-31T03:01:00.4850000+00:00</time>
      </trkpt>
      <trkpt lat="52.21368" lon="10.75595">
        <ele>316.78</ele>
        <time>2026-08-31T03:01:03.3860000+00:00</time>
      </trkpt>
      <trkpt lat="52.21374" lon="10.75591">
        <ele>316.88</ele>
        <time>2026-08-31T03:01:05.8530000+00:00</time>
      </trkpt>
      <trkpt lat="52.21403" lon="10.75588">
        <ele>317.1</ele>
        <time>2026-08-31T03:01:16.9140000+00:00</time>
      </trkpt>
      <trkpt lat="52.21441" lon="10.75587">
        <ele>318.01</ele>
        <time>2026-08-31T03:01:31.3810000+00:00</time>
      </trkpt>
      <trkpt lat="52.21478" lon="10.75589">
        <ele>318.9</ele>
        <time>2026-08-31T03:01:45.4740000+00:00</time>
      </trkpt>
      <trkpt lat="52.21526" lon="10.75589">
        <ele>315.31</ele>
        <time>2026-08-31T03:02:03.7450000+00:00</time>
      </trkpt>
      <trkpt lat="52.21554" lon="10.75563">
        <ele>312.96</ele>
        <time>2026-08-31T03:02:16.0080000+00:00</time>
      </trkpt>
      <trkpt lat="52.21575" lon="10.75526">
        <ele>311.2</ele>
        <time>2026-08-31T03:02:27.7710000+00:00</time>
      </trkpt>
      <trkpt lat="52.21581" lon="10.75514">
        <ele>310.69</ele>
        <time>2026-08-31T03:02:31.3840000+00:00</time>
      </trkpt>
      <trkpt lat="52.21618" lon="10.75413">
        <ele>308.15</ele>
        <time>2026-08-31T03:02:58.8290000+00:00</time>
      </trkpt>
      <trkpt lat="52.21618" lon="10.75381">
        <ele>308.92</ele>
        <time>2026-08-31T03:03:06.2930000+00:00</time>
      </trkpt>
      <trkpt lat="52.21609" lon="10.75297">
        <ele>311.73</ele>
        <time>2026-08-31T03:03:26.1810000+00:00</time>
      </trkpt>
      <trkpt lat="52.216" lon="10.75231">
        <ele>313.4</ele>
        <time>2026-08-31T03:03:41.9510000+00:00</time>
      </trkpt>
      <trkpt lat="52.21595" lon="10.75176">
        <ele>314.13</ele>
        <time>2026-08-31T03:03:54.9190000+00:00</time>
      </trkpt>
      <trkpt lat="52.21596" lon="10.75153">
        <ele>313.9</ele>
        <time>2026-08-31T03:04:00.2970000+00:00</time>
      </trkpt>
      <trkpt lat="52.21582" lon="10.75076">
        <ele>313.93</ele>
        <time>2026-08-31T03:04:19.0290000+00:00</time>
      </trkpt>
      <trkpt lat="52.21569" lon="10.7502">
        <ele>313.85</ele>
        <time>2026-08-31T03:04:32.9960000+00:00</time>
      </trkpt>
      <trkpt lat="52.2154" lon="10.74902">
        <ele>312.3</ele>
        <time>2026-08-31T03:05:02.6490000+00:00</time>
      </trkpt>
      <trkpt lat="52.21506" lon="10.74836">
        <ele>312.49</ele>
        <time>2026-08-31T03:05:22.7600000+00:00</time>
      </trkpt>
      <trkpt lat="52.21499" lon="10.74827">
        <ele>312.47</ele>
        <time>2026-08-31T03:05:26.1520000+00:00</time>
      </trkpt>
      <trkpt lat="52.2146" lon="10.74762">
        <ele>309.17</ele>
        <time>2026-08-31T03:05:47.3710000+00:00</time>
      </trkpt>
      <trkpt lat="52.21454" lon="10.74744">
        <ele>308.62</ele>
        <time>2026-08-31T03:05:52.1500000+00:00</time>
      </trkpt>
      <trkpt lat="52.21419" lon="10.74607">
        <ele>305.94</ele>
        <time>2026-08-31T03:06:26.7700000+00:00</time>
      </trkpt>
      <trkpt lat="52.214" lon="10.74477">
        <ele>304.15</ele>
        <time>2026-08-31T03:06:57.9410000+00:00</time>
      </trkpt>
      <trkpt lat="52.21372" lon="10.74359">
        <ele>300.45</ele>
        <time>2026-08-31T03:07:27.4550000+00:00</time>
      </trkpt>
      <trkpt lat="52.21342" lon="10.74274">
        <ele>298.12</ele>
        <time>2026-08-31T03:07:50.3350000+00:00</time>
      </trkpt>
      <trkpt lat="52.21338" lon="10.74264">
        <ele>297.87</ele>
        <time>2026-08-31T03:07:53.1200000+00:00</time>
      </trkpt>
      <trkpt lat="52.21296" lon="10.74142">
        <ele>295.24</ele>
        <time>2026-08-31T03:08:25.7590000+00:00</time>
      </trkpt>
      <trkpt lat="52.21283" lon="10.74106">
        <ele>295.04</ele>
        <time>2026-08-31T03:08:35.5060000+00:00</time>
      </trkpt>
      <trkpt lat="52.21254" lon="10.74016">
        <ele>296.94</ele>
        <time>2026-08-31T03:08:59.2240000+00:00</time>
      </trkpt>
      <trkpt lat="52.21245" lon="10.73974">
        <ele>297.12</ele>
        <time>2026-08-31T03:09:09.6020000+00:00</time>
      </trkpt>
      <trkpt lat="52.21243" lon="10.73956">
        <ele>297.37</ele>
        <time>2026-08-31T03:09:13.8690000+00:00</time>
      </trkpt>
      <trkpt lat="52.21243" lon="10.7394">
        <ele>297.73</ele>
        <time>2026-08-31T03:09:17.6010000+00:00</time>
      </trkpt>
      <trkpt lat="52.21248" lon="10.7385">
        <ele>296.35</ele>
        <time>2026-08-31T03:09:38.6790000+00:00</time>
      </trkpt>
      <trkpt lat="52.21249" lon="10.7373">
        <ele>293.6</ele>
        <time>2026-08-31T03:10:06.6710000+00:00</time>
      </trkpt>
      <trkpt lat="52.21266" lon="10.73584">
        <ele>295.69</ele>
        <time>2026-08-31T03:10:41.3340000+00:00</time>
      </trkpt>
      <trkpt lat="52.21281" lon="10.73483">
        <ele>297.17</ele>
        <time>2026-08-31T03:11:05.5740000+00:00</time>
      </trkpt>
      <trkpt lat="52.21292" lon="10.73366">
        <ele>296.46</ele>
        <time>2026-08-31T03:11:33.1830000+00:00</time>
      </trkpt>
      <trkpt lat="52.21296" lon="10.7329">
        <ele>294.47</ele>
        <time>2026-08-31T03:11:50.9750000+00:00</time>
      </trkpt>
      <trkpt lat="52.21296" lon="10.73284">
        <ele>294.27</ele>
        <time>2026-08-31T03:11:52.3740000+00:00</time>
      </trkpt>
      <trkpt lat="52.21303" lon="10.73277">
        <ele>294.8</ele>
        <time>2026-08-31T03:11:55.4990000+00:00</time>
      </trkpt>
      <trkpt lat="52.21314" lon="10.73294">
        <ele>296.61</ele>
        <time>2026-08-31T03:12:01.2660000+00:00</time>
      </trkpt>
      <trkpt lat="52.2134" lon="10.73308">
        <ele>298.17</ele>
        <time>2026-08-31T03:12:11.6880000+00:00</time>
      </trkpt>
      <trkpt lat="52.21353" lon="10.73316">
        <ele>298.92</ele>
        <time>2026-08-31T03:12:16.9770000+00:00</time>
      </trkpt>
      <trkpt lat="52.2136" lon="10.73308">
        <ele>298.89</ele>
        <time>2026-08-31T03:12:20.2300000+00:00</time>
      </trkpt>
      <trkpt lat="52.2137" lon="10.73271">
        <ele>297.92</ele>
        <time>2026-08-31T03:12:29.6620000+00:00</time>
      </trkpt>
      <trkpt lat="52.21362" lon="10.73232">
        <ele>296.44</ele>
        <time>2026-08-31T03:12:39.2550000+00:00</time>
      </trkpt>
      <trkpt lat="52.21362" lon="10.73183">
        <ele>294.93</ele>
        <time>2026-08-31T03:12:50.6840000+00:00</time>
      </trkpt>
      <trkpt lat="52.21364" lon="10.73146">
        <ele>293.83</ele>
        <time>2026-08-31T03:12:59.3470000+00:00</time>
      </trkpt>
      <trkpt lat="52.21363" lon="10.7312">
        <ele>293.01</ele>
        <time>2026-08-31T03:13:05.4230000+00:00</time>
      </trkpt>
      <trkpt lat="52.21362" lon="10.731">
        <ele>292.43</ele>
        <time>2026-08-31T03:13:10.1030000+00:00</time>
      </trkpt>
      <trkpt lat="52.2136" lon="10.7308">
        <ele>292.02</ele>
        <time>2026-08-31T03:13:14.8300000+00:00</time>
      </trkpt>
      <trkpt lat="52.21361" lon="10.73055">
        <ele>291.49</ele>
        <time>2026-08-31T03:13:20.6730000+00:00</time>
      </trkpt>
      <trkpt lat="52.21361" lon="10.73">
        <ele>290.28</ele>
        <time>2026-08-31T03:13:33.5010000+00:00</time>
      </trkpt>
      <trkpt lat="52.21361" lon="10.7298">
        <ele>289.8</ele>
        <time>2026-08-31T03:13:38.1660000+00:00</time>
      </trkpt>
      <trkpt lat="52.21359" lon="10.72919">
        <ele>288.43</ele>
        <time>2026-08-31T03:13:52.4140000+00:00</time>
      </trkpt>
      <trkpt lat="52.21354" lon="10.72843">
        <ele>286.94</ele>
        <time>2026-08-31T03:14:10.2420000+00:00</time>
      </trkpt>
      <trkpt lat="52.21354" lon="10.72788">
        <ele>286.02</ele>
        <time>2026-08-31T03:14:23.0700000+00:00</time>
      </trkpt>
      <trkpt lat="52.21356" lon="10.72764">
        <ele>285.44</ele>
        <time>2026-08-31T03:14:28.7200000+00:00</time>
      </trkpt>
      <trkpt lat="52.2136" lon="10.72731">
        <ele>284.53</ele>
        <time>2026-08-31T03:14:36.5660000+00:00</time>
      </trkpt>
      <trkpt lat="52.21361" lon="10.72711">
        <ele>284.1</ele>
        <time>2026-08-31T03:14:41.2460000+00:00</time>
      </trkpt>
      <trkpt lat="52.21363" lon="10.72662">
        <ele>282.78</ele>
        <time>2026-08-31T03:14:52.7000000+00:00</time>
      </trkpt>
      <trkpt lat="52.21367" lon="10.72614">
        <ele>281.14</ele>
        <time>2026-08-31T03:15:03.9980000+00:00</time>
      </trkpt>
      <trkpt lat="52.21369" lon="10.72596">
        <ele>280.75</ele>
        <time>2026-08-31T03:15:08.2650000+00:00</time>
      </trkpt>
      <trkpt lat="52.21372" lon="10.72539">
        <ele>280.35</ele>
        <time>2026-08-31T03:15:21.6090000+00:00</time>
      </trkpt>
      <trkpt lat="52.2137" lon="10.72483">
        <ele>281.18</ele>
        <time>2026-08-31T03:15:34.6920000+00:00</time>
      </trkpt>
      <trkpt lat="52.21369" lon="10.72442">
        <ele>282.03</ele>
        <time>2026-08-31T03:15:44.2630000+00:00</time>
      </trkpt>
      <trkpt lat="52.21359" lon="10.72409">
        <ele>282.44</ele>
        <time>2026-08-31T03:15:52.8500000+00:00</time>
      </trkpt>
      <trkpt lat="52.21348" lon="10.7238">
        <ele>282.83</ele>
        <time>2026-08-31T03:16:00.8050000+00:00</time>
      </trkpt>
      <trkpt lat="52.21343" lon="10.72365">
        <ele>283.01</ele>
        <time>2026-08-31T03:16:04.7880000+00:00</time>
      </trkpt>
      <trkpt lat="52.2133" lon="10.72338">
        <ele>283.48</ele>
        <time>2026-08-31T03:16:12.7970000+00:00</time>
      </trkpt>
      <trkpt lat="52.21316" lon="10.7229">
        <ele>283.98</ele>
        <time>2026-08-31T03:16:25.1960000+00:00</time>
      </trkpt>
      <trkpt lat="52.21297" lon="10.72232">
        <ele>281.21</ele>
        <time>2026-08-31T03:16:40.5360000+00:00</time>
      </trkpt>
      <trkpt lat="52.21291" lon="10.72206">
        <ele>280.22</ele>
        <time>2026-08-31T03:16:47.0160000+00:00</time>
      </trkpt>
      <trkpt lat="52.2128" lon="10.72157">
        <ele>277.88</ele>
        <time>2026-08-31T03:16:59.1880000+00:00</time>
      </trkpt>
      <trkpt lat="52.21277" lon="10.72109">
        <ele>276.79</ele>
        <time>2026-08-31T03:17:10.4420000+00:00</time>
      </trkpt>
      <trkpt lat="52.21268" lon="10.72062">
        <ele>273.86</ele>
        <time>2026-08-31T03:17:21.9270000+00:00</time>
      </trkpt>
      <trkpt lat="52.21261" lon="10.72025">
        <ele>272.07</ele>
        <time>2026-08-31T03:17:30.9600000+00:00</time>
      </trkpt>
      <trkpt lat="52.21253" lon="10.71998">
        <ele>271.24</ele>
        <time>2026-08-31T03:17:37.9550000+00:00</time>
      </trkpt>
      <trkpt lat="52.21245" lon="10.71967">
        <ele>270.44</ele>
        <time>2026-08-31T03:17:45.8010000+00:00</time>
      </trkpt>
      <trkpt lat="52.21242" lon="10.71918">
        <ele>269.33</ele>
        <time>2026-08-31T03:17:57.2870000+00:00</time>
      </trkpt>
      <trkpt lat="52.21242" lon="10.71896">
        <ele>268.89</ele>
        <time>2026-08-31T03:18:02.4180000+00:00</time>
      </trkpt>
      <trkpt lat="52.21248" lon="10.71854">
        <ele>268.09</ele>
        <time>2026-08-31T03:18:12.4770000+00:00</time>
      </trkpt>
      <trkpt lat="52.21255" lon="10.71824">
        <ele>267.2</ele>
        <time>2026-08-31T03:18:19.9640000+00:00</time>
      </trkpt>
      <trkpt lat="52.21256" lon="10.718">
        <ele>266.43</ele>
        <time>2026-08-31T03:18:25.5750000+00:00</time>
      </trkpt>
      <trkpt lat="52.21256" lon="10.71799">
        <ele>266.4</ele>
        <time>2026-08-31T03:18:25.8100000+00:00</time>
      </trkpt>
      <trkpt lat="52.21254" lon="10.7177">
        <ele>265.29</ele>
        <time>2026-08-31T03:18:32.6160000+00:00</time>
      </trkpt>
      <trkpt lat="52.21258" lon="10.71757">
        <ele>264.5</ele>
        <time>2026-08-31T03:18:36.0100000+00:00</time>
      </trkpt>
      <trkpt lat="52.21256" lon="10.71717">
        <ele>261.79</ele>
        <time>2026-08-31T03:18:45.3700000+00:00</time>
      </trkpt>
      <trkpt lat="52.21255" lon="10.71711">
        <ele>261.38</ele>
        <time>2026-08-31T03:18:46.8210000+00:00</time>
      </trkpt>
      <trkpt lat="52.2125" lon="10.71684">
        <ele>259.55</ele>
        <time>2026-08-31T03:18:53.4000000+00:00</time>
      </trkpt>
      <trkpt lat="52.21242" lon="10.7166">
        <ele>257.82</ele>
        <time>2026-08-31T03:18:59.7720000+00:00</time>
      </trkpt>
      <trkpt lat="52.21225" lon="10.71607">
        <ele>254</ele>
        <time>2026-08-31T03:19:13.7260000+00:00</time>
      </trkpt>
      <trkpt lat="52.21218" lon="10.71541">
        <ele>252.28</ele>
        <time>2026-08-31T03:19:29.3490000+00:00</time>
      </trkpt>
      <trkpt lat="52.21221" lon="10.71525">
        <ele>251.9</ele>
        <time>2026-08-31T03:19:33.2520000+00:00</time>
      </trkpt>
      <trkpt lat="52.21214" lon="10.71485">
        <ele>249.57</ele>
        <time>2026-08-31T03:19:42.9540000+00:00</time>
      </trkpt>
      <trkpt lat="52.21197" lon="10.71428">
        <ele>244.48</ele>
        <time>2026-08-31T03:19:57.7410000+00:00</time>
      </trkpt>
      <trkpt lat="52.21191" lon="10.71409">
        <ele>242.83</ele>
        <time>2026-08-31T03:20:02.7260000+00:00</time>
      </trkpt>
      <trkpt lat="52.21185" lon="10.7139">
        <ele>241.28</ele>
        <time>2026-08-31T03:20:07.7120000+00:00</time>
      </trkpt>
      <trkpt lat="52.21162" lon="10.71358">
        <ele>237.97</ele>
        <time>2026-08-31T03:20:19.2170000+00:00</time>
      </trkpt>
      <trkpt lat="52.21138" lon="10.71314">
        <ele>236.04</ele>
        <time>2026-08-31T03:20:32.9580000+00:00</time>
      </trkpt>
      <trkpt lat="52.21137" lon="10.71277">
        <ele>236.62</ele>
        <time>2026-08-31T03:20:41.5960000+00:00</time>
      </trkpt>
      <trkpt lat="52.2115" lon="10.71264">
        <ele>238.53</ele>
        <time>2026-08-31T03:20:47.4000000+00:00</time>
      </trkpt>
      <trkpt lat="52.21169" lon="10.71241">
        <ele>237.56</ele>
        <time>2026-08-31T03:20:56.4050000+00:00</time>
      </trkpt>
      <trkpt lat="52.21169" lon="10.71234">
        <ele>237.21</ele>
        <time>2026-08-31T03:20:58.0380000+00:00</time>
      </trkpt>
      <trkpt lat="52.21168" lon="10.71212">
        <ele>236.08</ele>
        <time>2026-08-31T03:21:03.1830000+00:00</time>
      </trkpt>
      <trkpt lat="52.21167" lon="10.71206">
        <ele>235.78</ele>
        <time>2026-08-31T03:21:04.6340000+00:00</time>
      </trkpt>
      <trkpt lat="52.21157" lon="10.71173">
        <ele>233.9</ele>
        <time>2026-08-31T03:21:13.2210000+00:00</time>
      </trkpt>
      <trkpt lat="52.21139" lon="10.71108">
        <ele>228.59</ele>
        <time>2026-08-31T03:21:29.8590000+00:00</time>
      </trkpt>
      <trkpt lat="52.21136" lon="10.71098">
        <ele>227.66</ele>
        <time>2026-08-31T03:21:32.4560000+00:00</time>
      </trkpt>
      <trkpt lat="52.2112" lon="10.7106">
        <ele>224.16</ele>
        <time>2026-08-31T03:21:43.2100000+00:00</time>
      </trkpt>
      <trkpt lat="52.21107" lon="10.71036">
        <ele>222.25</ele>
        <time>2026-08-31T03:21:50.6820000+00:00</time>
      </trkpt>
      <trkpt lat="52.21069" lon="10.70986">
        <ele>220.04</ele>
        <time>2026-08-31T03:22:09.2630000+00:00</time>
      </trkpt>
      <trkpt lat="52.2104" lon="10.70969">
        <ele>215.99</ele>
        <time>2026-08-31T03:22:20.9930000+00:00</time>
      </trkpt>
      <trkpt lat="52.21035" lon="10.70957">
        <ele>215.28</ele>
        <time>2026-08-31T03:22:24.3780000+00:00</time>
      </trkpt>
      <trkpt lat="52.21036" lon="10.70952">
        <ele>215.51</ele>
        <time>2026-08-31T03:22:25.6050000+00:00</time>
      </trkpt>
      <trkpt lat="52.21041" lon="10.7094">
        <ele>216.49</ele>
        <time>2026-08-31T03:22:28.9900000+00:00</time>
      </trkpt>
      <trkpt lat="52.21052" lon="10.70924">
        <ele>217.54</ele>
        <time>2026-08-31T03:22:34.5990000+00:00</time>
      </trkpt>
      <trkpt lat="52.21075" lon="10.7089">
        <ele>217.94</ele>
        <time>2026-08-31T03:22:46.4120000+00:00</time>
      </trkpt>
      <trkpt lat="52.21078" lon="10.70884">
        <ele>217.58</ele>
        <time>2026-08-31T03:22:48.2190000+00:00</time>
      </trkpt>
      <trkpt lat="52.21088" lon="10.7087">
        <ele>216.74</ele>
        <time>2026-08-31T03:22:53.2340000+00:00</time>
      </trkpt>
      <trkpt lat="52.21099" lon="10.70856">
        <ele>215.79</ele>
        <time>2026-08-31T03:22:58.5450000+00:00</time>
      </trkpt>
      <trkpt lat="52.21106" lon="10.70847">
        <ele>214.65</ele>
        <time>2026-08-31T03:23:01.9370000+00:00</time>
      </trkpt>
      <trkpt lat="52.21128" lon="10.70823">
        <ele>212.15</ele>
        <time>2026-08-31T03:23:12.0100000+00:00</time>
      </trkpt>
      <trkpt lat="52.21137" lon="10.70812">
        <ele>211.22</ele>
        <time>2026-08-31T03:23:16.2900000+00:00</time>
      </trkpt>
      <trkpt lat="52.21151" lon="10.708">
        <ele>210.36</ele>
        <time>2026-08-31T03:23:22.3100000+00:00</time>
      </trkpt>
      <trkpt lat="52.21165" lon="10.70787">
        <ele>208.39</ele>
        <time>2026-08-31T03:23:28.4420000+00:00</time>
      </trkpt>
      <trkpt lat="52.21188" lon="10.70767">
        <ele>205.19</ele>
        <time>2026-08-31T03:23:38.3620000+00:00</time>
      </trkpt>
      <trkpt lat="52.21192" lon="10.70762">
        <ele>204.39</ele>
        <time>2026-08-31T03:23:40.2800000+00:00</time>
      </trkpt>
      <trkpt lat="52.21217" lon="10.70742">
        <ele>201.02</ele>
        <time>2026-08-31T03:23:50.8780000+00:00</time>
      </trkpt>
      <trkpt lat="52.21237" lon="10.70726">
        <ele>198.01</ele>
        <time>2026-08-31T03:23:59.3570000+00:00</time>
      </trkpt>
      <trkpt lat="52.21264" lon="10.70705">
        <ele>191.24</ele>
        <time>2026-08-31T03:24:10.7420000+00:00</time>
      </trkpt>
      <trkpt lat="52.21282" lon="10.70692">
        <ele>186.75</ele>
        <time>2026-08-31T03:24:18.2350000+00:00</time>
      </trkpt>
      <trkpt lat="52.21295" lon="10.70682">
        <ele>183.61</ele>
        <time>2026-08-31T03:24:23.7060000+00:00</time>
      </trkpt>
      <trkpt lat="52.21317" lon="10.7065">
        <ele>178.04</ele>
        <time>2026-08-31T03:24:34.9240000+00:00</time>
      </trkpt>
      <trkpt lat="52.21306" lon="10.70572">
        <ele>172.64</ele>
        <time>2026-08-31T03:24:53.5920000+00:00</time>
      </trkpt>
      <trkpt lat="52.21297" lon="10.70521">
        <ele>168.77</ele>
        <time>2026-08-31T03:25:05.9710000+00:00</time>
      </trkpt>
      <trkpt lat="52.21284" lon="10.70439">
        <ele>166.83</ele>
        <time>2026-08-31T03:25:25.7270000+00:00</time>
      </trkpt>
      <trkpt lat="52.21266" lon="10.70328">
        <ele>164.45</ele>
        <time>2026-08-31T03:25:52.5090000+00:00</time>
      </trkpt>
      <trkpt lat="52.21249" lon="10.70218">
        <ele>161.49</ele>
        <time>2026-08-31T03:26:18.9690000+00:00</time>
      </trkpt>
      <trkpt lat="52.2124" lon="10.701599999999999">
        <ele>158.61</ele>
        <time>2026-08-31T03:26:32.9250000+00:00</time>
      </trkpt>
      <trkpt lat="52.21226" lon="10.70083">
        <ele>154.48</ele>
        <time>2026-08-31T03:26:51.6590000+00:00</time>
      </trkpt>
      <trkpt lat="52.21218" lon="10.7003">
        <ele>152.98</ele>
        <time>2026-08-31T03:27:04.3900000+00:00</time>
      </trkpt>
      <trkpt lat="52.21214" lon="10.70004">
        <ele>152.02</ele>
        <time>2026-08-31T03:27:10.6430000+00:00</time>
      </trkpt>
      <trkpt lat="52.21204" lon="10.69953">
        <ele>150.07</ele>
        <time>2026-08-31T03:27:23.1330000+00:00</time>
      </trkpt>
      <trkpt lat="52.21202" lon="10.6994">
        <ele>149.57</ele>
        <time>2026-08-31T03:27:26.2590000+00:00</time>
      </trkpt>
      <trkpt lat="52.21197" lon="10.69916">
        <ele>148.52</ele>
        <time>2026-08-31T03:27:32.1720000+00:00</time>
      </trkpt>
      <trkpt lat="52.21188" lon="10.69876">
        <ele>146.68</ele>
        <time>2026-08-31T03:27:42.1110000+00:00</time>
      </trkpt>
      <trkpt lat="52.21188" lon="10.69854">
        <ele>145.85</ele>
        <time>2026-08-31T03:27:47.2430000+00:00</time>
      </trkpt>
      <trkpt lat="52.21183" lon="10.69824">
        <ele>145.16</ele>
        <time>2026-08-31T03:27:54.4940000+00:00</time>
      </trkpt>
      <trkpt lat="52.21168" lon="10.69818">
        <ele>144.59</ele>
        <time>2026-08-31T03:28:00.3730000+00:00</time>
      </trkpt>
      <trkpt lat="52.21137" lon="10.69818">
        <ele>143.59</ele>
        <time>2026-08-31T03:28:12.1740000+00:00</time>
      </trkpt>
      <trkpt lat="52.21134" lon="10.69817">
        <ele>143.46</ele>
        <time>2026-08-31T03:28:13.3390000+00:00</time>
      </trkpt>
      <trkpt lat="52.21062" lon="10.69812">
        <ele>140.91</ele>
        <time>2026-08-31T03:28:40.7720000+00:00</time>
      </trkpt>
      <trkpt lat="52.21019" lon="10.69809">
        <ele>139.88</ele>
        <time>2026-08-31T03:28:57.1550000+00:00</time>
      </trkpt>
      <trkpt lat="52.20994" lon="10.69809">
        <ele>139.28</ele>
        <time>2026-08-31T03:29:06.6720000+00:00</time>
      </trkpt>
      <trkpt lat="52.2098" lon="10.69814">
        <ele>138.95</ele>
        <time>2026-08-31T03:29:12.1270000+00:00</time>
      </trkpt>
      <trkpt lat="52.20968" lon="10.69815">
        <ele>138.73</ele>
        <time>2026-08-31T03:29:16.7010000+00:00</time>
      </trkpt>
      <trkpt lat="52.20951" lon="10.69808">
        <ele>138.39</ele>
        <time>2026-08-31T03:29:23.3750000+00:00</time>
      </trkpt>
      <trkpt lat="52.20934" lon="10.69805">
        <ele>138.04</ele>
        <time>2026-08-31T03:29:29.8840000+00:00</time>
      </trkpt>
      <trkpt lat="52.20855" lon="10.69801">
        <ele>137.31</ele>
        <time>2026-08-31T03:29:59.9710000+00:00</time>
      </trkpt>
      <trkpt lat="52.20836" lon="10.69799">
        <ele>137.29</ele>
        <time>2026-08-31T03:30:07.2190000+00:00</time>
      </trkpt>
      <trkpt lat="52.20748" lon="10.69797">
        <ele>138.29</ele>
        <time>2026-08-31T03:30:40.7200000+00:00</time>
      </trkpt>
      <trkpt lat="52.20641" lon="10.69789">
        <ele>138.6</ele>
        <time>2026-08-31T03:31:21.4940000+00:00</time>
      </trkpt>
      <trkpt lat="52.20538" lon="10.69783">
        <ele>139.22</ele>
        <time>2026-08-31T03:32:00.7270000+00:00</time>
      </trkpt>
      <trkpt lat="52.20494" lon="10.69785">
        <ele>139.15</ele>
        <time>2026-08-31T03:32:17.4830000+00:00</time>
      </trkpt>
      <trkpt lat="52.20492" lon="10.6973">
        <ele>138.4</ele>
        <time>2026-08-31T03:32:30.3360000+00:00</time>
      </trkpt>
      <trkpt lat="52.20497" lon="10.69598">
        <ele>136.98</ele>
        <time>2026-08-31T03:33:01.1890000+00:00</time>
      </trkpt>
      <trkpt lat="52.20502" lon="10.69456">
        <ele>135.94</ele>
        <time>2026-08-31T03:33:34.3700000+00:00</time>
      </trkpt>
      <trkpt lat="52.20507" lon="10.69365">
        <ele>136.1</ele>
        <time>2026-08-31T03:33:55.6840000+00:00</time>
      </trkpt>
      <trkpt lat="52.20518" lon="10.69336">
        <ele>135.9</ele>
        <time>2026-08-31T03:34:03.6400000+00:00</time>
      </trkpt>
      <trkpt lat="52.2057" lon="10.69198">
        <ele>135.78</ele>
        <time>2026-08-31T03:34:41.4320000+00:00</time>
      </trkpt>
      <trkpt lat="52.20575" lon="10.69153">
        <ele>135.74</ele>
        <time>2026-08-31T03:34:52.1010000+00:00</time>
      </trkpt>
      <trkpt lat="52.20569" lon="10.69027">
        <ele>133.96</ele>
        <time>2026-08-31T03:35:21.5830000+00:00</time>
      </trkpt>
      <trkpt lat="52.20564" lon="10.69003">
        <ele>134.08</ele>
        <time>2026-08-31T03:35:27.4960000+00:00</time>
      </trkpt>
      <trkpt lat="52.20547" lon="10.68978">
        <ele>134.69</ele>
        <time>2026-08-31T03:35:36.2080000+00:00</time>
      </trkpt>
      <trkpt lat="52.20537" lon="10.6897">
        <ele>135.05</ele>
        <time>2026-08-31T03:35:40.4470000+00:00</time>
      </trkpt>
      <trkpt lat="52.20549" lon="10.68974">
        <ele>134.62</ele>
        <time>2026-08-31T03:35:45.1100000+00:00</time>
      </trkpt>
      <trkpt lat="52.2055" lon="10.68975">
        <ele>134.58</ele>
        <time>2026-08-31T03:35:45.5570000+00:00</time>
      </trkpt>
      <trkpt lat="52.20563" lon="10.68986">
        <ele>134.12</ele>
        <time>2026-08-31T03:35:51.1310000+00:00</time>
      </trkpt>
      <trkpt lat="52.2057" lon="10.69018">
        <ele>133.91</ele>
        <time>2026-08-31T03:35:59.0570000+00:00</time>
      </trkpt>
      <trkpt lat="52.20569" lon="10.69024">
        <ele>133.93</ele>
        <time>2026-08-31T03:36:00.5080000+00:00</time>
      </trkpt>
      <trkpt lat="52.2057" lon="10.69115">
        <ele>135.87</ele>
        <time>2026-08-31T03:36:21.7400000+00:00</time>
      </trkpt>
      <trkpt lat="52.20566" lon="10.69203">
        <ele>135.75</ele>
        <time>2026-08-31T03:36:42.3250000+00:00</time>
      </trkpt>
      <trkpt lat="52.20549" lon="10.6925">
        <ele>135.31</ele>
        <time>2026-08-31T03:36:55.0570000+00:00</time>
      </trkpt>
      <trkpt lat="52.20517" lon="10.69331">
        <ele>135.97</ele>
        <time>2026-08-31T03:37:17.5390000+00:00</time>
      </trkpt>
      <trkpt lat="52.20491" lon="10.69377">
        <ele>136.53</ele>
        <time>2026-08-31T03:37:32.1370000+00:00</time>
      </trkpt>
      <trkpt lat="52.2046" lon="10.6942">
        <ele>137.22</ele>
        <time>2026-08-31T03:37:47.6250000+00:00</time>
      </trkpt>
      <trkpt lat="52.20426" lon="10.69472">
        <ele>139.09</ele>
        <time>2026-08-31T03:38:05.3640000+00:00</time>
      </trkpt>
      <trkpt lat="52.20406" lon="10.69496">
        <ele>140.34</ele>
        <time>2026-08-31T03:38:14.8140000+00:00</time>
      </trkpt>
      <trkpt lat="52.20393" lon="10.69543">
        <ele>141.01</ele>
        <time>2026-08-31T03:38:26.8440000+00:00</time>
      </trkpt>
      <trkpt lat="52.20371" lon="10.69588">
        <ele>141.02</ele>
        <time>2026-08-31T03:38:40.2730000+00:00</time>
      </trkpt>
      <trkpt lat="52.20366" lon="10.69612">
        <ele>140.74</ele>
        <time>2026-08-31T03:38:46.1870000+00:00</time>
      </trkpt>
      <trkpt lat="52.20361" lon="10.69645">
        <ele>140.09</ele>
        <time>2026-08-31T03:38:54.1170000+00:00</time>
      </trkpt>
      <trkpt lat="52.20342" lon="10.6971">
        <ele>139.22</ele>
        <time>2026-08-31T03:39:10.9180000+00:00</time>
      </trkpt>
      <trkpt lat="52.20324" lon="10.69772">
        <ele>139.96</ele>
        <time>2026-08-31T03:39:26.9230000+00:00</time>
      </trkpt>
      <trkpt lat="52.20312" lon="10.69779">
        <ele>140.05</ele>
        <time>2026-08-31T03:39:31.7740000+00:00</time>
      </trkpt>
      <trkpt lat="52.20296" lon="10.69807">
        <ele>140.25</ele>
        <time>2026-08-31T03:39:40.7050000+00:00</time>
      </trkpt>
      <trkpt lat="52.20289" lon="10.69852">
        <ele>140.33</ele>
        <time>2026-08-31T03:39:51.5370000+00:00</time>
      </trkpt>
      <trkpt lat="52.20286" lon="10.69917">
        <ele>140.81</ele>
        <time>2026-08-31T03:40:06.7440000+00:00</time>
      </trkpt>
      <trkpt lat="52.20295" lon="10.70007">
        <ele>141</ele>
        <time>2026-08-31T03:40:28.0180000+00:00</time>
      </trkpt>
      <trkpt lat="52.20295" lon="10.70021">
        <ele>141</ele>
        <time>2026-08-31T03:40:31.2840000+00:00</time>
      </trkpt>
      <trkpt lat="52.20286" lon="10.70033">
        <ele>141.06</ele>
        <time>2026-08-31T03:40:35.7090000+00:00</time>
      </trkpt>
      <trkpt lat="52.20278" lon="10.70038">
        <ele>141.08</ele>
        <time>2026-08-31T03:40:38.9700000+00:00</time>
      </trkpt>
      <trkpt lat="52.2027" lon="10.70041">
        <ele>141.09</ele>
        <time>2026-08-31T03:40:42.0940000+00:00</time>
      </trkpt>
      <trkpt lat="52.20247" lon="10.70052">
        <ele>141.05</ele>
        <time>2026-08-31T03:40:51.2180000+00:00</time>
      </trkpt>
      <trkpt lat="52.20243" lon="10.70066">
        <ele>141.06</ele>
        <time>2026-08-31T03:40:54.8220000+00:00</time>
      </trkpt>
      <trkpt lat="52.20238" lon="10.7012">
        <ele>141.06</ele>
        <time>2026-08-31T03:41:07.5630000+00:00</time>
      </trkpt>
      <trkpt lat="52.20233" lon="10.70183">
        <ele>141</ele>
        <time>2026-08-31T03:41:22.3830000+00:00</time>
      </trkpt>
      <trkpt lat="52.20226" lon="10.70257">
        <ele>142.68</ele>
        <time>2026-08-31T03:41:39.8520000+00:00</time>
      </trkpt>
      <trkpt lat="52.20218" lon="10.70325">
        <ele>143.68</ele>
        <time>2026-08-31T03:41:56.0060000+00:00</time>
      </trkpt>
      <trkpt lat="52.20211" lon="10.70402">
        <ele>145.2</ele>
        <time>2026-08-31T03:42:14.1670000+00:00</time>
      </trkpt>
      <trkpt lat="52.20202" lon="10.70495">
        <ele>148.55</ele>
        <time>2026-08-31T03:42:36.1320000+00:00</time>
      </trkpt>
      <trkpt lat="52.2019" lon="10.70568">
        <ele>151.58</ele>
        <time>2026-08-31T03:42:53.7650000+00:00</time>
      </trkpt>
      <trkpt lat="52.20177" lon="10.70628">
        <ele>153.48</ele>
        <time>2026-08-31T03:43:08.6120000+00:00</time>
      </trkpt>
      <trkpt lat="52.2017" lon="10.7068">
        <ele>154.73</ele>
        <time>2026-08-31T03:43:21.0330000+00:00</time>
      </trkpt>
      <trkpt lat="52.20175" lon="10.7074">
        <ele>156.23</ele>
        <time>2026-08-31T03:43:35.1600000+00:00</time>
      </trkpt>
      <trkpt lat="52.2018" lon="10.70787">
        <ele>157.36</ele>
        <time>2026-08-31T03:43:46.2890000+00:00</time>
      </trkpt>
      <trkpt lat="52.20166" lon="10.70809">
        <ele>158.84</ele>
        <time>2026-08-31T03:43:53.6880000+00:00</time>
      </trkpt>
      <trkpt lat="52.20165" lon="10.70816">
        <ele>159.18</ele>
        <time>2026-08-31T03:43:55.3660000+00:00</time>
      </trkpt>
      <trkpt lat="52.20164" lon="10.70819">
        <ele>159.36</ele>
        <time>2026-08-31T03:43:56.1620000+00:00</time>
      </trkpt>
      <trkpt lat="52.20156" lon="10.70845">
        <ele>160.99</ele>
        <time>2026-08-31T03:44:02.9500000+00:00</time>
      </trkpt>
      <trkpt lat="52.20155" lon="10.7086">
        <ele>161.77</ele>
        <time>2026-08-31T03:44:06.4700000+00:00</time>
      </trkpt>
      <trkpt lat="52.20159" lon="10.70904">
        <ele>163.94</ele>
        <time>2026-08-31T03:44:16.8480000+00:00</time>
      </trkpt>
      <trkpt lat="52.20168" lon="10.70965">
        <ele>165.66</ele>
        <time>2026-08-31T03:44:31.4860000+00:00</time>
      </trkpt>
      <trkpt lat="52.20176" lon="10.7101">
        <ele>165.62</ele>
        <time>2026-08-31T03:44:42.4170000+00:00</time>
      </trkpt>
      <trkpt lat="52.20175" lon="10.71053">
        <ele>166.21</ele>
        <time>2026-08-31T03:44:52.4560000+00:00</time>
      </trkpt>
      <trkpt lat="52.20175" lon="10.71099">
        <ele>166.43</ele>
        <time>2026-08-31T03:45:03.1880000+00:00</time>
      </trkpt>
      <trkpt lat="52.20175" lon="10.7114">
        <ele>167.41</ele>
        <time>2026-08-31T03:45:12.7540000+00:00</time>
      </trkpt>
      <trkpt lat="52.20179" lon="10.71189">
        <ele>168.01</ele>
        <time>2026-08-31T03:45:24.2870000+00:00</time>
      </trkpt>
      <trkpt lat="52.20181" lon="10.71234">
        <ele>168.88</ele>
        <time>2026-08-31T03:45:34.8130000+00:00</time>
      </trkpt>
      <trkpt lat="52.20188" lon="10.71284">
        <ele>169.02</ele>
        <time>2026-08-31T03:45:46.7780000+00:00</time>
      </trkpt>
      <trkpt lat="52.20196" lon="10.71339">
        <ele>169.65</ele>
        <time>2026-08-31T03:45:59.9660000+00:00</time>
      </trkpt>
      <trkpt lat="52.20198" lon="10.71388">
        <ele>173.04</ele>
        <time>2026-08-31T03:46:11.4230000+00:00</time>
      </trkpt>
      <trkpt lat="52.20209" lon="10.71423">
        <ele>175.57</ele>
        <time>2026-08-31T03:46:20.6000000+00:00</time>
      </trkpt>
      <trkpt lat="52.20247" lon="10.71478">
        <ele>178.4</ele>
        <time>2026-08-31T03:46:39.9360000+00:00</time>
      </trkpt>
      <trkpt lat="52.20254" lon="10.71486">
        <ele>178.1</ele>
        <time>2026-08-31T03:46:43.1890000+00:00</time>
      </trkpt>
      <trkpt lat="52.20291" lon="10.71538">
        <ele>176.32</ele>
        <time>2026-08-31T03:47:01.7780000+00:00</time>
      </trkpt>
      <trkpt lat="52.20325" lon="10.71582">
        <ele>173.16</ele>
        <time>2026-08-31T03:47:18.2970000+00:00</time>
      </trkpt>
      <trkpt lat="52.20374" lon="10.71632">
        <ele>169.89</ele>
        <time>2026-08-31T03:47:40.2970000+00:00</time>
      </trkpt>
      <trkpt lat="52.20421" lon="10.71692">
        <ele>168.08</ele>
        <time>2026-08-31T03:48:03.0130000+00:00</time>
      </trkpt>
      <trkpt lat="52.20455" lon="10.71748">
        <ele>168.84</ele>
        <time>2026-08-31T03:48:21.4030000+00:00</time>
      </trkpt>
      <trkpt lat="52.20494" lon="10.71809">
        <ele>172.07</ele>
        <time>2026-08-31T03:48:41.9670000+00:00</time>
      </trkpt>
      <trkpt lat="52.20529" lon="10.71864">
        <ele>173.38</ele>
        <time>2026-08-31T03:49:00.4640000+00:00</time>
      </trkpt>
      <trkpt lat="52.20522" lon="10.71895">
        <ele>177.23</ele>
        <time>2026-08-31T03:49:08.1710000+00:00</time>
      </trkpt>
      <trkpt lat="52.2053" lon="10.7195">
        <ele>179.46</ele>
        <time>2026-08-31T03:49:21.3580000+00:00</time>
      </trkpt>
      <trkpt lat="52.20534" lon="10.7199">
        <ele>179.65</ele>
        <time>2026-08-31T03:49:30.8130000+00:00</time>
      </trkpt>
      <trkpt lat="52.20541" lon="10.72046">
        <ele>178.65</ele>
        <time>2026-08-31T03:49:44.1460000+00:00</time>
      </trkpt>
      <trkpt lat="52.20542" lon="10.72057">
        <ele>178.38</ele>
        <time>2026-08-31T03:49:46.7400000+00:00</time>
      </trkpt>
      <trkpt lat="52.20542" lon="10.72069">
        <ele>178.42</ele>
        <time>2026-08-31T03:49:49.5400000+00:00</time>
      </trkpt>
      <trkpt lat="52.20544" lon="10.72084">
        <ele>177.86</ele>
        <time>2026-08-31T03:49:53.1210000+00:00</time>
      </trkpt>
      <trkpt lat="52.20548" lon="10.72143">
        <ele>178.09</ele>
        <time>2026-08-31T03:50:06.9680000+00:00</time>
      </trkpt>
      <trkpt lat="52.20554" lon="10.72206">
        <ele>178.31</ele>
        <time>2026-08-31T03:50:21.8420000+00:00</time>
      </trkpt>
      <trkpt lat="52.20559" lon="10.72267">
        <ele>178.11</ele>
        <time>2026-08-31T03:50:36.1990000+00:00</time>
      </trkpt>
      <trkpt lat="52.2056" lon="10.723">
        <ele>178.51</ele>
        <time>2026-08-31T03:50:43.9060000+00:00</time>
      </trkpt>
      <trkpt lat="52.20562" lon="10.72321">
        <ele>178.37</ele>
        <time>2026-08-31T03:50:48.8640000+00:00</time>
      </trkpt>
      <trkpt lat="52.20561" lon="10.72339">
        <ele>179.06</ele>
        <time>2026-08-31T03:50:53.0800000+00:00</time>
      </trkpt>
      <trkpt lat="52.20552" lon="10.72376">
        <ele>182.71</ele>
        <time>2026-08-31T03:51:02.3670000+00:00</time>
      </trkpt>
      <trkpt lat="52.20543" lon="10.72406">
        <ele>186.53</ele>
        <time>2026-08-31T03:51:10.1590000+00:00</time>
      </trkpt>
      <trkpt lat="52.20535" lon="10.7244">
        <ele>190.37</ele>
        <time>2026-08-31T03:51:18.6550000+00:00</time>
      </trkpt>
      <trkpt lat="52.20532" lon="10.72444">
        <ele>191.35</ele>
        <time>2026-08-31T03:51:20.1300000+00:00</time>
      </trkpt>
      <trkpt lat="52.20525" lon="10.72444">
        <ele>193.47</ele>
        <time>2026-08-31T03:51:22.7940000+00:00</time>
      </trkpt>
      <trkpt lat="52.2052" lon="10.72435">
        <ele>194.64</ele>
        <time>2026-08-31T03:51:25.6280000+00:00</time>
      </trkpt>
      <trkpt lat="52.2052" lon="10.7242">
        <ele>193.9</ele>
        <time>2026-08-31T03:51:29.1270000+00:00</time>
      </trkpt>
      <trkpt lat="52.20522" lon="10.72411">
        <ele>192.87</ele>
        <time>2026-08-31T03:51:31.3610000+00:00</time>
      </trkpt>
      <trkpt lat="52.20522" lon="10.72397">
        <ele>192.19</ele>
        <time>2026-08-31T03:51:34.6270000+00:00</time>
      </trkpt>
      <trkpt lat="52.20524" lon="10.72381">
        <ele>190.84</ele>
        <time>2026-08-31T03:51:38.4360000+00:00</time>
      </trkpt>
      <trkpt lat="52.20524" lon="10.72375">
        <ele>190.55</ele>
        <time>2026-08-31T03:51:39.8360000+00:00</time>
      </trkpt>
      <trkpt lat="52.20524" lon="10.72341">
        <ele>189.57</ele>
        <time>2026-08-31T03:51:47.7680000+00:00</time>
      </trkpt>
      <trkpt lat="52.20517" lon="10.72301">
        <ele>191.44</ele>
        <time>2026-08-31T03:51:57.4720000+00:00</time>
      </trkpt>
      <trkpt lat="52.20515" lon="10.72294">
        <ele>192.03</ele>
        <time>2026-08-31T03:51:59.2740000+00:00</time>
      </trkpt>
      <trkpt lat="52.20505" lon="10.72262">
        <ele>194.94</ele>
        <time>2026-08-31T03:52:07.6540000+00:00</time>
      </trkpt>
      <trkpt lat="52.20501" lon="10.72237">
        <ele>195.83</ele>
        <time>2026-08-31T03:52:13.6810000+00:00</time>
      </trkpt>
      <trkpt lat="52.2049" lon="10.72196">
        <ele>198.79</ele>
        <time>2026-08-31T03:52:24.1220000+00:00</time>
      </trkpt>
      <trkpt lat="52.20478" lon="10.72161">
        <ele>200.7</ele>
        <time>2026-08-31T03:52:33.4780000+00:00</time>
      </trkpt>
      <trkpt lat="52.20455" lon="10.72138">
        <ele>204.17</ele>
        <time>2026-08-31T03:52:43.7470000+00:00</time>
      </trkpt>
      <trkpt lat="52.20432" lon="10.7214">
        <ele>209.01</ele>
        <time>2026-08-31T03:52:52.5140000+00:00</time>
      </trkpt>
      <trkpt lat="52.20416" lon="10.72162">
        <ele>214.4</ele>
        <time>2026-08-31T03:53:00.4790000+00:00</time>
      </trkpt>
      <trkpt lat="52.20403" lon="10.7219">
        <ele>220.21</ele>
        <time>2026-08-31T03:53:08.6740000+00:00</time>
      </trkpt>
      <trkpt lat="52.204" lon="10.72195">
        <ele>221.17</ele>
        <time>2026-08-31T03:53:10.3070000+00:00</time>
      </trkpt>
      <trkpt lat="52.20382" lon="10.72223">
        <ele>223.44</ele>
        <time>2026-08-31T03:53:19.7730000+00:00</time>
      </trkpt>
      <trkpt lat="52.20376" lon="10.72227">
        <ele>223.99</ele>
        <time>2026-08-31T03:53:22.2410000+00:00</time>
      </trkpt>
      <trkpt lat="52.20351" lon="10.72227">
        <ele>225.26</ele>
        <time>2026-08-31T03:53:31.7570000+00:00</time>
      </trkpt>
      <trkpt lat="52.20331" lon="10.72212">
        <ele>224.81</ele>
        <time>2026-08-31T03:53:40.1360000+00:00</time>
      </trkpt>
      <trkpt lat="52.20319" lon="10.72194">
        <ele>223.38</ele>
        <time>2026-08-31T03:53:46.3410000+00:00</time>
      </trkpt>
      <trkpt lat="52.20318" lon="10.72191">
        <ele>223.09</ele>
        <time>2026-08-31T03:53:47.1380000+00:00</time>
      </trkpt>
      <trkpt lat="52.20308" lon="10.72166">
        <ele>223.4</ele>
        <time>2026-08-31T03:53:54.1030000+00:00</time>
      </trkpt>
      <trkpt lat="52.20298" lon="10.72144">
        <ele>224.34</ele>
        <time>2026-08-31T03:54:00.4930000+00:00</time>
      </trkpt>
      <trkpt lat="52.20284" lon="10.72108">
        <ele>225.27</ele>
        <time>2026-08-31T03:54:10.4400000+00:00</time>
      </trkpt>
      <trkpt lat="52.20276" lon="10.7209">
        <ele>226.4</ele>
        <time>2026-08-31T03:54:15.6270000+00:00</time>
      </trkpt>
      <trkpt lat="52.20261" lon="10.72052">
        <ele>228.13</ele>
        <time>2026-08-31T03:54:26.1720000+00:00</time>
      </trkpt>
      <trkpt lat="52.20249" lon="10.72011">
        <ele>228.82</ele>
        <time>2026-08-31T03:54:36.7720000+00:00</time>
      </trkpt>
      <trkpt lat="52.20244" lon="10.71957">
        <ele>227.72</ele>
        <time>2026-08-31T03:54:49.5130000+00:00</time>
      </trkpt>
      <trkpt lat="52.20231" lon="10.71892">
        <ele>226.19</ele>
        <time>2026-08-31T03:55:05.4650000+00:00</time>
      </trkpt>
      <trkpt lat="52.20201" lon="10.71874">
        <ele>227.69</ele>
        <time>2026-08-31T03:55:17.6330000+00:00</time>
      </trkpt>
      <trkpt lat="52.20182" lon="10.71848">
        <ele>226.83</ele>
        <time>2026-08-31T03:55:27.0720000+00:00</time>
      </trkpt>
      <trkpt lat="52.20189" lon="10.71832">
        <ele>224.25</ele>
        <time>2026-08-31T03:55:31.6580000+00:00</time>
      </trkpt>
      <trkpt lat="52.2019" lon="10.71826">
        <ele>223.43</ele>
        <time>2026-08-31T03:55:33.1090000+00:00</time>
      </trkpt>
      <trkpt lat="52.202" lon="10.71786">
        <ele>217.86</ele>
        <time>2026-08-31T03:55:43.1880000+00:00</time>
      </trkpt>
      <trkpt lat="52.2021" lon="10.71751">
        <ele>213.01</ele>
        <time>2026-08-31T03:55:52.1970000+00:00</time>
      </trkpt>
      <trkpt lat="52.20213" lon="10.71742">
        <ele>211.77</ele>
        <time>2026-08-31T03:55:54.5870000+00:00</time>
      </trkpt>
      <trkpt lat="52.20213" lon="10.71736">
        <ele>211.07</ele>
        <time>2026-08-31T03:55:55.9870000+00:00</time>
      </trkpt>
      <trkpt lat="52.202" lon="10.7174">
        <ele>212.28</ele>
        <time>2026-08-31T03:56:01.0230000+00:00</time>
      </trkpt>
      <trkpt lat="52.20198" lon="10.71742">
        <ele>212.65</ele>
        <time>2026-08-31T03:56:01.9160000+00:00</time>
      </trkpt>
      <trkpt lat="52.2019" lon="10.7175">
        <ele>214.13</ele>
        <time>2026-08-31T03:56:05.4870000+00:00</time>
      </trkpt>
      <trkpt lat="52.20167" lon="10.71778">
        <ele>219.34</ele>
        <time>2026-08-31T03:56:16.4110000+00:00</time>
      </trkpt>
      <trkpt lat="52.20151" lon="10.71797">
        <ele>223.01</ele>
        <time>2026-08-31T03:56:23.9440000+00:00</time>
      </trkpt>
      <trkpt lat="52.20116" lon="10.71821">
        <ele>223.25</ele>
        <time>2026-08-31T03:56:38.3960000+00:00</time>
      </trkpt>
      <trkpt lat="52.20085" lon="10.7185">
        <ele>224.59</ele>
        <time>2026-08-31T03:56:51.9990000+00:00</time>
      </trkpt>
      <trkpt lat="52.2006" lon="10.71885">
        <ele>226.18</ele>
        <time>2026-08-31T03:57:04.5390000+00:00</time>
      </trkpt>
      <trkpt lat="52.2003" lon="10.71918">
        <ele>226.31</ele>
        <time>2026-08-31T03:57:18.3110000+00:00</time>
      </trkpt>
      <trkpt lat="52.20002" lon="10.71951">
        <ele>227.08</ele>
        <time>2026-08-31T03:57:31.4600000+00:00</time>
      </trkpt>
      <trkpt lat="52.19975" lon="10.71983">
        <ele>227.09</ele>
        <time>2026-08-31T03:57:44.1630000+00:00</time>
      </trkpt>
      <trkpt lat="52.19962" lon="10.7202">
        <ele>228.79</ele>
        <time>2026-08-31T03:57:54.1140000+00:00</time>
      </trkpt>
      <trkpt lat="52.1996" lon="10.72025">
        <ele>228.91</ele>
        <time>2026-08-31T03:57:55.5070000+00:00</time>
      </trkpt>
      <trkpt lat="52.19943" lon="10.7207">
        <ele>229.08</ele>
        <time>2026-08-31T03:58:07.8400000+00:00</time>
      </trkpt>
      <trkpt lat="52.19922" lon="10.72108">
        <ele>228.45</ele>
        <time>2026-08-31T03:58:19.7780000+00:00</time>
      </trkpt>
      <trkpt lat="52.19919" lon="10.72114">
        <ele>228.11</ele>
        <time>2026-08-31T03:58:21.5840000+00:00</time>
      </trkpt>
      <trkpt lat="52.19922" lon="10.72125">
        <ele>228.81</ele>
        <time>2026-08-31T03:58:24.3930000+00:00</time>
      </trkpt>
      <trkpt lat="52.19938" lon="10.7213">
        <ele>231.35</ele>
        <time>2026-08-31T03:58:30.5950000+00:00</time>
      </trkpt>
      <trkpt lat="52.1994" lon="10.72134">
        <ele>231.73</ele>
        <time>2026-08-31T03:58:31.7990000+00:00</time>
      </trkpt>
      <trkpt lat="52.19941" lon="10.72143">
        <ele>232.05</ele>
        <time>2026-08-31T03:58:33.9340000+00:00</time>
      </trkpt>
      <trkpt lat="52.1994" lon="10.72178">
        <ele>232.54</ele>
        <time>2026-08-31T03:58:42.1090000+00:00</time>
      </trkpt>
      <trkpt lat="52.1994" lon="10.72191">
        <ele>232.78</ele>
        <time>2026-08-31T03:58:45.1420000+00:00</time>
      </trkpt>
      <trkpt lat="52.19936" lon="10.722">
        <ele>232.44</ele>
        <time>2026-08-31T03:58:47.7360000+00:00</time>
      </trkpt>
      <trkpt lat="52.19934" lon="10.72207">
        <ele>232.34</ele>
        <time>2026-08-31T03:58:49.5380000+00:00</time>
      </trkpt>
      <trkpt lat="52.19935" lon="10.72216">
        <ele>232.71</ele>
        <time>2026-08-31T03:58:51.6720000+00:00</time>
      </trkpt>
      <trkpt lat="52.19933" lon="10.72236">
        <ele>232.97</ele>
        <time>2026-08-31T03:58:56.4000000+00:00</time>
      </trkpt>
      <trkpt lat="52.19924" lon="10.72264">
        <ele>232.61</ele>
        <time>2026-08-31T03:59:03.7770000+00:00</time>
      </trkpt>
      <trkpt lat="52.19917" lon="10.72277">
        <ele>232.27</ele>
        <time>2026-08-31T03:59:07.8140000+00:00</time>
      </trkpt>
      <trkpt lat="52.19902" lon="10.72303">
        <ele>232.03</ele>
        <time>2026-08-31T03:59:16.1450000+00:00</time>
      </trkpt>
      <trkpt lat="52.19875" lon="10.72324">
        <ele>230.53</ele>
        <time>2026-08-31T03:59:27.5310000+00:00</time>
      </trkpt>
      <trkpt lat="52.1987" lon="10.72324">
        <ele>230.03</ele>
        <time>2026-08-31T03:59:29.4340000+00:00</time>
      </trkpt>
      <trkpt lat="52.19865" lon="10.72321">
        <ele>229.33</ele>
        <time>2026-08-31T03:59:31.4620000+00:00</time>
      </trkpt>
      <trkpt lat="52.19858" lon="10.7232">
        <ele>228.55</ele>
        <time>2026-08-31T03:59:34.1370000+00:00</time>
      </trkpt>
      <trkpt lat="52.19854" lon="10.72313">
        <ele>227.68</ele>
        <time>2026-08-31T03:59:36.3700000+00:00</time>
      </trkpt>
      <trkpt lat="52.19852" lon="10.72314">
        <ele>227.54</ele>
        <time>2026-08-31T03:59:37.1660000+00:00</time>
      </trkpt>
      <trkpt lat="52.19839" lon="10.72301">
        <ele>225.32</ele>
        <time>2026-08-31T03:59:42.9700000+00:00</time>
      </trkpt>
      <trkpt lat="52.19822" lon="10.72302">
        <ele>223.62</ele>
        <time>2026-08-31T03:59:49.4460000+00:00</time>
      </trkpt>
      <trkpt lat="52.19817" lon="10.72302">
        <ele>223.1</ele>
        <time>2026-08-31T03:59:51.3490000+00:00</time>
      </trkpt>
      <trkpt lat="52.19783" lon="10.7233">
        <ele>221.85</ele>
        <time>2026-08-31T04:00:05.8470000+00:00</time>
      </trkpt>
      <trkpt lat="52.1978" lon="10.72332">
        <ele>221.71</ele>
        <time>2026-08-31T04:00:07.0810000+00:00</time>
      </trkpt>
      <trkpt lat="52.19774" lon="10.72333">
        <ele>221.2</ele>
        <time>2026-08-31T04:00:09.3770000+00:00</time>
      </trkpt>
      <trkpt lat="52.19764" lon="10.72335">
        <ele>220.39</ele>
        <time>2026-08-31T04:00:13.2120000+00:00</time>
      </trkpt>
      <trkpt lat="52.19757" lon="10.72339">
        <ele>220</ele>
        <time>2026-08-31T04:00:16.0350000+00:00</time>
      </trkpt>
      <trkpt lat="52.19737" lon="10.72372">
        <ele>220.29</ele>
        <time>2026-08-31T04:00:26.8630000+00:00</time>
      </trkpt>
      <trkpt lat="52.1972" lon="10.72415">
        <ele>221.06</ele>
        <time>2026-08-31T04:00:38.8020000+00:00</time>
      </trkpt>
      <trkpt lat="52.19708" lon="10.72441">
        <ele>221.34</ele>
        <time>2026-08-31T04:00:46.3960000+00:00</time>
      </trkpt>
      <trkpt lat="52.19704" lon="10.72453">
        <ele>221.77</ele>
        <time>2026-08-31T04:00:49.5830000+00:00</time>
      </trkpt>
      <trkpt lat="52.19699" lon="10.72456">
        <ele>221.44</ele>
        <time>2026-08-31T04:00:51.6110000+00:00</time>
      </trkpt>
      <trkpt lat="52.19682" lon="10.72487">
        <ele>221.84</ele>
        <time>2026-08-31T04:01:01.3170000+00:00</time>
      </trkpt>
      <trkpt lat="52.19678" lon="10.72497">
        <ele>222.13</ele>
        <time>2026-08-31T04:01:04.1030000+00:00</time>
      </trkpt>
      <trkpt lat="52.1967" lon="10.72525">
        <ele>223.28</ele>
        <time>2026-08-31T04:01:11.3110000+00:00</time>
      </trkpt>
      <trkpt lat="52.19674" lon="10.72552">
        <ele>225.66</ele>
        <time>2026-08-31T04:01:17.7930000+00:00</time>
      </trkpt>
      <trkpt lat="52.19675" lon="10.72583">
        <ele>228</ele>
        <time>2026-08-31T04:01:25.0360000+00:00</time>
      </trkpt>
      <trkpt lat="52.19676" lon="10.72591">
        <ele>228.69</ele>
        <time>2026-08-31T04:01:26.9410000+00:00</time>
      </trkpt>
      <trkpt lat="52.19682" lon="10.72619">
        <ele>231.35</ele>
        <time>2026-08-31T04:01:33.8620000+00:00</time>
      </trkpt>
      <trkpt lat="52.19682" lon="10.7262">
        <ele>231.42</ele>
        <time>2026-08-31T04:01:34.0960000+00:00</time>
      </trkpt>
      <trkpt lat="52.19681" lon="10.72646">
        <ele>233.19</ele>
        <time>2026-08-31T04:01:40.1750000+00:00</time>
      </trkpt>
      <trkpt lat="52.19681" lon="10.72649">
        <ele>233.41</ele>
        <time>2026-08-31T04:01:40.8760000+00:00</time>
      </trkpt>
      <trkpt lat="52.19679" lon="10.72656">
        <ele>233.69</ele>
        <time>2026-08-31T04:01:42.6770000+00:00</time>
      </trkpt>
      <trkpt lat="52.19668" lon="10.72684">
        <ele>234.52</ele>
        <time>2026-08-31T04:01:50.4370000+00:00</time>
      </trkpt>
      <trkpt lat="52.19666" lon="10.72686">
        <ele>234.45</ele>
        <time>2026-08-31T04:01:51.3300000+00:00</time>
      </trkpt>
      <trkpt lat="52.19663" lon="10.72691">
        <ele>234.47</ele>
        <time>2026-08-31T04:01:52.9630000+00:00</time>
      </trkpt>
      <trkpt lat="52.19655" lon="10.727">
        <ele>234.15</ele>
        <time>2026-08-31T04:01:56.6620000+00:00</time>
      </trkpt>
      <trkpt lat="52.19651" lon="10.72701">
        <ele>233.77</ele>
        <time>2026-08-31T04:01:58.2020000+00:00</time>
      </trkpt>
      <trkpt lat="52.1964" lon="10.72732">
        <ele>234.69</ele>
        <time>2026-08-31T04:02:06.5600000+00:00</time>
      </trkpt>
      <trkpt lat="52.19638" lon="10.72744">
        <ele>235.29</ele>
        <time>2026-08-31T04:02:09.4610000+00:00</time>
      </trkpt>
      <trkpt lat="52.19623" lon="10.72775">
        <ele>236.16</ele>
        <time>2026-08-31T04:02:18.6770000+00:00</time>
      </trkpt>
      <trkpt lat="52.19613" lon="10.72797">
        <ele>236.64</ele>
        <time>2026-08-31T04:02:25.0680000+00:00</time>
      </trkpt>
      <trkpt lat="52.19604" lon="10.72827">
        <ele>237.56</ele>
        <time>2026-08-31T04:02:32.8610000+00:00</time>
      </trkpt>
      <trkpt lat="52.1959" lon="10.72861">
        <ele>238.21</ele>
        <time>2026-08-31T04:02:42.4180000+00:00</time>
      </trkpt>
      <trkpt lat="52.19584" lon="10.72874">
        <ele>238.38</ele>
        <time>2026-08-31T04:02:46.2150000+00:00</time>
      </trkpt>
      <trkpt lat="52.19579" lon="10.72883">
        <ele>238.4</ele>
        <time>2026-08-31T04:02:49.0500000+00:00</time>
      </trkpt>
      <trkpt lat="52.19571" lon="10.72914">
        <ele>239.19</ele>
        <time>2026-08-31T04:02:56.8980000+00:00</time>
      </trkpt>
      <trkpt lat="52.19571" lon="10.72922">
        <ele>239.58</ele>
        <time>2026-08-31T04:02:58.7640000+00:00</time>
      </trkpt>
      <trkpt lat="52.19574" lon="10.72947">
        <ele>241.31</ele>
        <time>2026-08-31T04:03:04.7080000+00:00</time>
      </trkpt>
      <trkpt lat="52.19573" lon="10.72952">
        <ele>241.56</ele>
        <time>2026-08-31T04:03:05.9360000+00:00</time>
      </trkpt>
      <trkpt lat="52.19556" lon="10.72964">
        <ele>240.91</ele>
        <time>2026-08-31T04:03:12.9870000+00:00</time>
      </trkpt>
      <trkpt lat="52.19544" lon="10.72977">
        <ele>240.81</ele>
        <time>2026-08-31T04:03:18.4700000+00:00</time>
      </trkpt>
      <trkpt lat="52.19519" lon="10.72987">
        <ele>239.32</ele>
        <time>2026-08-31T04:03:28.2680000+00:00</time>
      </trkpt>
      <trkpt lat="52.19507" lon="10.72991">
        <ele>238.51</ele>
        <time>2026-08-31T04:03:32.9310000+00:00</time>
      </trkpt>
      <trkpt lat="52.19501" lon="10.73003">
        <ele>238.62</ele>
        <time>2026-08-31T04:03:36.5440000+00:00</time>
      </trkpt>
      <trkpt lat="52.19501" lon="10.73012">
        <ele>239.1</ele>
        <time>2026-08-31T04:03:38.6450000+00:00</time>
      </trkpt>
      <trkpt lat="52.19501" lon="10.73025">
        <ele>239.82</ele>
        <time>2026-08-31T04:03:41.6780000+00:00</time>
      </trkpt>
      <trkpt lat="52.195" lon="10.73037">
        <ele>240.5</ele>
        <time>2026-08-31T04:03:44.5040000+00:00</time>
      </trkpt>
      <trkpt lat="52.19504" lon="10.73063">
        <ele>242.51</ele>
        <time>2026-08-31T04:03:50.7590000+00:00</time>
      </trkpt>
      <trkpt lat="52.19513" lon="10.73092">
        <ele>244.94</ele>
        <time>2026-08-31T04:03:58.3440000+00:00</time>
      </trkpt>
      <trkpt lat="52.1952" lon="10.73108">
        <ele>246.33</ele>
        <time>2026-08-31T04:04:02.9300000+00:00</time>
      </trkpt>
      <trkpt lat="52.19524" lon="10.73127">
        <ele>247.83</ele>
        <time>2026-08-31T04:04:07.6180000+00:00</time>
      </trkpt>
      <trkpt lat="52.19528" lon="10.73142">
        <ele>249.01</ele>
        <time>2026-08-31T04:04:11.4350000+00:00</time>
      </trkpt>
      <trkpt lat="52.19531" lon="10.73168">
        <ele>250.8</ele>
        <time>2026-08-31T04:04:17.6080000+00:00</time>
      </trkpt>
      <trkpt lat="52.19537" lon="10.73188">
        <ele>252.22</ele>
        <time>2026-08-31T04:04:22.8040000+00:00</time>
      </trkpt>
      <trkpt lat="52.1954" lon="10.73198">
        <ele>252.81</ele>
        <time>2026-08-31T04:04:25.4020000+00:00</time>
      </trkpt>
      <trkpt lat="52.19543" lon="10.73208">
        <ele>253.37</ele>
        <time>2026-08-31T04:04:27.9990000+00:00</time>
      </trkpt>
      <trkpt lat="52.19554" lon="10.73239">
        <ele>254.86</ele>
        <time>2026-08-31T04:04:36.3570000+00:00</time>
      </trkpt>
      <trkpt lat="52.19564" lon="10.73265">
        <ele>255.8</ele>
        <time>2026-08-31T04:04:43.5190000+00:00</time>
      </trkpt>
      <trkpt lat="52.1958" lon="10.732849999999999">
        <ele>258.66</ele>
        <time>2026-08-31T04:04:51.1920000+00:00</time>
      </trkpt>
      <trkpt lat="52.19582" lon="10.73287">
        <ele>259.06</ele>
        <time>2026-08-31T04:04:52.0840000+00:00</time>
      </trkpt>
      <trkpt lat="52.19584" lon="10.73293">
        <ele>259.73</ele>
        <time>2026-08-31T04:04:53.6780000+00:00</time>
      </trkpt>
      <trkpt lat="52.19588" lon="10.73294">
        <ele>260.27</ele>
        <time>2026-08-31T04:04:55.2190000+00:00</time>
      </trkpt>
      <trkpt lat="52.19591" lon="10.73307">
        <ele>261.49</ele>
        <time>2026-08-31T04:04:58.4600000+00:00</time>
      </trkpt>
      <trkpt lat="52.19596" lon="10.73336">
        <ele>263.85</ele>
        <time>2026-08-31T04:05:05.4890000+00:00</time>
      </trkpt>
      <trkpt lat="52.19596" lon="10.73337">
        <ele>263.92</ele>
        <time>2026-08-31T04:05:05.7230000+00:00</time>
      </trkpt>
      <trkpt lat="52.19603" lon="10.7336">
        <ele>265.84</ele>
        <time>2026-08-31T04:05:11.7150000+00:00</time>
      </trkpt>
      <trkpt lat="52.19603" lon="10.73368">
        <ele>266.3</ele>
        <time>2026-08-31T04:05:13.5820000+00:00</time>
      </trkpt>
      <trkpt lat="52.19611" lon="10.73398">
        <ele>268.42</ele>
        <time>2026-08-31T04:05:21.2160000+00:00</time>
      </trkpt>
      <trkpt lat="52.19612" lon="10.734">
        <ele>268.58</ele>
        <time>2026-08-31T04:05:21.8180000+00:00</time>
      </trkpt>
      <trkpt lat="52.19613" lon="10.73404">
        <ele>268.84</ele>
        <time>2026-08-31T04:05:22.8250000+00:00</time>
      </trkpt>
      <trkpt lat="52.19622" lon="10.73426">
        <ele>270.36</ele>
        <time>2026-08-31T04:05:28.9970000+00:00</time>
      </trkpt>
      <trkpt lat="52.19631" lon="10.73451">
        <ele>271.96</ele>
        <time>2026-08-31T04:05:35.7620000+00:00</time>
      </trkpt>
      <trkpt lat="52.19633" lon="10.73454">
        <ele>272.18</ele>
        <time>2026-08-31T04:05:36.7960000+00:00</time>
      </trkpt>
      <trkpt lat="52.19635" lon="10.73461">
        <ele>272.61</ele>
        <time>2026-08-31T04:05:38.5980000+00:00</time>
      </trkpt>
      <trkpt lat="52.19638" lon="10.73474">
        <ele>273.37</ele>
        <time>2026-08-31T04:05:41.8390000+00:00</time>
      </trkpt>
      <trkpt lat="52.19647" lon="10.73504">
        <ele>275.08</ele>
        <time>2026-08-31T04:05:49.6320000+00:00</time>
      </trkpt>
      <trkpt lat="52.19651" lon="10.73526">
        <ele>276.36</ele>
        <time>2026-08-31T04:05:54.9860000+00:00</time>
      </trkpt>
      <trkpt lat="52.19653" lon="10.73534">
        <ele>277.17</ele>
        <time>2026-08-31T04:05:57.0020000+00:00</time>
      </trkpt>
      <trkpt lat="52.19654" lon="10.73541">
        <ele>277.75</ele>
        <time>2026-08-31T04:05:58.6800000+00:00</time>
      </trkpt>
      <trkpt lat="52.19661" lon="10.73567">
        <ele>280.43</ele>
        <time>2026-08-31T04:06:05.3060000+00:00</time>
      </trkpt>
      <trkpt lat="52.19661" lon="10.73568">
        <ele>280.49</ele>
        <time>2026-08-31T04:06:05.5380000+00:00</time>
      </trkpt>
      <trkpt lat="52.19662" lon="10.73571">
        <ele>280.82</ele>
        <time>2026-08-31T04:06:06.3350000+00:00</time>
      </trkpt>
      <trkpt lat="52.19664" lon="10.73579">
        <ele>281.61</ele>
        <time>2026-08-31T04:06:08.3510000+00:00</time>
      </trkpt>
      <trkpt lat="52.19667" lon="10.7359">
        <ele>282.73</ele>
        <time>2026-08-31T04:06:11.1600000+00:00</time>
      </trkpt>
      <trkpt lat="52.19668" lon="10.73605">
        <ele>283.75</ele>
        <time>2026-08-31T04:06:14.6800000+00:00</time>
      </trkpt>
      <trkpt lat="52.19676" lon="10.73614">
        <ele>285.82</ele>
        <time>2026-08-31T04:06:18.3800000+00:00</time>
      </trkpt>
      <trkpt lat="52.1968" lon="10.7362">
        <ele>286.97</ele>
        <time>2026-08-31T04:06:20.4480000+00:00</time>
      </trkpt>
      <trkpt lat="52.19683" lon="10.73625">
        <ele>287.86</ele>
        <time>2026-08-31T04:06:22.0810000+00:00</time>
      </trkpt>
      <trkpt lat="52.19695" lon="10.73652">
        <ele>291.82</ele>
        <time>2026-08-31T04:06:29.8630000+00:00</time>
      </trkpt>
      <trkpt lat="52.19705" lon="10.73666">
        <ele>294.18</ele>
        <time>2026-08-31T04:06:34.8790000+00:00</time>
      </trkpt>
      <trkpt lat="52.19695" lon="10.737">
        <ele>295.9</ele>
        <time>2026-08-31T04:06:43.6780000+00:00</time>
      </trkpt>
      <trkpt lat="52.1966" lon="10.73718">
        <ele>294.69</ele>
        <time>2026-08-31T04:06:57.6470000+00:00</time>
      </trkpt>
      <trkpt lat="52.19656" lon="10.73719">
        <ele>294.48</ele>
        <time>2026-08-31T04:06:59.1880000+00:00</time>
      </trkpt>
      <trkpt lat="52.19646" lon="10.7372">
        <ele>294.01</ele>
        <time>2026-08-31T04:07:03.0020000+00:00</time>
      </trkpt>
      <trkpt lat="52.19585" lon="10.73714">
        <ele>291.24</ele>
        <time>2026-08-31T04:07:26.2640000+00:00</time>
      </trkpt>
      <trkpt lat="52.1954" lon="10.73724">
        <ele>289.19</ele>
        <time>2026-08-31T04:07:43.5520000+00:00</time>
      </trkpt>
      <trkpt lat="52.19507" lon="10.73768">
        <ele>289.31</ele>
        <time>2026-08-31T04:07:59.7760000+00:00</time>
      </trkpt>
      <trkpt lat="52.19489" lon="10.73795">
        <ele>288.5</ele>
        <time>2026-08-31T04:08:09.0840000+00:00</time>
      </trkpt>
      <trkpt lat="52.19471" lon="10.73832">
        <ele>288.43</ele>
        <time>2026-08-31T04:08:20.1060000+00:00</time>
      </trkpt>
      <trkpt lat="52.19467" lon="10.73838">
        <ele>288.23</ele>
        <time>2026-08-31T04:08:22.1750000+00:00</time>
      </trkpt>
      <trkpt lat="52.19449" lon="10.7387">
        <ele>287.5</ele>
        <time>2026-08-31T04:08:32.3090000+00:00</time>
      </trkpt>
      <trkpt lat="52.19432" lon="10.73922">
        <ele>287.74</ele>
        <time>2026-08-31T04:08:46.0610000+00:00</time>
      </trkpt>
      <trkpt lat="52.19428" lon="10.7396">
        <ele>289.69</ele>
        <time>2026-08-31T04:08:55.0570000+00:00</time>
      </trkpt>
      <trkpt lat="52.19422" lon="10.74016">
        <ele>293.16</ele>
        <time>2026-08-31T04:09:08.3230000+00:00</time>
      </trkpt>
      <trkpt lat="52.1942" lon="10.74062">
        <ele>296.44</ele>
        <time>2026-08-31T04:09:19.0830000+00:00</time>
      </trkpt>
      <trkpt lat="52.19416" lon="10.74101">
        <ele>298.92</ele>
        <time>2026-08-31T04:09:28.3100000+00:00</time>
      </trkpt>
      <trkpt lat="52.19414" lon="10.74135">
        <ele>300.75</ele>
        <time>2026-08-31T04:09:36.2800000+00:00</time>
      </trkpt>
      <trkpt lat="52.19414" lon="10.74146">
        <ele>301.41</ele>
        <time>2026-08-31T04:09:38.8470000+00:00</time>
      </trkpt>
      <trkpt lat="52.19413" lon="10.74174">
        <ele>302.95</ele>
        <time>2026-08-31T04:09:45.3920000+00:00</time>
      </trkpt>
      <trkpt lat="52.19413" lon="10.74182">
        <ele>303.43</ele>
        <time>2026-08-31T04:09:47.2590000+00:00</time>
      </trkpt>
      <trkpt lat="52.19409" lon="10.74221">
        <ele>304.8</ele>
        <time>2026-08-31T04:09:56.4850000+00:00</time>
      </trkpt>
      <trkpt lat="52.19407" lon="10.74252">
        <ele>306</ele>
        <time>2026-08-31T04:10:03.7590000+00:00</time>
      </trkpt>
      <trkpt lat="52.19406" lon="10.74284">
        <ele>307.27</ele>
        <time>2026-08-31T04:10:11.2360000+00:00</time>
      </trkpt>
      <trkpt lat="52.19408" lon="10.74322">
        <ele>309.01</ele>
        <time>2026-08-31T04:10:20.1350000+00:00</time>
      </trkpt>
      <trkpt lat="52.19413" lon="10.74361">
        <ele>311.35</ele>
        <time>2026-08-31T04:10:29.4320000+00:00</time>
      </trkpt>
      <trkpt lat="52.19418" lon="10.74385">
        <ele>313.02</ele>
        <time>2026-08-31T04:10:35.3470000+00:00</time>
      </trkpt>
      <trkpt lat="52.1942" lon="10.74398">
        <ele>313.75</ele>
        <time>2026-08-31T04:10:38.4750000+00:00</time>
      </trkpt>
      <trkpt lat="52.19421" lon="10.74405">
        <ele>314.12</ele>
        <time>2026-08-31T04:10:40.1520000+00:00</time>
      </trkpt>
      <trkpt lat="52.19424" lon="10.74427">
        <ele>315.2</ele>
        <time>2026-08-31T04:10:45.4110000+00:00</time>
      </trkpt>
      <trkpt lat="52.19432" lon="10.74457">
        <ele>317.29</ele>
        <time>2026-08-31T04:10:53.0450000+00:00</time>
      </trkpt>
      <trkpt lat="52.19433" lon="10.74459">
        <ele>317.48</ele>
        <time>2026-08-31T04:10:53.6480000+00:00</time>
      </trkpt>
      <trkpt lat="52.19441" lon="10.74484">
        <ele>319.34</ele>
        <time>2026-08-31T04:11:00.2290000+00:00</time>
      </trkpt>
      <trkpt lat="52.19452" lon="10.74513">
        <ele>321.4</ele>
        <time>2026-08-31T04:11:08.1860000+00:00</time>
      </trkpt>
      <trkpt lat="52.19456" lon="10.74523">
        <ele>322.1</ele>
        <time>2026-08-31T04:11:10.9730000+00:00</time>
      </trkpt>
      <trkpt lat="52.19459" lon="10.74532">
        <ele>322.81</ele>
        <time>2026-08-31T04:11:13.3630000+00:00</time>
      </trkpt>
      <trkpt lat="52.19463" lon="10.74541">
        <ele>323.57</ele>
        <time>2026-08-31T04:11:15.9570000+00:00</time>
      </trkpt>
      <trkpt lat="52.19467" lon="10.74548">
        <ele>324.21</ele>
        <time>2026-08-31T04:11:18.1900000+00:00</time>
      </trkpt>
      <trkpt lat="52.19472" lon="10.74557">
        <ele>324.99</ele>
        <time>2026-08-31T04:11:21.0250000+00:00</time>
      </trkpt>
      <trkpt lat="52.19472" lon="10.7456">
        <ele>325.15</ele>
        <time>2026-08-31T04:11:21.7250000+00:00</time>
      </trkpt>
      <trkpt lat="52.19477" lon="10.7457">
        <ele>325.95</ele>
        <time>2026-08-31T04:11:24.7360000+00:00</time>
      </trkpt>
      <trkpt lat="52.19479" lon="10.74572">
        <ele>326.17</ele>
        <time>2026-08-31T04:11:25.6290000+00:00</time>
      </trkpt>
      <trkpt lat="52.19488" lon="10.74588">
        <ele>326.9</ele>
        <time>2026-08-31T04:11:30.6970000+00:00</time>
      </trkpt>
      <trkpt lat="52.19491" lon="10.74596">
        <ele>327.03</ele>
        <time>2026-08-31T04:11:32.8850000+00:00</time>
      </trkpt>
      <trkpt lat="52.19501" lon="10.7462">
        <ele>327.59</ele>
        <time>2026-08-31T04:11:39.6560000+00:00</time>
      </trkpt>
      <trkpt lat="52.19506" lon="10.7463">
        <ele>327.8</ele>
        <time>2026-08-31T04:11:42.6680000+00:00</time>
      </trkpt>
      <trkpt lat="52.19513" lon="10.74649">
        <ele>328.37</ele>
        <time>2026-08-31T04:11:47.8400000+00:00</time>
      </trkpt>
      <trkpt lat="52.19518" lon="10.74654">
        <ele>328.2</ele>
        <time>2026-08-31T04:11:50.0720000+00:00</time>
      </trkpt>
      <trkpt lat="52.1952" lon="10.74657">
        <ele>328.19</ele>
        <time>2026-08-31T04:11:51.1070000+00:00</time>
      </trkpt>
      <trkpt lat="52.1953" lon="10.74653">
        <ele>326.96</ele>
        <time>2026-08-31T04:11:55.0260000+00:00</time>
      </trkpt>
      <trkpt lat="52.19532" lon="10.74651">
        <ele>326.65</ele>
        <time>2026-08-31T04:11:55.9190000+00:00</time>
      </trkpt>
      <trkpt lat="52.19546" lon="10.74631">
        <ele>324.2</ele>
        <time>2026-08-31T04:12:03.0030000+00:00</time>
      </trkpt>
      <trkpt lat="52.19549" lon="10.74619">
        <ele>323.29</ele>
        <time>2026-08-31T04:12:06.0270000+00:00</time>
      </trkpt>
      <trkpt lat="52.19554" lon="10.74612">
        <ele>322.48</ele>
        <time>2026-08-31T04:12:08.5350000+00:00</time>
      </trkpt>
      <trkpt lat="52.19554" lon="10.74606">
        <ele>322.17</ele>
        <time>2026-08-31T04:12:09.9350000+00:00</time>
      </trkpt>
      <trkpt lat="52.19562" lon="10.74578">
        <ele>321.64</ele>
        <time>2026-08-31T04:12:17.1430000+00:00</time>
      </trkpt>
      <trkpt lat="52.19567" lon="10.74564">
        <ele>321.49</ele>
        <time>2026-08-31T04:12:20.9240000+00:00</time>
      </trkpt>
      <trkpt lat="52.19566" lon="10.74553">
        <ele>321.67</ele>
        <time>2026-08-31T04:12:23.5180000+00:00</time>
      </trkpt>
      <trkpt lat="52.19566" lon="10.74548">
        <ele>321.72</ele>
        <time>2026-08-31T04:12:24.6850000+00:00</time>
      </trkpt>
      <trkpt lat="52.19566" lon="10.74544">
        <ele>321.77</ele>
        <time>2026-08-31T04:12:25.6190000+00:00</time>
      </trkpt>
      <trkpt lat="52.19566" lon="10.74498">
        <ele>322.57</ele>
        <time>2026-08-31T04:12:36.3520000+00:00</time>
      </trkpt>
      <trkpt lat="52.19568" lon="10.74495">
        <ele>322.6</ele>
        <time>2026-08-31T04:12:37.3870000+00:00</time>
      </trkpt>
      <trkpt lat="52.19569" lon="10.74488">
        <ele>322.74</ele>
        <time>2026-08-31T04:12:39.0640000+00:00</time>
      </trkpt>
      <trkpt lat="52.19577" lon="10.74485">
        <ele>322.6</ele>
        <time>2026-08-31T04:12:42.1890000+00:00</time>
      </trkpt>
      <trkpt lat="52.19588" lon="10.74472">
        <ele>322.77</ele>
        <time>2026-08-31T04:12:47.3590000+00:00</time>
      </trkpt>
      <trkpt lat="52.1959" lon="10.7447">
        <ele>322.81</ele>
        <time>2026-08-31T04:12:48.2530000+00:00</time>
      </trkpt>
      <trkpt lat="52.19597" lon="10.74468">
        <ele>322.76</ele>
        <time>2026-08-31T04:12:50.9580000+00:00</time>
      </trkpt>
      <trkpt lat="52.19601" lon="10.74469">
        <ele>322.65</ele>
        <time>2026-08-31T04:12:52.4980000+00:00</time>
      </trkpt>
      <trkpt lat="52.19607" lon="10.74469">
        <ele>322.54</ele>
        <time>2026-08-31T04:12:54.7820000+00:00</time>
      </trkpt>
      <trkpt lat="52.19608" lon="10.74476">
        <ele>322.19</ele>
        <time>2026-08-31T04:12:56.4600000+00:00</time>
      </trkpt>
      <trkpt lat="52.19595" lon="10.74478">
        <ele>322.39</ele>
        <time>2026-08-31T04:13:01.4310000+00:00</time>
      </trkpt>
      <trkpt lat="52.1958" lon="10.74488">
        <ele>322.42</ele>
        <time>2026-08-31T04:13:07.5990000+00:00</time>
      </trkpt>
      <trkpt lat="52.19575" lon="10.74477">
        <ele>322.88</ele>
        <time>2026-08-31T04:13:10.7940000+00:00</time>
      </trkpt>
      <trkpt lat="52.19564" lon="10.74473">
        <ele>323.15</ele>
        <time>2026-08-31T04:13:15.0840000+00:00</time>
      </trkpt>
      <trkpt lat="52.19554" lon="10.74476">
        <ele>323.06</ele>
        <time>2026-08-31T04:13:18.9550000+00:00</time>
      </trkpt>
      <trkpt lat="52.19551" lon="10.74508">
        <ele>322.58</ele>
        <time>2026-08-31T04:13:26.5080000+00:00</time>
      </trkpt>
      <trkpt lat="52.19552" lon="10.74522">
        <ele>322.36</ele>
        <time>2026-08-31T04:13:29.7970000+00:00</time>
      </trkpt>
      <trkpt lat="52.19561" lon="10.74549">
        <ele>321.93</ele>
        <time>2026-08-31T04:13:36.9680000+00:00</time>
      </trkpt>
      <trkpt lat="52.19554" lon="10.74591">
        <ele>322.13</ele>
        <time>2026-08-31T04:13:47.1240000+00:00</time>
      </trkpt>
      <trkpt lat="52.19552" lon="10.74616">
        <ele>322.87</ele>
        <time>2026-08-31T04:13:53.0070000+00:00</time>
      </trkpt>
      <trkpt lat="52.1955" lon="10.74627">
        <ele>323.62</ele>
        <time>2026-08-31T04:13:55.6840000+00:00</time>
      </trkpt>
      <trkpt lat="52.19527" lon="10.74652">
        <ele>327.2</ele>
        <time>2026-08-31T04:14:06.2050000+00:00</time>
      </trkpt>
      <trkpt lat="52.19521" lon="10.74657">
        <ele>328.09</ele>
        <time>2026-08-31T04:14:08.7700000+00:00</time>
      </trkpt>
      <trkpt lat="52.19518" lon="10.74658">
        <ele>328.45</ele>
        <time>2026-08-31T04:14:09.9350000+00:00</time>
      </trkpt>
      <trkpt lat="52.19499" lon="10.74641">
        <ele>329.19</ele>
        <time>2026-08-31T04:14:18.1840000+00:00</time>
      </trkpt>
      <trkpt lat="52.1949" lon="10.74627">
        <ele>329.06</ele>
        <time>2026-08-31T04:14:22.9180000+00:00</time>
      </trkpt>
      <trkpt lat="52.19486" lon="10.7462">
        <ele>328.92</ele>
        <time>2026-08-31T04:14:25.1510000+00:00</time>
      </trkpt>
      <trkpt lat="52.19469" lon="10.74599">
        <ele>327</ele>
        <time>2026-08-31T04:14:33.2680000+00:00</time>
      </trkpt>
      <trkpt lat="52.19465" lon="10.74594">
        <ele>326.54</ele>
        <time>2026-08-31T04:14:35.1860000+00:00</time>
      </trkpt>
      <trkpt lat="52.19452" lon="10.74577">
        <ele>324.9</ele>
        <time>2026-08-31T04:14:41.5290000+00:00</time>
      </trkpt>
      <trkpt lat="52.1945" lon="10.74559">
        <ele>323.75</ele>
        <time>2026-08-31T04:14:45.7970000+00:00</time>
      </trkpt>
      <trkpt lat="52.19436" lon="10.74536">
        <ele>321.47</ele>
        <time>2026-08-31T04:14:53.3610000+00:00</time>
      </trkpt>
      <trkpt lat="52.19428" lon="10.74522">
        <ele>320.03</ele>
        <time>2026-08-31T04:14:57.8270000+00:00</time>
      </trkpt>
      <trkpt lat="52.19407" lon="10.74498">
        <ele>317.14</ele>
        <time>2026-08-31T04:15:07.5870000+00:00</time>
      </trkpt>
      <trkpt lat="52.1938" lon="10.74472">
        <ele>312.73</ele>
        <time>2026-08-31T04:15:19.5220000+00:00</time>
      </trkpt>
      <trkpt lat="52.19363" lon="10.74466">
        <ele>310.48</ele>
        <time>2026-08-31T04:15:26.1430000+00:00</time>
      </trkpt>
      <trkpt lat="52.19348" lon="10.74462">
        <ele>308.59</ele>
        <time>2026-08-31T04:15:31.9290000+00:00</time>
      </trkpt>
      <trkpt lat="52.19327" lon="10.7445">
        <ele>305.65</ele>
        <time>2026-08-31T04:15:40.3990000+00:00</time>
      </trkpt>
      <trkpt lat="52.19312" lon="10.74443">
        <ele>303.42</ele>
        <time>2026-08-31T04:15:46.3380000+00:00</time>
      </trkpt>
      <trkpt lat="52.19282" lon="10.7444">
        <ele>298.59</ele>
        <time>2026-08-31T04:15:57.7800000+00:00</time>
      </trkpt>
      <trkpt lat="52.19274" lon="10.7444">
        <ele>297.33</ele>
        <time>2026-08-31T04:16:00.8250000+00:00</time>
      </trkpt>
      <trkpt lat="52.19247" lon="10.74442">
        <ele>293.19</ele>
        <time>2026-08-31T04:16:11.1130000+00:00</time>
      </trkpt>
      <trkpt lat="52.19227" lon="10.74426">
        <ele>290</ele>
        <time>2026-08-31T04:16:19.5930000+00:00</time>
      </trkpt>
      <trkpt lat="52.19212" lon="10.74421">
        <ele>287.29</ele>
        <time>2026-08-31T04:16:25.4210000+00:00</time>
      </trkpt>
      <trkpt lat="52.19191" lon="10.74401">
        <ele>283.46</ele>
        <time>2026-08-31T04:16:34.6780000+00:00</time>
      </trkpt>
      <trkpt lat="52.19186" lon="10.74395">
        <ele>282.5</ele>
        <time>2026-08-31T04:16:37.0400000+00:00</time>
      </trkpt>
      <trkpt lat="52.19168" lon="10.74375">
        <ele>278.83</ele>
        <time>2026-08-31T04:16:45.3310000+00:00</time>
      </trkpt>
      <trkpt lat="52.19158" lon="10.74364">
        <ele>276.66</ele>
        <time>2026-08-31T04:16:49.9220000+00:00</time>
      </trkpt>
      <trkpt lat="52.19126" lon="10.74343">
        <ele>270.35</ele>
        <time>2026-08-31T04:17:03.0520000+00:00</time>
      </trkpt>
      <trkpt lat="52.1911" lon="10.74336">
        <ele>267.29</ele>
        <time>2026-08-31T04:17:09.3580000+00:00</time>
      </trkpt>
      <trkpt lat="52.1909" lon="10.74298">
        <ele>263.52</ele>
        <time>2026-08-31T04:17:21.0460000+00:00</time>
      </trkpt>
      <trkpt lat="52.19088" lon="10.74293">
        <ele>263.13</ele>
        <time>2026-08-31T04:17:22.4390000+00:00</time>
      </trkpt>
      <trkpt lat="52.19081" lon="10.74288">
        <ele>261.74</ele>
        <time>2026-08-31T04:17:25.3480000+00:00</time>
      </trkpt>
      <trkpt lat="52.19062" lon="10.74257">
        <ele>258.55</ele>
        <time>2026-08-31T04:17:35.5780000+00:00</time>
      </trkpt>
      <trkpt lat="52.1906" lon="10.74254">
        <ele>258.33</ele>
        <time>2026-08-31T04:17:36.6120000+00:00</time>
      </trkpt>
      <trkpt lat="52.19048" lon="10.74242">
        <ele>256.82</ele>
        <time>2026-08-31T04:17:41.9700000+00:00</time>
      </trkpt>
      <trkpt lat="52.19043" lon="10.74239">
        <ele>256.14</ele>
        <time>2026-08-31T04:17:43.9990000+00:00</time>
      </trkpt>
      <trkpt lat="52.19028" lon="10.74232">
        <ele>254.04</ele>
        <time>2026-08-31T04:17:49.9370000+00:00</time>
      </trkpt>
      <trkpt lat="52.19018" lon="10.74222">
        <ele>252.71</ele>
        <time>2026-08-31T04:17:54.4020000+00:00</time>
      </trkpt>
      <trkpt lat="52.18984" lon="10.74203">
        <ele>247.81</ele>
        <time>2026-08-31T04:18:08.0830000+00:00</time>
      </trkpt>
      <trkpt lat="52.18949" lon="10.74178">
        <ele>245.78</ele>
        <time>2026-08-31T04:18:22.6280000+00:00</time>
      </trkpt>
      <trkpt lat="52.18937" lon="10.74168">
        <ele>244.89</ele>
        <time>2026-08-31T04:18:27.7580000+00:00</time>
      </trkpt>
      <trkpt lat="52.18925" lon="10.74158">
        <ele>243.93</ele>
        <time>2026-08-31T04:18:32.8870000+00:00</time>
      </trkpt>
      <trkpt lat="52.18904" lon="10.74142">
        <ele>242.12</ele>
        <time>2026-08-31T04:18:41.7100000+00:00</time>
      </trkpt>
      <trkpt lat="52.18903" lon="10.74141">
        <ele>242.02</ele>
        <time>2026-08-31T04:18:42.1560000+00:00</time>
      </trkpt>
      <trkpt lat="52.18903" lon="10.74141">
        <ele>242.02</ele>
        <time>2026-08-31T04:18:42.1560000+00:00</time>
      </trkpt>
      <trkpt lat="52.18905" lon="10.74139">
        <ele>242.12</ele>
        <time>2026-08-31T04:18:43.0490000+00:00</time>
      </trkpt>
      <trkpt lat="52.18905" lon="10.74135">
        <ele>242.03</ele>
        <time>2026-08-31T04:18:43.9820000+00:00</time>
      </trkpt>
      <trkpt lat="52.18895" lon="10.74103">
        <ele>239.93</ele>
        <time>2026-08-31T04:18:52.3640000+00:00</time>
      </trkpt>
      <trkpt lat="52.1889" lon="10.74092">
        <ele>238.3</ele>
        <time>2026-08-31T04:18:55.5600000+00:00</time>
      </trkpt>
      <trkpt lat="52.18875" lon="10.74095">
        <ele>236.13</ele>
        <time>2026-08-31T04:19:01.3130000+00:00</time>
      </trkpt>
      <trkpt lat="52.1887" lon="10.74093">
        <ele>235.16</ele>
        <time>2026-08-31T04:19:03.2720000+00:00</time>
      </trkpt>
      <trkpt lat="52.18848" lon="10.74118">
        <ele>233.55</ele>
        <time>2026-08-31T04:19:13.4790000+00:00</time>
      </trkpt>
      <trkpt lat="52.18824" lon="10.74172">
        <ele>234.32</ele>
        <time>2026-08-31T04:19:29.0440000+00:00</time>
      </trkpt>
      <trkpt lat="52.18816" lon="10.7419">
        <ele>234.83</ele>
        <time>2026-08-31T04:19:34.2320000+00:00</time>
      </trkpt>
      <trkpt lat="52.188" lon="10.74247">
        <ele>235.26</ele>
        <time>2026-08-31T04:19:48.8630000+00:00</time>
      </trkpt>
      <trkpt lat="52.18795" lon="10.74293">
        <ele>236.42</ele>
        <time>2026-08-31T04:19:59.7650000+00:00</time>
      </trkpt>
      <trkpt lat="52.18785" lon="10.7438">
        <ele>237.45</ele>
        <time>2026-08-31T04:20:20.4230000+00:00</time>
      </trkpt>
      <trkpt lat="52.18779" lon="10.74435">
        <ele>237.95</ele>
        <time>2026-08-31T04:20:33.4600000+00:00</time>
      </trkpt>
      <trkpt lat="52.18784" lon="10.7445">
        <ele>239.2</ele>
        <time>2026-08-31T04:20:37.4440000+00:00</time>
      </trkpt>
      <trkpt lat="52.18803" lon="10.74468">
        <ele>242.85</ele>
        <time>2026-08-31T04:20:45.8090000+00:00</time>
      </trkpt>
      <trkpt lat="52.18828" lon="10.74492">
        <ele>246.18</ele>
        <time>2026-08-31T04:20:56.8510000+00:00</time>
      </trkpt>
      <trkpt lat="52.18833" lon="10.74495">
        <ele>246.49</ele>
        <time>2026-08-31T04:20:58.8790000+00:00</time>
      </trkpt>
      <trkpt lat="52.18836" lon="10.74497">
        <ele>246.68</ele>
        <time>2026-08-31T04:21:00.1130000+00:00</time>
      </trkpt>
      <trkpt lat="52.18864" lon="10.74519">
        <ele>248.73</ele>
        <time>2026-08-31T04:21:11.9440000+00:00</time>
      </trkpt>
      <trkpt lat="52.1888" lon="10.74527">
        <ele>249.92</ele>
        <time>2026-08-31T04:21:18.3140000+00:00</time>
      </trkpt>
      <trkpt lat="52.18883" lon="10.74529">
        <ele>250.16</ele>
        <time>2026-08-31T04:21:19.5480000+00:00</time>
      </trkpt>
      <trkpt lat="52.18886" lon="10.74534">
        <ele>250.51</ele>
        <time>2026-08-31T04:21:21.1800000+00:00</time>
      </trkpt>
      <trkpt lat="52.18913" lon="10.74553">
        <ele>253.18</ele>
        <time>2026-08-31T04:21:32.3740000+00:00</time>
      </trkpt>
      <trkpt lat="52.18922" lon="10.7456">
        <ele>254.27</ele>
        <time>2026-08-31T04:21:36.1700000+00:00</time>
      </trkpt>
      <trkpt lat="52.18927" lon="10.74565">
        <ele>254.95</ele>
        <time>2026-08-31T04:21:38.4020000+00:00</time>
      </trkpt>
      <trkpt lat="52.18953" lon="10.74584">
        <ele>258.43</ele>
        <time>2026-08-31T04:21:49.2470000+00:00</time>
      </trkpt>
      <trkpt lat="52.18956" lon="10.74587">
        <ele>258.91</ele>
        <time>2026-08-31T04:21:50.5870000+00:00</time>
      </trkpt>
      <trkpt lat="52.18984" lon="10.74611">
        <ele>263.37</ele>
        <time>2026-08-31T04:22:02.6270000+00:00</time>
      </trkpt>
      <trkpt lat="52.19011" lon="10.74633">
        <ele>267.51</ele>
        <time>2026-08-31T04:22:14.1160000+00:00</time>
      </trkpt>
      <trkpt lat="52.19033" lon="10.74652">
        <ele>271.21</ele>
        <time>2026-08-31T04:22:23.5920000+00:00</time>
      </trkpt>
      <trkpt lat="52.19058" lon="10.74675">
        <ele>275.83</ele>
        <time>2026-08-31T04:22:34.5180000+00:00</time>
      </trkpt>
      <trkpt lat="52.19079" lon="10.74689">
        <ele>279.48</ele>
        <time>2026-08-31T04:22:43.1530000+00:00</time>
      </trkpt>
      <trkpt lat="52.19104" lon="10.7471">
        <ele>284.11</ele>
        <time>2026-08-31T04:22:53.8580000+00:00</time>
      </trkpt>
      <trkpt lat="52.19114" lon="10.74725">
        <ele>286.52</ele>
        <time>2026-08-31T04:22:59.0290000+00:00</time>
      </trkpt>
      <trkpt lat="52.19138" lon="10.74745">
        <ele>291.18</ele>
        <time>2026-08-31T04:23:09.2880000+00:00</time>
      </trkpt>
      <trkpt lat="52.19152" lon="10.74757">
        <ele>294.01</ele>
        <time>2026-08-31T04:23:15.3080000+00:00</time>
      </trkpt>
      <trkpt lat="52.19163" lon="10.74767">
        <ele>296.45</ele>
        <time>2026-08-31T04:23:20.1020000+00:00</time>
      </trkpt>
      <trkpt lat="52.19184" lon="10.74778">
        <ele>300.25</ele>
        <time>2026-08-31T04:23:28.4980000+00:00</time>
      </trkpt>
      <trkpt lat="52.19194" lon="10.74785">
        <ele>302.17</ele>
        <time>2026-08-31T04:23:32.6400000+00:00</time>
      </trkpt>
      <trkpt lat="52.19211" lon="10.74799">
        <ele>305.61</ele>
        <time>2026-08-31T04:23:39.8890000+00:00</time>
      </trkpt>
      <trkpt lat="52.19222" lon="10.74811">
        <ele>308.09</ele>
        <time>2026-08-31T04:23:44.9270000+00:00</time>
      </trkpt>
      <trkpt lat="52.19248" lon="10.74828">
        <ele>312.37</ele>
        <time>2026-08-31T04:23:55.5890000+00:00</time>
      </trkpt>
      <trkpt lat="52.19257" lon="10.74837">
        <ele>313.6</ele>
        <time>2026-08-31T04:23:59.6070000+00:00</time>
      </trkpt>
      <trkpt lat="52.19262" lon="10.74845">
        <ele>314.31</ele>
        <time>2026-08-31T04:24:02.2730000+00:00</time>
      </trkpt>
      <trkpt lat="52.19274" lon="10.74854">
        <ele>315.4</ele>
        <time>2026-08-31T04:24:07.3010000+00:00</time>
      </trkpt>
      <trkpt lat="52.19298" lon="10.74876">
        <ele>316.75</ele>
        <time>2026-08-31T04:24:17.7800000+00:00</time>
      </trkpt>
      <trkpt lat="52.19302" lon="10.7488">
        <ele>316.86</ele>
        <time>2026-08-31T04:24:19.5660000+00:00</time>
      </trkpt>
      <trkpt lat="52.19329" lon="10.74905">
        <ele>318.27</ele>
        <time>2026-08-31T04:24:31.3850000+00:00</time>
      </trkpt>
      <trkpt lat="52.19355" lon="10.74924">
        <ele>320.7</ele>
        <time>2026-08-31T04:24:42.2300000+00:00</time>
      </trkpt>
      <trkpt lat="52.19382" lon="10.74942">
        <ele>322.92</ele>
        <time>2026-08-31T04:24:53.3330000+00:00</time>
      </trkpt>
      <trkpt lat="52.19391" lon="10.74949">
        <ele>323.67</ele>
        <time>2026-08-31T04:24:57.1280000+00:00</time>
      </trkpt>
      <trkpt lat="52.19407" lon="10.74963">
        <ele>324.45</ele>
        <time>2026-08-31T04:25:04.0390000+00:00</time>
      </trkpt>
      <trkpt lat="52.19422" lon="10.74976">
        <ele>324.79</ele>
        <time>2026-08-31T04:25:10.5050000+00:00</time>
      </trkpt>
      <trkpt lat="52.19428" lon="10.74981">
        <ele>324.91</ele>
        <time>2026-08-31T04:25:13.0700000+00:00</time>
      </trkpt>
      <trkpt lat="52.19453" lon="10.75002">
        <ele>325.34</ele>
        <time>2026-08-31T04:25:23.7740000+00:00</time>
      </trkpt>
      <trkpt lat="52.19486" lon="10.75032">
        <ele>325.22</ele>
        <time>2026-08-31T04:25:38.1540000+00:00</time>
      </trkpt>
      <trkpt lat="52.19526" lon="10.75066">
        <ele>323.53</ele>
        <time>2026-08-31T04:25:55.3240000+00:00</time>
      </trkpt>
      <trkpt lat="52.19564" lon="10.75097">
        <ele>322.36</ele>
        <time>2026-08-31T04:26:11.4970000+00:00</time>
      </trkpt>
      <trkpt lat="52.19612" lon="10.75135">
        <ele>318.75</ele>
        <time>2026-08-31T04:26:31.8060000+00:00</time>
      </trkpt>
      <trkpt lat="52.19628" lon="10.75149">
        <ele>317.75</ele>
        <time>2026-08-31T04:26:38.7180000+00:00</time>
      </trkpt>
      <trkpt lat="52.19613" lon="10.75187">
        <ele>316.02</ele>
        <time>2026-08-31T04:26:49.2640000+00:00</time>
      </trkpt>
      <trkpt lat="52.19611" lon="10.75193">
        <ele>315.87</ele>
        <time>2026-08-31T04:26:50.8570000+00:00</time>
      </trkpt>
      <trkpt lat="52.19604" lon="10.75202">
        <ele>315.63</ele>
        <time>2026-08-31T04:26:54.2490000+00:00</time>
      </trkpt>
      <trkpt lat="52.19592" lon="10.75225">
        <ele>314.91</ele>
        <time>2026-08-31T04:27:01.2970000+00:00</time>
      </trkpt>
      <trkpt lat="52.19578" lon="10.75268">
        <ele>313.35</ele>
        <time>2026-08-31T04:27:12.6580000+00:00</time>
      </trkpt>
      <trkpt lat="52.19555" lon="10.75322">
        <ele>311.99</ele>
        <time>2026-08-31T04:27:28.0010000+00:00</time>
      </trkpt>
      <trkpt lat="52.19552" lon="10.75343">
        <ele>311.58</ele>
        <time>2026-08-31T04:27:33.0320000+00:00</time>
      </trkpt>
      <trkpt lat="52.19543" lon="10.75423">
        <ele>310.01</ele>
        <time>2026-08-31T04:27:52.0110000+00:00</time>
      </trkpt>
      <trkpt lat="52.19538" lon="10.7545">
        <ele>309.47</ele>
        <time>2026-08-31T04:27:58.5920000+00:00</time>
      </trkpt>
      <trkpt lat="52.19534" lon="10.75477">
        <ele>308.56</ele>
        <time>2026-08-31T04:28:05.0740000+00:00</time>
      </trkpt>
      <trkpt lat="52.19531" lon="10.75493">
        <ele>308.12</ele>
        <time>2026-08-31T04:28:08.9780000+00:00</time>
      </trkpt>
      <trkpt lat="52.19526" lon="10.75532">
        <ele>307.56</ele>
        <time>2026-08-31T04:28:18.2750000+00:00</time>
      </trkpt>
      <trkpt lat="52.19523" lon="10.75569">
        <ele>308.4</ele>
        <time>2026-08-31T04:28:26.9840000+00:00</time>
      </trkpt>
      <trkpt lat="52.19518" lon="10.75586">
        <ele>309.26</ele>
        <time>2026-08-31T04:28:31.3830000+00:00</time>
      </trkpt>
      <trkpt lat="52.19511" lon="10.75659">
        <ele>309.28</ele>
        <time>2026-08-31T04:28:48.6240000+00:00</time>
      </trkpt>
      <trkpt lat="52.19503" lon="10.75702">
        <ele>308.87</ele>
        <time>2026-08-31T04:28:59.1090000+00:00</time>
      </trkpt>
      <trkpt lat="52.19494" lon="10.75778">
        <ele>306.77</ele>
        <time>2026-08-31T04:29:17.1710000+00:00</time>
      </trkpt>
      <trkpt lat="52.19486" lon="10.75839">
        <ele>306.97</ele>
        <time>2026-08-31T04:29:31.7270000+00:00</time>
      </trkpt>
      <trkpt lat="52.19477" lon="10.75899">
        <ele>308.08</ele>
        <time>2026-08-31T04:29:46.1400000+00:00</time>
      </trkpt>
      <trkpt lat="52.19484" lon="10.75945">
        <ele>307.89</ele>
        <time>2026-08-31T04:29:57.2000000+00:00</time>
      </trkpt>
      <trkpt lat="52.19509" lon="10.7596">
        <ele>306.73</ele>
        <time>2026-08-31T04:30:07.3400000+00:00</time>
      </trkpt>
      <trkpt lat="52.19531" lon="10.75985">
        <ele>305.39</ele>
        <time>2026-08-31T04:30:17.5460000+00:00</time>
      </trkpt>
      <trkpt lat="52.19541" lon="10.75999">
        <ele>304.68</ele>
        <time>2026-08-31T04:30:22.5620000+00:00</time>
      </trkpt>
      <trkpt lat="52.19544" lon="10.76028">
        <ele>303.69</ele>
        <time>2026-08-31T04:30:29.4240000+00:00</time>
      </trkpt>
      <trkpt lat="52.19538" lon="10.76049">
        <ele>303.03</ele>
        <time>2026-08-31T04:30:34.8300000+00:00</time>
      </trkpt>
      <trkpt lat="52.1954" lon="10.76108">
        <ele>299.79</ele>
        <time>2026-08-31T04:30:48.6180000+00:00</time>
      </trkpt>
      <trkpt lat="52.19537" lon="10.76118">
        <ele>299.2</ele>
        <time>2026-08-31T04:30:51.2160000+00:00</time>
      </trkpt>
      <trkpt lat="52.19524" lon="10.76139">
        <ele>298.97</ele>
        <time>2026-08-31T04:30:58.1800000+00:00</time>
      </trkpt>
      <trkpt lat="52.19516" lon="10.76159">
        <ele>298.33</ele>
        <time>2026-08-31T04:31:03.7520000+00:00</time>
      </trkpt>
      <trkpt lat="52.19489" lon="10.762">
        <ele>298.88</ele>
        <time>2026-08-31T04:31:17.7940000+00:00</time>
      </trkpt>
      <trkpt lat="52.19481" lon="10.76222">
        <ele>297.97</ele>
        <time>2026-08-31T04:31:23.7620000+00:00</time>
      </trkpt>
      <trkpt lat="52.19475" lon="10.76263">
        <ele>295.18</ele>
        <time>2026-08-31T04:31:33.5980000+00:00</time>
      </trkpt>
      <trkpt lat="52.19463" lon="10.76297">
        <ele>294.29</ele>
        <time>2026-08-31T04:31:42.7530000+00:00</time>
      </trkpt>
      <trkpt lat="52.19456" lon="10.76305">
        <ele>294.9</ele>
        <time>2026-08-31T04:31:46.0060000+00:00</time>
      </trkpt>
      <trkpt lat="52.19435" lon="10.76324">
        <ele>297.34</ele>
        <time>2026-08-31T04:31:55.1480000+00:00</time>
      </trkpt>
      <trkpt lat="52.19427" lon="10.76333">
        <ele>298.19</ele>
        <time>2026-08-31T04:31:58.8470000+00:00</time>
      </trkpt>
      <trkpt lat="52.19409" lon="10.76345">
        <ele>300.86</ele>
        <time>2026-08-31T04:32:06.2490000+00:00</time>
      </trkpt>
      <trkpt lat="52.19372" lon="10.76369">
        <ele>304.76</ele>
        <time>2026-08-31T04:32:21.4060000+00:00</time>
      </trkpt>
      <trkpt lat="52.19361" lon="10.76368">
        <ele>306</ele>
        <time>2026-08-31T04:32:25.6000000+00:00</time>
      </trkpt>
      <trkpt lat="52.19355" lon="10.76397">
        <ele>306.15</ele>
        <time>2026-08-31T04:32:32.7420000+00:00</time>
      </trkpt>
      <trkpt lat="52.19341" lon="10.76433">
        <ele>307.2</ele>
        <time>2026-08-31T04:32:42.6900000+00:00</time>
      </trkpt>
      <trkpt lat="52.1934" lon="10.76478">
        <ele>307.9</ele>
        <time>2026-08-31T04:32:53.1970000+00:00</time>
      </trkpt>
      <trkpt lat="52.1934" lon="10.76498">
        <ele>308.21</ele>
        <time>2026-08-31T04:32:57.8640000+00:00</time>
      </trkpt>
      <trkpt lat="52.19337" lon="10.76522">
        <ele>308.86</ele>
        <time>2026-08-31T04:33:03.5800000+00:00</time>
      </trkpt>
      <trkpt lat="52.19333" lon="10.7655">
        <ele>309.3</ele>
        <time>2026-08-31T04:33:10.2880000+00:00</time>
      </trkpt>
      <trkpt lat="52.19318" lon="10.76642">
        <ele>309.96</ele>
        <time>2026-08-31T04:33:32.5030000+00:00</time>
      </trkpt>
      <trkpt lat="52.19304" lon="10.76699">
        <ele>309.17</ele>
        <time>2026-08-31T04:33:46.8310000+00:00</time>
      </trkpt>
      <trkpt lat="52.19303" lon="10.76735">
        <ele>307.52</ele>
        <time>2026-08-31T04:33:55.2410000+00:00</time>
      </trkpt>
      <trkpt lat="52.19298" lon="10.76852">
        <ele>307</ele>
        <time>2026-08-31T04:34:22.6090000+00:00</time>
      </trkpt>
      <trkpt lat="52.19298" lon="10.7686">
        <ele>307.19</ele>
        <time>2026-08-31T04:34:24.4750000+00:00</time>
      </trkpt>
      <trkpt lat="52.19296" lon="10.76906">
        <ele>308.58</ele>
        <time>2026-08-31T04:34:35.2360000+00:00</time>
      </trkpt>
      <trkpt lat="52.19296" lon="10.76936">
        <ele>309.29</ele>
        <time>2026-08-31T04:34:42.2370000+00:00</time>
      </trkpt>
      <trkpt lat="52.19294" lon="10.76974">
        <ele>309.33</ele>
        <time>2026-08-31T04:34:51.1370000+00:00</time>
      </trkpt>
      <trkpt lat="52.19288" lon="10.77112">
        <ele>309.4</ele>
        <time>2026-08-31T04:35:23.4200000+00:00</time>
      </trkpt>
      <trkpt lat="52.19286" lon="10.77144">
        <ele>309.44</ele>
        <time>2026-08-31T04:35:30.9260000+00:00</time>
      </trkpt>
      <trkpt lat="52.19266" lon="10.77159">
        <ele>309.89</ele>
        <time>2026-08-31T04:35:39.3050000+00:00</time>
      </trkpt>
      <trkpt lat="52.19218" lon="10.77112">
        <ele>312.35</ele>
        <time>2026-08-31T04:36:00.6160000+00:00</time>
      </trkpt>
      <trkpt lat="52.19192" lon="10.77088">
        <ele>313.77</ele>
        <time>2026-08-31T04:36:11.9880000+00:00</time>
      </trkpt>
      <trkpt lat="52.19124" lon="10.77025">
        <ele>319.18</ele>
        <time>2026-08-31T04:36:41.7560000+00:00</time>
      </trkpt>
      <trkpt lat="52.19103" lon="10.77018">
        <ele>320.27</ele>
        <time>2026-08-31T04:36:49.9150000+00:00</time>
      </trkpt>
      <trkpt lat="52.19068" lon="10.77024">
        <ele>322.09</ele>
        <time>2026-08-31T04:37:03.3120000+00:00</time>
      </trkpt>
      <trkpt lat="52.19056" lon="10.77016">
        <ele>322.67</ele>
        <time>2026-08-31T04:37:08.2470000+00:00</time>
      </trkpt>
      <trkpt lat="52.19053" lon="10.77017">
        <ele>322.93</ele>
        <time>2026-08-31T04:37:09.4120000+00:00</time>
      </trkpt>
      <trkpt lat="52.19052" lon="10.77017">
        <ele>323</ele>
        <time>2026-08-31T04:37:09.7930000+00:00</time>
      </trkpt>
      <trkpt lat="52.19029" lon="10.77">
        <ele>323.74</ele>
        <time>2026-08-31T04:37:19.4050000+00:00</time>
      </trkpt>
      <trkpt lat="52.19" lon="10.76981">
        <ele>324.66</ele>
        <time>2026-08-31T04:37:31.3010000+00:00</time>
      </trkpt>
      <trkpt lat="52.18962" lon="10.76957">
        <ele>325.13</ele>
        <time>2026-08-31T04:37:46.8130000+00:00</time>
      </trkpt>
      <trkpt lat="52.18935" lon="10.76941">
        <ele>325.56</ele>
        <time>2026-08-31T04:37:57.7480000+00:00</time>
      </trkpt>
      <trkpt lat="52.1892" lon="10.76962">
        <ele>326.93</ele>
        <time>2026-08-31T04:38:05.2730000+00:00</time>
      </trkpt>
      <trkpt lat="52.18916" lon="10.76979">
        <ele>327.59</ele>
        <time>2026-08-31T04:38:09.5220000+00:00</time>
      </trkpt>
      <trkpt lat="52.18913" lon="10.77048">
        <ele>329.5</ele>
        <time>2026-08-31T04:38:25.6650000+00:00</time>
      </trkpt>
      <trkpt lat="52.18907" lon="10.77108">
        <ele>330.9</ele>
        <time>2026-08-31T04:38:39.8520000+00:00</time>
      </trkpt>
      <trkpt lat="52.18903" lon="10.77158">
        <ele>331.53</ele>
        <time>2026-08-31T04:38:51.6200000+00:00</time>
      </trkpt>
      <trkpt lat="52.18898" lon="10.77212">
        <ele>331.58</ele>
        <time>2026-08-31T04:39:04.3640000+00:00</time>
      </trkpt>
      <trkpt lat="52.18894" lon="10.77269">
        <ele>330.75</ele>
        <time>2026-08-31T04:39:17.7530000+00:00</time>
      </trkpt>
      <trkpt lat="52.18889" lon="10.77313">
        <ele>330.04</ele>
        <time>2026-08-31T04:39:28.1970000+00:00</time>
      </trkpt>
      <trkpt lat="52.18887" lon="10.77332">
        <ele>329.74</ele>
        <time>2026-08-31T04:39:32.6950000+00:00</time>
      </trkpt>
      <trkpt lat="52.18883" lon="10.77364">
        <ele>329.32</ele>
        <time>2026-08-31T04:39:40.3170000+00:00</time>
      </trkpt>
      <trkpt lat="52.18877" lon="10.77428">
        <ele>328.88</ele>
        <time>2026-08-31T04:39:55.4260000+00:00</time>
      </trkpt>
      <trkpt lat="52.18876" lon="10.77434">
        <ele>328.81</ele>
        <time>2026-08-31T04:39:56.8770000+00:00</time>
      </trkpt>
      <trkpt lat="52.18881" lon="10.77453">
        <ele>328.72</ele>
        <time>2026-08-31T04:40:01.7020000+00:00</time>
      </trkpt>
      <trkpt lat="52.18895" lon="10.77493">
        <ele>328.43</ele>
        <time>2026-08-31T04:40:12.4510000+00:00</time>
      </trkpt>
      <trkpt lat="52.18897" lon="10.77517">
        <ele>327.95</ele>
        <time>2026-08-31T04:40:18.1040000+00:00</time>
      </trkpt>
      <trkpt lat="52.18895" lon="10.77535">
        <ele>327.86</ele>
        <time>2026-08-31T04:40:22.3730000+00:00</time>
      </trkpt>
      <trkpt lat="52.189" lon="10.77592">
        <ele>327.98</ele>
        <time>2026-08-31T04:40:35.8100000+00:00</time>
      </trkpt>
      <trkpt lat="52.18899" lon="10.776">
        <ele>327.95</ele>
        <time>2026-08-31T04:40:37.7150000+00:00</time>
      </trkpt>
      <trkpt lat="52.18903" lon="10.77629">
        <ele>328.24</ele>
        <time>2026-08-31T04:40:44.6520000+00:00</time>
      </trkpt>
      <trkpt lat="52.18906" lon="10.77634">
        <ele>328.18</ele>
        <time>2026-08-31T04:40:46.2840000+00:00</time>
      </trkpt>
      <trkpt lat="52.18908" lon="10.77633">
        <ele>328.09</ele>
        <time>2026-08-31T04:40:47.0800000+00:00</time>
      </trkpt>
      <trkpt lat="52.18909" lon="10.77632">
        <ele>328.03</ele>
        <time>2026-08-31T04:40:47.5270000+00:00</time>
      </trkpt>
      <trkpt lat="52.18908" lon="10.77631">
        <ele>328.06</ele>
        <time>2026-08-31T04:40:47.9740000+00:00</time>
      </trkpt>
      <trkpt lat="52.18906" lon="10.77636">
        <ele>328.2</ele>
        <time>2026-08-31T04:40:49.3670000+00:00</time>
      </trkpt>
      <trkpt lat="52.18908" lon="10.77634">
        <ele>328.1</ele>
        <time>2026-08-31T04:40:50.2590000+00:00</time>
      </trkpt>
      <trkpt lat="52.18909" lon="10.77637">
        <ele>328.09</ele>
        <time>2026-08-31T04:40:51.0570000+00:00</time>
      </trkpt>
      <trkpt lat="52.18906" lon="10.77642">
        <ele>328.27</ele>
        <time>2026-08-31T04:40:52.6900000+00:00</time>
      </trkpt>
      <trkpt lat="52.18907" lon="10.77642">
        <ele>328.23</ele>
        <time>2026-08-31T04:40:53.0690000+00:00</time>
      </trkpt>
      <trkpt lat="52.18913" lon="10.77643">
        <ele>327.99</ele>
        <time>2026-08-31T04:40:55.3640000+00:00</time>
      </trkpt>
      <trkpt lat="52.1895" lon="10.77665">
        <ele>326.54</ele>
        <time>2026-08-31T04:41:10.3560000+00:00</time>
      </trkpt>
      <trkpt lat="52.1897" lon="10.77675">
        <ele>325.66</ele>
        <time>2026-08-31T04:41:18.3190000+00:00</time>
      </trkpt>
      <trkpt lat="52.18984" lon="10.77676">
        <ele>325.01</ele>
        <time>2026-08-31T04:41:23.6530000+00:00</time>
      </trkpt>
      <trkpt lat="52.19008" lon="10.77681">
        <ele>324.16</ele>
        <time>2026-08-31T04:41:32.8630000+00:00</time>
      </trkpt>
      <trkpt lat="52.19081" lon="10.7773">
        <ele>322.57</ele>
        <time>2026-08-31T04:42:02.9120000+00:00</time>
      </trkpt>
      <trkpt lat="52.19107" lon="10.77754">
        <ele>321.92</ele>
        <time>2026-08-31T04:42:14.2840000+00:00</time>
      </trkpt>
      <trkpt lat="52.19135" lon="10.77779">
        <ele>320.8</ele>
        <time>2026-08-31T04:42:26.4350000+00:00</time>
      </trkpt>
      <trkpt lat="52.19162" lon="10.77807">
        <ele>318.52</ele>
        <time>2026-08-31T04:42:38.6140000+00:00</time>
      </trkpt>
      <trkpt lat="52.19168" lon="10.77814">
        <ele>317.7</ele>
        <time>2026-08-31T04:42:41.4220000+00:00</time>
      </trkpt>
      <trkpt lat="52.19181" lon="10.77845">
        <ele>315.69</ele>
        <time>2026-08-31T04:42:50.1870000+00:00</time>
      </trkpt>
      <trkpt lat="52.19184" lon="10.77856">
        <ele>315.13</ele>
        <time>2026-08-31T04:42:52.9960000+00:00</time>
      </trkpt>
      <trkpt lat="52.19219" lon="10.78028">
        <ele>305.16</ele>
        <time>2026-08-31T04:43:35.2870000+00:00</time>
      </trkpt>
      <trkpt lat="52.19234" lon="10.78075">
        <ele>302.31</ele>
        <time>2026-08-31T04:43:47.6520000+00:00</time>
      </trkpt>
      <trkpt lat="52.19274" lon="10.78128">
        <ele>296.71</ele>
        <time>2026-08-31T04:44:07.2680000+00:00</time>
      </trkpt>
      <trkpt lat="52.19285" lon="10.78138">
        <ele>295.25</ele>
        <time>2026-08-31T04:44:12.0620000+00:00</time>
      </trkpt>
      <trkpt lat="52.19287" lon="10.78141">
        <ele>295</ele>
        <time>2026-08-31T04:44:13.0960000+00:00</time>
      </trkpt>
      <trkpt lat="52.19288" lon="10.7816">
        <ele>295.16</ele>
        <time>2026-08-31T04:44:17.5460000+00:00</time>
      </trkpt>
      <trkpt lat="52.1929" lon="10.78244">
        <ele>297.36</ele>
        <time>2026-08-31T04:44:37.1620000+00:00</time>
      </trkpt>
      <trkpt lat="52.19314" lon="10.78326">
        <ele>294.16</ele>
        <time>2026-08-31T04:44:58.3660000+00:00</time>
      </trkpt>
      <trkpt lat="52.19349" lon="10.78437">
        <ele>300.35</ele>
        <time>2026-08-31T04:45:27.4930000+00:00</time>
      </trkpt>
      <trkpt lat="52.19377" lon="10.78538">
        <ele>305.41</ele>
        <time>2026-08-31T04:45:53.3590000+00:00</time>
      </trkpt>
      <trkpt lat="52.19379" lon="10.78543">
        <ele>305.64</ele>
        <time>2026-08-31T04:45:54.7520000+00:00</time>
      </trkpt>
      <trkpt lat="52.19397" lon="10.78565">
        <ele>307.13</ele>
        <time>2026-08-31T04:46:03.3140000+00:00</time>
      </trkpt>
      <trkpt lat="52.19409" lon="10.78582">
        <ele>308.46</ele>
        <time>2026-08-31T04:46:09.3640000+00:00</time>
      </trkpt>
      <trkpt lat="52.19426" lon="10.78616">
        <ele>309.81</ele>
        <time>2026-08-31T04:46:19.6020000+00:00</time>
      </trkpt>
      <trkpt lat="52.19441" lon="10.78648">
        <ele>309.91</ele>
        <time>2026-08-31T04:46:29.0020000+00:00</time>
      </trkpt>
      <trkpt lat="52.19454" lon="10.78666">
        <ele>309.93</ele>
        <time>2026-08-31T04:46:35.4930000+00:00</time>
      </trkpt>
      <trkpt lat="52.19495" lon="10.78744">
        <ele>309.3</ele>
        <time>2026-08-31T04:46:59.4690000+00:00</time>
      </trkpt>
      <trkpt lat="52.19526" lon="10.78798">
        <ele>310.06</ele>
        <time>2026-08-31T04:47:16.7320000+00:00</time>
      </trkpt>
      <trkpt lat="52.19537" lon="10.7882">
        <ele>310.67</ele>
        <time>2026-08-31T04:47:23.3570000+00:00</time>
      </trkpt>
      <trkpt lat="52.19568" lon="10.78878">
        <ele>311.99</ele>
        <time>2026-08-31T04:47:41.3120000+00:00</time>
      </trkpt>
      <trkpt lat="52.19578" lon="10.78913">
        <ele>311.97</ele>
        <time>2026-08-31T04:47:50.3230000+00:00</time>
      </trkpt>
      <trkpt lat="52.19568" lon="10.78935">
        <ele>311.97</ele>
        <time>2026-08-31T04:47:56.7130000+00:00</time>
      </trkpt>
      <trkpt lat="52.19559" lon="10.79015">
        <ele>309.37</ele>
        <time>2026-08-31T04:48:15.6920000+00:00</time>
      </trkpt>
      <trkpt lat="52.19585" lon="10.79035">
        <ele>308.91</ele>
        <time>2026-08-31T04:48:26.6340000+00:00</time>
      </trkpt>
      <trkpt lat="52.19596" lon="10.79047">
        <ele>308.75</ele>
        <time>2026-08-31T04:48:31.6720000+00:00</time>
      </trkpt>
      <trkpt lat="52.19596" lon="10.79057">
        <ele>308.54</ele>
        <time>2026-08-31T04:48:34.0050000+00:00</time>
      </trkpt>
      <trkpt lat="52.19593" lon="10.79068">
        <ele>308.33</ele>
        <time>2026-08-31T04:48:36.8150000+00:00</time>
      </trkpt>
      <trkpt lat="52.19592" lon="10.79069">
        <ele>308.31</ele>
        <time>2026-08-31T04:48:37.2600000+00:00</time>
      </trkpt>
      <trkpt lat="52.19588" lon="10.79081">
        <ele>308.1</ele>
        <time>2026-08-31T04:48:40.4470000+00:00</time>
      </trkpt>
      <trkpt lat="52.19586" lon="10.79087">
        <ele>308.01</ele>
        <time>2026-08-31T04:48:42.0410000+00:00</time>
      </trkpt>
      <trkpt lat="52.19579" lon="10.79127">
        <ele>307.4</ele>
        <time>2026-08-31T04:48:51.7470000+00:00</time>
      </trkpt>
      <trkpt lat="52.1957" lon="10.79174">
        <ele>306.99</ele>
        <time>2026-08-31T04:49:03.2360000+00:00</time>
      </trkpt>
      <trkpt lat="52.19562" lon="10.79224">
        <ele>306.7</ele>
        <time>2026-08-31T04:49:15.2940000+00:00</time>
      </trkpt>
      <trkpt lat="52.19558" lon="10.79238">
        <ele>306.68</ele>
        <time>2026-08-31T04:49:18.8980000+00:00</time>
      </trkpt>
      <trkpt lat="52.19553" lon="10.79265">
        <ele>306.53</ele>
        <time>2026-08-31T04:49:25.4800000+00:00</time>
      </trkpt>
      <trkpt lat="52.1955" lon="10.79286">
        <ele>307.24</ele>
        <time>2026-08-31T04:49:30.5110000+00:00</time>
      </trkpt>
      <trkpt lat="52.19542" lon="10.79323">
        <ele>308.71</ele>
        <time>2026-08-31T04:49:39.6660000+00:00</time>
      </trkpt>
      <trkpt lat="52.19522" lon="10.79427">
        <ele>311.35</ele>
        <time>2026-08-31T04:50:05.0990000+00:00</time>
      </trkpt>
      <trkpt lat="52.19517" lon="10.79453">
        <ele>311.77</ele>
        <time>2026-08-31T04:50:11.4570000+00:00</time>
      </trkpt>
      <trkpt lat="52.19507" lon="10.79508">
        <ele>312.81</ele>
        <time>2026-08-31T04:50:24.8430000+00:00</time>
      </trkpt>
      <trkpt lat="52.19503" lon="10.79528">
        <ele>313.36</ele>
        <time>2026-08-31T04:50:29.7520000+00:00</time>
      </trkpt>
      <trkpt lat="52.19473" lon="10.79602">
        <ele>315.97</ele>
        <time>2026-08-31T04:50:50.4540000+00:00</time>
      </trkpt>
      <trkpt lat="52.19452" lon="10.79655">
        <ele>319.15</ele>
        <time>2026-08-31T04:51:05.1800000+00:00</time>
      </trkpt>
      <trkpt lat="52.19432" lon="10.79699">
        <ele>321.74</ele>
        <time>2026-08-31T04:51:17.9620000+00:00</time>
      </trkpt>
      <trkpt lat="52.19415" lon="10.79736">
        <ele>323.52</ele>
        <time>2026-08-31T04:51:28.7510000+00:00</time>
      </trkpt>
      <trkpt lat="52.19398" lon="10.79777">
        <ele>324.97</ele>
        <time>2026-08-31T04:51:40.3020000+00:00</time>
      </trkpt>
      <trkpt lat="52.19384" lon="10.79817">
        <ele>324.61</ele>
        <time>2026-08-31T04:51:51.0500000+00:00</time>
      </trkpt>
      <trkpt lat="52.19379" lon="10.79854">
        <ele>324.67</ele>
        <time>2026-08-31T04:51:59.8910000+00:00</time>
      </trkpt>
      <trkpt lat="52.19378" lon="10.79897">
        <ele>324.24</ele>
        <time>2026-08-31T04:52:09.9320000+00:00</time>
      </trkpt>
      <trkpt lat="52.19377" lon="10.79963">
        <ele>323.97</ele>
        <time>2026-08-31T04:52:25.3370000+00:00</time>
      </trkpt>
      <trkpt lat="52.19374" lon="10.8002">
        <ele>323.97</ele>
        <time>2026-08-31T04:52:38.6870000+00:00</time>
      </trkpt>
      <trkpt lat="52.19375" lon="10.80029">
        <ele>323.8</ele>
        <time>2026-08-31T04:52:40.8210000+00:00</time>
      </trkpt>
      <trkpt lat="52.19372" lon="10.80028">
        <ele>323.7</ele>
        <time>2026-08-31T04:52:41.9870000+00:00</time>
      </trkpt>
      <trkpt lat="52.19369" lon="10.8003">
        <ele>323.52</ele>
        <time>2026-08-31T04:52:43.2210000+00:00</time>
      </trkpt>
      <trkpt lat="52.19337" lon="10.80036">
        <ele>321.95</ele>
        <time>2026-08-31T04:52:55.4820000+00:00</time>
      </trkpt>
      <trkpt lat="52.193" lon="10.80044">
        <ele>319.79</ele>
        <time>2026-08-31T04:53:09.6900000+00:00</time>
      </trkpt>
      <trkpt lat="52.19249" lon="10.80056">
        <ele>316.79</ele>
        <time>2026-08-31T04:53:29.3050000+00:00</time>
      </trkpt>
      <trkpt lat="52.19245" lon="10.80057">
        <ele>316.56</ele>
        <time>2026-08-31T04:53:30.8450000+00:00</time>
      </trkpt>
      <trkpt lat="52.19213" lon="10.80066">
        <ele>315.26</ele>
        <time>2026-08-31T04:53:43.2060000+00:00</time>
      </trkpt>
      <trkpt lat="52.19178" lon="10.80081">
        <ele>314.32</ele>
        <time>2026-08-31T04:53:56.9810000+00:00</time>
      </trkpt>
      <trkpt lat="52.19093" lon="10.8012">
        <ele>309.36</ele>
        <time>2026-08-31T04:54:30.5930000+00:00</time>
      </trkpt>
      <trkpt lat="52.19063" lon="10.8012">
        <ele>307.27</ele>
        <time>2026-08-31T04:54:42.0130000+00:00</time>
      </trkpt>
      <trkpt lat="52.19032" lon="10.80112">
        <ele>305.82</ele>
        <time>2026-08-31T04:54:53.9610000+00:00</time>
      </trkpt>
      <trkpt lat="52.19016" lon="10.80112">
        <ele>304.97</ele>
        <time>2026-08-31T04:55:00.0510000+00:00</time>
      </trkpt>
      <trkpt lat="52.18956" lon="10.80124">
        <ele>301.16</ele>
        <time>2026-08-31T04:55:23.0620000+00:00</time>
      </trkpt>
      <trkpt lat="52.18906" lon="10.8014">
        <ele>298.25</ele>
        <time>2026-08-31T04:55:42.4580000+00:00</time>
      </trkpt>
      <trkpt lat="52.18872" lon="10.80155">
        <ele>296.05</ele>
        <time>2026-08-31T04:55:55.8660000+00:00</time>
      </trkpt>
      <trkpt lat="52.18843" lon="10.80177">
        <ele>294.26</ele>
        <time>2026-08-31T04:56:08.0400000+00:00</time>
      </trkpt>
      <trkpt lat="52.18813" lon="10.80186">
        <ele>292.86</ele>
        <time>2026-08-31T04:56:19.6520000+00:00</time>
      </trkpt>
      <trkpt lat="52.18747" lon="10.8018">
        <ele>290.36</ele>
        <time>2026-08-31T04:56:44.8150000+00:00</time>
      </trkpt>
      <trkpt lat="52.18679" lon="10.80183">
        <ele>287.33</ele>
        <time>2026-08-31T04:57:10.7090000+00:00</time>
      </trkpt>
      <trkpt lat="52.18662" lon="10.80184">
        <ele>286.51</ele>
        <time>2026-08-31T04:57:17.1850000+00:00</time>
      </trkpt>
      <trkpt lat="52.18629" lon="10.80171">
        <ele>284.72</ele>
        <time>2026-08-31T04:57:30.1080000+00:00</time>
      </trkpt>
      <trkpt lat="52.18602" lon="10.80129">
        <ele>283.11</ele>
        <time>2026-08-31T04:57:44.3100000+00:00</time>
      </trkpt>
      <trkpt lat="52.18602" lon="10.80118">
        <ele>283</ele>
        <time>2026-08-31T04:57:46.8780000+00:00</time>
      </trkpt>
      <trkpt lat="52.18604" lon="10.80065">
        <ele>282.98</ele>
        <time>2026-08-31T04:57:59.2710000+00:00</time>
      </trkpt>
      <trkpt lat="52.18605" lon="10.80038">
        <ele>283.05</ele>
        <time>2026-08-31T04:58:05.5840000+00:00</time>
      </trkpt>
      <trkpt lat="52.18584" lon="10.80015">
        <ele>283.64</ele>
        <time>2026-08-31T04:58:15.2130000+00:00</time>
      </trkpt>
      <trkpt lat="52.18551" lon="10.80018">
        <ele>283.77</ele>
        <time>2026-08-31T04:58:27.7940000+00:00</time>
      </trkpt>
      <trkpt lat="52.18488" lon="10.80031">
        <ele>282.7</ele>
        <time>2026-08-31T04:58:51.9670000+00:00</time>
      </trkpt>
      <trkpt lat="52.1848" lon="10.80034">
        <ele>282.22</ele>
        <time>2026-08-31T04:58:55.0920000+00:00</time>
      </trkpt>
      <trkpt lat="52.18435" lon="10.80046">
        <ele>278.55</ele>
        <time>2026-08-31T04:59:12.4490000+00:00</time>
      </trkpt>
      <trkpt lat="52.18416" lon="10.80052">
        <ele>277.08</ele>
        <time>2026-08-31T04:59:19.8160000+00:00</time>
      </trkpt>
      <trkpt lat="52.18376" lon="10.80067">
        <ele>274.97</ele>
        <time>2026-08-31T04:59:35.4400000+00:00</time>
      </trkpt>
      <trkpt lat="52.18346" lon="10.80077">
        <ele>273.82</ele>
        <time>2026-08-31T04:59:47.0960000+00:00</time>
      </trkpt>
      <trkpt lat="52.18306" lon="10.80091">
        <ele>272.14</ele>
        <time>2026-08-31T05:00:02.6690000+00:00</time>
      </trkpt>
      <trkpt lat="52.18274" lon="10.80102">
        <ele>270.33</ele>
        <time>2026-08-31T05:00:15.1180000+00:00</time>
      </trkpt>
      <trkpt lat="52.18264" lon="10.80106">
        <ele>269.7</ele>
        <time>2026-08-31T05:00:19.0370000+00:00</time>
      </trkpt>
      <trkpt lat="52.18213" lon="10.80124">
        <ele>266.2</ele>
        <time>2026-08-31T05:00:38.9000000+00:00</time>
      </trkpt>
      <trkpt lat="52.18182" lon="10.80134">
        <ele>263.42</ele>
        <time>2026-08-31T05:00:50.9300000+00:00</time>
      </trkpt>
      <trkpt lat="52.1817" lon="10.80136">
        <ele>262.32</ele>
        <time>2026-08-31T05:00:55.5210000+00:00</time>
      </trkpt>
      <trkpt lat="52.18149" lon="10.80139">
        <ele>260.42</ele>
        <time>2026-08-31T05:01:03.5460000+00:00</time>
      </trkpt>
      <trkpt lat="52.18061" lon="10.80152">
        <ele>254.44</ele>
        <time>2026-08-31T05:01:37.1810000+00:00</time>
      </trkpt>
      <trkpt lat="52.17996" lon="10.80161">
        <ele>251.87</ele>
        <time>2026-08-31T05:02:02.0140000+00:00</time>
      </trkpt>
      <trkpt lat="52.17946" lon="10.80172">
        <ele>250.92</ele>
        <time>2026-08-31T05:02:21.2190000+00:00</time>
      </trkpt>
      <trkpt lat="52.17904" lon="10.80178">
        <ele>250.05</ele>
        <time>2026-08-31T05:02:37.2680000+00:00</time>
      </trkpt>
      <trkpt lat="52.17861" lon="10.80184">
        <ele>248.03</ele>
        <time>2026-08-31T05:02:53.6970000+00:00</time>
      </trkpt>
      <trkpt lat="52.17778" lon="10.80195">
        <ele>241.82</ele>
        <time>2026-08-31T05:03:25.3960000+00:00</time>
      </trkpt>
      <trkpt lat="52.17764" lon="10.802">
        <ele>240.42</ele>
        <time>2026-08-31T05:03:30.8520000+00:00</time>
      </trkpt>
      <trkpt lat="52.17737" lon="10.80232">
        <ele>237.56</ele>
        <time>2026-08-31T05:03:43.5570000+00:00</time>
      </trkpt>
      <trkpt lat="52.17724" lon="10.80257">
        <ele>235.9</ele>
        <time>2026-08-31T05:03:51.2090000+00:00</time>
      </trkpt>
      <trkpt lat="52.17684" lon="10.8029">
        <ele>231.53</ele>
        <time>2026-08-31T05:04:08.2730000+00:00</time>
      </trkpt>
      <trkpt lat="52.17626" lon="10.80299">
        <ele>227.14</ele>
        <time>2026-08-31T05:04:30.4510000+00:00</time>
      </trkpt>
      <trkpt lat="52.17554" lon="10.80304">
        <ele>223.55</ele>
        <time>2026-08-31T05:04:57.8840000+00:00</time>
      </trkpt>
      <trkpt lat="52.17536" lon="10.80303">
        <ele>222.43</ele>
        <time>2026-08-31T05:05:04.7400000+00:00</time>
      </trkpt>
      <trkpt lat="52.17509" lon="10.803">
        <ele>220.68</ele>
        <time>2026-08-31T05:05:15.0420000+00:00</time>
      </trkpt>
      <trkpt lat="52.1748" lon="10.80296">
        <ele>218.91</ele>
        <time>2026-08-31T05:05:26.1200000+00:00</time>
      </trkpt>
      <trkpt lat="52.17448" lon="10.80293">
        <ele>217.91</ele>
        <time>2026-08-31T05:05:38.3220000+00:00</time>
      </trkpt>
      <trkpt lat="52.17394" lon="10.8029">
        <ele>217</ele>
        <time>2026-08-31T05:05:58.8890000+00:00</time>
      </trkpt>
      <trkpt lat="52.17362" lon="10.80284">
        <ele>218.38</ele>
        <time>2026-08-31T05:06:11.1510000+00:00</time>
      </trkpt>
      <trkpt lat="52.17331" lon="10.80279">
        <ele>219.51</ele>
        <time>2026-08-31T05:06:23.0090000+00:00</time>
      </trkpt>
      <trkpt lat="52.17216" lon="10.80263">
        <ele>219.56</ele>
        <time>2026-08-31T05:07:06.9450000+00:00</time>
      </trkpt>
      <trkpt lat="52.17188" lon="10.80257">
        <ele>217.5</ele>
        <time>2026-08-31T05:07:17.6950000+00:00</time>
      </trkpt>
      <trkpt lat="52.17164" lon="10.80249">
        <ele>215.56</ele>
        <time>2026-08-31T05:07:27.0200000+00:00</time>
      </trkpt>
      <trkpt lat="52.17156" lon="10.8027">
        <ele>217.31</ele>
        <time>2026-08-31T05:07:32.7910000+00:00</time>
      </trkpt>
      <trkpt lat="52.17142" lon="10.80303">
        <ele>217.13</ele>
        <time>2026-08-31T05:07:42.1590000+00:00</time>
      </trkpt>
      <trkpt lat="52.17135" lon="10.80313">
        <ele>216.71</ele>
        <time>2026-08-31T05:07:45.7020000+00:00</time>
      </trkpt>
      <trkpt lat="52.17113" lon="10.80346">
        <ele>215.59</ele>
        <time>2026-08-31T05:07:57.0810000+00:00</time>
      </trkpt>
      <trkpt lat="52.171" lon="10.80365">
        <ele>214.75</ele>
        <time>2026-08-31T05:08:03.7270000+00:00</time>
      </trkpt>
      <trkpt lat="52.17087" lon="10.8039">
        <ele>214.18</ele>
        <time>2026-08-31T05:08:11.3790000+00:00</time>
      </trkpt>
      <trkpt lat="52.17076" lon="10.80422">
        <ele>214.21</ele>
        <time>2026-08-31T05:08:19.9430000+00:00</time>
      </trkpt>
      <trkpt lat="52.17069" lon="10.80442">
        <ele>214.09</ele>
        <time>2026-08-31T05:08:25.3190000+00:00</time>
      </trkpt>
      <trkpt lat="52.17045" lon="10.80467">
        <ele>211.64</ele>
        <time>2026-08-31T05:08:36.1610000+00:00</time>
      </trkpt>
      <trkpt lat="52.16966" lon="10.80527">
        <ele>207.48</ele>
        <time>2026-08-31T05:09:09.3360000+00:00</time>
      </trkpt>
      <trkpt lat="52.1688" lon="10.80589">
        <ele>204.82</ele>
        <time>2026-08-31T05:09:45.1300000+00:00</time>
      </trkpt>
      <trkpt lat="52.16798" lon="10.80648">
        <ele>200.83</ele>
        <time>2026-08-31T05:10:19.2490000+00:00</time>
      </trkpt>
      <trkpt lat="52.16787" lon="10.80656">
        <ele>200.1</ele>
        <time>2026-08-31T05:10:23.8340000+00:00</time>
      </trkpt>
      <trkpt lat="52.16777" lon="10.80665">
        <ele>199.52</ele>
        <time>2026-08-31T05:10:28.1820000+00:00</time>
      </trkpt>
      <trkpt lat="52.16752" lon="10.80684">
        <ele>198.14</ele>
        <time>2026-08-31T05:10:38.6820000+00:00</time>
      </trkpt>
      <trkpt lat="52.16736" lon="10.80692">
        <ele>196.88</ele>
        <time>2026-08-31T05:10:45.0530000+00:00</time>
      </trkpt>
      <trkpt lat="52.16734" lon="10.80719">
        <ele>196.29</ele>
        <time>2026-08-31T05:10:51.4030000+00:00</time>
      </trkpt>
      <trkpt lat="52.1674" lon="10.80726">
        <ele>196.79</ele>
        <time>2026-08-31T05:10:54.2110000+00:00</time>
      </trkpt>
      <trkpt lat="52.16744" lon="10.80751">
        <ele>196.83</ele>
        <time>2026-08-31T05:11:00.2430000+00:00</time>
      </trkpt>
      <trkpt lat="52.16746" lon="10.80768">
        <ele>196.77</ele>
        <time>2026-08-31T05:11:04.2850000+00:00</time>
      </trkpt>
      <trkpt lat="52.1675" lon="10.80804">
        <ele>195.96</ele>
        <time>2026-08-31T05:11:12.8270000+00:00</time>
      </trkpt>
      <trkpt lat="52.16748" lon="10.80856">
        <ele>194.13</ele>
        <time>2026-08-31T05:11:24.9920000+00:00</time>
      </trkpt>
      <trkpt lat="52.16746" lon="10.80898">
        <ele>192.91</ele>
        <time>2026-08-31T05:11:34.8280000+00:00</time>
      </trkpt>
      <trkpt lat="52.16745" lon="10.80908">
        <ele>192.56</ele>
        <time>2026-08-31T05:11:37.1930000+00:00</time>
      </trkpt>
      <trkpt lat="52.16745" lon="10.8095">
        <ele>191.41</ele>
        <time>2026-08-31T05:11:47.0000000+00:00</time>
      </trkpt>
      <trkpt lat="52.1675" lon="10.80988">
        <ele>190.84</ele>
        <time>2026-08-31T05:11:56.0740000+00:00</time>
      </trkpt>
      <trkpt lat="52.16774" lon="10.81035">
        <ele>192.4</ele>
        <time>2026-08-31T05:12:10.3530000+00:00</time>
      </trkpt>
      <trkpt lat="52.16776" lon="10.81045">
        <ele>192.16</ele>
        <time>2026-08-31T05:12:12.8090000+00:00</time>
      </trkpt>
      <trkpt lat="52.16799" lon="10.81084">
        <ele>194.02</ele>
        <time>2026-08-31T05:12:25.4410000+00:00</time>
      </trkpt>
      <trkpt lat="52.16801" lon="10.81087">
        <ele>194.23</ele>
        <time>2026-08-31T05:12:26.4740000+00:00</time>
      </trkpt>
      <trkpt lat="52.16805" lon="10.81095">
        <ele>194.59</ele>
        <time>2026-08-31T05:12:28.8840000+00:00</time>
      </trkpt>
      <trkpt lat="52.16809" lon="10.81123">
        <ele>193.85</ele>
        <time>2026-08-31T05:12:35.5970000+00:00</time>
      </trkpt>
      <trkpt lat="52.16827" lon="10.81169">
        <ele>193.77</ele>
        <time>2026-08-31T05:12:48.3360000+00:00</time>
      </trkpt>
      <trkpt lat="52.16834" lon="10.81196">
        <ele>193.8</ele>
        <time>2026-08-31T05:12:55.1800000+00:00</time>
      </trkpt>
      <trkpt lat="52.16848" lon="10.81243">
        <ele>195.31</ele>
        <time>2026-08-31T05:13:07.3790000+00:00</time>
      </trkpt>
      <trkpt lat="52.16848" lon="10.81248">
        <ele>195.27</ele>
        <time>2026-08-31T05:13:08.5470000+00:00</time>
      </trkpt>
      <trkpt lat="52.16855" lon="10.81307">
        <ele>197.56</ele>
        <time>2026-08-31T05:13:22.5780000+00:00</time>
      </trkpt>
      <trkpt lat="52.16859" lon="10.81358">
        <ele>199.29</ele>
        <time>2026-08-31T05:13:34.5820000+00:00</time>
      </trkpt>
      <trkpt lat="52.16864" lon="10.81417">
        <ele>197.68</ele>
        <time>2026-08-31T05:13:48.4880000+00:00</time>
      </trkpt>
      <trkpt lat="52.16864" lon="10.81422">
        <ele>197.47</ele>
        <time>2026-08-31T05:13:49.6550000+00:00</time>
      </trkpt>
      <trkpt lat="52.16865" lon="10.81449">
        <ele>196.49</ele>
        <time>2026-08-31T05:13:55.9710000+00:00</time>
      </trkpt>
      <trkpt lat="52.16865" lon="10.81526">
        <ele>193.7</ele>
        <time>2026-08-31T05:14:13.9480000+00:00</time>
      </trkpt>
      <trkpt lat="52.16861" lon="10.81543">
        <ele>193.34</ele>
        <time>2026-08-31T05:14:18.1990000+00:00</time>
      </trkpt>
      <trkpt lat="52.16859" lon="10.81576">
        <ele>193.48</ele>
        <time>2026-08-31T05:14:25.9420000+00:00</time>
      </trkpt>
      <trkpt lat="52.16853" lon="10.81604">
        <ele>193.27</ele>
        <time>2026-08-31T05:14:32.8660000+00:00</time>
      </trkpt>
      <trkpt lat="52.16844" lon="10.81647">
        <ele>194.41</ele>
        <time>2026-08-31T05:14:43.4750000+00:00</time>
      </trkpt>
      <trkpt lat="52.16837" lon="10.81668">
        <ele>195.06</ele>
        <time>2026-08-31T05:14:49.0550000+00:00</time>
      </trkpt>
      <trkpt lat="52.16807" lon="10.8173">
        <ele>196.53</ele>
        <time>2026-08-31T05:15:07.4930000+00:00</time>
      </trkpt>
      <trkpt lat="52.16804" lon="10.81742">
        <ele>196.87</ele>
        <time>2026-08-31T05:15:10.5180000+00:00</time>
      </trkpt>
      <trkpt lat="52.168" lon="10.8176">
        <ele>197.4</ele>
        <time>2026-08-31T05:15:14.9880000+00:00</time>
      </trkpt>
      <trkpt lat="52.16796" lon="10.8178">
        <ele>197.81</ele>
        <time>2026-08-31T05:15:19.9000000+00:00</time>
      </trkpt>
      <trkpt lat="52.16797" lon="10.81789">
        <ele>198.31</ele>
        <time>2026-08-31T05:15:22.0360000+00:00</time>
      </trkpt>
      <trkpt lat="52.16796" lon="10.81807">
        <ele>198.93</ele>
        <time>2026-08-31T05:15:26.2550000+00:00</time>
      </trkpt>
      <trkpt lat="52.16785" lon="10.81864">
        <ele>199.46</ele>
        <time>2026-08-31T05:15:40.2070000+00:00</time>
      </trkpt>
      <trkpt lat="52.16774" lon="10.81916">
        <ele>199.02</ele>
        <time>2026-08-31T05:15:53.0500000+00:00</time>
      </trkpt>
      <trkpt lat="52.16762" lon="10.81978">
        <ele>196.81</ele>
        <time>2026-08-31T05:16:08.2290000+00:00</time>
      </trkpt>
      <trkpt lat="52.16753" lon="10.82047">
        <ele>196.62</ele>
        <time>2026-08-31T05:16:24.7000000+00:00</time>
      </trkpt>
      <trkpt lat="52.16723" lon="10.82096">
        <ele>194.99</ele>
        <time>2026-08-31T05:16:40.8650000+00:00</time>
      </trkpt>
      <trkpt lat="52.16703" lon="10.82158">
        <ele>197.41</ele>
        <time>2026-08-31T05:16:57.2210000+00:00</time>
      </trkpt>
      <trkpt lat="52.16699" lon="10.8217">
        <ele>197.79</ele>
        <time>2026-08-31T05:17:00.4090000+00:00</time>
      </trkpt>
      <trkpt lat="52.16693" lon="10.82189">
        <ele>198.26</ele>
        <time>2026-08-31T05:17:05.3990000+00:00</time>
      </trkpt>
      <trkpt lat="52.16653" lon="10.82275">
        <ele>197.65</ele>
        <time>2026-08-31T05:17:30.5990000+00:00</time>
      </trkpt>
      <trkpt lat="52.1661" lon="10.82357">
        <ele>193.73</ele>
        <time>2026-08-31T05:17:55.7880000+00:00</time>
      </trkpt>
      <trkpt lat="52.1658" lon="10.82413">
        <ele>188.5</ele>
        <time>2026-08-31T05:18:13.1490000+00:00</time>
      </trkpt>
      <trkpt lat="52.16558" lon="10.82497">
        <ele>182.78</ele>
        <time>2026-08-31T05:18:34.4750000+00:00</time>
      </trkpt>
      <trkpt lat="52.16556" lon="10.82514">
        <ele>181.91</ele>
        <time>2026-08-31T05:18:38.5170000+00:00</time>
      </trkpt>
      <trkpt lat="52.16562" lon="10.82536">
        <ele>183.08</ele>
        <time>2026-08-31T05:18:44.1390000+00:00</time>
      </trkpt>
      <trkpt lat="52.16589" lon="10.82569">
        <ele>187.38</ele>
        <time>2026-08-31T05:18:56.9840000+00:00</time>
      </trkpt>
      <trkpt lat="52.16612" lon="10.82598">
        <ele>191.12</ele>
        <time>2026-08-31T05:19:08.0520000+00:00</time>
      </trkpt>
      <trkpt lat="52.16619" lon="10.82615">
        <ele>192.21</ele>
        <time>2026-08-31T05:19:12.8330000+00:00</time>
      </trkpt>
      <trkpt lat="52.1662" lon="10.8262">
        <ele>192.39</ele>
        <time>2026-08-31T05:19:14.0610000+00:00</time>
      </trkpt>
      <trkpt lat="52.16621" lon="10.82625">
        <ele>192.57</ele>
        <time>2026-08-31T05:19:15.2890000+00:00</time>
      </trkpt>
      <trkpt lat="52.16618" lon="10.82647">
        <ele>192.18</ele>
        <time>2026-08-31T05:19:20.5510000+00:00</time>
      </trkpt>
      <trkpt lat="52.16632" lon="10.82681">
        <ele>195</ele>
        <time>2026-08-31T05:19:30.1130000+00:00</time>
      </trkpt>
      <trkpt lat="52.16644" lon="10.82725">
        <ele>195.51</ele>
        <time>2026-08-31T05:19:41.3560000+00:00</time>
      </trkpt>
      <trkpt lat="52.16662" lon="10.82762">
        <ele>197.19</ele>
        <time>2026-08-31T05:19:52.3820000+00:00</time>
      </trkpt>
      <trkpt lat="52.16668" lon="10.82797">
        <ele>195.44</ele>
        <time>2026-08-31T05:20:00.8680000+00:00</time>
      </trkpt>
      <trkpt lat="52.16687" lon="10.8285">
        <ele>195.02</ele>
        <time>2026-08-31T05:20:15.2010000+00:00</time>
      </trkpt>
      <trkpt lat="52.16703" lon="10.82889">
        <ele>195.66</ele>
        <time>2026-08-31T05:20:26.1560000+00:00</time>
      </trkpt>
      <trkpt lat="52.16715" lon="10.82911">
        <ele>196.78</ele>
        <time>2026-08-31T05:20:33.0300000+00:00</time>
      </trkpt>
      <trkpt lat="52.16739" lon="10.82967">
        <ele>197.28</ele>
        <time>2026-08-31T05:20:48.9800000+00:00</time>
      </trkpt>
      <trkpt lat="52.16746" lon="10.82975">
        <ele>197.37</ele>
        <time>2026-08-31T05:20:52.2340000+00:00</time>
      </trkpt>
      <trkpt lat="52.16766" lon="10.82996">
        <ele>197.97</ele>
        <time>2026-08-31T05:21:01.2900000+00:00</time>
      </trkpt>
      <trkpt lat="52.16782" lon="10.83023">
        <ele>198.21</ele>
        <time>2026-08-31T05:21:10.0560000+00:00</time>
      </trkpt>
      <trkpt lat="52.16823" lon="10.83057">
        <ele>200.22</ele>
        <time>2026-08-31T05:21:27.5660000+00:00</time>
      </trkpt>
      <trkpt lat="52.16855" lon="10.83078">
        <ele>201.63</ele>
        <time>2026-08-31T05:21:40.6970000+00:00</time>
      </trkpt>
      <trkpt lat="52.16878" lon="10.83106">
        <ele>202.17</ele>
        <time>2026-08-31T05:21:51.6230000+00:00</time>
      </trkpt>
      <trkpt lat="52.16894" lon="10.83169">
        <ele>199.46</ele>
        <time>2026-08-31T05:22:07.5430000+00:00</time>
      </trkpt>
      <trkpt lat="52.16896" lon="10.83175">
        <ele>199.15</ele>
        <time>2026-08-31T05:22:09.1380000+00:00</time>
      </trkpt>
      <trkpt lat="52.16904" lon="10.83222">
        <ele>198.62</ele>
        <time>2026-08-31T05:22:20.5260000+00:00</time>
      </trkpt>
      <trkpt lat="52.16904" lon="10.83226">
        <ele>198.57</ele>
        <time>2026-08-31T05:22:21.4600000+00:00</time>
      </trkpt>
      <trkpt lat="52.16903" lon="10.83232">
        <ele>198.42</ele>
        <time>2026-08-31T05:22:22.9120000+00:00</time>
      </trkpt>
      <trkpt lat="52.16895" lon="10.83243">
        <ele>198.46</ele>
        <time>2026-08-31T05:22:26.8950000+00:00</time>
      </trkpt>
      <trkpt lat="52.16883" lon="10.8328">
        <ele>200.49</ele>
        <time>2026-08-31T05:22:36.6670000+00:00</time>
      </trkpt>
      <trkpt lat="52.1689" lon="10.83297">
        <ele>201.94</ele>
        <time>2026-08-31T05:22:41.4480000+00:00</time>
      </trkpt>
      <trkpt lat="52.16884" lon="10.83322">
        <ele>204.55</ele>
        <time>2026-08-31T05:22:47.7160000+00:00</time>
      </trkpt>
      <trkpt lat="52.1688" lon="10.8334">
        <ele>206.31</ele>
        <time>2026-08-31T05:22:52.1860000+00:00</time>
      </trkpt>
      <trkpt lat="52.16879" lon="10.83347">
        <ele>206.98</ele>
        <time>2026-08-31T05:22:53.8640000+00:00</time>
      </trkpt>
      <trkpt lat="52.16885" lon="10.83365">
        <ele>207.46</ele>
        <time>2026-08-31T05:22:58.6470000+00:00</time>
      </trkpt>
      <trkpt lat="52.16912" lon="10.83388">
        <ele>208.47</ele>
        <time>2026-08-31T05:23:10.2430000+00:00</time>
      </trkpt>
      <trkpt lat="52.16941" lon="10.83435">
        <ele>211.05</ele>
        <time>2026-08-31T05:23:25.8080000+00:00</time>
      </trkpt>
      <trkpt lat="52.16972" lon="10.83466">
        <ele>213.45</ele>
        <time>2026-08-31T05:23:39.6510000+00:00</time>
      </trkpt>
      <trkpt lat="52.1701" lon="10.83482">
        <ele>214.33</ele>
        <time>2026-08-31T05:23:54.5910000+00:00</time>
      </trkpt>
      <trkpt lat="52.17044" lon="10.8351">
        <ele>214.71</ele>
        <time>2026-08-31T05:24:09.0910000+00:00</time>
      </trkpt>
      <trkpt lat="52.17072" lon="10.83531">
        <ele>214.54</ele>
        <time>2026-08-31T05:24:20.8230000+00:00</time>
      </trkpt>
      <trkpt lat="52.17102" lon="10.83546">
        <ele>214.44</ele>
        <time>2026-08-31T05:24:32.7680000+00:00</time>
      </trkpt>
      <trkpt lat="52.17117" lon="10.83551">
        <ele>214.39</ele>
        <time>2026-08-31T05:24:38.5960000+00:00</time>
      </trkpt>
      <trkpt lat="52.17119" lon="10.83561">
        <ele>214.93</ele>
        <time>2026-08-31T05:24:41.0510000+00:00</time>
      </trkpt>
      <trkpt lat="52.17108" lon="10.83586">
        <ele>216.42</ele>
        <time>2026-08-31T05:24:48.2350000+00:00</time>
      </trkpt>
      <trkpt lat="52.17104" lon="10.83592">
        <ele>216.74</ele>
        <time>2026-08-31T05:24:50.3030000+00:00</time>
      </trkpt>
      <trkpt lat="52.17101" lon="10.83598">
        <ele>217.03</ele>
        <time>2026-08-31T05:24:52.1110000+00:00</time>
      </trkpt>
      <trkpt lat="52.17087" lon="10.83612">
        <ele>217.46</ele>
        <time>2026-08-31T05:24:58.3620000+00:00</time>
      </trkpt>
      <trkpt lat="52.17051" lon="10.83654">
        <ele>218.68</ele>
        <time>2026-08-31T05:25:15.2130000+00:00</time>
      </trkpt>
      <trkpt lat="52.17006" lon="10.837">
        <ele>218.38</ele>
        <time>2026-08-31T05:25:35.4310000+00:00</time>
      </trkpt>
      <trkpt lat="52.16965" lon="10.83754">
        <ele>219.18</ele>
        <time>2026-08-31T05:25:55.4940000+00:00</time>
      </trkpt>
      <trkpt lat="52.16918" lon="10.83819">
        <ele>220.37</ele>
        <time>2026-08-31T05:26:18.9550000+00:00</time>
      </trkpt>
      <trkpt lat="52.16891" lon="10.83862">
        <ele>221.2</ele>
        <time>2026-08-31T05:26:33.3220000+00:00</time>
      </trkpt>
      <trkpt lat="52.16885" lon="10.83871">
        <ele>221.31</ele>
        <time>2026-08-31T05:26:36.4260000+00:00</time>
      </trkpt>
      <trkpt lat="52.16851" lon="10.83926">
        <ele>221.69</ele>
        <time>2026-08-31T05:26:54.6580000+00:00</time>
      </trkpt>
      <trkpt lat="52.16798" lon="10.84015">
        <ele>221.27</ele>
        <time>2026-08-31T05:27:23.6210000+00:00</time>
      </trkpt>
      <trkpt lat="52.16758" lon="10.84082">
        <ele>221.44</ele>
        <time>2026-08-31T05:27:45.4510000+00:00</time>
      </trkpt>
      <trkpt lat="52.16711" lon="10.84217">
        <ele>221.84</ele>
        <time>2026-08-31T05:28:21.6950000+00:00</time>
      </trkpt>
      <trkpt lat="52.1666" lon="10.84367">
        <ele>214.5</ele>
        <time>2026-08-31T05:29:01.7380000+00:00</time>
      </trkpt>
      <trkpt lat="52.16599" lon="10.84436">
        <ele>208.95</ele>
        <time>2026-08-31T05:29:30.0000000+00:00</time>
      </trkpt>
      <trkpt lat="52.16552" lon="10.84483">
        <ele>207.58</ele>
        <time>2026-08-31T05:29:50.9890000+00:00</time>
      </trkpt>
      <trkpt lat="52.1654" lon="10.84522">
        <ele>207.87</ele>
        <time>2026-08-31T05:30:01.1770000+00:00</time>
      </trkpt>
      <trkpt lat="52.16553" lon="10.8458">
        <ele>209.09</ele>
        <time>2026-08-31T05:30:15.5950000+00:00</time>
      </trkpt>
      <trkpt lat="52.16551" lon="10.84627">
        <ele>211.58</ele>
        <time>2026-08-31T05:30:26.5960000+00:00</time>
      </trkpt>
      <trkpt lat="52.16528" lon="10.84644">
        <ele>213.16</ele>
        <time>2026-08-31T05:30:36.2090000+00:00</time>
      </trkpt>
      <trkpt lat="52.16516" lon="10.84646">
        <ele>213.49</ele>
        <time>2026-08-31T05:30:40.8000000+00:00</time>
      </trkpt>
      <trkpt lat="52.1647" lon="10.84642">
        <ele>214.34</ele>
        <time>2026-08-31T05:30:58.3360000+00:00</time>
      </trkpt>
      <trkpt lat="52.16426" lon="10.84638">
        <ele>215.68</ele>
        <time>2026-08-31T05:31:15.1110000+00:00</time>
      </trkpt>
      <trkpt lat="52.1636" lon="10.84639">
        <ele>216.57</ele>
        <time>2026-08-31T05:31:40.2360000+00:00</time>
      </trkpt>
      <trkpt lat="52.16309" lon="10.84637">
        <ele>216.71</ele>
        <time>2026-08-31T05:31:59.6550000+00:00</time>
      </trkpt>
      <trkpt lat="52.16236" lon="10.84642">
        <ele>218.66</ele>
        <time>2026-08-31T05:32:27.4680000+00:00</time>
      </trkpt>
      <trkpt lat="52.1616" lon="10.84653">
        <ele>219.63</ele>
        <time>2026-08-31T05:32:56.5130000+00:00</time>
      </trkpt>
      <trkpt lat="52.16079" lon="10.84695">
        <ele>214.99</ele>
        <time>2026-08-31T05:33:28.8690000+00:00</time>
      </trkpt>
      <trkpt lat="52.16042" lon="10.84715">
        <ele>214.9</ele>
        <time>2026-08-31T05:33:43.7070000+00:00</time>
      </trkpt>
      <trkpt lat="52.16015" lon="10.84755">
        <ele>215.28</ele>
        <time>2026-08-31T05:33:57.5960000+00:00</time>
      </trkpt>
      <trkpt lat="52.16002" lon="10.84861">
        <ele>216.37</ele>
        <time>2026-08-31T05:34:22.8390000+00:00</time>
      </trkpt>
      <trkpt lat="52.15996" lon="10.84904">
        <ele>216.22</ele>
        <time>2026-08-31T05:34:33.1370000+00:00</time>
      </trkpt>
      <trkpt lat="52.15994" lon="10.84926">
        <ele>216.18</ele>
        <time>2026-08-31T05:34:38.3300000+00:00</time>
      </trkpt>
      <trkpt lat="52.15991" lon="10.84947">
        <ele>216.71</ele>
        <time>2026-08-31T05:34:43.3650000+00:00</time>
      </trkpt>
      <trkpt lat="52.15976" lon="10.85081">
        <ele>219.03</ele>
        <time>2026-08-31T05:35:15.1740000+00:00</time>
      </trkpt>
      <trkpt lat="52.15962" lon="10.85201">
        <ele>219.26</ele>
        <time>2026-08-31T05:35:43.6990000+00:00</time>
      </trkpt>
      <trkpt lat="52.15959" lon="10.85233">
        <ele>220.08</ele>
        <time>2026-08-31T05:35:51.2580000+00:00</time>
      </trkpt>
      <trkpt lat="52.15946" lon="10.85328">
        <ele>223.75</ele>
        <time>2026-08-31T05:36:13.9880000+00:00</time>
      </trkpt>
      <trkpt lat="52.1592" lon="10.85331">
        <ele>224.24</ele>
        <time>2026-08-31T05:36:23.9100000+00:00</time>
      </trkpt>
      <trkpt lat="52.15898" lon="10.85318">
        <ele>223.99</ele>
        <time>2026-08-31T05:36:32.8180000+00:00</time>
      </trkpt>
      <trkpt lat="52.15846" lon="10.85296">
        <ele>222.8</ele>
        <time>2026-08-31T05:36:53.2690000+00:00</time>
      </trkpt>
      <trkpt lat="52.15781" lon="10.85273">
        <ele>221.86</ele>
        <time>2026-08-31T05:37:18.5880000+00:00</time>
      </trkpt>
      <trkpt lat="52.15734" lon="10.85266">
        <ele>222.05</ele>
        <time>2026-08-31T05:37:36.5540000+00:00</time>
      </trkpt>
      <trkpt lat="52.15695" lon="10.85272">
        <ele>221.67</ele>
        <time>2026-08-31T05:37:51.4660000+00:00</time>
      </trkpt>
      <trkpt lat="52.15616" lon="10.85266">
        <ele>217.47</ele>
        <time>2026-08-31T05:38:21.5710000+00:00</time>
      </trkpt>
      <trkpt lat="52.15609" lon="10.85264">
        <ele>216.76</ele>
        <time>2026-08-31T05:38:24.2760000+00:00</time>
      </trkpt>
      <trkpt lat="52.15572" lon="10.85237">
        <ele>213.46</ele>
        <time>2026-08-31T05:38:39.7080000+00:00</time>
      </trkpt>
      <trkpt lat="52.15554" lon="10.85227">
        <ele>210.98</ele>
        <time>2026-08-31T05:38:46.9470000+00:00</time>
      </trkpt>
      <trkpt lat="52.15535" lon="10.85252">
        <ele>207.98</ele>
        <time>2026-08-31T05:38:56.2420000+00:00</time>
      </trkpt>
      <trkpt lat="52.15531" lon="10.85262">
        <ele>207.33</ele>
        <time>2026-08-31T05:38:59.0300000+00:00</time>
      </trkpt>
      <trkpt lat="52.15524" lon="10.85293">
        <ele>207.22</ele>
        <time>2026-08-31T05:39:06.7450000+00:00</time>
      </trkpt>
      <trkpt lat="52.15522" lon="10.85321">
        <ele>207.74</ele>
        <time>2026-08-31T05:39:13.3280000+00:00</time>
      </trkpt>
      <trkpt lat="52.15512" lon="10.85453">
        <ele>210.58</ele>
        <time>2026-08-31T05:39:44.3910000+00:00</time>
      </trkpt>
      <trkpt lat="52.15508" lon="10.85501">
        <ele>212.05</ele>
        <time>2026-08-31T05:39:55.7040000+00:00</time>
      </trkpt>
      <trkpt lat="52.15505" lon="10.8554">
        <ele>212.49</ele>
        <time>2026-08-31T05:40:04.8830000+00:00</time>
      </trkpt>
      <trkpt lat="52.15495" lon="10.85672">
        <ele>212.96</ele>
        <time>2026-08-31T05:40:35.9460000+00:00</time>
      </trkpt>
      <trkpt lat="52.1549" lon="10.85743">
        <ele>212.44</ele>
        <time>2026-08-31T05:40:52.6370000+00:00</time>
      </trkpt>
      <trkpt lat="52.15485" lon="10.85803">
        <ele>212.22</ele>
        <time>2026-08-31T05:41:06.7780000+00:00</time>
      </trkpt>
      <trkpt lat="52.15484" lon="10.85825">
        <ele>212.37</ele>
        <time>2026-08-31T05:41:11.9300000+00:00</time>
      </trkpt>
      <trkpt lat="52.15478" lon="10.85928">
        <ele>212.23</ele>
        <time>2026-08-31T05:41:36.0940000+00:00</time>
      </trkpt>
      <trkpt lat="52.15462" lon="10.85966">
        <ele>211.3</ele>
        <time>2026-08-31T05:41:46.8580000+00:00</time>
      </trkpt>
      <trkpt lat="52.15438" lon="10.85994">
        <ele>210.27</ele>
        <time>2026-08-31T05:41:58.0930000+00:00</time>
      </trkpt>
      <trkpt lat="52.15428" lon="10.86003">
        <ele>209.94</ele>
        <time>2026-08-31T05:42:02.4420000+00:00</time>
      </trkpt>
      <trkpt lat="52.15398" lon="10.86063">
        <ele>209.21</ele>
        <time>2026-08-31T05:42:20.5190000+00:00</time>
      </trkpt>
      <trkpt lat="52.15388" lon="10.86072">
        <ele>208.67</ele>
        <time>2026-08-31T05:42:24.8670000+00:00</time>
      </trkpt>
      <trkpt lat="52.1538" lon="10.86075">
        <ele>208.19</ele>
        <time>2026-08-31T05:42:27.9920000+00:00</time>
      </trkpt>
      <trkpt lat="52.15377" lon="10.86083">
        <ele>208.15</ele>
        <time>2026-08-31T05:42:30.1820000+00:00</time>
      </trkpt>
      <trkpt lat="52.15356" lon="10.86125">
        <ele>207.9</ele>
        <time>2026-08-31T05:42:42.8360000+00:00</time>
      </trkpt>
      <trkpt lat="52.15347" lon="10.86141">
        <ele>207.9</ele>
        <time>2026-08-31T05:42:47.9060000+00:00</time>
      </trkpt>
      <trkpt lat="52.15328" lon="10.86167">
        <ele>207.89</ele>
        <time>2026-08-31T05:42:57.3500000+00:00</time>
      </trkpt>
      <trkpt lat="52.15316" lon="10.86188">
        <ele>207.93</ele>
        <time>2026-08-31T05:43:04.0520000+00:00</time>
      </trkpt>
      <trkpt lat="52.15302" lon="10.86207">
        <ele>207.49</ele>
        <time>2026-08-31T05:43:10.9870000+00:00</time>
      </trkpt>
      <trkpt lat="52.15293" lon="10.86218">
        <ele>207.26</ele>
        <time>2026-08-31T05:43:15.2690000+00:00</time>
      </trkpt>
      <trkpt lat="52.15285" lon="10.8623">
        <ele>207.25</ele>
        <time>2026-08-31T05:43:19.4080000+00:00</time>
      </trkpt>
      <trkpt lat="52.15279" lon="10.86244">
        <ele>207.56</ele>
        <time>2026-08-31T05:43:23.3960000+00:00</time>
      </trkpt>
      <trkpt lat="52.1526" lon="10.86277">
        <ele>208.25</ele>
        <time>2026-08-31T05:43:33.9660000+00:00</time>
      </trkpt>
      <trkpt lat="52.15243" lon="10.86311">
        <ele>209.28</ele>
        <time>2026-08-31T05:43:44.2100000+00:00</time>
      </trkpt>
      <trkpt lat="52.15244" lon="10.86315">
        <ele>209.57</ele>
        <time>2026-08-31T05:43:45.2190000+00:00</time>
      </trkpt>
      <trkpt lat="52.15248" lon="10.86323">
        <ele>210.24</ele>
        <time>2026-08-31T05:43:47.6290000+00:00</time>
      </trkpt>
      <trkpt lat="52.15265" lon="10.86364">
        <ele>213.88</ele>
        <time>2026-08-31T05:43:59.1870000+00:00</time>
      </trkpt>
      <trkpt lat="52.15279" lon="10.86392">
        <ele>216.69</ele>
        <time>2026-08-31T05:44:07.6230000+00:00</time>
      </trkpt>
      <trkpt lat="52.15286" lon="10.86405">
        <ele>217.98</ele>
        <time>2026-08-31T05:44:11.6620000+00:00</time>
      </trkpt>
      <trkpt lat="52.15307" lon="10.86434">
        <ele>220.86</ele>
        <time>2026-08-31T05:44:22.1400000+00:00</time>
      </trkpt>
      <trkpt lat="52.15324" lon="10.8645">
        <ele>222.48</ele>
        <time>2026-08-31T05:44:29.6130000+00:00</time>
      </trkpt>
      <trkpt lat="52.15338" lon="10.86462">
        <ele>223.93</ele>
        <time>2026-08-31T05:44:35.6340000+00:00</time>
      </trkpt>
      <trkpt lat="52.15376" lon="10.86492">
        <ele>228.38</ele>
        <time>2026-08-31T05:44:51.7070000+00:00</time>
      </trkpt>
      <trkpt lat="52.15398" lon="10.86511">
        <ele>231.56</ele>
        <time>2026-08-31T05:45:01.1850000+00:00</time>
      </trkpt>
      <trkpt lat="52.15435" lon="10.86531">
        <ele>233.58</ele>
        <time>2026-08-31T05:45:16.0240000+00:00</time>
      </trkpt>
      <trkpt lat="52.15473" lon="10.86546">
        <ele>235.88</ele>
        <time>2026-08-31T05:45:30.9070000+00:00</time>
      </trkpt>
      <trkpt lat="52.15503" lon="10.86559">
        <ele>238.67</ele>
        <time>2026-08-31T05:45:42.7230000+00:00</time>
      </trkpt>
      <trkpt lat="52.15536" lon="10.86574">
        <ele>242.19</ele>
        <time>2026-08-31T05:45:55.7650000+00:00</time>
      </trkpt>
      <trkpt lat="52.15566" lon="10.8659">
        <ele>245.41</ele>
        <time>2026-08-31T05:46:07.7800000+00:00</time>
      </trkpt>
      <trkpt lat="52.15603" lon="10.86606">
        <ele>248.29</ele>
        <time>2026-08-31T05:46:22.3520000+00:00</time>
      </trkpt>
      <trkpt lat="52.15647" lon="10.86626">
        <ele>251.26</ele>
        <time>2026-08-31T05:46:39.7410000+00:00</time>
      </trkpt>
      <trkpt lat="52.15688" lon="10.86644">
        <ele>253.54</ele>
        <time>2026-08-31T05:46:55.9040000+00:00</time>
      </trkpt>
      <trkpt lat="52.15702" lon="10.86651">
        <ele>254.25</ele>
        <time>2026-08-31T05:47:01.4780000+00:00</time>
      </trkpt>
      <trkpt lat="52.15729" lon="10.86664">
        <ele>255.45</ele>
        <time>2026-08-31T05:47:12.1950000+00:00</time>
      </trkpt>
      <trkpt lat="52.15731" lon="10.86716">
        <ele>258.12</ele>
        <time>2026-08-31T05:47:24.3630000+00:00</time>
      </trkpt>
      <trkpt lat="52.1573" lon="10.86729">
        <ele>258.86</ele>
        <time>2026-08-31T05:47:27.4230000+00:00</time>
      </trkpt>
      <trkpt lat="52.15719" lon="10.86787">
        <ele>260.67</ele>
        <time>2026-08-31T05:47:41.6000000+00:00</time>
      </trkpt>
      <trkpt lat="52.15709" lon="10.86844">
        <ele>260.99</ele>
        <time>2026-08-31T05:47:55.4460000+00:00</time>
      </trkpt>
      <trkpt lat="52.15703" lon="10.86885">
        <ele>260.78</ele>
        <time>2026-08-31T05:48:05.2890000+00:00</time>
      </trkpt>
      <trkpt lat="52.15701" lon="10.86899">
        <ele>260.71</ele>
        <time>2026-08-31T05:48:08.6460000+00:00</time>
      </trkpt>
      <trkpt lat="52.15697" lon="10.86912">
        <ele>260.56</ele>
        <time>2026-08-31T05:48:12.0430000+00:00</time>
      </trkpt>
      <trkpt lat="52.15684" lon="10.8699">
        <ele>259.14</ele>
        <time>2026-08-31T05:48:30.9190000+00:00</time>
      </trkpt>
      <trkpt lat="52.15671" lon="10.87056">
        <ele>257.39</ele>
        <time>2026-08-31T05:48:47.1070000+00:00</time>
      </trkpt>
      <trkpt lat="52.15664" lon="10.87086">
        <ele>256.61</ele>
        <time>2026-08-31T05:48:54.6030000+00:00</time>
      </trkpt>
      <trkpt lat="52.15652" lon="10.87113">
        <ele>255.38</ele>
        <time>2026-08-31T05:49:02.3900000+00:00</time>
      </trkpt>
      <trkpt lat="52.15636" lon="10.8713">
        <ele>253.51</ele>
        <time>2026-08-31T05:49:09.6600000+00:00</time>
      </trkpt>
      <trkpt lat="52.15622" lon="10.87158">
        <ele>251.92</ele>
        <time>2026-08-31T05:49:18.0960000+00:00</time>
      </trkpt>
      <trkpt lat="52.15617" lon="10.87188">
        <ele>251.47</ele>
        <time>2026-08-31T05:49:25.3560000+00:00</time>
      </trkpt>
      <trkpt lat="52.15616" lon="10.87204">
        <ele>251.58</ele>
        <time>2026-08-31T05:49:29.1120000+00:00</time>
      </trkpt>
      <trkpt lat="52.1561" lon="10.8724">
        <ele>251.64</ele>
        <time>2026-08-31T05:49:37.8240000+00:00</time>
      </trkpt>
      <trkpt lat="52.15596" lon="10.87306">
        <ele>252.15</ele>
        <time>2026-08-31T05:49:54.1330000+00:00</time>
      </trkpt>
      <trkpt lat="52.15578" lon="10.87365">
        <ele>252.51</ele>
        <time>2026-08-31T05:50:09.5220000+00:00</time>
      </trkpt>
      <trkpt lat="52.15576" lon="10.87389">
        <ele>252.71</ele>
        <time>2026-08-31T05:50:15.1780000+00:00</time>
      </trkpt>
      <trkpt lat="52.1557" lon="10.87429">
        <ele>253.09</ele>
        <time>2026-08-31T05:50:24.7950000+00:00</time>
      </trkpt>
      <trkpt lat="52.1557" lon="10.87478">
        <ele>255.45</ele>
        <time>2026-08-31T05:50:36.2390000+00:00</time>
      </trkpt>
      <trkpt lat="52.15571" lon="10.87494">
        <ele>256.21</ele>
        <time>2026-08-31T05:50:39.9950000+00:00</time>
      </trkpt>
      <trkpt lat="52.15569" lon="10.87535">
        <ele>258.8</ele>
        <time>2026-08-31T05:50:49.6000000+00:00</time>
      </trkpt>
      <trkpt lat="52.15567" lon="10.8755">
        <ele>259.9</ele>
        <time>2026-08-31T05:50:53.1850000+00:00</time>
      </trkpt>
      <trkpt lat="52.15569" lon="10.87579">
        <ele>261.95</ele>
        <time>2026-08-31T05:51:00.0010000+00:00</time>
      </trkpt>
      <trkpt lat="52.15575" lon="10.87596">
        <ele>263.06</ele>
        <time>2026-08-31T05:51:04.5810000+00:00</time>
      </trkpt>
      <trkpt lat="52.15587" lon="10.87615">
        <ele>263.88</ele>
        <time>2026-08-31T05:51:10.9500000+00:00</time>
      </trkpt>
      <trkpt lat="52.15605" lon="10.87632">
        <ele>264.62</ele>
        <time>2026-08-31T05:51:18.8690000+00:00</time>
      </trkpt>
      <trkpt lat="52.15616" lon="10.87668">
        <ele>266.51</ele>
        <time>2026-08-31T05:51:28.2610000+00:00</time>
      </trkpt>
      <trkpt lat="52.15618" lon="10.87697">
        <ele>267.21</ele>
        <time>2026-08-31T05:51:35.0760000+00:00</time>
      </trkpt>
      <trkpt lat="52.1562" lon="10.87718">
        <ele>267.4</ele>
        <time>2026-08-31T05:51:40.0390000+00:00</time>
      </trkpt>
      <trkpt lat="52.15623" lon="10.87798">
        <ele>268.64</ele>
        <time>2026-08-31T05:51:58.7580000+00:00</time>
      </trkpt>
      <trkpt lat="52.15625" lon="10.8782">
        <ele>269.12</ele>
        <time>2026-08-31T05:52:03.9520000+00:00</time>
      </trkpt>
      <trkpt lat="52.15626" lon="10.87843">
        <ele>269.65</ele>
        <time>2026-08-31T05:52:09.3370000+00:00</time>
      </trkpt>
      <trkpt lat="52.15636" lon="10.87925">
        <ele>272.72</ele>
        <time>2026-08-31T05:52:28.8620000+00:00</time>
      </trkpt>
      <trkpt lat="52.15646" lon="10.88002">
        <ele>275.46</ele>
        <time>2026-08-31T05:52:47.2430000+00:00</time>
      </trkpt>
      <trkpt lat="52.15644" lon="10.8807">
        <ele>276.37</ele>
        <time>2026-08-31T05:53:03.1420000+00:00</time>
      </trkpt>
      <trkpt lat="52.1564" lon="10.88088">
        <ele>276.45</ele>
        <time>2026-08-31T05:53:07.6130000+00:00</time>
      </trkpt>
      <trkpt lat="52.15623" lon="10.88096">
        <ele>275.93</ele>
        <time>2026-08-31T05:53:14.3480000+00:00</time>
      </trkpt>
      <trkpt lat="52.1561" lon="10.88092">
        <ele>275.41</ele>
        <time>2026-08-31T05:53:19.3840000+00:00</time>
      </trkpt>
      <trkpt lat="52.15534" lon="10.88057">
        <ele>273.37</ele>
        <time>2026-08-31T05:53:49.4470000+00:00</time>
      </trkpt>
      <trkpt lat="52.1544" lon="10.88005">
        <ele>271.4</ele>
        <time>2026-08-31T05:54:27.2340000+00:00</time>
      </trkpt>
      <trkpt lat="52.15367" lon="10.87964">
        <ele>269.71</ele>
        <time>2026-08-31T05:54:56.6260000+00:00</time>
      </trkpt>
      <trkpt lat="52.15338" lon="10.8796">
        <ele>268.98</ele>
        <time>2026-08-31T05:55:07.7050000+00:00</time>
      </trkpt>
      <trkpt lat="52.15252" lon="10.8801">
        <ele>266.88</ele>
        <time>2026-08-31T05:55:42.4630000+00:00</time>
      </trkpt>
      <trkpt lat="52.15172" lon="10.88011">
        <ele>262.87</ele>
        <time>2026-08-31T05:56:12.9170000+00:00</time>
      </trkpt>
      <trkpt lat="52.15138" lon="10.88009">
        <ele>260.28</ele>
        <time>2026-08-31T05:56:25.8680000+00:00</time>
      </trkpt>
      <trkpt lat="52.15094" lon="10.87984">
        <ele>256.41</ele>
        <time>2026-08-31T05:56:43.6060000+00:00</time>
      </trkpt>
      <trkpt lat="52.15058" lon="10.87959">
        <ele>253.88</ele>
        <time>2026-08-31T05:56:58.5020000+00:00</time>
      </trkpt>
      <trkpt lat="52.15049" lon="10.87952">
        <ele>253.07</ele>
        <time>2026-08-31T05:57:02.2980000+00:00</time>
      </trkpt>
      <trkpt lat="52.150149999999996" lon="10.87915">
        <ele>249.96</ele>
        <time>2026-08-31T05:57:17.8610000+00:00</time>
      </trkpt>
      <trkpt lat="52.14965" lon="10.87882">
        <ele>245.3</ele>
        <time>2026-08-31T05:57:38.3950000+00:00</time>
      </trkpt>
      <trkpt lat="52.14956" lon="10.87877">
        <ele>244.54</ele>
        <time>2026-08-31T05:57:42.0150000+00:00</time>
      </trkpt>
      <trkpt lat="52.14905" lon="10.87912">
        <ele>238.43</ele>
        <time>2026-08-31T05:58:03.0800000+00:00</time>
      </trkpt>
      <trkpt lat="52.14902" lon="10.87924">
        <ele>237.82</ele>
        <time>2026-08-31T05:58:06.1070000+00:00</time>
      </trkpt>
      <trkpt lat="52.149" lon="10.87979">
        <ele>237.07</ele>
        <time>2026-08-31T05:58:18.9760000+00:00</time>
      </trkpt>
      <trkpt lat="52.14909" lon="10.8805">
        <ele>237.85</ele>
        <time>2026-08-31T05:58:35.9110000+00:00</time>
      </trkpt>
      <trkpt lat="52.14885" lon="10.88104">
        <ele>240.15</ele>
        <time>2026-08-31T05:58:51.4850000+00:00</time>
      </trkpt>
      <trkpt lat="52.1487" lon="10.881">
        <ele>240.44</ele>
        <time>2026-08-31T05:58:57.2710000+00:00</time>
      </trkpt>
      <trkpt lat="52.1477" lon="10.88045">
        <ele>237.14</ele>
        <time>2026-08-31T05:59:37.4470000+00:00</time>
      </trkpt>
      <trkpt lat="52.14735" lon="10.88043">
        <ele>236.9</ele>
        <time>2026-08-31T05:59:50.7780000+00:00</time>
      </trkpt>
      <trkpt lat="52.14698" lon="10.88072">
        <ele>234.96</ele>
        <time>2026-08-31T06:00:06.4070000+00:00</time>
      </trkpt>
      <trkpt lat="52.14679" lon="10.88105">
        <ele>234.13</ele>
        <time>2026-08-31T06:00:16.9770000+00:00</time>
      </trkpt>
      <trkpt lat="52.14672" lon="10.88145">
        <ele>234.92</ele>
        <time>2026-08-31T06:00:26.6930000+00:00</time>
      </trkpt>
      <trkpt lat="52.14695" lon="10.88147">
        <ele>239.04</ele>
        <time>2026-08-31T06:00:35.4610000+00:00</time>
      </trkpt>
      <trkpt lat="52.14723" lon="10.88151">
        <ele>244.24</ele>
        <time>2026-08-31T06:00:46.1610000+00:00</time>
      </trkpt>
      <trkpt lat="52.14726" lon="10.8817">
        <ele>246.24</ele>
        <time>2026-08-31T06:00:50.7440000+00:00</time>
      </trkpt>
      <trkpt lat="52.14718" lon="10.88243">
        <ele>248.59</ele>
        <time>2026-08-31T06:01:08.0650000+00:00</time>
      </trkpt>
      <trkpt lat="52.14716" lon="10.88256">
        <ele>248.89</ele>
        <time>2026-08-31T06:01:11.1960000+00:00</time>
      </trkpt>
      <trkpt lat="52.14696" lon="10.88363">
        <ele>252.68</ele>
        <time>2026-08-31T06:01:37.3240000+00:00</time>
      </trkpt>
      <trkpt lat="52.14691" lon="10.88391">
        <ele>253.59</ele>
        <time>2026-08-31T06:01:44.1360000+00:00</time>
      </trkpt>
      <trkpt lat="52.14685" lon="10.88426">
        <ele>254.75</ele>
        <time>2026-08-31T06:01:52.6240000+00:00</time>
      </trkpt>
      <trkpt lat="52.14681" lon="10.88446">
        <ele>254.86</ele>
        <time>2026-08-31T06:01:57.5380000+00:00</time>
      </trkpt>
      <trkpt lat="52.14662" lon="10.8853">
        <ele>255.06</ele>
        <time>2026-08-31T06:02:18.4500000+00:00</time>
      </trkpt>
      <trkpt lat="52.14657" lon="10.88553">
        <ele>254.76</ele>
        <time>2026-08-31T06:02:24.1500000+00:00</time>
      </trkpt>
      <trkpt lat="52.14653" lon="10.88568">
        <ele>254.51</ele>
        <time>2026-08-31T06:02:27.9710000+00:00</time>
      </trkpt>
      <trkpt lat="52.1465" lon="10.88589">
        <ele>254.46</ele>
        <time>2026-08-31T06:02:33.0070000+00:00</time>
      </trkpt>
      <trkpt lat="52.14623" lon="10.88611">
        <ele>252.2</ele>
        <time>2026-08-31T06:02:44.4990000+00:00</time>
      </trkpt>
      <trkpt lat="52.14601" lon="10.88605">
        <ele>249.7</ele>
        <time>2026-08-31T06:02:52.9900000+00:00</time>
      </trkpt>
      <trkpt lat="52.14598" lon="10.8861">
        <ele>249.59</ele>
        <time>2026-08-31T06:02:54.6230000+00:00</time>
      </trkpt>
      <trkpt lat="52.14594" lon="10.88623">
        <ele>249.72</ele>
        <time>2026-08-31T06:02:58.0200000+00:00</time>
      </trkpt>
      <trkpt lat="52.14586" lon="10.88642">
        <ele>249.75</ele>
        <time>2026-08-31T06:03:03.4030000+00:00</time>
      </trkpt>
      <trkpt lat="52.14582" lon="10.88656">
        <ele>250.01</ele>
        <time>2026-08-31T06:03:07.0100000+00:00</time>
      </trkpt>
      <trkpt lat="52.14572" lon="10.88704">
        <ele>251.07</ele>
        <time>2026-08-31T06:03:18.8520000+00:00</time>
      </trkpt>
      <trkpt lat="52.14559" lon="10.88734">
        <ele>250.39</ele>
        <time>2026-08-31T06:03:27.4310000+00:00</time>
      </trkpt>
      <trkpt lat="52.14549" lon="10.88771">
        <ele>250.5</ele>
        <time>2026-08-31T06:03:36.8750000+00:00</time>
      </trkpt>
      <trkpt lat="52.14534" lon="10.88805">
        <ele>250.16</ele>
        <time>2026-08-31T06:03:46.6570000+00:00</time>
      </trkpt>
      <trkpt lat="52.14519" lon="10.8885">
        <ele>251.1</ele>
        <time>2026-08-31T06:03:58.6190000+00:00</time>
      </trkpt>
      <trkpt lat="52.14504" lon="10.88874">
        <ele>251.7</ele>
        <time>2026-08-31T06:04:06.6210000+00:00</time>
      </trkpt>
      <trkpt lat="52.14492" lon="10.88903">
        <ele>253.28</ele>
        <time>2026-08-31T06:04:14.7920000+00:00</time>
      </trkpt>
      <trkpt lat="52.14474" lon="10.88969">
        <ele>252.85</ele>
        <time>2026-08-31T06:04:31.6640000+00:00</time>
      </trkpt>
      <trkpt lat="52.14465" lon="10.89002">
        <ele>251.96</ele>
        <time>2026-08-31T06:04:40.1000000+00:00</time>
      </trkpt>
      <trkpt lat="52.14451" lon="10.89051">
        <ele>251.46</ele>
        <time>2026-08-31T06:04:52.7260000+00:00</time>
      </trkpt>
      <trkpt lat="52.14433" lon="10.8912">
        <ele>251.52</ele>
        <time>2026-08-31T06:05:10.2400000+00:00</time>
      </trkpt>
      <trkpt lat="52.14429" lon="10.89136">
        <ele>251.41</ele>
        <time>2026-08-31T06:05:14.2760000+00:00</time>
      </trkpt>
      <trkpt lat="52.14425" lon="10.8916">
        <ele>251.51</ele>
        <time>2026-08-31T06:05:20.0860000+00:00</time>
      </trkpt>
      <trkpt lat="52.14425" lon="10.892">
        <ele>253.03</ele>
        <time>2026-08-31T06:05:29.4300000+00:00</time>
      </trkpt>
      <trkpt lat="52.14432" lon="10.89234">
        <ele>255.51</ele>
        <time>2026-08-31T06:05:37.8080000+00:00</time>
      </trkpt>
      <trkpt lat="52.14433" lon="10.8926">
        <ele>256.82</ele>
        <time>2026-08-31T06:05:43.8930000+00:00</time>
      </trkpt>
      <trkpt lat="52.14426" lon="10.89294">
        <ele>258.44</ele>
        <time>2026-08-31T06:05:52.2710000+00:00</time>
      </trkpt>
      <trkpt lat="52.14393" lon="10.89376">
        <ele>259.37</ele>
        <time>2026-08-31T06:06:15.1780000+00:00</time>
      </trkpt>
      <trkpt lat="52.14372" lon="10.89424">
        <ele>259.37</ele>
        <time>2026-08-31T06:06:28.9490000+00:00</time>
      </trkpt>
      <trkpt lat="52.14353" lon="10.89441">
        <ele>257.9</ele>
        <time>2026-08-31T06:06:37.2000000+00:00</time>
      </trkpt>
      <trkpt lat="52.14322" lon="10.89446">
        <ele>254.8</ele>
        <time>2026-08-31T06:06:49.0590000+00:00</time>
      </trkpt>
      <trkpt lat="52.14293" lon="10.89489">
        <ele>251.87</ele>
        <time>2026-08-31T06:07:03.9840000+00:00</time>
      </trkpt>
      <trkpt lat="52.14283" lon="10.89513">
        <ele>251.54</ele>
        <time>2026-08-31T06:07:10.7610000+00:00</time>
      </trkpt>
      <trkpt lat="52.14272" lon="10.89544">
        <ele>250.63</ele>
        <time>2026-08-31T06:07:19.1260000+00:00</time>
      </trkpt>
      <trkpt lat="52.14259" lon="10.89576">
        <ele>249.82</ele>
        <time>2026-08-31T06:07:28.0910000+00:00</time>
      </trkpt>
      <trkpt lat="52.14245" lon="10.89616">
        <ele>248.48</ele>
        <time>2026-08-31T06:07:38.8490000+00:00</time>
      </trkpt>
      <trkpt lat="52.14236" lon="10.89661">
        <ele>246.73</ele>
        <time>2026-08-31T06:07:49.9060000+00:00</time>
      </trkpt>
      <trkpt lat="52.14237" lon="10.8969">
        <ele>246.6</ele>
        <time>2026-08-31T06:07:56.6910000+00:00</time>
      </trkpt>
      <trkpt lat="52.14236" lon="10.89704">
        <ele>246.24</ele>
        <time>2026-08-31T06:07:59.9840000+00:00</time>
      </trkpt>
      <trkpt lat="52.14224" lon="10.89796">
        <ele>242.78</ele>
        <time>2026-08-31T06:08:21.9570000+00:00</time>
      </trkpt>
      <trkpt lat="52.14223" lon="10.89815">
        <ele>242.29</ele>
        <time>2026-08-31T06:08:26.4120000+00:00</time>
      </trkpt>
      <trkpt lat="52.14229" lon="10.89842">
        <ele>242.69</ele>
        <time>2026-08-31T06:08:33.1200000+00:00</time>
      </trkpt>
      <trkpt lat="52.14239" lon="10.89851">
        <ele>244.31</ele>
        <time>2026-08-31T06:08:37.4690000+00:00</time>
      </trkpt>
      <trkpt lat="52.14276" lon="10.89846">
        <ele>247.78</ele>
        <time>2026-08-31T06:08:51.6020000+00:00</time>
      </trkpt>
      <trkpt lat="52.1429" lon="10.89852">
        <ele>249.38</ele>
        <time>2026-08-31T06:08:57.1120000+00:00</time>
      </trkpt>
      <trkpt lat="52.14328" lon="10.89863">
        <ele>253.47</ele>
        <time>2026-08-31T06:09:11.8040000+00:00</time>
      </trkpt>
      <trkpt lat="52.14354" lon="10.89868">
        <ele>255.48</ele>
        <time>2026-08-31T06:09:21.7700000+00:00</time>
      </trkpt>
      <trkpt lat="52.14381" lon="10.89866">
        <ele>257.25</ele>
        <time>2026-08-31T06:09:32.0580000+00:00</time>
      </trkpt>
      <trkpt lat="52.14396" lon="10.89865">
        <ele>258.24</ele>
        <time>2026-08-31T06:09:37.7730000+00:00</time>
      </trkpt>
      <trkpt lat="52.14444" lon="10.89882">
        <ele>261.35</ele>
        <time>2026-08-31T06:09:56.4710000+00:00</time>
      </trkpt>
      <trkpt lat="52.14456" lon="10.89891">
        <ele>262.13</ele>
        <time>2026-08-31T06:10:01.5000000+00:00</time>
      </trkpt>
      <trkpt lat="52.14473" lon="10.89903">
        <ele>263.1</ele>
        <time>2026-08-31T06:10:08.5520000+00:00</time>
      </trkpt>
      <trkpt lat="52.1448" lon="10.8991">
        <ele>263.5</ele>
        <time>2026-08-31T06:10:11.6790000+00:00</time>
      </trkpt>
      <trkpt lat="52.14494" lon="10.89919">
        <ele>264.32</ele>
        <time>2026-08-31T06:10:17.4080000+00:00</time>
      </trkpt>
      <trkpt lat="52.14512" lon="10.89944">
        <ele>266.09</ele>
        <time>2026-08-31T06:10:26.4110000+00:00</time>
      </trkpt>
      <trkpt lat="52.14518" lon="10.89974">
        <ele>267.31</ele>
        <time>2026-08-31T06:10:33.7820000+00:00</time>
      </trkpt>
      <trkpt lat="52.14521" lon="10.89989">
        <ele>267.84</ele>
        <time>2026-08-31T06:10:37.4670000+00:00</time>
      </trkpt>
      <trkpt lat="52.14543" lon="10.90029">
        <ele>269.41</ele>
        <time>2026-08-31T06:10:50.0150000+00:00</time>
      </trkpt>
      <trkpt lat="52.14573" lon="10.90026">
        <ele>269.65</ele>
        <time>2026-08-31T06:11:01.4560000+00:00</time>
      </trkpt>
      <trkpt lat="52.146" lon="10.90025">
        <ele>269.81</ele>
        <time>2026-08-31T06:11:11.7370000+00:00</time>
      </trkpt>
      <trkpt lat="52.14627" lon="10.90015">
        <ele>269.4</ele>
        <time>2026-08-31T06:11:22.2770000+00:00</time>
      </trkpt>
      <trkpt lat="52.14655" lon="10.89959">
        <ele>268.46</ele>
        <time>2026-08-31T06:11:39.1500000+00:00</time>
      </trkpt>
      <trkpt lat="52.14662" lon="10.89939">
        <ele>269.01</ele>
        <time>2026-08-31T06:11:44.5290000+00:00</time>
      </trkpt>
      <trkpt lat="52.14685" lon="10.89925">
        <ele>271.67</ele>
        <time>2026-08-31T06:11:53.8750000+00:00</time>
      </trkpt>
      <trkpt lat="52.147" lon="10.89938">
        <ele>273.29</ele>
        <time>2026-08-31T06:12:00.3420000+00:00</time>
      </trkpt>
      <trkpt lat="52.14707" lon="10.89948">
        <ele>273.89</ele>
        <time>2026-08-31T06:12:03.8860000+00:00</time>
      </trkpt>
      <trkpt lat="52.14741" lon="10.90005">
        <ele>275.51</ele>
        <time>2026-08-31T06:12:22.4540000+00:00</time>
      </trkpt>
      <trkpt lat="52.14754" lon="10.90026">
        <ele>278.06</ele>
        <time>2026-08-31T06:12:29.4220000+00:00</time>
      </trkpt>
      <trkpt lat="52.1478" lon="10.90036">
        <ele>281.4</ele>
        <time>2026-08-31T06:12:39.5910000+00:00</time>
      </trkpt>
      <trkpt lat="52.14788" lon="10.90029">
        <ele>281.93</ele>
        <time>2026-08-31T06:12:43.0480000+00:00</time>
      </trkpt>
      <trkpt lat="52.14806" lon="10.89999">
        <ele>283.17</ele>
        <time>2026-08-31T06:12:52.8490000+00:00</time>
      </trkpt>
      <trkpt lat="52.14817" lon="10.89983">
        <ele>284.28</ele>
        <time>2026-08-31T06:12:58.4610000+00:00</time>
      </trkpt>
      <trkpt lat="52.14828" lon="10.89971">
        <ele>284.91</ele>
        <time>2026-08-31T06:13:03.5000000+00:00</time>
      </trkpt>
      <trkpt lat="52.14867" lon="10.89945">
        <ele>285.87</ele>
        <time>2026-08-31T06:13:19.5400000+00:00</time>
      </trkpt>
      <trkpt lat="52.14881" lon="10.89941">
        <ele>286.18</ele>
        <time>2026-08-31T06:13:24.9510000+00:00</time>
      </trkpt>
      <trkpt lat="52.14914" lon="10.89967">
        <ele>288.93</ele>
        <time>2026-08-31T06:13:38.9040000+00:00</time>
      </trkpt>
      <trkpt lat="52.1492" lon="10.8998">
        <ele>289.93</ele>
        <time>2026-08-31T06:13:42.7030000+00:00</time>
      </trkpt>
      <trkpt lat="52.1494" lon="10.90022">
        <ele>292.78</ele>
        <time>2026-08-31T06:13:55.1210000+00:00</time>
      </trkpt>
      <trkpt lat="52.14978" lon="10.90035">
        <ele>294.62</ele>
        <time>2026-08-31T06:14:09.9020000+00:00</time>
      </trkpt>
      <trkpt lat="52.15038" lon="10.90028">
        <ele>295.49</ele>
        <time>2026-08-31T06:14:32.8000000+00:00</time>
      </trkpt>
      <trkpt lat="52.15101" lon="10.90052">
        <ele>296.88</ele>
        <time>2026-08-31T06:14:57.4280000+00:00</time>
      </trkpt>
      <trkpt lat="52.15122" lon="10.9009">
        <ele>296.65</ele>
        <time>2026-08-31T06:15:09.3730000+00:00</time>
      </trkpt>
      <trkpt lat="52.15132" lon="10.90129">
        <ele>297.42</ele>
        <time>2026-08-31T06:15:19.2460000+00:00</time>
      </trkpt>
      <trkpt lat="52.15143" lon="10.90155">
        <ele>297.83</ele>
        <time>2026-08-31T06:15:26.6220000+00:00</time>
      </trkpt>
      <trkpt lat="52.15194" lon="10.90176">
        <ele>298.03</ele>
        <time>2026-08-31T06:15:46.6460000+00:00</time>
      </trkpt>
      <trkpt lat="52.15202" lon="10.90172">
        <ele>297.93</ele>
        <time>2026-08-31T06:15:49.8310000+00:00</time>
      </trkpt>
      <trkpt lat="52.15224" lon="10.90161">
        <ele>297.55</ele>
        <time>2026-08-31T06:15:58.5910000+00:00</time>
      </trkpt>
      <trkpt lat="52.15311" lon="10.90172">
        <ele>300.52</ele>
        <time>2026-08-31T06:16:31.8080000+00:00</time>
      </trkpt>
      <trkpt lat="52.1532" lon="10.90173">
        <ele>300.89</ele>
        <time>2026-08-31T06:16:35.2420000+00:00</time>
      </trkpt>
      <trkpt lat="52.15408" lon="10.90144">
        <ele>299.81</ele>
        <time>2026-08-31T06:17:09.4190000+00:00</time>
      </trkpt>
      <trkpt lat="52.15423" lon="10.90138">
        <ele>299.31</ele>
        <time>2026-08-31T06:17:15.2980000+00:00</time>
      </trkpt>
      <trkpt lat="52.15452" lon="10.90144">
        <ele>298.95</ele>
        <time>2026-08-31T06:17:26.4260000+00:00</time>
      </trkpt>
      <trkpt lat="52.15477" lon="10.90138">
        <ele>298.3</ele>
        <time>2026-08-31T06:17:36.0450000+00:00</time>
      </trkpt>
      <trkpt lat="52.1549" lon="10.90137">
        <ele>298.16</ele>
        <time>2026-08-31T06:17:40.9990000+00:00</time>
      </trkpt>
      <trkpt lat="52.15507" lon="10.90129">
        <ele>298.4</ele>
        <time>2026-08-31T06:17:47.7350000+00:00</time>
      </trkpt>
      <trkpt lat="52.1552" lon="10.90121">
        <ele>298.61</ele>
        <time>2026-08-31T06:17:53.0240000+00:00</time>
      </trkpt>
      <trkpt lat="52.15528" lon="10.90114">
        <ele>298.75</ele>
        <time>2026-08-31T06:17:56.4810000+00:00</time>
      </trkpt>
      <trkpt lat="52.15556" lon="10.90093">
        <ele>299.49</ele>
        <time>2026-08-31T06:18:08.2130000+00:00</time>
      </trkpt>
      <trkpt lat="52.15613" lon="10.9007">
        <ele>299.48</ele>
        <time>2026-08-31T06:18:30.5660000+00:00</time>
      </trkpt>
      <trkpt lat="52.15665" lon="10.90066">
        <ele>299.15</ele>
        <time>2026-08-31T06:18:50.3830000+00:00</time>
      </trkpt>
      <trkpt lat="52.15683" lon="10.90055">
        <ele>298.57</ele>
        <time>2026-08-31T06:18:57.7010000+00:00</time>
      </trkpt>
      <trkpt lat="52.15691" lon="10.90046">
        <ele>298.25</ele>
        <time>2026-08-31T06:19:01.4010000+00:00</time>
      </trkpt>
      <trkpt lat="52.15709" lon="10.9003">
        <ele>297.68</ele>
        <time>2026-08-31T06:19:09.2050000+00:00</time>
      </trkpt>
      <trkpt lat="52.15763" lon="10.89988">
        <ele>295.31</ele>
        <time>2026-08-31T06:19:31.9810000+00:00</time>
      </trkpt>
      <trkpt lat="52.15781" lon="10.89966">
        <ele>294.19</ele>
        <time>2026-08-31T06:19:40.5460000+00:00</time>
      </trkpt>
      <trkpt lat="52.15783" lon="10.89966">
        <ele>294.15</ele>
        <time>2026-08-31T06:19:41.3060000+00:00</time>
      </trkpt>
      <trkpt lat="52.15783" lon="10.89965">
        <ele>294.12</ele>
        <time>2026-08-31T06:19:41.5390000+00:00</time>
      </trkpt>
      <trkpt lat="52.15789" lon="10.90011">
        <ele>295.09</ele>
        <time>2026-08-31T06:19:52.5210000+00:00</time>
      </trkpt>
      <trkpt lat="52.15805" lon="10.90068">
        <ele>293.5</ele>
        <time>2026-08-31T06:20:07.1600000+00:00</time>
      </trkpt>
      <trkpt lat="52.15818" lon="10.90138">
        <ele>292.14</ele>
        <time>2026-08-31T06:20:24.2400000+00:00</time>
      </trkpt>
      <trkpt lat="52.15828" lon="10.90188">
        <ele>292.38</ele>
        <time>2026-08-31T06:20:36.5210000+00:00</time>
      </trkpt>
      <trkpt lat="52.15834" lon="10.90223">
        <ele>293.13</ele>
        <time>2026-08-31T06:20:45.0080000+00:00</time>
      </trkpt>
      <trkpt lat="52.15846" lon="10.90244">
        <ele>293.46</ele>
        <time>2026-08-31T06:20:51.7100000+00:00</time>
      </trkpt>
      <trkpt lat="52.1585" lon="10.90258">
        <ele>293.64</ele>
        <time>2026-08-31T06:20:55.3170000+00:00</time>
      </trkpt>
      <trkpt lat="52.1585" lon="10.90295">
        <ele>294.21</ele>
        <time>2026-08-31T06:21:03.9570000+00:00</time>
      </trkpt>
      <trkpt lat="52.15854" lon="10.90323">
        <ele>294.52</ele>
        <time>2026-08-31T06:21:10.6710000+00:00</time>
      </trkpt>
      <trkpt lat="52.15865" lon="10.90364">
        <ele>294.22</ele>
        <time>2026-08-31T06:21:21.1210000+00:00</time>
      </trkpt>
      <trkpt lat="52.15865" lon="10.90383">
        <ele>294.08</ele>
        <time>2026-08-31T06:21:25.5580000+00:00</time>
      </trkpt>
      <trkpt lat="52.1585" lon="10.90393">
        <ele>294.88</ele>
        <time>2026-08-31T06:21:31.7270000+00:00</time>
      </trkpt>
      <trkpt lat="52.15842" lon="10.90397">
        <ele>295.35</ele>
        <time>2026-08-31T06:21:34.9130000+00:00</time>
      </trkpt>
      <trkpt lat="52.15846" lon="10.90437">
        <ele>294.99</ele>
        <time>2026-08-31T06:21:44.3770000+00:00</time>
      </trkpt>
      <trkpt lat="52.15856" lon="10.90484">
        <ele>293.7</ele>
        <time>2026-08-31T06:21:55.9940000+00:00</time>
      </trkpt>
      <trkpt lat="52.1586" lon="10.9055">
        <ele>292.86</ele>
        <time>2026-08-31T06:22:11.4820000+00:00</time>
      </trkpt>
      <trkpt lat="52.15862" lon="10.90592">
        <ele>292.48</ele>
        <time>2026-08-31T06:22:21.3200000+00:00</time>
      </trkpt>
      <trkpt lat="52.15843" lon="10.90636">
        <ele>293.09</ele>
        <time>2026-08-31T06:22:33.8860000+00:00</time>
      </trkpt>
      <trkpt lat="52.15819" lon="10.90673">
        <ele>294.06</ele>
        <time>2026-08-31T06:22:46.4600000+00:00</time>
      </trkpt>
      <trkpt lat="52.1578" lon="10.90731">
        <ele>295.45</ele>
        <time>2026-08-31T06:23:06.5570000+00:00</time>
      </trkpt>
      <trkpt lat="52.15745" lon="10.90784">
        <ele>296.36</ele>
        <time>2026-08-31T06:23:24.7420000+00:00</time>
      </trkpt>
      <trkpt lat="52.15712" lon="10.90834">
        <ele>294.64</ele>
        <time>2026-08-31T06:23:41.8930000+00:00</time>
      </trkpt>
      <trkpt lat="52.15672" lon="10.90893">
        <ele>289.6</ele>
        <time>2026-08-31T06:24:02.4280000+00:00</time>
      </trkpt>
      <trkpt lat="52.15641" lon="10.90929">
        <ele>286.32</ele>
        <time>2026-08-31T06:24:16.9180000+00:00</time>
      </trkpt>
      <trkpt lat="52.15628" lon="10.90925">
        <ele>285.76</ele>
        <time>2026-08-31T06:24:21.9540000+00:00</time>
      </trkpt>
      <trkpt lat="52.15626" lon="10.90926">
        <ele>285.67</ele>
        <time>2026-08-31T06:24:22.7500000+00:00</time>
      </trkpt>
      <trkpt lat="52.15622" lon="10.90927">
        <ele>285.48</ele>
        <time>2026-08-31T06:24:24.2910000+00:00</time>
      </trkpt>
      <trkpt lat="52.15623" lon="10.90931">
        <ele>285.52</ele>
        <time>2026-08-31T06:24:25.2990000+00:00</time>
      </trkpt>
      <trkpt lat="52.15624" lon="10.90928">
        <ele>285.57</ele>
        <time>2026-08-31T06:24:26.0960000+00:00</time>
      </trkpt>
      <trkpt lat="52.15621" lon="10.90924">
        <ele>285.44</ele>
        <time>2026-08-31T06:24:27.5720000+00:00</time>
      </trkpt>
      <trkpt lat="52.15606" lon="10.90915">
        <ele>285.09</ele>
        <time>2026-08-31T06:24:33.6560000+00:00</time>
      </trkpt>
      <trkpt lat="52.15604" lon="10.90915">
        <ele>284.99</ele>
        <time>2026-08-31T06:24:34.4170000+00:00</time>
      </trkpt>
      <trkpt lat="52.15578" lon="10.90909">
        <ele>283.93</ele>
        <time>2026-08-31T06:24:44.4130000+00:00</time>
      </trkpt>
      <trkpt lat="52.15525" lon="10.909">
        <ele>285.51</ele>
        <time>2026-08-31T06:25:04.6970000+00:00</time>
      </trkpt>
      <trkpt lat="52.15467" lon="10.90914">
        <ele>288.6</ele>
        <time>2026-08-31T06:25:27.0170000+00:00</time>
      </trkpt>
      <trkpt lat="52.15426" lon="10.9093">
        <ele>292.51</ele>
        <time>2026-08-31T06:25:43.0650000+00:00</time>
      </trkpt>
      <trkpt lat="52.15388" lon="10.90946">
        <ele>295.07</ele>
        <time>2026-08-31T06:25:58.0050000+00:00</time>
      </trkpt>
      <trkpt lat="52.1534" lon="10.90965">
        <ele>296.61</ele>
        <time>2026-08-31T06:26:16.8080000+00:00</time>
      </trkpt>
      <trkpt lat="52.15288" lon="10.90986">
        <ele>295.9</ele>
        <time>2026-08-31T06:26:37.2010000+00:00</time>
      </trkpt>
      <trkpt lat="52.15233" lon="10.91008">
        <ele>293.99</ele>
        <time>2026-08-31T06:26:58.7590000+00:00</time>
      </trkpt>
      <trkpt lat="52.15172" lon="10.91033">
        <ele>293.39</ele>
        <time>2026-08-31T06:27:22.7020000+00:00</time>
      </trkpt>
      <trkpt lat="52.15152" lon="10.91047">
        <ele>293.08</ele>
        <time>2026-08-31T06:27:30.9880000+00:00</time>
      </trkpt>
      <trkpt lat="52.15109" lon="10.91078">
        <ele>292.47</ele>
        <time>2026-08-31T06:27:48.8870000+00:00</time>
      </trkpt>
      <trkpt lat="52.15079" lon="10.91097">
        <ele>292.07</ele>
        <time>2026-08-31T06:28:01.1390000+00:00</time>
      </trkpt>
      <trkpt lat="52.15062" lon="10.91113">
        <ele>292.39</ele>
        <time>2026-08-31T06:28:08.6110000+00:00</time>
      </trkpt>
      <trkpt lat="52.14991" lon="10.91154">
        <ele>292.49</ele>
        <time>2026-08-31T06:28:37.2850000+00:00</time>
      </trkpt>
      <trkpt lat="52.14915" lon="10.91224">
        <ele>292.62</ele>
        <time>2026-08-31T06:29:10.5160000+00:00</time>
      </trkpt>
      <trkpt lat="52.14883" lon="10.91253">
        <ele>291.62</ele>
        <time>2026-08-31T06:29:24.4540000+00:00</time>
      </trkpt>
      <trkpt lat="52.14794" lon="10.91281">
        <ele>289.26</ele>
        <time>2026-08-31T06:29:58.9590000+00:00</time>
      </trkpt>
      <trkpt lat="52.14694" lon="10.91286">
        <ele>286.26</ele>
        <time>2026-08-31T06:30:37.0430000+00:00</time>
      </trkpt>
      <trkpt lat="52.1466" lon="10.91288">
        <ele>285.18</ele>
        <time>2026-08-31T06:30:49.9940000+00:00</time>
      </trkpt>
      <trkpt lat="52.14633" lon="10.91298">
        <ele>284.61</ele>
        <time>2026-08-31T06:31:00.5340000+00:00</time>
      </trkpt>
      <trkpt lat="52.14538" lon="10.91368">
        <ele>281.74</ele>
        <time>2026-08-31T06:31:40.2220000+00:00</time>
      </trkpt>
      <trkpt lat="52.14471" lon="10.91417">
        <ele>278.32</ele>
        <time>2026-08-31T06:32:08.1770000+00:00</time>
      </trkpt>
      <trkpt lat="52.14462" lon="10.91428">
        <ele>278.17</ele>
        <time>2026-08-31T06:32:12.4600000+00:00</time>
      </trkpt>
      <trkpt lat="52.14462" lon="10.91461">
        <ele>278.96</ele>
        <time>2026-08-31T06:32:20.1690000+00:00</time>
      </trkpt>
      <trkpt lat="52.1446" lon="10.91548">
        <ele>280.32</ele>
        <time>2026-08-31T06:32:40.5070000+00:00</time>
      </trkpt>
      <trkpt lat="52.1446" lon="10.91623">
        <ele>280.4</ele>
        <time>2026-08-31T06:32:58.0270000+00:00</time>
      </trkpt>
      <trkpt lat="52.14438" lon="10.91662">
        <ele>280.06</ele>
        <time>2026-08-31T06:33:10.4010000+00:00</time>
      </trkpt>
      <trkpt lat="52.14438" lon="10.91672">
        <ele>280.01</ele>
        <time>2026-08-31T06:33:12.7370000+00:00</time>
      </trkpt>
      <trkpt lat="52.14438" lon="10.91681">
        <ele>279.98</ele>
        <time>2026-08-31T06:33:14.8400000+00:00</time>
      </trkpt>
      <trkpt lat="52.1445" lon="10.91702">
        <ele>280.03</ele>
        <time>2026-08-31T06:33:21.5430000+00:00</time>
      </trkpt>
      <trkpt lat="52.14443" lon="10.91738">
        <ele>279.94</ele>
        <time>2026-08-31T06:33:30.3640000+00:00</time>
      </trkpt>
      <trkpt lat="52.14404" lon="10.91785">
        <ele>278.63</ele>
        <time>2026-08-31T06:33:48.8290000+00:00</time>
      </trkpt>
      <trkpt lat="52.14386" lon="10.9181">
        <ele>277.32</ele>
        <time>2026-08-31T06:33:57.8320000+00:00</time>
      </trkpt>
      <trkpt lat="52.14369" lon="10.91851">
        <ele>275.86</ele>
        <time>2026-08-31T06:34:09.3910000+00:00</time>
      </trkpt>
      <trkpt lat="52.14371" lon="10.91891">
        <ele>275.98</ele>
        <time>2026-08-31T06:34:18.7670000+00:00</time>
      </trkpt>
      <trkpt lat="52.14375" lon="10.91893">
        <ele>276.22</ele>
        <time>2026-08-31T06:34:20.3600000+00:00</time>
      </trkpt>
      <trkpt lat="52.14382" lon="10.91894">
        <ele>276.64</ele>
        <time>2026-08-31T06:34:23.0340000+00:00</time>
      </trkpt>
      <trkpt lat="52.14397" lon="10.9191">
        <ele>277.54</ele>
        <time>2026-08-31T06:34:29.8590000+00:00</time>
      </trkpt>
      <trkpt lat="52.14408" lon="10.91909">
        <ele>278.13</ele>
        <time>2026-08-31T06:34:34.0530000+00:00</time>
      </trkpt>
      <trkpt lat="52.14417" lon="10.91928">
        <ele>278.44</ele>
        <time>2026-08-31T06:34:39.6600000+00:00</time>
      </trkpt>
      <trkpt lat="52.14417" lon="10.91929">
        <ele>278.43</ele>
        <time>2026-08-31T06:34:39.8920000+00:00</time>
      </trkpt>
      <trkpt lat="52.1442" lon="10.91936">
        <ele>278.52</ele>
        <time>2026-08-31T06:34:41.8860000+00:00</time>
      </trkpt>
      <trkpt lat="52.14428" lon="10.91946">
        <ele>278.76</ele>
        <time>2026-08-31T06:34:45.7240000+00:00</time>
      </trkpt>
      <trkpt lat="52.14433" lon="10.91975">
        <ele>278.81</ele>
        <time>2026-08-31T06:34:52.7610000+00:00</time>
      </trkpt>
      <trkpt lat="52.14437" lon="10.91997">
        <ele>278.82</ele>
        <time>2026-08-31T06:34:58.1210000+00:00</time>
      </trkpt>
      <trkpt lat="52.14441" lon="10.92032">
        <ele>278.97</ele>
        <time>2026-08-31T06:35:06.4380000+00:00</time>
      </trkpt>
      <trkpt lat="52.14434" lon="10.92044">
        <ele>278.73</ele>
        <time>2026-08-31T06:35:10.3060000+00:00</time>
      </trkpt>
      <trkpt lat="52.14403" lon="10.92052">
        <ele>277.34</ele>
        <time>2026-08-31T06:35:22.2530000+00:00</time>
      </trkpt>
      <trkpt lat="52.14383" lon="10.92059">
        <ele>275.81</ele>
        <time>2026-08-31T06:35:30.0400000+00:00</time>
      </trkpt>
      <trkpt lat="52.14374" lon="10.92103">
        <ele>274.73</ele>
        <time>2026-08-31T06:35:40.8750000+00:00</time>
      </trkpt>
      <trkpt lat="52.14371" lon="10.92155">
        <ele>274.26</ele>
        <time>2026-08-31T06:35:53.0760000+00:00</time>
      </trkpt>
      <trkpt lat="52.1437" lon="10.922">
        <ele>273.9</ele>
        <time>2026-08-31T06:36:03.5950000+00:00</time>
      </trkpt>
      <trkpt lat="52.14375" lon="10.92284">
        <ele>273.86</ele>
        <time>2026-08-31T06:36:23.3100000+00:00</time>
      </trkpt>
      <trkpt lat="52.14374" lon="10.92314">
        <ele>273.79</ele>
        <time>2026-08-31T06:36:30.3290000+00:00</time>
      </trkpt>
      <trkpt lat="52.14361" lon="10.92398">
        <ele>272.19</ele>
        <time>2026-08-31T06:36:50.5660000+00:00</time>
      </trkpt>
      <trkpt lat="52.14359" lon="10.92424">
        <ele>271.8</ele>
        <time>2026-08-31T06:36:56.6880000+00:00</time>
      </trkpt>
      <trkpt lat="52.14353" lon="10.92484">
        <ele>271.06</ele>
        <time>2026-08-31T06:37:10.8890000+00:00</time>
      </trkpt>
      <trkpt lat="52.14348" lon="10.92566">
        <ele>270.14</ele>
        <time>2026-08-31T06:37:30.1390000+00:00</time>
      </trkpt>
      <trkpt lat="52.14335" lon="10.92583">
        <ele>269.52</ele>
        <time>2026-08-31T06:37:36.4840000+00:00</time>
      </trkpt>
      <trkpt lat="52.14316" lon="10.92596">
        <ele>269.09</ele>
        <time>2026-08-31T06:37:44.3290000+00:00</time>
      </trkpt>
      <trkpt lat="52.14284" lon="10.92612">
        <ele>269.09</ele>
        <time>2026-08-31T06:37:57.0700000+00:00</time>
      </trkpt>
      <trkpt lat="52.14248" lon="10.92634">
        <ele>269.19</ele>
        <time>2026-08-31T06:38:11.7060000+00:00</time>
      </trkpt>
      <trkpt lat="52.1423" lon="10.92652">
        <ele>269.01</ele>
        <time>2026-08-31T06:38:19.7460000+00:00</time>
      </trkpt>
      <trkpt lat="52.14224" lon="10.92672">
        <ele>269.13</ele>
        <time>2026-08-31T06:38:24.9470000+00:00</time>
      </trkpt>
      <trkpt lat="52.14215" lon="10.92703">
        <ele>268.25</ele>
        <time>2026-08-31T06:38:32.9580000+00:00</time>
      </trkpt>
      <trkpt lat="52.14203" lon="10.92733">
        <ele>267.17</ele>
        <time>2026-08-31T06:38:41.3240000+00:00</time>
      </trkpt>
      <trkpt lat="52.14206" lon="10.92786">
        <ele>266.43</ele>
        <time>2026-08-31T06:38:53.7580000+00:00</time>
      </trkpt>
      <trkpt lat="52.14212" lon="10.92816">
        <ele>266.26</ele>
        <time>2026-08-31T06:39:01.1290000+00:00</time>
      </trkpt>
      <trkpt lat="52.14217" lon="10.92846">
        <ele>266</ele>
        <time>2026-08-31T06:39:08.3920000+00:00</time>
      </trkpt>
      <trkpt lat="52.14218" lon="10.92861">
        <ele>265.59</ele>
        <time>2026-08-31T06:39:11.9160000+00:00</time>
      </trkpt>
      <trkpt lat="52.14204" lon="10.92892">
        <ele>263.49</ele>
        <time>2026-08-31T06:39:20.9080000+00:00</time>
      </trkpt>
      <trkpt lat="52.14184" lon="10.9293">
        <ele>260.89</ele>
        <time>2026-08-31T06:39:32.6030000+00:00</time>
      </trkpt>
      <trkpt lat="52.14174" lon="10.92943">
        <ele>259.83</ele>
        <time>2026-08-31T06:39:37.4730000+00:00</time>
      </trkpt>
      <trkpt lat="52.14159" lon="10.92961">
        <ele>258.35</ele>
        <time>2026-08-31T06:39:44.5640000+00:00</time>
      </trkpt>
      <trkpt lat="52.1415" lon="10.92996">
        <ele>256.72</ele>
        <time>2026-08-31T06:39:53.4290000+00:00</time>
      </trkpt>
      <trkpt lat="52.14153" lon="10.93075">
        <ele>255.95</ele>
        <time>2026-08-31T06:40:11.9210000+00:00</time>
      </trkpt>
      <trkpt lat="52.14146" lon="10.93106">
        <ele>254.91</ele>
        <time>2026-08-31T06:40:19.6370000+00:00</time>
      </trkpt>
      <trkpt lat="52.14138" lon="10.93132">
        <ele>253.87</ele>
        <time>2026-08-31T06:40:26.4320000+00:00</time>
      </trkpt>
      <trkpt lat="52.14135" lon="10.93213">
        <ele>251.15</ele>
        <time>2026-08-31T06:40:45.3900000+00:00</time>
      </trkpt>
      <trkpt lat="52.14132" lon="10.93274">
        <ele>247.77</ele>
        <time>2026-08-31T06:40:59.6860000+00:00</time>
      </trkpt>
      <trkpt lat="52.14133" lon="10.93325">
        <ele>245.4</ele>
        <time>2026-08-31T06:41:11.6070000+00:00</time>
      </trkpt>
      <trkpt lat="52.14145" lon="10.93333">
        <ele>245.2</ele>
        <time>2026-08-31T06:41:16.5420000+00:00</time>
      </trkpt>
      <trkpt lat="52.14173" lon="10.93333">
        <ele>246.68</ele>
        <time>2026-08-31T06:41:27.2010000+00:00</time>
      </trkpt>
      <trkpt lat="52.14205" lon="10.93331">
        <ele>249.14</ele>
        <time>2026-08-31T06:41:39.3910000+00:00</time>
      </trkpt>
      <trkpt lat="52.14242" lon="10.9333">
        <ele>251.77</ele>
        <time>2026-08-31T06:41:53.4780000+00:00</time>
      </trkpt>
      <trkpt lat="52.14277" lon="10.93334">
        <ele>252.7</ele>
        <time>2026-08-31T06:42:06.8340000+00:00</time>
      </trkpt>
      <trkpt lat="52.14301" lon="10.93337">
        <ele>253.37</ele>
        <time>2026-08-31T06:42:15.9960000+00:00</time>
      </trkpt>
      <trkpt lat="52.14368" lon="10.93347">
        <ele>252.95</ele>
        <time>2026-08-31T06:42:41.6080000+00:00</time>
      </trkpt>
      <trkpt lat="52.14372" lon="10.93347">
        <ele>252.9</ele>
        <time>2026-08-31T06:42:43.1300000+00:00</time>
      </trkpt>
      <trkpt lat="52.14388" lon="10.9335">
        <ele>252.53</ele>
        <time>2026-08-31T06:42:49.2610000+00:00</time>
      </trkpt>
      <trkpt lat="52.14421" lon="10.9335">
        <ele>252.89</ele>
        <time>2026-08-31T06:43:01.8230000+00:00</time>
      </trkpt>
      <trkpt lat="52.14457" lon="10.93316">
        <ele>256.33</ele>
        <time>2026-08-31T06:43:17.6620000+00:00</time>
      </trkpt>
      <trkpt lat="52.14478" lon="10.93291">
        <ele>258.96</ele>
        <time>2026-08-31T06:43:27.5620000+00:00</time>
      </trkpt>
      <trkpt lat="52.1449" lon="10.93299">
        <ele>258.99</ele>
        <time>2026-08-31T06:43:32.4980000+00:00</time>
      </trkpt>
      <trkpt lat="52.14495" lon="10.93329">
        <ele>257.26</ele>
        <time>2026-08-31T06:43:39.7590000+00:00</time>
      </trkpt>
      <trkpt lat="52.14513" lon="10.93344">
        <ele>257.68</ele>
        <time>2026-08-31T06:43:47.4550000+00:00</time>
      </trkpt>
      <trkpt lat="52.14544" lon="10.93349">
        <ele>259.74</ele>
        <time>2026-08-31T06:43:59.3130000+00:00</time>
      </trkpt>
      <trkpt lat="52.1455" lon="10.9335">
        <ele>260.12</ele>
        <time>2026-08-31T06:44:01.6090000+00:00</time>
      </trkpt>
      <trkpt lat="52.14584" lon="10.93369">
        <ele>260.3</ele>
        <time>2026-08-31T06:44:15.2920000+00:00</time>
      </trkpt>
      <trkpt lat="52.1461" lon="10.93389">
        <ele>259.17</ele>
        <time>2026-08-31T06:44:26.2360000+00:00</time>
      </trkpt>
      <trkpt lat="52.14629" lon="10.93406">
        <ele>257.96</ele>
        <time>2026-08-31T06:44:34.4870000+00:00</time>
      </trkpt>
      <trkpt lat="52.14668" lon="10.93422">
        <ele>257.67</ele>
        <time>2026-08-31T06:44:49.7960000+00:00</time>
      </trkpt>
      <trkpt lat="52.1471" lon="10.93447">
        <ele>256.98</ele>
        <time>2026-08-31T06:45:06.8170000+00:00</time>
      </trkpt>
      <trkpt lat="52.14742" lon="10.93464">
        <ele>256.39</ele>
        <time>2026-08-31T06:45:19.6300000+00:00</time>
      </trkpt>
      <trkpt lat="52.14768" lon="10.93484">
        <ele>256.83</ele>
        <time>2026-08-31T06:45:30.5740000+00:00</time>
      </trkpt>
      <trkpt lat="52.14796" lon="10.93511">
        <ele>257.7</ele>
        <time>2026-08-31T06:45:42.9590000+00:00</time>
      </trkpt>
      <trkpt lat="52.14822" lon="10.9353">
        <ele>259.58</ele>
        <time>2026-08-31T06:45:53.8060000+00:00</time>
      </trkpt>
      <trkpt lat="52.14836" lon="10.93569">
        <ele>258.04</ele>
        <time>2026-08-31T06:46:04.3600000+00:00</time>
      </trkpt>
      <trkpt lat="52.1484" lon="10.93585">
        <ele>257.35</ele>
        <time>2026-08-31T06:46:08.3950000+00:00</time>
      </trkpt>
      <trkpt lat="52.14839" lon="10.93592">
        <ele>256.92</ele>
        <time>2026-08-31T06:46:10.0740000+00:00</time>
      </trkpt>
      <trkpt lat="52.14837" lon="10.93608">
        <ele>256.03</ele>
        <time>2026-08-31T06:46:13.8880000+00:00</time>
      </trkpt>
      <trkpt lat="52.14833" lon="10.93624">
        <ele>255.02</ele>
        <time>2026-08-31T06:46:17.9240000+00:00</time>
      </trkpt>
      <trkpt lat="52.1482" lon="10.9368">
        <ele>251.34</ele>
        <time>2026-08-31T06:46:31.9090000+00:00</time>
      </trkpt>
      <trkpt lat="52.14814" lon="10.937">
        <ele>249.45</ele>
        <time>2026-08-31T06:46:37.1090000+00:00</time>
      </trkpt>
      <trkpt lat="52.1481" lon="10.93721">
        <ele>247.7</ele>
        <time>2026-08-31T06:46:42.2450000+00:00</time>
      </trkpt>
      <trkpt lat="52.14809" lon="10.93732">
        <ele>246.87</ele>
        <time>2026-08-31T06:46:44.8430000+00:00</time>
      </trkpt>
      <trkpt lat="52.14806" lon="10.93746">
        <ele>245.72</ele>
        <time>2026-08-31T06:46:48.3070000+00:00</time>
      </trkpt>
      <trkpt lat="52.14803" lon="10.9376">
        <ele>244.62</ele>
        <time>2026-08-31T06:46:51.7710000+00:00</time>
      </trkpt>
      <trkpt lat="52.14809" lon="10.93772">
        <ele>244.24</ele>
        <time>2026-08-31T06:46:55.3860000+00:00</time>
      </trkpt>
      <trkpt lat="52.14832" lon="10.93825">
        <ele>243.07</ele>
        <time>2026-08-31T06:47:10.5490000+00:00</time>
      </trkpt>
      <trkpt lat="52.14835" lon="10.93834">
        <ele>242.92</ele>
        <time>2026-08-31T06:47:12.9420000+00:00</time>
      </trkpt>
      <trkpt lat="52.14844" lon="10.93861">
        <ele>244.31</ele>
        <time>2026-08-31T06:47:20.1190000+00:00</time>
      </trkpt>
      <trkpt lat="52.14854" lon="10.93888">
        <ele>246.16</ele>
        <time>2026-08-31T06:47:27.4850000+00:00</time>
      </trkpt>
      <trkpt lat="52.14865" lon="10.93925">
        <ele>248.3</ele>
        <time>2026-08-31T06:47:37.0890000+00:00</time>
      </trkpt>
      <trkpt lat="52.14862" lon="10.9395">
        <ele>248.1</ele>
        <time>2026-08-31T06:47:43.0390000+00:00</time>
      </trkpt>
      <trkpt lat="52.14859" lon="10.9396">
        <ele>247.86</ele>
        <time>2026-08-31T06:47:45.6390000+00:00</time>
      </trkpt>
      <trkpt lat="52.14853" lon="10.9398">
        <ele>247.44</ele>
        <time>2026-08-31T06:47:50.8390000+00:00</time>
      </trkpt>
      <trkpt lat="52.14839" lon="10.94009">
        <ele>246.35</ele>
        <time>2026-08-31T06:47:59.4580000+00:00</time>
      </trkpt>
      <trkpt lat="52.14821" lon="10.94059">
        <ele>243.06</ele>
        <time>2026-08-31T06:48:12.9990000+00:00</time>
      </trkpt>
      <trkpt lat="52.14805" lon="10.94103">
        <ele>239.54</ele>
        <time>2026-08-31T06:48:24.9460000+00:00</time>
      </trkpt>
      <trkpt lat="52.14784" lon="10.94151">
        <ele>235.26</ele>
        <time>2026-08-31T06:48:38.7160000+00:00</time>
      </trkpt>
      <trkpt lat="52.14767" lon="10.94171">
        <ele>233.43</ele>
        <time>2026-08-31T06:48:46.6970000+00:00</time>
      </trkpt>
      <trkpt lat="52.14744" lon="10.94238">
        <ele>230.71</ele>
        <time>2026-08-31T06:49:04.6300000+00:00</time>
      </trkpt>
      <trkpt lat="52.14736" lon="10.94268">
        <ele>229.62</ele>
        <time>2026-08-31T06:49:12.2710000+00:00</time>
      </trkpt>
      <trkpt lat="52.14725" lon="10.94313">
        <ele>228.04</ele>
        <time>2026-08-31T06:49:23.5850000+00:00</time>
      </trkpt>
      <trkpt lat="52.14723" lon="10.94332">
        <ele>227.45</ele>
        <time>2026-08-31T06:49:28.0890000+00:00</time>
      </trkpt>
      <trkpt lat="52.14718" lon="10.94355">
        <ele>226.55</ele>
        <time>2026-08-31T06:49:33.7880000+00:00</time>
      </trkpt>
      <trkpt lat="52.14715" lon="10.94389">
        <ele>225.35</ele>
        <time>2026-08-31T06:49:41.8120000+00:00</time>
      </trkpt>
      <trkpt lat="52.14715" lon="10.94414">
        <ele>224.59</ele>
        <time>2026-08-31T06:49:47.6520000+00:00</time>
      </trkpt>
      <trkpt lat="52.1472" lon="10.94458">
        <ele>222.96</ele>
        <time>2026-08-31T06:49:58.1050000+00:00</time>
      </trkpt>
      <trkpt lat="52.14727" lon="10.94483">
        <ele>222.26</ele>
        <time>2026-08-31T06:50:04.5240000+00:00</time>
      </trkpt>
      <trkpt lat="52.14736" lon="10.94506">
        <ele>221.82</ele>
        <time>2026-08-31T06:50:10.8950000+00:00</time>
      </trkpt>
      <trkpt lat="52.1474" lon="10.94539">
        <ele>220.73</ele>
        <time>2026-08-31T06:50:18.7530000+00:00</time>
      </trkpt>
      <trkpt lat="52.1475" lon="10.94593">
        <ele>218.55</ele>
        <time>2026-08-31T06:50:31.9280000+00:00</time>
      </trkpt>
      <trkpt lat="52.14749" lon="10.94701">
        <ele>212.56</ele>
        <time>2026-08-31T06:50:57.1590000+00:00</time>
      </trkpt>
      <trkpt lat="52.14749" lon="10.94735">
        <ele>210.93</ele>
        <time>2026-08-31T06:51:05.1010000+00:00</time>
      </trkpt>
      <trkpt lat="52.14756" lon="10.94776">
        <ele>208.85</ele>
        <time>2026-08-31T06:51:15.0420000+00:00</time>
      </trkpt>
      <trkpt lat="52.14756" lon="10.9483">
        <ele>205.97</ele>
        <time>2026-08-31T06:51:27.6550000+00:00</time>
      </trkpt>
      <trkpt lat="52.14755" lon="10.94842">
        <ele>205.14</ele>
        <time>2026-08-31T06:51:30.4840000+00:00</time>
      </trkpt>
      <trkpt lat="52.14754" lon="10.94857">
        <ele>203.66</ele>
        <time>2026-08-31T06:51:34.0080000+00:00</time>
      </trkpt>
      <trkpt lat="52.14754" lon="10.949">
        <ele>199.32</ele>
        <time>2026-08-31T06:51:44.0530000+00:00</time>
      </trkpt>
      <trkpt lat="52.14747" lon="10.94942">
        <ele>195.56</ele>
        <time>2026-08-31T06:51:54.2190000+00:00</time>
      </trkpt>
      <trkpt lat="52.14723" lon="10.95018">
        <ele>189.8</ele>
        <time>2026-08-31T06:52:14.1840000+00:00</time>
      </trkpt>
      <trkpt lat="52.14712" lon="10.95041">
        <ele>189.02</ele>
        <time>2026-08-31T06:52:20.9960000+00:00</time>
      </trkpt>
      <trkpt lat="52.14685" lon="10.95051">
        <ele>188.87</ele>
        <time>2026-08-31T06:52:31.5360000+00:00</time>
      </trkpt>
      <trkpt lat="52.14628" lon="10.95061">
        <ele>189.52</ele>
        <time>2026-08-31T06:52:53.3590000+00:00</time>
      </trkpt>
      <trkpt lat="52.14579" lon="10.95076">
        <ele>189.87</ele>
        <time>2026-08-31T06:53:12.3380000+00:00</time>
      </trkpt>
      <trkpt lat="52.14559" lon="10.95088">
        <ele>189.56</ele>
        <time>2026-08-31T06:53:20.4510000+00:00</time>
      </trkpt>
      <trkpt lat="52.1456" lon="10.95152">
        <ele>186.44</ele>
        <time>2026-08-31T06:53:35.4060000+00:00</time>
      </trkpt>
      <trkpt lat="52.14562" lon="10.95226">
        <ele>184.04</ele>
        <time>2026-08-31T06:53:52.7090000+00:00</time>
      </trkpt>
      <trkpt lat="52.14562" lon="10.95237">
        <ele>183.76</ele>
        <time>2026-08-31T06:53:55.2780000+00:00</time>
      </trkpt>
      <trkpt lat="52.14563" lon="10.95269">
        <ele>182.74</ele>
        <time>2026-08-31T06:54:02.7630000+00:00</time>
      </trkpt>
      <trkpt lat="52.14567" lon="10.95348">
        <ele>179.96</ele>
        <time>2026-08-31T06:54:21.2800000+00:00</time>
      </trkpt>
      <trkpt lat="52.14566" lon="10.95371">
        <ele>179.69</ele>
        <time>2026-08-31T06:54:26.6660000+00:00</time>
      </trkpt>
      <trkpt lat="52.14554" lon="10.95471">
        <ele>177.14</ele>
        <time>2026-08-31T06:54:50.4680000+00:00</time>
      </trkpt>
      <trkpt lat="52.14546" lon="10.95529">
        <ele>174.58</ele>
        <time>2026-08-31T06:55:04.3550000+00:00</time>
      </trkpt>
      <trkpt lat="52.14528" lon="10.95554">
        <ele>173.38</ele>
        <time>2026-08-31T06:55:13.3580000+00:00</time>
      </trkpt>
      <trkpt lat="52.14502" lon="10.95556">
        <ele>173.18</ele>
        <time>2026-08-31T06:55:23.2670000+00:00</time>
      </trkpt>
      <trkpt lat="52.14494" lon="10.95558">
        <ele>173.07</ele>
        <time>2026-08-31T06:55:26.3480000+00:00</time>
      </trkpt>
      <trkpt lat="52.14424" lon="10.95569">
        <ele>175.12</ele>
        <time>2026-08-31T06:55:53.1180000+00:00</time>
      </trkpt>
      <trkpt lat="52.14401" lon="10.95574">
        <ele>175.65</ele>
        <time>2026-08-31T06:56:01.9500000+00:00</time>
      </trkpt>
      <trkpt lat="52.14386" lon="10.9561">
        <ele>174.24</ele>
        <time>2026-08-31T06:56:12.1160000+00:00</time>
      </trkpt>
      <trkpt lat="52.14387" lon="10.9567">
        <ele>171.65</ele>
        <time>2026-08-31T06:56:26.1370000+00:00</time>
      </trkpt>
      <trkpt lat="52.14364" lon="10.95721">
        <ele>170.64</ele>
        <time>2026-08-31T06:56:40.9220000+00:00</time>
      </trkpt>
      <trkpt lat="52.14363" lon="10.95731">
        <ele>170.31</ele>
        <time>2026-08-31T06:56:43.2890000+00:00</time>
      </trkpt>
      <trkpt lat="52.14359" lon="10.95796">
        <ele>167.84</ele>
        <time>2026-08-31T06:56:58.5500000+00:00</time>
      </trkpt>
      <trkpt lat="52.14348" lon="10.95816">
        <ele>167.28</ele>
        <time>2026-08-31T06:57:04.8240000+00:00</time>
      </trkpt>
      <trkpt lat="52.14337" lon="10.95814">
        <ele>167.67</ele>
        <time>2026-08-31T06:57:09.0370000+00:00</time>
      </trkpt>
      <trkpt lat="52.14255" lon="10.9582">
        <ele>167.97</ele>
        <time>2026-08-31T06:57:40.2830000+00:00</time>
      </trkpt>
      <trkpt lat="52.14228" lon="10.95822">
        <ele>167.93</ele>
        <time>2026-08-31T06:57:50.5720000+00:00</time>
      </trkpt>
      <trkpt lat="52.14231" lon="10.95867">
        <ele>165.55</ele>
        <time>2026-08-31T06:58:01.1460000+00:00</time>
      </trkpt>
      <trkpt lat="52.14231" lon="10.95877">
        <ele>165.07</ele>
        <time>2026-08-31T06:58:03.4820000+00:00</time>
      </trkpt>
      <trkpt lat="52.14236" lon="10.9594">
        <ele>162.04</ele>
        <time>2026-08-31T06:58:18.3220000+00:00</time>
      </trkpt>
      <trkpt lat="52.14239" lon="10.95983">
        <ele>159.98</ele>
        <time>2026-08-31T06:58:28.4330000+00:00</time>
      </trkpt>
      <trkpt lat="52.1424" lon="10.9601">
        <ele>158.84</ele>
        <time>2026-08-31T06:58:34.7520000+00:00</time>
      </trkpt>
      <trkpt lat="52.14246" lon="10.96122">
        <ele>156.96</ele>
        <time>2026-08-31T06:59:01.0160000+00:00</time>
      </trkpt>
      <trkpt lat="52.14246" lon="10.96128">
        <ele>156.95</ele>
        <time>2026-08-31T06:59:02.4170000+00:00</time>
      </trkpt>
      <trkpt lat="52.14248" lon="10.96153">
        <ele>156.91</ele>
        <time>2026-08-31T06:59:08.3070000+00:00</time>
      </trkpt>
      <trkpt lat="52.14248" lon="10.96167">
        <ele>156.89</ele>
        <time>2026-08-31T06:59:11.5780000+00:00</time>
      </trkpt>
      <trkpt lat="52.14248" lon="10.96193">
        <ele>155.95</ele>
        <time>2026-08-31T06:59:17.6520000+00:00</time>
      </trkpt>
      <trkpt lat="52.14249" lon="10.96222">
        <ele>154.75</ele>
        <time>2026-08-31T06:59:24.4370000+00:00</time>
      </trkpt>
      <trkpt lat="52.1426" lon="10.96276">
        <ele>151.72</ele>
        <time>2026-08-31T06:59:37.7290000+00:00</time>
      </trkpt>
      <trkpt lat="52.14259" lon="10.96306">
        <ele>150.14</ele>
        <time>2026-08-31T06:59:44.7480000+00:00</time>
      </trkpt>
      <trkpt lat="52.14244" lon="10.96352">
        <ele>148.31</ele>
        <time>2026-08-31T06:59:56.9170000+00:00</time>
      </trkpt>
      <trkpt lat="52.14226" lon="10.96362">
        <ele>147.84</ele>
        <time>2026-08-31T07:00:04.1560000+00:00</time>
      </trkpt>
      <trkpt lat="52.14214" lon="10.96366">
        <ele>147.44</ele>
        <time>2026-08-31T07:00:08.8190000+00:00</time>
      </trkpt>
      <trkpt lat="52.1417" lon="10.96388">
        <ele>145.31</ele>
        <time>2026-08-31T07:00:26.3390000+00:00</time>
      </trkpt>
      <trkpt lat="52.1414" lon="10.96386">
        <ele>145.09</ele>
        <time>2026-08-31T07:00:37.7680000+00:00</time>
      </trkpt>
      <trkpt lat="52.14107" lon="10.96387">
        <ele>145.21</ele>
        <time>2026-08-31T07:00:50.3320000+00:00</time>
      </trkpt>
      <trkpt lat="52.14092" lon="10.96403">
        <ele>144.91</ele>
        <time>2026-08-31T07:00:57.1570000+00:00</time>
      </trkpt>
      <trkpt lat="52.1406" lon="10.96426">
        <ele>144.49</ele>
        <time>2026-08-31T07:01:10.4700000+00:00</time>
      </trkpt>
      <trkpt lat="52.14059" lon="10.96451">
        <ele>143.57</ele>
        <time>2026-08-31T07:01:16.3230000+00:00</time>
      </trkpt>
      <trkpt lat="52.14057" lon="10.96478">
        <ele>142.55</ele>
        <time>2026-08-31T07:01:22.6770000+00:00</time>
      </trkpt>
      <trkpt lat="52.14055" lon="10.96505">
        <ele>141.48</ele>
        <time>2026-08-31T07:01:29.0310000+00:00</time>
      </trkpt>
      <trkpt lat="52.14048" lon="10.96532">
        <ele>139.79</ele>
        <time>2026-08-31T07:01:35.8780000+00:00</time>
      </trkpt>
      <trkpt lat="52.14038" lon="10.96542">
        <ele>139.04</ele>
        <time>2026-08-31T07:01:40.3450000+00:00</time>
      </trkpt>
      <trkpt lat="52.13988" lon="10.96521">
        <ele>139.13</ele>
        <time>2026-08-31T07:02:00.0000000+00:00</time>
      </trkpt>
    </trkseg>
  </trk>
</gpx>